﻿<?xml version="1.0" encoding="utf-8"?><gpx creator="Garmin Desktop App" version="1.1" xsi:schemaLocation="http://www.topografix.com/GPX/1/1 http://www.topografix.com/GPX/1/1/gpx.xsd http://www.garmin.com/xmlschemas/WaypointExtension/v1 http://www8.garmin.com/xmlschemas/WaypointExtensionv1.xsd http://www.garmin.com/xmlschemas/TrackPointExtension/v1 http://www.garmin.com/xmlschemas/TrackPointExtensionv1.xsd http://www.garmin.com/xmlschemas/GpxExtensions/v3 http://www8.garmin.com/xmlschemas/GpxExtensionsv3.xsd http://www.garmin.com/xmlschemas/ActivityExtension/v1 http://www8.garmin.com/xmlschemas/ActivityExtensionv1.xsd http://www.garmin.com/xmlschemas/AdventuresExtensions/v1 http://www8.garmin.com/xmlschemas/AdventuresExtensionv1.xsd http://www.garmin.com/xmlschemas/PressureExtension/v1 http://www.garmin.com/xmlschemas/PressureExtensionv1.xsd http://www.garmin.com/xmlschemas/TripExtensions/v1 http://www.garmin.com/xmlschemas/TripExtensionsv1.xsd http://www.garmin.com/xmlschemas/TripMetaDataExtensions/v1 http://www.garmin.com/xmlschemas/TripMetaDataExtensionsv1.xsd http://www.garmin.com/xmlschemas/ViaPointTransportationModeExtensions/v1 http://www.garmin.com/xmlschemas/ViaPointTransportationModeExtensionsv1.xsd http://www.garmin.com/xmlschemas/CreationTimeExtension/v1 http://www.garmin.com/xmlschemas/CreationTimeExtensionsv1.xsd http://www.garmin.com/xmlschemas/AccelerationExtension/v1 http://www.garmin.com/xmlschemas/AccelerationExtensionv1.xsd http://www.garmin.com/xmlschemas/PowerExtension/v1 http://www.garmin.com/xmlschemas/PowerExtensionv1.xsd http://www.garmin.com/xmlschemas/VideoExtension/v1 http://www.garmin.com/xmlschemas/VideoExtensionv1.xsd" xmlns="http://www.topografix.com/GPX/1/1" xmlns:xsi="http://www.w3.org/2001/XMLSchema-instance" xmlns:wptx1="http://www.garmin.com/xmlschemas/WaypointExtension/v1" xmlns:gpxtrx="http://www.garmin.com/xmlschemas/GpxExtensions/v3" xmlns:gpxtpx="http://www.garmin.com/xmlschemas/TrackPointExtension/v1" xmlns:gpxx="http://www.garmin.com/xmlschemas/GpxExtensions/v3" xmlns:trp="http://www.garmin.com/xmlschemas/TripExtensions/v1" xmlns:adv="http://www.garmin.com/xmlschemas/AdventuresExtensions/v1" xmlns:prs="http://www.garmin.com/xmlschemas/PressureExtension/v1" xmlns:tmd="http://www.garmin.com/xmlschemas/TripMetaDataExtensions/v1" xmlns:vptm="http://www.garmin.com/xmlschemas/ViaPointTransportationModeExtensions/v1" xmlns:ctx="http://www.garmin.com/xmlschemas/CreationTimeExtension/v1" xmlns:gpxacc="http://www.garmin.com/xmlschemas/AccelerationExtension/v1" xmlns:gpxpx="http://www.garmin.com/xmlschemas/PowerExtension/v1" xmlns:vidx1="http://www.garmin.com/xmlschemas/VideoExtension/v1">

  <metadata>
    <link href="http://www.garmin.com">
      <text>Garmin International</text>
    </link>
    <time>2023-06-26T08:24:59Z</time>
    <bounds maxlat="46.433355649933219" maxlon="8.405406447127461" minlat="46.386429229751229" minlon="8.318646708503366" />
  </metadata>

  <trk>
    <name>punta d'arbola2023-06-25</name>
    <extensions>
      <gpxx:TrackExtension>
        <gpxx:DisplayColor>Yellow</gpxx:DisplayColor>
      </gpxx:TrackExtension>
      <gpxtrkx:TrackStatsExtension xmlns:gpxtrkx="http://www.garmin.com/xmlschemas/TrackStatsExtension/v1">
        <gpxtrkx:Distance>17993</gpxtrkx:Distance>
        <gpxtrkx:TotalElapsedTime>48632</gpxtrkx:TotalElapsedTime>
        <gpxtrkx:MovingTime>28368</gpxtrkx:MovingTime>
        <gpxtrkx:StoppedTime>20159</gpxtrkx:StoppedTime>
        <gpxtrkx:MovingSpeed>0.634</gpxtrkx:MovingSpeed>
        <gpxtrkx:MaxSpeed>10.563</gpxtrkx:MaxSpeed>
        <gpxtrkx:MaxElevation>3242.486</gpxtrkx:MaxElevation>
        <gpxtrkx:MinElevation>1835.701</gpxtrkx:MinElevation>
        <gpxtrkx:Ascent>1327</gpxtrkx:Ascent>
        <gpxtrkx:Descent>2084.183</gpxtrkx:Descent>
        <gpxtrkx:AvgAscentRate>0.049</gpxtrkx:AvgAscentRate>
        <gpxtrkx:MaxAscentRate>0.417</gpxtrkx:MaxAscentRate>
        <gpxtrkx:AvgDescentRate>0.07</gpxtrkx:AvgDescentRate>
        <gpxtrkx:MaxDescentRate>-0.677</gpxtrkx:MaxDescentRate>
      </gpxtrkx:TrackStatsExtension>
    </extensions>
    <trkseg>
      <trkpt lat="46.42061322927475" lon="8.352945791557431">
        <ele>2580.8299999999999</ele>
        <time>2023-06-25T02:59:42Z</time>
      </trkpt>
      <trkpt lat="46.420620353892446" lon="8.352945288643241">
        <ele>2581.1100000000001</ele>
        <time>2023-06-25T03:00:01Z</time>
      </trkpt>
      <trkpt lat="46.420637369155884" lon="8.35292860865593">
        <ele>2580.73</ele>
        <time>2023-06-25T03:00:21Z</time>
      </trkpt>
      <trkpt lat="46.420767875388265" lon="8.352858619764447">
        <ele>2580.71</ele>
        <time>2023-06-25T03:00:37Z</time>
      </trkpt>
      <trkpt lat="46.420901985839009" lon="8.352802293375135">
        <ele>2581.0799999999999</ele>
        <time>2023-06-25T03:00:52Z</time>
      </trkpt>
      <trkpt lat="46.420906679704785" lon="8.352796593680978">
        <ele>2581.1399999999999</ele>
        <time>2023-06-25T03:00:53Z</time>
      </trkpt>
      <trkpt lat="46.421013632789254" lon="8.35288611240685">
        <ele>2579.0900000000001</ele>
        <time>2023-06-25T03:01:08Z</time>
      </trkpt>
      <trkpt lat="46.421058140695095" lon="8.352988036349416">
        <ele>2579.27</ele>
        <time>2023-06-25T03:01:25Z</time>
      </trkpt>
      <trkpt lat="46.421078257262707" lon="8.353096749633551">
        <ele>2580.25</ele>
        <time>2023-06-25T03:01:41Z</time>
      </trkpt>
      <trkpt lat="46.421077083796263" lon="8.353189872577786">
        <ele>2582.1799999999998</ele>
        <time>2023-06-25T03:01:54Z</time>
      </trkpt>
      <trkpt lat="46.420985385775566" lon="8.353202445432544">
        <ele>2583.2399999999998</ele>
        <time>2023-06-25T03:02:10Z</time>
      </trkpt>
      <trkpt lat="46.420894777402282" lon="8.35325114428997">
        <ele>2585.0500000000002</ele>
        <time>2023-06-25T03:02:29Z</time>
      </trkpt>
      <trkpt lat="46.420855885371566" lon="8.353288527578116">
        <ele>2586.02</ele>
        <time>2023-06-25T03:02:43Z</time>
      </trkpt>
      <trkpt lat="46.420825123786926" lon="8.353320294991136">
        <ele>2587.21</ele>
        <time>2023-06-25T03:02:54Z</time>
      </trkpt>
      <trkpt lat="46.420807605609298" lon="8.353398833423853">
        <ele>2589.0100000000002</ele>
        <time>2023-06-25T03:03:07Z</time>
      </trkpt>
      <trkpt lat="46.420769467949867" lon="8.35350327193737">
        <ele>2592.7600000000002</ele>
        <time>2023-06-25T03:03:25Z</time>
      </trkpt>
      <trkpt lat="46.420761002227664" lon="8.353562699630857">
        <ele>2595.02</ele>
        <time>2023-06-25T03:03:37Z</time>
      </trkpt>
      <trkpt lat="46.420714231207967" lon="8.353613242506981">
        <ele>2596.0300000000002</ele>
        <time>2023-06-25T03:03:54Z</time>
      </trkpt>
      <trkpt lat="46.420665197074413" lon="8.353675520047545">
        <ele>2598.02</ele>
        <time>2023-06-25T03:04:09Z</time>
      </trkpt>
      <trkpt lat="46.420630076900125" lon="8.353765793144703">
        <ele>2600.1700000000001</ele>
        <time>2023-06-25T03:04:25Z</time>
      </trkpt>
      <trkpt lat="46.420584730803967" lon="8.353842655196786">
        <ele>2601.4099999999999</ele>
        <time>2023-06-25T03:04:41Z</time>
      </trkpt>
      <trkpt lat="46.420534858480096" lon="8.35388925857842">
        <ele>2603.3299999999999</ele>
        <time>2023-06-25T03:04:56Z</time>
      </trkpt>
      <trkpt lat="46.42048523761332" lon="8.353919181972742">
        <ele>2604.79</ele>
        <time>2023-06-25T03:05:10Z</time>
      </trkpt>
      <trkpt lat="46.420452380552888" lon="8.353986404836178">
        <ele>2606.79</ele>
        <time>2023-06-25T03:05:27Z</time>
      </trkpt>
      <trkpt lat="46.420415583997965" lon="8.354097213596106">
        <ele>2608.5500000000002</ele>
        <time>2023-06-25T03:05:41Z</time>
      </trkpt>
      <trkpt lat="46.420338470488787" lon="8.354201735928655">
        <ele>2611.6700000000001</ele>
        <time>2023-06-25T03:06:00Z</time>
      </trkpt>
      <trkpt lat="46.420279713347554" lon="8.354281699284911">
        <ele>2614.25</ele>
        <time>2023-06-25T03:06:15Z</time>
      </trkpt>
      <trkpt lat="46.420212322846055" lon="8.354370631277561">
        <ele>2615.48</ele>
        <time>2023-06-25T03:06:31Z</time>
      </trkpt>
      <trkpt lat="46.420187847688794" lon="8.354439362883568">
        <ele>2615.75</ele>
        <time>2023-06-25T03:06:40Z</time>
      </trkpt>
      <trkpt lat="46.420147279277444" lon="8.354585291817784">
        <ele>2617.6100000000001</ele>
        <time>2023-06-25T03:06:56Z</time>
      </trkpt>
      <trkpt lat="46.420107381418347" lon="8.354766005650163">
        <ele>2617.6199999999999</ele>
        <time>2023-06-25T03:07:12Z</time>
      </trkpt>
      <trkpt lat="46.42007963731885" lon="8.354786625131965">
        <ele>2617.73</ele>
        <time>2023-06-25T03:07:15Z</time>
      </trkpt>
      <trkpt lat="46.419906802475452" lon="8.3548279479146">
        <ele>2616.6100000000001</ele>
        <time>2023-06-25T03:07:33Z</time>
      </trkpt>
      <trkpt lat="46.419784007593989" lon="8.35480984300375">
        <ele>2617.9000000000001</ele>
        <time>2023-06-25T03:07:49Z</time>
      </trkpt>
      <trkpt lat="46.419675964862108" lon="8.354870025068522">
        <ele>2619.23</ele>
        <time>2023-06-25T03:08:06Z</time>
      </trkpt>
      <trkpt lat="46.41965844668448" lon="8.354901792481542">
        <ele>2618.9200000000001</ele>
        <time>2023-06-25T03:08:09Z</time>
      </trkpt>
      <trkpt lat="46.419553253799677" lon="8.355009416118264">
        <ele>2622.1999999999998</ele>
        <time>2023-06-25T03:08:26Z</time>
      </trkpt>
      <trkpt lat="46.419452670961618" lon="8.355037244036794">
        <ele>2623.77</ele>
        <time>2023-06-25T03:08:41Z</time>
      </trkpt>
      <trkpt lat="46.419377736747265" lon="8.355062054470182">
        <ele>2626.2399999999998</ele>
        <time>2023-06-25T03:08:55Z</time>
      </trkpt>
      <trkpt lat="46.419318225234747" lon="8.355109496042132">
        <ele>2628.1100000000001</ele>
        <time>2023-06-25T03:09:10Z</time>
      </trkpt>
      <trkpt lat="46.419268855825067" lon="8.355158613994718">
        <ele>2628.8600000000001</ele>
        <time>2023-06-25T03:09:24Z</time>
      </trkpt>
      <trkpt lat="46.419219318777323" lon="8.355218544602394">
        <ele>2627.6100000000001</ele>
        <time>2023-06-25T03:09:39Z</time>
      </trkpt>
      <trkpt lat="46.419155448675156" lon="8.355286186560988">
        <ele>2631.1500000000001</ele>
        <time>2023-06-25T03:09:56Z</time>
      </trkpt>
      <trkpt lat="46.41911949031055" lon="8.355413842946291">
        <ele>2633.6500000000001</ele>
        <time>2023-06-25T03:10:11Z</time>
      </trkpt>
      <trkpt lat="46.419088812544942" lon="8.355518449097872">
        <ele>2637.71</ele>
        <time>2023-06-25T03:10:28Z</time>
      </trkpt>
      <trkpt lat="46.41899929381907" lon="8.355567064136267">
        <ele>2640.0500000000002</ele>
        <time>2023-06-25T03:10:48Z</time>
      </trkpt>
      <trkpt lat="46.418932657688856" lon="8.355550887063146">
        <ele>2639.3099999999999</ele>
        <time>2023-06-25T03:11:05Z</time>
      </trkpt>
      <trkpt lat="46.418918995186687" lon="8.355534877628088">
        <ele>2638.7800000000002</ele>
        <time>2023-06-25T03:11:08Z</time>
      </trkpt>
      <trkpt lat="46.418835679069161" lon="8.355449549853802">
        <ele>2638.1700000000001</ele>
        <time>2023-06-25T03:11:25Z</time>
      </trkpt>
      <trkpt lat="46.418794775381684" lon="8.355395067483187">
        <ele>2639.0500000000002</ele>
        <time>2023-06-25T03:11:42Z</time>
      </trkpt>
      <trkpt lat="46.418769545853138" lon="8.355367742478848">
        <ele>2638.98</ele>
        <time>2023-06-25T03:11:45Z</time>
      </trkpt>
      <trkpt lat="46.418672148138285" lon="8.35528333671391">
        <ele>2638.9000000000001</ele>
        <time>2023-06-25T03:11:56Z</time>
      </trkpt>
      <trkpt lat="46.418609619140625" lon="8.355276212096214">
        <ele>2639.1900000000001</ele>
        <time>2023-06-25T03:12:12Z</time>
      </trkpt>
      <trkpt lat="46.418605847284198" lon="8.355275290086865">
        <ele>2637.5900000000001</ele>
        <time>2023-06-25T03:12:37Z</time>
      </trkpt>
      <trkpt lat="46.418622694909573" lon="8.355277385562658">
        <ele>2633.1999999999998</ele>
        <time>2023-06-25T03:13:10Z</time>
      </trkpt>
      <trkpt lat="46.418621353805065" lon="8.355271853506565">
        <ele>2632.79</ele>
        <time>2023-06-25T03:13:26Z</time>
      </trkpt>
      <trkpt lat="46.418622946366668" lon="8.355273697525263">
        <ele>2632.3299999999999</ele>
        <time>2023-06-25T03:13:50Z</time>
      </trkpt>
      <trkpt lat="46.418627053499222" lon="8.355271182954311">
        <ele>2633.2199999999998</ele>
        <time>2023-06-25T03:14:17Z</time>
      </trkpt>
      <trkpt lat="46.418621856719255" lon="8.35528283379972">
        <ele>2633.0700000000002</ele>
        <time>2023-06-25T03:14:36Z</time>
      </trkpt>
      <trkpt lat="46.41861523501575" lon="8.355287276208401">
        <ele>2633.3400000000001</ele>
        <time>2023-06-25T03:14:53Z</time>
      </trkpt>
      <trkpt lat="46.41854097135365" lon="8.355299178510904">
        <ele>2632.9099999999999</ele>
        <time>2023-06-25T03:15:17Z</time>
      </trkpt>
      <trkpt lat="46.418433347716928" lon="8.355304291471839">
        <ele>2634.8000000000002</ele>
        <time>2023-06-25T03:15:32Z</time>
      </trkpt>
      <trkpt lat="46.418336033821106" lon="8.355223406106234">
        <ele>2635.8299999999999</ele>
        <time>2023-06-25T03:15:49Z</time>
      </trkpt>
      <trkpt lat="46.418261351063848" lon="8.3551474660635">
        <ele>2638.5</ele>
        <time>2023-06-25T03:16:06Z</time>
      </trkpt>
      <trkpt lat="46.418216340243816" lon="8.35521443746984">
        <ele>2642.4400000000001</ele>
        <time>2023-06-25T03:16:23Z</time>
      </trkpt>
      <trkpt lat="46.418155152350664" lon="8.355232710018754">
        <ele>2647.4299999999998</ele>
        <time>2023-06-25T03:16:41Z</time>
      </trkpt>
      <trkpt lat="46.418117852881551" lon="8.355155512690544">
        <ele>2649.29</ele>
        <time>2023-06-25T03:16:54Z</time>
      </trkpt>
      <trkpt lat="46.41807870939374" lon="8.355066161602736">
        <ele>2650.79</ele>
        <time>2023-06-25T03:17:10Z</time>
      </trkpt>
      <trkpt lat="46.418036045506597" lon="8.354979492723942">
        <ele>2652.9299999999998</ele>
        <time>2023-06-25T03:17:26Z</time>
      </trkpt>
      <trkpt lat="46.417989861220121" lon="8.354916209354997">
        <ele>2653.29</ele>
        <time>2023-06-25T03:17:41Z</time>
      </trkpt>
      <trkpt lat="46.417910316959023" lon="8.354823840782046">
        <ele>2655.9200000000001</ele>
        <time>2023-06-25T03:18:02Z</time>
      </trkpt>
      <trkpt lat="46.417875196784735" lon="8.354773633182049">
        <ele>2656.8600000000001</ele>
        <time>2023-06-25T03:18:15Z</time>
      </trkpt>
      <trkpt lat="46.417841166257858" lon="8.354797270148993">
        <ele>2657.0100000000002</ele>
        <time>2023-06-25T03:18:31Z</time>
      </trkpt>
      <trkpt lat="46.417797412723303" lon="8.354813614860177">
        <ele>2658.9400000000001</ele>
        <time>2023-06-25T03:18:46Z</time>
      </trkpt>
      <trkpt lat="46.417722143232822" lon="8.354786541312933">
        <ele>2662.1100000000001</ele>
        <time>2023-06-25T03:19:03Z</time>
      </trkpt>
      <trkpt lat="46.417676797136664" lon="8.354758629575372">
        <ele>2663.1300000000001</ele>
        <time>2023-06-25T03:19:18Z</time>
      </trkpt>
      <trkpt lat="46.417692303657532" lon="8.354868264868856">
        <ele>2666.8099999999999</ele>
        <time>2023-06-25T03:19:35Z</time>
      </trkpt>
      <trkpt lat="46.417723065242171" lon="8.354973960667849">
        <ele>2669.5500000000002</ele>
        <time>2023-06-25T03:19:51Z</time>
      </trkpt>
      <trkpt lat="46.417736224830151" lon="8.355068508535624">
        <ele>2673.4400000000001</ele>
        <time>2023-06-25T03:20:07Z</time>
      </trkpt>
      <trkpt lat="46.417773943394423" lon="8.355184011161327">
        <ele>2675.3600000000001</ele>
        <time>2023-06-25T03:20:25Z</time>
      </trkpt>
      <trkpt lat="46.417789114639163" lon="8.355259113013744">
        <ele>2677.4899999999998</ele>
        <time>2023-06-25T03:20:38Z</time>
      </trkpt>
      <trkpt lat="46.417786767706275" lon="8.355342680588365">
        <ele>2680.3099999999999</ele>
        <time>2023-06-25T03:20:54Z</time>
      </trkpt>
      <trkpt lat="46.417731614783406" lon="8.355439156293869">
        <ele>2683.6199999999999</ele>
        <time>2023-06-25T03:21:08Z</time>
      </trkpt>
      <trkpt lat="46.417684089392424" lon="8.355551809072495">
        <ele>2684.21</ele>
        <time>2023-06-25T03:21:23Z</time>
      </trkpt>
      <trkpt lat="46.417630361393094" lon="8.355618612840772">
        <ele>2687.5999999999999</ele>
        <time>2023-06-25T03:21:40Z</time>
      </trkpt>
      <trkpt lat="46.417578980326653" lon="8.355558346956968">
        <ele>2688.27</ele>
        <time>2023-06-25T03:21:57Z</time>
      </trkpt>
      <trkpt lat="46.417542770504951" lon="8.355461452156305">
        <ele>2689.71</ele>
        <time>2023-06-25T03:22:13Z</time>
      </trkpt>
      <trkpt lat="46.417507901787758" lon="8.355465140193701">
        <ele>2690.5100000000002</ele>
        <time>2023-06-25T03:22:27Z</time>
      </trkpt>
      <trkpt lat="46.41745082102716" lon="8.355530519038439">
        <ele>2694.73</ele>
        <time>2023-06-25T03:22:43Z</time>
      </trkpt>
      <trkpt lat="46.417409246787429" lon="8.355520209297538">
        <ele>2696.52</ele>
        <time>2023-06-25T03:22:55Z</time>
      </trkpt>
      <trkpt lat="46.417363816872239" lon="8.355423398315907">
        <ele>2697.3899999999999</ele>
        <time>2023-06-25T03:23:12Z</time>
      </trkpt>
      <trkpt lat="46.417335569858551" lon="8.355359192937613">
        <ele>2698.5999999999999</ele>
        <time>2023-06-25T03:23:28Z</time>
      </trkpt>
      <trkpt lat="46.417263317853212" lon="8.355386098846793">
        <ele>2702.4200000000001</ele>
        <time>2023-06-25T03:23:46Z</time>
      </trkpt>
      <trkpt lat="46.417181929573417" lon="8.355477126315236">
        <ele>2708.1199999999999</ele>
        <time>2023-06-25T03:24:05Z</time>
      </trkpt>
      <trkpt lat="46.417091907933354" lon="8.355558179318905">
        <ele>2712.7199999999998</ele>
        <time>2023-06-25T03:24:24Z</time>
      </trkpt>
      <trkpt lat="46.417037174105644" lon="8.355639986693859">
        <ele>2714</ele>
        <time>2023-06-25T03:24:40Z</time>
      </trkpt>
      <trkpt lat="46.416996940970421" lon="8.355758087709546">
        <ele>2713.5100000000002</ele>
        <time>2023-06-25T03:24:57Z</time>
      </trkpt>
      <trkpt lat="46.416938938200474" lon="8.35573679767549">
        <ele>2714.46</ele>
        <time>2023-06-25T03:25:12Z</time>
      </trkpt>
      <trkpt lat="46.416886048391461" lon="8.355609895661473">
        <ele>2714.5300000000002</ele>
        <time>2023-06-25T03:25:31Z</time>
      </trkpt>
      <trkpt lat="46.416866183280945" lon="8.355411412194371">
        <ele>2712.98</ele>
        <time>2023-06-25T03:25:51Z</time>
      </trkpt>
      <trkpt lat="46.416778089478612" lon="8.355386350303888">
        <ele>2714.9899999999998</ele>
        <time>2023-06-25T03:26:06Z</time>
      </trkpt>
      <trkpt lat="46.416694773361087" lon="8.355392469093204">
        <ele>2717.02</ele>
        <time>2023-06-25T03:26:25Z</time>
      </trkpt>
      <trkpt lat="46.416666945442557" lon="8.355335388332605">
        <ele>2716.98</ele>
        <time>2023-06-25T03:26:42Z</time>
      </trkpt>
      <trkpt lat="46.416628137230873" lon="8.355191219598055">
        <ele>2711.6500000000001</ele>
        <time>2023-06-25T03:26:58Z</time>
      </trkpt>
      <trkpt lat="46.416604584082961" lon="8.355047134682536">
        <ele>2711.2399999999998</ele>
        <time>2023-06-25T03:27:13Z</time>
      </trkpt>
      <trkpt lat="46.416556723415852" lon="8.354999190196395">
        <ele>2713.4699999999998</ele>
        <time>2023-06-25T03:27:28Z</time>
      </trkpt>
      <trkpt lat="46.416496289893985" lon="8.355027856305242">
        <ele>2715.6900000000001</ele>
        <time>2023-06-25T03:27:46Z</time>
      </trkpt>
      <trkpt lat="46.416431665420532" lon="8.355014361441135">
        <ele>2718.9200000000001</ele>
        <time>2023-06-25T03:28:04Z</time>
      </trkpt>
      <trkpt lat="46.416404340416193" lon="8.354970943182707">
        <ele>2720.7600000000002</ele>
        <time>2023-06-25T03:28:18Z</time>
      </trkpt>
      <trkpt lat="46.41635530628264" lon="8.354989802464843">
        <ele>2723.5900000000001</ele>
        <time>2023-06-25T03:28:33Z</time>
      </trkpt>
      <trkpt lat="46.41630157828331" lon="8.354997681453824">
        <ele>2726.4499999999998</ele>
        <time>2023-06-25T03:28:48Z</time>
      </trkpt>
      <trkpt lat="46.416269978508353" lon="8.354976642876864">
        <ele>2727.48</ele>
        <time>2023-06-25T03:29:03Z</time>
      </trkpt>
      <trkpt lat="46.416229410097003" lon="8.354994496330619">
        <ele>2728.6500000000001</ele>
        <time>2023-06-25T03:29:21Z</time>
      </trkpt>
      <trkpt lat="46.41618917696178" lon="8.355047134682536">
        <ele>2730.77</ele>
        <time>2023-06-25T03:29:39Z</time>
      </trkpt>
      <trkpt lat="46.416137209162116" lon="8.355094743892551">
        <ele>2733</ele>
        <time>2023-06-25T03:29:53Z</time>
      </trkpt>
      <trkpt lat="46.416080128401518" lon="8.355065658688545">
        <ele>2736.2800000000002</ele>
        <time>2023-06-25T03:30:09Z</time>
      </trkpt>
      <trkpt lat="46.416063280776143" lon="8.355023078620434">
        <ele>2736.4000000000001</ele>
        <time>2023-06-25T03:30:21Z</time>
      </trkpt>
      <trkpt lat="46.416004104539752" lon="8.354995166882873">
        <ele>2741</ele>
        <time>2023-06-25T03:30:36Z</time>
      </trkpt>
      <trkpt lat="46.415929840877652" lon="8.355013774707913">
        <ele>2744.9400000000001</ele>
        <time>2023-06-25T03:30:54Z</time>
      </trkpt>
      <trkpt lat="46.415861947461963" lon="8.355002710595727">
        <ele>2746.98</ele>
        <time>2023-06-25T03:31:08Z</time>
      </trkpt>
      <trkpt lat="46.415772428736091" lon="8.354968344792724">
        <ele>2748.6599999999999</ele>
        <time>2023-06-25T03:31:26Z</time>
      </trkpt>
      <trkpt lat="46.415735380724072" lon="8.354931548237801">
        <ele>2749.7199999999998</ele>
        <time>2023-06-25T03:31:42Z</time>
      </trkpt>
      <trkpt lat="46.415650304406881" lon="8.354892823845148">
        <ele>2749.2199999999998</ele>
        <time>2023-06-25T03:32:00Z</time>
      </trkpt>
      <trkpt lat="46.415545111522079" lon="8.354923501610756">
        <ele>2748.8299999999999</ele>
        <time>2023-06-25T03:32:16Z</time>
      </trkpt>
      <trkpt lat="46.415463220328093" lon="8.354891231283546">
        <ele>2748.2800000000002</ele>
        <time>2023-06-25T03:32:29Z</time>
      </trkpt>
      <trkpt lat="46.415447127074003" lon="8.354898439720273">
        <ele>2748.3400000000001</ele>
        <time>2023-06-25T03:32:31Z</time>
      </trkpt>
      <trkpt lat="46.415361547842622" lon="8.35500773973763">
        <ele>2748.9400000000001</ele>
        <time>2023-06-25T03:32:44Z</time>
      </trkpt>
      <trkpt lat="46.415305892005563" lon="8.355112513527274">
        <ele>2749.4200000000001</ele>
        <time>2023-06-25T03:32:59Z</time>
      </trkpt>
      <trkpt lat="46.415217882022262" lon="8.355117291212082">
        <ele>2751.6100000000001</ele>
        <time>2023-06-25T03:33:11Z</time>
      </trkpt>
      <trkpt lat="46.415013615041971" lon="8.354994747787714">
        <ele>2751.1999999999998</ele>
        <time>2023-06-25T03:33:31Z</time>
      </trkpt>
      <trkpt lat="46.414913618937135" lon="8.354932051151991">
        <ele>2751.6399999999999</ele>
        <time>2023-06-25T03:33:43Z</time>
      </trkpt>
      <trkpt lat="46.414879756048322" lon="8.354903301224113">
        <ele>2751.9299999999998</ele>
        <time>2023-06-25T03:33:48Z</time>
      </trkpt>
      <trkpt lat="46.414871457964182" lon="8.354863151907921">
        <ele>2751.9299999999998</ele>
        <time>2023-06-25T03:33:51Z</time>
      </trkpt>
      <trkpt lat="46.414808845147491" lon="8.354754857718945">
        <ele>2752.3699999999999</ele>
        <time>2023-06-25T03:34:05Z</time>
      </trkpt>
      <trkpt lat="46.414656462147832" lon="8.35480397567153">
        <ele>2751.7199999999998</ele>
        <time>2023-06-25T03:34:21Z</time>
      </trkpt>
      <trkpt lat="46.414492428302765" lon="8.354769358411431">
        <ele>2749.3699999999999</ele>
        <time>2023-06-25T03:34:40Z</time>
      </trkpt>
      <trkpt lat="46.414459655061364" lon="8.354813028126955">
        <ele>2747.73</ele>
        <time>2023-06-25T03:34:45Z</time>
      </trkpt>
      <trkpt lat="46.414390336722136" lon="8.35485577583313">
        <ele>2745.9200000000001</ele>
        <time>2023-06-25T03:34:53Z</time>
      </trkpt>
      <trkpt lat="46.414314648136497" lon="8.354844711720944">
        <ele>2746.1100000000001</ele>
        <time>2023-06-25T03:35:00Z</time>
      </trkpt>
      <trkpt lat="46.414222614839673" lon="8.354768520221114">
        <ele>2748.8099999999999</ele>
        <time>2023-06-25T03:35:17Z</time>
      </trkpt>
      <trkpt lat="46.414219262078404" lon="8.354777656495571">
        <ele>2747.71</ele>
        <time>2023-06-25T03:35:39Z</time>
      </trkpt>
      <trkpt lat="46.414219345897436" lon="8.354769358411431">
        <ele>2746.8600000000001</ele>
        <time>2023-06-25T03:35:59Z</time>
      </trkpt>
      <trkpt lat="46.414220351725817" lon="8.354775812476873">
        <ele>2746.6500000000001</ele>
        <time>2023-06-25T03:36:22Z</time>
      </trkpt>
      <trkpt lat="46.414224458858371" lon="8.354781344532967">
        <ele>2746.0599999999999</ele>
        <time>2023-06-25T03:36:50Z</time>
      </trkpt>
      <trkpt lat="46.413904018700123" lon="8.35470917634666">
        <ele>2772.6100000000001</ele>
        <time>2023-06-25T03:38:05Z</time>
      </trkpt>
      <trkpt lat="46.413934780284762" lon="8.354830797761679">
        <ele>2772.1300000000001</ele>
        <time>2023-06-25T03:38:06Z</time>
      </trkpt>
      <trkpt lat="46.414165953174233" lon="8.354574395343661">
        <ele>2746.4099999999999</ele>
        <time>2023-06-25T03:38:10Z</time>
      </trkpt>
      <trkpt lat="46.414287658408284" lon="8.354808082804084">
        <ele>2742.8499999999999</ele>
        <time>2023-06-25T03:38:24Z</time>
      </trkpt>
      <trkpt lat="46.414249269291759" lon="8.354774387553334">
        <ele>2745.46</ele>
        <time>2023-06-25T03:38:50Z</time>
      </trkpt>
      <trkpt lat="46.414253208786249" lon="8.354835910722613">
        <ele>2743.8299999999999</ele>
        <time>2023-06-25T03:39:16Z</time>
      </trkpt>
      <trkpt lat="46.414249939844012" lon="8.354906486347318">
        <ele>2742.1999999999998</ele>
        <time>2023-06-25T03:39:37Z</time>
      </trkpt>
      <trkpt lat="46.414223536849022" lon="8.354961890727282">
        <ele>2743.0999999999999</ele>
        <time>2023-06-25T03:39:45Z</time>
      </trkpt>
      <trkpt lat="46.414135694503784" lon="8.355091474950314">
        <ele>2741.7199999999998</ele>
        <time>2023-06-25T03:40:02Z</time>
      </trkpt>
      <trkpt lat="46.414043912664056" lon="8.355172444134951">
        <ele>2736.6700000000001</ele>
        <time>2023-06-25T03:40:20Z</time>
      </trkpt>
      <trkpt lat="46.413930505514145" lon="8.355269338935614">
        <ele>2734.27</ele>
        <time>2023-06-25T03:40:38Z</time>
      </trkpt>
      <trkpt lat="46.413905946537852" lon="8.355287024751306">
        <ele>2733.3600000000001</ele>
        <time>2023-06-25T03:40:41Z</time>
      </trkpt>
      <trkpt lat="46.413829084485769" lon="8.355366149917245">
        <ele>2731.5500000000002</ele>
        <time>2023-06-25T03:40:50Z</time>
      </trkpt>
      <trkpt lat="46.413631271570921" lon="8.355265315622091">
        <ele>2730.8899999999999</ele>
        <time>2023-06-25T03:41:09Z</time>
      </trkpt>
      <trkpt lat="46.413593636825681" lon="8.355111926794052">
        <ele>2728.6999999999998</ele>
        <time>2023-06-25T03:41:20Z</time>
      </trkpt>
      <trkpt lat="46.413558013737202" lon="8.35508787073195">
        <ele>2728.52</ele>
        <time>2023-06-25T03:41:24Z</time>
      </trkpt>
      <trkpt lat="46.413549380376935" lon="8.355061635375023">
        <ele>2728.04</ele>
        <time>2023-06-25T03:41:26Z</time>
      </trkpt>
      <trkpt lat="46.41346262767911" lon="8.354949485510588">
        <ele>2723.3499999999999</ele>
        <time>2023-06-25T03:41:44Z</time>
      </trkpt>
      <trkpt lat="46.413402277976274" lon="8.354878574609757">
        <ele>2719.8800000000001</ele>
        <time>2023-06-25T03:41:58Z</time>
      </trkpt>
      <trkpt lat="46.413362128660083" lon="8.354824846610427">
        <ele>2714.5300000000002</ele>
        <time>2023-06-25T03:42:12Z</time>
      </trkpt>
      <trkpt lat="46.413314770907164" lon="8.354826858267188">
        <ele>2712.4299999999998</ele>
        <time>2023-06-25T03:42:18Z</time>
      </trkpt>
      <trkpt lat="46.413189126178622" lon="8.354825852438808">
        <ele>2706.6700000000001</ele>
        <time>2023-06-25T03:42:36Z</time>
      </trkpt>
      <trkpt lat="46.413083430379629" lon="8.354745469987392">
        <ele>2701.8299999999999</ele>
        <time>2023-06-25T03:42:54Z</time>
      </trkpt>
      <trkpt lat="46.413032216951251" lon="8.354577077552676">
        <ele>2696.8699999999999</ele>
        <time>2023-06-25T03:43:11Z</time>
      </trkpt>
      <trkpt lat="46.412979494780302" lon="8.35451471619308">
        <ele>2695.0900000000001</ele>
        <time>2023-06-25T03:43:23Z</time>
      </trkpt>
      <trkpt lat="46.412924090400338" lon="8.354527205228806">
        <ele>2694.1700000000001</ele>
        <time>2023-06-25T03:43:36Z</time>
      </trkpt>
      <trkpt lat="46.412916127592325" lon="8.354482026770711">
        <ele>2692.5500000000002</ele>
        <time>2023-06-25T03:43:51Z</time>
      </trkpt>
      <trkpt lat="46.412893915548921" lon="8.354438524693251">
        <ele>2693.0799999999999</ele>
        <time>2023-06-25T03:44:03Z</time>
      </trkpt>
      <trkpt lat="46.412827363237739" lon="8.354336014017463">
        <ele>2691.75</ele>
        <time>2023-06-25T03:44:18Z</time>
      </trkpt>
      <trkpt lat="46.412796014919877" lon="8.354196790605784">
        <ele>2686.77</ele>
        <time>2023-06-25T03:44:34Z</time>
      </trkpt>
      <trkpt lat="46.412785621359944" lon="8.354173991829157">
        <ele>2686.1100000000001</ele>
        <time>2023-06-25T03:44:37Z</time>
      </trkpt>
      <trkpt lat="46.412747399881482" lon="8.353936281055212">
        <ele>2681.9200000000001</ele>
        <time>2023-06-25T03:44:56Z</time>
      </trkpt>
      <trkpt lat="46.412704652175307" lon="8.353884899988771">
        <ele>2679.2199999999998</ele>
        <time>2023-06-25T03:45:08Z</time>
      </trkpt>
      <trkpt lat="46.412688810378313" lon="8.353792279958725">
        <ele>2675.8400000000001</ele>
        <time>2023-06-25T03:45:20Z</time>
      </trkpt>
      <trkpt lat="46.412657713517547" lon="8.35374265909195">
        <ele>2674.1799999999998</ele>
        <time>2023-06-25T03:45:31Z</time>
      </trkpt>
      <trkpt lat="46.412562495097518" lon="8.353654565289617">
        <ele>2673.0100000000002</ele>
        <time>2023-06-25T03:45:44Z</time>
      </trkpt>
      <trkpt lat="46.41247658059001" lon="8.353609638288617">
        <ele>2672.52</ele>
        <time>2023-06-25T03:45:55Z</time>
      </trkpt>
      <trkpt lat="46.412429725751281" lon="8.353578541427851">
        <ele>2671.6799999999998</ele>
        <time>2023-06-25T03:46:00Z</time>
      </trkpt>
      <trkpt lat="46.412343140691519" lon="8.353570327162743">
        <ele>2670.73</ele>
        <time>2023-06-25T03:46:09Z</time>
      </trkpt>
      <trkpt lat="46.412309613078833" lon="8.353526405990124">
        <ele>2669.9299999999998</ele>
        <time>2023-06-25T03:46:13Z</time>
      </trkpt>
      <trkpt lat="46.41229041852057" lon="8.353427331894636">
        <ele>2668.6900000000001</ele>
        <time>2023-06-25T03:46:20Z</time>
      </trkpt>
      <trkpt lat="46.412334088236094" lon="8.353326665237546">
        <ele>2667.8200000000002</ele>
        <time>2023-06-25T03:46:29Z</time>
      </trkpt>
      <trkpt lat="46.412337021902204" lon="8.35328727029264">
        <ele>2667.5300000000002</ele>
        <time>2023-06-25T03:46:32Z</time>
      </trkpt>
      <trkpt lat="46.412350600585341" lon="8.353069759905338">
        <ele>2665.9000000000001</ele>
        <time>2023-06-25T03:46:50Z</time>
      </trkpt>
      <trkpt lat="46.412422768771648" lon="8.35292425006628">
        <ele>2661.1900000000001</ele>
        <time>2023-06-25T03:47:07Z</time>
      </trkpt>
      <trkpt lat="46.412454368546605" lon="8.352744877338409">
        <ele>2656.4299999999998</ele>
        <time>2023-06-25T03:47:25Z</time>
      </trkpt>
      <trkpt lat="46.412435593083501" lon="8.352650497108698">
        <ele>2653.5300000000002</ele>
        <time>2023-06-25T03:47:38Z</time>
      </trkpt>
      <trkpt lat="46.412441460415721" lon="8.352635828778148">
        <ele>2653</ele>
        <time>2023-06-25T03:47:40Z</time>
      </trkpt>
      <trkpt lat="46.412465265020728" lon="8.352508507668972">
        <ele>2650.04</ele>
        <time>2023-06-25T03:47:53Z</time>
      </trkpt>
      <trkpt lat="46.412469455972314" lon="8.352367021143436">
        <ele>2647.1599999999999</ele>
        <time>2023-06-25T03:48:05Z</time>
      </trkpt>
      <trkpt lat="46.412423104047775" lon="8.35234078578651">
        <ele>2646.1599999999999</ele>
        <time>2023-06-25T03:48:17Z</time>
      </trkpt>
      <trkpt lat="46.412371639162302" lon="8.352333577349782">
        <ele>2644.4200000000001</ele>
        <time>2023-06-25T03:48:33Z</time>
      </trkpt>
      <trkpt lat="46.412327382713556" lon="8.352337935939431">
        <ele>2643.0599999999999</ele>
        <time>2023-06-25T03:48:49Z</time>
      </trkpt>
      <trkpt lat="46.412279941141605" lon="8.352278843522072">
        <ele>2641.2800000000002</ele>
        <time>2023-06-25T03:49:03Z</time>
      </trkpt>
      <trkpt lat="46.412226380780339" lon="8.352211201563478">
        <ele>2638.48</ele>
        <time>2023-06-25T03:49:18Z</time>
      </trkpt>
      <trkpt lat="46.412213388830423" lon="8.352153701707721">
        <ele>2635.8800000000001</ele>
        <time>2023-06-25T03:49:32Z</time>
      </trkpt>
      <trkpt lat="46.412230404093862" lon="8.35208622738719">
        <ele>2631.8600000000001</ele>
        <time>2023-06-25T03:49:45Z</time>
      </trkpt>
      <trkpt lat="46.412260662764311" lon="8.351982375606895">
        <ele>2627.21</ele>
        <time>2023-06-25T03:50:00Z</time>
      </trkpt>
      <trkpt lat="46.412273654714227" lon="8.351917415857315">
        <ele>2625.4000000000001</ele>
        <time>2023-06-25T03:50:14Z</time>
      </trkpt>
      <trkpt lat="46.412277007475495" lon="8.351805685088038">
        <ele>2623.3000000000002</ele>
        <time>2023-06-25T03:50:27Z</time>
      </trkpt>
      <trkpt lat="46.412237780168653" lon="8.351746844127774">
        <ele>2620.23</ele>
        <time>2023-06-25T03:50:41Z</time>
      </trkpt>
      <trkpt lat="46.41220492310822" lon="8.351686829701066">
        <ele>2619.0900000000001</ele>
        <time>2023-06-25T03:50:53Z</time>
      </trkpt>
      <trkpt lat="46.412221686914563" lon="8.35158440284431">
        <ele>2619.2800000000002</ele>
        <time>2023-06-25T03:51:05Z</time>
      </trkpt>
      <trkpt lat="46.412222776561975" lon="8.351531261578202">
        <ele>2619.2199999999998</ele>
        <time>2023-06-25T03:51:13Z</time>
      </trkpt>
      <trkpt lat="46.41217852011323" lon="8.351450376212597">
        <ele>2616.8499999999999</ele>
        <time>2023-06-25T03:51:28Z</time>
      </trkpt>
      <trkpt lat="46.412141220644116" lon="8.351430259644985">
        <ele>2614.98</ele>
        <time>2023-06-25T03:51:36Z</time>
      </trkpt>
      <trkpt lat="46.412116661667824" lon="8.35138407535851">
        <ele>2614.3299999999999</ele>
        <time>2023-06-25T03:51:40Z</time>
      </trkpt>
      <trkpt lat="46.412110375240445" lon="8.351344596594572">
        <ele>2614.1399999999999</ele>
        <time>2023-06-25T03:51:43Z</time>
      </trkpt>
      <trkpt lat="46.411999901756644" lon="8.351247450336814">
        <ele>2611.3600000000001</ele>
        <time>2023-06-25T03:51:58Z</time>
      </trkpt>
      <trkpt lat="46.411965703591704" lon="8.351167989894748">
        <ele>2608.8600000000001</ele>
        <time>2023-06-25T03:52:13Z</time>
      </trkpt>
      <trkpt lat="46.411960003897548" lon="8.351160949096084">
        <ele>2608.9000000000001</ele>
        <time>2023-06-25T03:52:14Z</time>
      </trkpt>
      <trkpt lat="46.411946844309568" lon="8.351138066500425">
        <ele>2608.8200000000002</ele>
        <time>2023-06-25T03:52:16Z</time>
      </trkpt>
      <trkpt lat="46.411905689164996" lon="8.351017534732819">
        <ele>2607.1900000000001</ele>
        <time>2023-06-25T03:52:25Z</time>
      </trkpt>
      <trkpt lat="46.411891775205731" lon="8.350996999070048">
        <ele>2605.9400000000001</ele>
        <time>2023-06-25T03:52:36Z</time>
      </trkpt>
      <trkpt lat="46.41185162588954" lon="8.350945031270385">
        <ele>2605.1799999999998</ele>
        <time>2023-06-25T03:52:42Z</time>
      </trkpt>
      <trkpt lat="46.411816421896219" lon="8.350909324362874">
        <ele>2604.27</ele>
        <time>2023-06-25T03:52:46Z</time>
      </trkpt>
      <trkpt lat="46.411776943132281" lon="8.350907396525145">
        <ele>2603.8899999999999</ele>
        <time>2023-06-25T03:52:50Z</time>
      </trkpt>
      <trkpt lat="46.411737883463502" lon="8.350915526971221">
        <ele>2603.7800000000002</ele>
        <time>2023-06-25T03:52:54Z</time>
      </trkpt>
      <trkpt lat="46.411705445498228" lon="8.350891806185246">
        <ele>2603.5700000000002</ele>
        <time>2023-06-25T03:52:58Z</time>
      </trkpt>
      <trkpt lat="46.41161953099072" lon="8.350770184770227">
        <ele>2602.77</ele>
        <time>2023-06-25T03:53:10Z</time>
      </trkpt>
      <trkpt lat="46.411468740552664" lon="8.350647306069732">
        <ele>2601</ele>
        <time>2023-06-25T03:53:29Z</time>
      </trkpt>
      <trkpt lat="46.411435045301914" lon="8.350648730993271">
        <ele>2600.4699999999998</ele>
        <time>2023-06-25T03:53:33Z</time>
      </trkpt>
      <trkpt lat="46.41131803393364" lon="8.350532222539187">
        <ele>2599.3499999999999</ele>
        <time>2023-06-25T03:53:49Z</time>
      </trkpt>
      <trkpt lat="46.411261120811105" lon="8.350519733503461">
        <ele>2599.6399999999999</ele>
        <time>2023-06-25T03:53:57Z</time>
      </trkpt>
      <trkpt lat="46.411227928474545" lon="8.350503388792276">
        <ele>2599.8699999999999</ele>
        <time>2023-06-25T03:54:01Z</time>
      </trkpt>
      <trkpt lat="46.41112751327455" lon="8.350380593910813">
        <ele>2599.3600000000001</ele>
        <time>2023-06-25T03:54:15Z</time>
      </trkpt>
      <trkpt lat="46.411121813580394" lon="8.350377660244703">
        <ele>2599.29</ele>
        <time>2023-06-25T03:54:16Z</time>
      </trkpt>
      <trkpt lat="46.411087950691581" lon="8.350361566990614">
        <ele>2599.3099999999999</ele>
        <time>2023-06-25T03:54:20Z</time>
      </trkpt>
      <trkpt lat="46.410991223528981" lon="8.350289482623339">
        <ele>2597.7399999999998</ele>
        <time>2023-06-25T03:54:32Z</time>
      </trkpt>
      <trkpt lat="46.410876475274563" lon="8.350230306386948">
        <ele>2597.1900000000001</ele>
        <time>2023-06-25T03:54:49Z</time>
      </trkpt>
      <trkpt lat="46.41078787855804" lon="8.350141290575266">
        <ele>2597.75</ele>
        <time>2023-06-25T03:55:03Z</time>
      </trkpt>
      <trkpt lat="46.410694839432836" lon="8.350091502070427">
        <ele>2596.77</ele>
        <time>2023-06-25T03:55:17Z</time>
      </trkpt>
      <trkpt lat="46.410605991259217" lon="8.350055040791631">
        <ele>2593.3899999999999</ele>
        <time>2023-06-25T03:55:31Z</time>
      </trkpt>
      <trkpt lat="46.410514963790774" lon="8.350031487643719">
        <ele>2591.0999999999999</ele>
        <time>2023-06-25T03:55:45Z</time>
      </trkpt>
      <trkpt lat="46.410472635179758" lon="8.349971473217011">
        <ele>2590.2199999999998</ele>
        <time>2023-06-25T03:55:59Z</time>
      </trkpt>
      <trkpt lat="46.410404657945037" lon="8.349864603951573">
        <ele>2588.1100000000001</ele>
        <time>2023-06-25T03:56:13Z</time>
      </trkpt>
      <trkpt lat="46.410299129784107" lon="8.349811797961593">
        <ele>2586.9899999999998</ele>
        <time>2023-06-25T03:56:26Z</time>
      </trkpt>
      <trkpt lat="46.410292340442538" lon="8.349804589524865">
        <ele>2586.8099999999999</ele>
        <time>2023-06-25T03:56:27Z</time>
      </trkpt>
      <trkpt lat="46.410196200013161" lon="8.349695792421699">
        <ele>2584.9200000000001</ele>
        <time>2023-06-25T03:56:43Z</time>
      </trkpt>
      <trkpt lat="46.410167701542377" lon="8.349666120484471">
        <ele>2584.4899999999998</ele>
        <time>2023-06-25T03:56:47Z</time>
      </trkpt>
      <trkpt lat="46.410078098997474" lon="8.349565034732223">
        <ele>2583.9299999999998</ele>
        <time>2023-06-25T03:57:01Z</time>
      </trkpt>
      <trkpt lat="46.41002805903554" lon="8.349358001723886">
        <ele>2582.71</ele>
        <time>2023-06-25T03:57:18Z</time>
      </trkpt>
      <trkpt lat="46.410025376826525" lon="8.349347775802016">
        <ele>2582.4400000000001</ele>
        <time>2023-06-25T03:57:19Z</time>
      </trkpt>
      <trkpt lat="46.409969972446561" lon="8.349180808290839">
        <ele>2581.5300000000002</ele>
        <time>2023-06-25T03:57:36Z</time>
      </trkpt>
      <trkpt lat="46.409947592765093" lon="8.349217437207699">
        <ele>2580.4299999999998</ele>
        <time>2023-06-25T03:57:47Z</time>
      </trkpt>
      <trkpt lat="46.409916076809168" lon="8.349217521026731">
        <ele>2579.8000000000002</ele>
        <time>2023-06-25T03:58:00Z</time>
      </trkpt>
      <trkpt lat="46.409934600815177" lon="8.349240319803357">
        <ele>2580.8400000000001</ele>
        <time>2023-06-25T03:58:34Z</time>
      </trkpt>
      <trkpt lat="46.409951280802488" lon="8.349167816340923">
        <ele>2580.7600000000002</ele>
        <time>2023-06-25T03:58:54Z</time>
      </trkpt>
      <trkpt lat="46.40993426553905" lon="8.349100844934583">
        <ele>2581.1599999999999</ele>
        <time>2023-06-25T03:59:00Z</time>
      </trkpt>
      <trkpt lat="46.409892942756414" lon="8.348980648443103">
        <ele>2581.5799999999999</ele>
        <time>2023-06-25T03:59:14Z</time>
      </trkpt>
      <trkpt lat="46.409830413758755" lon="8.348920131102204">
        <ele>2583.6399999999999</ele>
        <time>2023-06-25T03:59:27Z</time>
      </trkpt>
      <trkpt lat="46.409776853397489" lon="8.348799347877502">
        <ele>2584.5100000000002</ele>
        <time>2023-06-25T03:59:43Z</time>
      </trkpt>
      <trkpt lat="46.409747768193483" lon="8.348676469177008">
        <ele>2584.5900000000001</ele>
        <time>2023-06-25T03:59:59Z</time>
      </trkpt>
      <trkpt lat="46.409711139276624" lon="8.348581083118916">
        <ele>2584.9299999999998</ele>
        <time>2023-06-25T04:00:09Z</time>
      </trkpt>
      <trkpt lat="46.409689681604505" lon="8.348509836941958">
        <ele>2584.6500000000001</ele>
        <time>2023-06-25T04:00:15Z</time>
      </trkpt>
      <trkpt lat="46.409652382135391" lon="8.348363656550646">
        <ele>2584.23</ele>
        <time>2023-06-25T04:00:28Z</time>
      </trkpt>
      <trkpt lat="46.409629499539733" lon="8.348243795335293">
        <ele>2582.75</ele>
        <time>2023-06-25T04:00:41Z</time>
      </trkpt>
      <trkpt lat="46.409603850916028" lon="8.348137764260173">
        <ele>2580.3400000000001</ele>
        <time>2023-06-25T04:00:55Z</time>
      </trkpt>
      <trkpt lat="46.409571748226881" lon="8.348059561103582">
        <ele>2576.7399999999998</ele>
        <time>2023-06-25T04:01:11Z</time>
      </trkpt>
      <trkpt lat="46.409553894773126" lon="8.347992254421115">
        <ele>2574.0599999999999</ele>
        <time>2023-06-25T04:01:26Z</time>
      </trkpt>
      <trkpt lat="46.409526653587818" lon="8.347964929416776">
        <ele>2572.3099999999999</ele>
        <time>2023-06-25T04:01:40Z</time>
      </trkpt>
      <trkpt lat="46.409501004964113" lon="8.347899215295911">
        <ele>2570.3400000000001</ele>
        <time>2023-06-25T04:01:50Z</time>
      </trkpt>
      <trkpt lat="46.409479547291994" lon="8.347827969118953">
        <ele>2568.8099999999999</ele>
        <time>2023-06-25T04:02:04Z</time>
      </trkpt>
      <trkpt lat="46.409422634169459" lon="8.347708191722632">
        <ele>2567.6199999999999</ele>
        <time>2023-06-25T04:02:19Z</time>
      </trkpt>
      <trkpt lat="46.409412240609527" lon="8.347633425146341">
        <ele>2566.21</ele>
        <time>2023-06-25T04:02:27Z</time>
      </trkpt>
      <trkpt lat="46.409408720210195" lon="8.347498727962375">
        <ele>2564.4200000000001</ele>
        <time>2023-06-25T04:02:42Z</time>
      </trkpt>
      <trkpt lat="46.409395141527057" lon="8.347473330795765">
        <ele>2563.8800000000001</ele>
        <time>2023-06-25T04:03:01Z</time>
      </trkpt>
      <trkpt lat="46.40936597250402" lon="8.347392361611128">
        <ele>2562.73</ele>
        <time>2023-06-25T04:03:16Z</time>
      </trkpt>
      <trkpt lat="46.409370079636574" lon="8.347374927252531">
        <ele>2562.1500000000001</ele>
        <time>2023-06-25T04:03:38Z</time>
      </trkpt>
      <trkpt lat="46.409373013302684" lon="8.347384817898274">
        <ele>2561.3800000000001</ele>
        <time>2023-06-25T04:03:56Z</time>
      </trkpt>
      <trkpt lat="46.40934401191771" lon="8.347360678017139">
        <ele>2560.4899999999998</ele>
        <time>2023-06-25T04:04:25Z</time>
      </trkpt>
      <trkpt lat="46.409325739368796" lon="8.34726152010262">
        <ele>2557.1799999999998</ele>
        <time>2023-06-25T04:04:40Z</time>
      </trkpt>
      <trkpt lat="46.409310903400183" lon="8.347162026911974">
        <ele>2553.27</ele>
        <time>2023-06-25T04:04:56Z</time>
      </trkpt>
      <trkpt lat="46.409300593659282" lon="8.347034119069576">
        <ele>2551.3600000000001</ele>
        <time>2023-06-25T04:05:08Z</time>
      </trkpt>
      <trkpt lat="46.409328673034906" lon="8.34690285846591">
        <ele>2549.1900000000001</ele>
        <time>2023-06-25T04:05:23Z</time>
      </trkpt>
      <trkpt lat="46.409327331930399" lon="8.346787188202143">
        <ele>2547.4699999999998</ele>
        <time>2023-06-25T04:05:35Z</time>
      </trkpt>
      <trkpt lat="46.409343676641583" lon="8.346666153520346">
        <ele>2545.27</ele>
        <time>2023-06-25T04:05:49Z</time>
      </trkpt>
      <trkpt lat="46.409316435456276" lon="8.346612928435206">
        <ele>2543.21</ele>
        <time>2023-06-25T04:06:01Z</time>
      </trkpt>
      <trkpt lat="46.40933814458549" lon="8.346571605652571">
        <ele>2541.4200000000001</ele>
        <time>2023-06-25T04:06:14Z</time>
      </trkpt>
      <trkpt lat="46.40934837050736" lon="8.346513770520687">
        <ele>2539.2600000000002</ele>
        <time>2023-06-25T04:06:26Z</time>
      </trkpt>
      <trkpt lat="46.409376533702016" lon="8.346473537385464">
        <ele>2537.73</ele>
        <time>2023-06-25T04:06:38Z</time>
      </trkpt>
      <trkpt lat="46.409343425184488" lon="8.346427185460925">
        <ele>2537.23</ele>
        <time>2023-06-25T04:06:50Z</time>
      </trkpt>
      <trkpt lat="46.4093635417521" lon="8.346362812444568">
        <ele>2535.8800000000001</ele>
        <time>2023-06-25T04:07:05Z</time>
      </trkpt>
      <trkpt lat="46.409332612529397" lon="8.346286788582802">
        <ele>2535.3800000000001</ele>
        <time>2023-06-25T04:07:19Z</time>
      </trkpt>
      <trkpt lat="46.409273352473974" lon="8.3462402690202">
        <ele>2535</ele>
        <time>2023-06-25T04:07:32Z</time>
      </trkpt>
      <trkpt lat="46.409219121560454" lon="8.34620657376945">
        <ele>2535.8899999999999</ele>
        <time>2023-06-25T04:07:44Z</time>
      </trkpt>
      <trkpt lat="46.40917981043458" lon="8.346197940409184">
        <ele>2536.6500000000001</ele>
        <time>2023-06-25T04:07:57Z</time>
      </trkpt>
      <trkpt lat="46.409144019708037" lon="8.346180757507682">
        <ele>2536.6300000000001</ele>
        <time>2023-06-25T04:08:13Z</time>
      </trkpt>
      <trkpt lat="46.409096075221896" lon="8.34608537144959">
        <ele>2537.0599999999999</ele>
        <time>2023-06-25T04:08:28Z</time>
      </trkpt>
      <trkpt lat="46.409116443246603" lon="8.346033236011863">
        <ele>2536.9099999999999</ele>
        <time>2023-06-25T04:08:44Z</time>
      </trkpt>
      <trkpt lat="46.40908258035779" lon="8.345999792218208">
        <ele>2536.5799999999999</ele>
        <time>2023-06-25T04:09:01Z</time>
      </trkpt>
      <trkpt lat="46.409033965319395" lon="8.345868196338415">
        <ele>2535.8899999999999</ele>
        <time>2023-06-25T04:09:17Z</time>
      </trkpt>
      <trkpt lat="46.408998928964138" lon="8.345763422548771">
        <ele>2533.2600000000002</ele>
        <time>2023-06-25T04:09:33Z</time>
      </trkpt>
      <trkpt lat="46.409005466848612" lon="8.345752526074648">
        <ele>2534.54</ele>
        <time>2023-06-25T04:09:49Z</time>
      </trkpt>
      <trkpt lat="46.4090043772012" lon="8.345739366486669">
        <ele>2535.54</ele>
        <time>2023-06-25T04:10:10Z</time>
      </trkpt>
      <trkpt lat="46.408996246755123" lon="8.345691841095686">
        <ele>2535.8600000000001</ele>
        <time>2023-06-25T04:10:20Z</time>
      </trkpt>
      <trkpt lat="46.408983338624239" lon="8.345635933801532">
        <ele>2535.3899999999999</ele>
        <time>2023-06-25T04:10:25Z</time>
      </trkpt>
      <trkpt lat="46.408923072740436" lon="8.345499811694026">
        <ele>2533.71</ele>
        <time>2023-06-25T04:10:42Z</time>
      </trkpt>
      <trkpt lat="46.408900106325746" lon="8.34542328491807">
        <ele>2533.0500000000002</ele>
        <time>2023-06-25T04:10:49Z</time>
      </trkpt>
      <trkpt lat="46.408835230395198" lon="8.345291772857308">
        <ele>2532.6300000000001</ele>
        <time>2023-06-25T04:11:03Z</time>
      </trkpt>
      <trkpt lat="46.408744538202882" lon="8.345206109806895">
        <ele>2532.8200000000002</ele>
        <time>2023-06-25T04:11:18Z</time>
      </trkpt>
      <trkpt lat="46.408693324774504" lon="8.345114076510072">
        <ele>2533.1599999999999</ele>
        <time>2023-06-25T04:11:30Z</time>
      </trkpt>
      <trkpt lat="46.408604560419917" lon="8.345088427886367">
        <ele>2534.1900000000001</ele>
        <time>2023-06-25T04:11:44Z</time>
      </trkpt>
      <trkpt lat="46.408537505194545" lon="8.345020283013582">
        <ele>2534.1900000000001</ele>
        <time>2023-06-25T04:11:58Z</time>
      </trkpt>
      <trkpt lat="46.408524597063661" lon="8.344992203637958">
        <ele>2533.8400000000001</ele>
        <time>2023-06-25T04:12:07Z</time>
      </trkpt>
      <trkpt lat="46.408442705869675" lon="8.344903942197561">
        <ele>2533.0300000000002</ele>
        <time>2023-06-25T04:12:23Z</time>
      </trkpt>
      <trkpt lat="46.408367101103067" lon="8.344846945255995">
        <ele>2532.8000000000002</ele>
        <time>2023-06-25T04:12:38Z</time>
      </trkpt>
      <trkpt lat="46.40831689350307" lon="8.344781566411257">
        <ele>2531.5700000000002</ele>
        <time>2023-06-25T04:12:52Z</time>
      </trkpt>
      <trkpt lat="46.408268613740802" lon="8.344723144546151">
        <ele>2530.21</ele>
        <time>2023-06-25T04:13:06Z</time>
      </trkpt>
      <trkpt lat="46.40823139809072" lon="8.344660783186555">
        <ele>2529.23</ele>
        <time>2023-06-25T04:13:16Z</time>
      </trkpt>
      <trkpt lat="46.408173479139805" lon="8.344595236703754">
        <ele>2529.1599999999999</ele>
        <time>2023-06-25T04:13:24Z</time>
      </trkpt>
      <trkpt lat="46.408073147758842" lon="8.344522649422288">
        <ele>2528.1399999999999</ele>
        <time>2023-06-25T04:13:39Z</time>
      </trkpt>
      <trkpt lat="46.408009864389896" lon="8.344467161223292">
        <ele>2526.3000000000002</ele>
        <time>2023-06-25T04:13:53Z</time>
      </trkpt>
      <trkpt lat="46.407935600727797" lon="8.344407062977552">
        <ele>2524.9099999999999</ele>
        <time>2023-06-25T04:14:08Z</time>
      </trkpt>
      <trkpt lat="46.407852787524462" lon="8.344359286129475">
        <ele>2525.0700000000002</ele>
        <time>2023-06-25T04:14:23Z</time>
      </trkpt>
      <trkpt lat="46.4077921025455" lon="8.344306061044335">
        <ele>2523.7399999999998</ele>
        <time>2023-06-25T04:14:35Z</time>
      </trkpt>
      <trkpt lat="46.407748432829976" lon="8.344234898686409">
        <ele>2523.0999999999999</ele>
        <time>2023-06-25T04:14:45Z</time>
      </trkpt>
      <trkpt lat="46.40771297737956" lon="8.34414747543633">
        <ele>2522.0900000000001</ele>
        <time>2023-06-25T04:15:01Z</time>
      </trkpt>
      <trkpt lat="46.40764994546771" lon="8.344073044136167">
        <ele>2521.6900000000001</ele>
        <time>2023-06-25T04:15:14Z</time>
      </trkpt>
      <trkpt lat="46.407581297680736" lon="8.343999870121479">
        <ele>2520.4299999999998</ele>
        <time>2023-06-25T04:15:29Z</time>
      </trkpt>
      <trkpt lat="46.407497059553862" lon="8.343923091888428">
        <ele>2520.1999999999998</ele>
        <time>2023-06-25T04:15:44Z</time>
      </trkpt>
      <trkpt lat="46.407427238300443" lon="8.343815803527832">
        <ele>2519.1900000000001</ele>
        <time>2023-06-25T04:15:59Z</time>
      </trkpt>
      <trkpt lat="46.407377785071731" lon="8.343707174062729">
        <ele>2518.5900000000001</ele>
        <time>2023-06-25T04:16:13Z</time>
      </trkpt>
      <trkpt lat="46.407301845028996" lon="8.343619080260396">
        <ele>2518.3899999999999</ele>
        <time>2023-06-25T04:16:28Z</time>
      </trkpt>
      <trkpt lat="46.40724727883935" lon="8.343572225421667">
        <ele>2517.8000000000002</ele>
        <time>2023-06-25T04:16:43Z</time>
      </trkpt>
      <trkpt lat="46.407169830054045" lon="8.343517407774925">
        <ele>2518.52</ele>
        <time>2023-06-25T04:16:57Z</time>
      </trkpt>
      <trkpt lat="46.407126663252711" lon="8.343442305922508">
        <ele>2518.2199999999998</ele>
        <time>2023-06-25T04:17:11Z</time>
      </trkpt>
      <trkpt lat="46.407066900283098" lon="8.343301406130195">
        <ele>2519.1999999999998</ele>
        <time>2023-06-25T04:17:28Z</time>
      </trkpt>
      <trkpt lat="46.407004036009312" lon="8.343168552964926">
        <ele>2520.4200000000001</ele>
        <time>2023-06-25T04:17:46Z</time>
      </trkpt>
      <trkpt lat="46.406959025189281" lon="8.343091439455748">
        <ele>2520.6900000000001</ele>
        <time>2023-06-25T04:17:59Z</time>
      </trkpt>
      <trkpt lat="46.406936813145876" lon="8.343038046732545">
        <ele>2521.9899999999998</ele>
        <time>2023-06-25T04:18:11Z</time>
      </trkpt>
      <trkpt lat="46.406889203935862" lon="8.342985073104501">
        <ele>2523.1799999999998</ele>
        <time>2023-06-25T04:18:26Z</time>
      </trkpt>
      <trkpt lat="46.40684125944972" lon="8.34291223436594">
        <ele>2524.2600000000002</ele>
        <time>2023-06-25T04:18:41Z</time>
      </trkpt>
      <trkpt lat="46.406813682988286" lon="8.342811735346913">
        <ele>2524.4899999999998</ele>
        <time>2023-06-25T04:18:56Z</time>
      </trkpt>
      <trkpt lat="46.406788704916835" lon="8.34268894046545">
        <ele>2524.4000000000001</ele>
        <time>2023-06-25T04:19:11Z</time>
      </trkpt>
      <trkpt lat="46.406766409054399" lon="8.3425447717309">
        <ele>2523.98</ele>
        <time>2023-06-25T04:19:27Z</time>
      </trkpt>
      <trkpt lat="46.406705304980278" lon="8.342411164194346">
        <ele>2523.5700000000002</ele>
        <time>2023-06-25T04:19:42Z</time>
      </trkpt>
      <trkpt lat="46.406694911420345" lon="8.34239087998867">
        <ele>2523.5599999999999</ele>
        <time>2023-06-25T04:19:44Z</time>
      </trkpt>
      <trkpt lat="46.406601285561919" lon="8.342251069843769">
        <ele>2522.9499999999998</ele>
        <time>2023-06-25T04:20:01Z</time>
      </trkpt>
      <trkpt lat="46.406499948352575" lon="8.342180578038096">
        <ele>2524.1999999999998</ele>
        <time>2023-06-25T04:20:16Z</time>
      </trkpt>
      <trkpt lat="46.406409256160259" lon="8.342141434550285">
        <ele>2524.98</ele>
        <time>2023-06-25T04:20:29Z</time>
      </trkpt>
      <trkpt lat="46.406400538980961" lon="8.342139087617397">
        <ele>2524.98</ele>
        <time>2023-06-25T04:20:30Z</time>
      </trkpt>
      <trkpt lat="46.406342955306172" lon="8.342118049040437">
        <ele>2524.7199999999998</ele>
        <time>2023-06-25T04:20:37Z</time>
      </trkpt>
      <trkpt lat="46.406317893415689" lon="8.342105476185679">
        <ele>2524.1500000000001</ele>
        <time>2023-06-25T04:20:50Z</time>
      </trkpt>
      <trkpt lat="46.40627833083272" lon="8.34206834435463">
        <ele>2523.6999999999998</ele>
        <time>2023-06-25T04:21:11Z</time>
      </trkpt>
      <trkpt lat="46.406211527064443" lon="8.342031883075833">
        <ele>2523.23</ele>
        <time>2023-06-25T04:21:22Z</time>
      </trkpt>
      <trkpt lat="46.40609024092555" lon="8.341962732374668">
        <ele>2522.2600000000002</ele>
        <time>2023-06-25T04:21:39Z</time>
      </trkpt>
      <trkpt lat="46.406090408563614" lon="8.341956026852131">
        <ele>2522.3499999999999</ele>
        <time>2023-06-25T04:22:00Z</time>
      </trkpt>
      <trkpt lat="46.40608730725944" lon="8.341960636898875">
        <ele>2522.8000000000002</ele>
        <time>2023-06-25T04:22:19Z</time>
      </trkpt>
      <trkpt lat="46.406092336401343" lon="8.341957535594702">
        <ele>2524.5999999999999</ele>
        <time>2023-06-25T04:22:45Z</time>
      </trkpt>
      <trkpt lat="46.406054617837071" lon="8.341940771788359">
        <ele>2525.1100000000001</ele>
        <time>2023-06-25T04:22:56Z</time>
      </trkpt>
      <trkpt lat="46.406002650037408" lon="8.341926941648126">
        <ele>2525.6799999999998</ele>
        <time>2023-06-25T04:23:10Z</time>
      </trkpt>
      <trkpt lat="46.40589234419167" lon="8.341876398772001">
        <ele>2525.4499999999998</ele>
        <time>2023-06-25T04:23:23Z</time>
      </trkpt>
      <trkpt lat="46.40577700920403" lon="8.341758130118251">
        <ele>2522.8099999999999</ele>
        <time>2023-06-25T04:23:40Z</time>
      </trkpt>
      <trkpt lat="46.40570224262774" lon="8.341660564765334">
        <ele>2521.8400000000001</ele>
        <time>2023-06-25T04:23:56Z</time>
      </trkpt>
      <trkpt lat="46.405694950371981" lon="8.341650506481528">
        <ele>2521.3299999999999</ele>
        <time>2023-06-25T04:23:59Z</time>
      </trkpt>
      <trkpt lat="46.405669637024403" lon="8.34153039380908">
        <ele>2519.4499999999998</ele>
        <time>2023-06-25T04:24:11Z</time>
      </trkpt>
      <trkpt lat="46.405624039471149" lon="8.341441294178367">
        <ele>2518.3099999999999</ele>
        <time>2023-06-25T04:24:20Z</time>
      </trkpt>
      <trkpt lat="46.405545836314559" lon="8.341363426297903">
        <ele>2516.9400000000001</ele>
        <time>2023-06-25T04:24:32Z</time>
      </trkpt>
      <trkpt lat="46.405446510761976" lon="8.341260915622115">
        <ele>2514.73</ele>
        <time>2023-06-25T04:24:48Z</time>
      </trkpt>
      <trkpt lat="46.405433602631092" lon="8.341255551204085">
        <ele>2514.3000000000002</ele>
        <time>2023-06-25T04:24:50Z</time>
      </trkpt>
      <trkpt lat="46.405349615961313" lon="8.341160919517279">
        <ele>2512.6599999999999</ele>
        <time>2023-06-25T04:25:05Z</time>
      </trkpt>
      <trkpt lat="46.4052605163306" lon="8.341050110757351">
        <ele>2511.4499999999998</ele>
        <time>2023-06-25T04:25:21Z</time>
      </trkpt>
      <trkpt lat="46.405255235731602" lon="8.341038376092911">
        <ele>2511.0700000000002</ele>
        <time>2023-06-25T04:25:22Z</time>
      </trkpt>
      <trkpt lat="46.405178541317582" lon="8.340888675302267">
        <ele>2510.2199999999998</ele>
        <time>2023-06-25T04:25:37Z</time>
      </trkpt>
      <trkpt lat="46.405099416151643" lon="8.340769819915295">
        <ele>2510.1300000000001</ele>
        <time>2023-06-25T04:25:53Z</time>
      </trkpt>
      <trkpt lat="46.405019452795386" lon="8.340654904022813">
        <ele>2510.6300000000001</ele>
        <time>2023-06-25T04:26:08Z</time>
      </trkpt>
      <trkpt lat="46.404980728402734" lon="8.340590028092265">
        <ele>2509.96</ele>
        <time>2023-06-25T04:26:21Z</time>
      </trkpt>
      <trkpt lat="46.404914930462837" lon="8.340516686439514">
        <ele>2510.3600000000001</ele>
        <time>2023-06-25T04:26:36Z</time>
      </trkpt>
      <trkpt lat="46.404865561053157" lon="8.340442925691605">
        <ele>2511.75</ele>
        <time>2023-06-25T04:26:49Z</time>
      </trkpt>
      <trkpt lat="46.404800433665514" lon="8.34037964232266">
        <ele>2512.5100000000002</ele>
        <time>2023-06-25T04:27:04Z</time>
      </trkpt>
      <trkpt lat="46.40476749278605" lon="8.340301858261228">
        <ele>2511.8099999999999</ele>
        <time>2023-06-25T04:27:21Z</time>
      </trkpt>
      <trkpt lat="46.404683589935303" lon="8.340262044221163">
        <ele>2512.8899999999999</ele>
        <time>2023-06-25T04:27:35Z</time>
      </trkpt>
      <trkpt lat="46.404618630185723" lon="8.340152492746711">
        <ele>2513.0700000000002</ele>
        <time>2023-06-25T04:27:48Z</time>
      </trkpt>
      <trkpt lat="46.404561381787062" lon="8.34006205201149">
        <ele>2513.5300000000002</ele>
        <time>2023-06-25T04:28:02Z</time>
      </trkpt>
      <trkpt lat="46.40451880171895" lon="8.339991476386786">
        <ele>2513.4400000000001</ele>
        <time>2023-06-25T04:28:15Z</time>
      </trkpt>
      <trkpt lat="46.404492063447833" lon="8.339872704818845">
        <ele>2513.5900000000001</ele>
        <time>2023-06-25T04:28:30Z</time>
      </trkpt>
      <trkpt lat="46.404485777020454" lon="8.339860048145056">
        <ele>2513.96</ele>
        <time>2023-06-25T04:28:45Z</time>
      </trkpt>
      <trkpt lat="46.404483765363693" lon="8.339821994304657">
        <ele>2514.3400000000001</ele>
        <time>2023-06-25T04:29:03Z</time>
      </trkpt>
      <trkpt lat="46.40446750447154" lon="8.339753849431872">
        <ele>2514.6500000000001</ele>
        <time>2023-06-25T04:29:15Z</time>
      </trkpt>
      <trkpt lat="46.404430372640491" lon="8.339624432846904">
        <ele>2515.5500000000002</ele>
        <time>2023-06-25T04:29:31Z</time>
      </trkpt>
      <trkpt lat="46.404389133676887" lon="8.339495938271284">
        <ele>2516.2800000000002</ele>
        <time>2023-06-25T04:29:48Z</time>
      </trkpt>
      <trkpt lat="46.404314786195755" lon="8.339371047914028">
        <ele>2516.9499999999998</ele>
        <time>2023-06-25T04:30:07Z</time>
      </trkpt>
      <trkpt lat="46.404217639937997" lon="8.339278176426888">
        <ele>2517.48</ele>
        <time>2023-06-25T04:30:25Z</time>
      </trkpt>
      <trkpt lat="46.40410590916872" lon="8.339177593588829">
        <ele>2516.79</ele>
        <time>2023-06-25T04:30:43Z</time>
      </trkpt>
      <trkpt lat="46.404018821194768" lon="8.339114477857947">
        <ele>2517.1300000000001</ele>
        <time>2023-06-25T04:30:57Z</time>
      </trkpt>
      <trkpt lat="46.403907593339682" lon="8.339027557522059">
        <ele>2516.8499999999999</ele>
        <time>2023-06-25T04:31:13Z</time>
      </trkpt>
      <trkpt lat="46.403799634426832" lon="8.338923370465636">
        <ele>2515.9099999999999</ele>
        <time>2023-06-25T04:31:30Z</time>
      </trkpt>
      <trkpt lat="46.403727298602462" lon="8.338911300525069">
        <ele>2515.48</ele>
        <time>2023-06-25T04:31:45Z</time>
      </trkpt>
      <trkpt lat="46.403653454035521" lon="8.338855393230915">
        <ele>2515.2399999999998</ele>
        <time>2023-06-25T04:32:00Z</time>
      </trkpt>
      <trkpt lat="46.403589835390449" lon="8.338799737393856">
        <ele>2515.1399999999999</ele>
        <time>2023-06-25T04:32:16Z</time>
      </trkpt>
      <trkpt lat="46.403514901176095" lon="8.338735867291689">
        <ele>2515.1199999999999</ele>
        <time>2023-06-25T04:32:30Z</time>
      </trkpt>
      <trkpt lat="46.403448516502976" lon="8.338648779317737">
        <ele>2515.1300000000001</ele>
        <time>2023-06-25T04:32:48Z</time>
      </trkpt>
      <trkpt lat="46.403412306681275" lon="8.338543921709061">
        <ele>2514.27</ele>
        <time>2023-06-25T04:33:03Z</time>
      </trkpt>
      <trkpt lat="46.403410714119673" lon="8.338496647775173">
        <ele>2514.1300000000001</ele>
        <time>2023-06-25T04:33:08Z</time>
      </trkpt>
      <trkpt lat="46.403360422700644" lon="8.338390113785863">
        <ele>2515.46</ele>
        <time>2023-06-25T04:33:23Z</time>
      </trkpt>
      <trkpt lat="46.403299402445555" lon="8.338280227035284">
        <ele>2517.1500000000001</ele>
        <time>2023-06-25T04:33:37Z</time>
      </trkpt>
      <trkpt lat="46.403285907581449" lon="8.338246867060661">
        <ele>2516.9899999999998</ele>
        <time>2023-06-25T04:33:41Z</time>
      </trkpt>
      <trkpt lat="46.403284482657909" lon="8.33814955316484">
        <ele>2516.8000000000002</ele>
        <time>2023-06-25T04:33:49Z</time>
      </trkpt>
      <trkpt lat="46.40328305773437" lon="8.338062129914761">
        <ele>2516.3200000000002</ele>
        <time>2023-06-25T04:33:55Z</time>
      </trkpt>
      <trkpt lat="46.403285656124353" lon="8.337908070534468">
        <ele>2516.3699999999999</ele>
        <time>2023-06-25T04:34:09Z</time>
      </trkpt>
      <trkpt lat="46.403225557878613" lon="8.337770607322455">
        <ele>2517.3000000000002</ele>
        <time>2023-06-25T04:34:26Z</time>
      </trkpt>
      <trkpt lat="46.403128327801824" lon="8.337711347267032">
        <ele>2519.1700000000001</ele>
        <time>2023-06-25T04:34:42Z</time>
      </trkpt>
      <trkpt lat="46.403061021119356" lon="8.337678490206599">
        <ele>2520.5</ele>
        <time>2023-06-25T04:34:57Z</time>
      </trkpt>
      <trkpt lat="46.402998575940728" lon="8.337569776922464">
        <ele>2520.8699999999999</ele>
        <time>2023-06-25T04:35:12Z</time>
      </trkpt>
      <trkpt lat="46.402919115498662" lon="8.337449999526143">
        <ele>2520.6300000000001</ele>
        <time>2023-06-25T04:35:28Z</time>
      </trkpt>
      <trkpt lat="46.402892209589481" lon="8.337342543527484">
        <ele>2521.4000000000001</ele>
        <time>2023-06-25T04:35:41Z</time>
      </trkpt>
      <trkpt lat="46.402833368629217" lon="8.33727247081697">
        <ele>2523.1999999999998</ele>
        <time>2023-06-25T04:35:55Z</time>
      </trkpt>
      <trkpt lat="46.402822891250253" lon="8.337182449176908">
        <ele>2523.8499999999999</ele>
        <time>2023-06-25T04:36:10Z</time>
      </trkpt>
      <trkpt lat="46.402789950370789" lon="8.337162835523486">
        <ele>2523.48</ele>
        <time>2023-06-25T04:36:30Z</time>
      </trkpt>
      <trkpt lat="46.402760865166783" lon="8.337092511355877">
        <ele>2524.5</ele>
        <time>2023-06-25T04:36:44Z</time>
      </trkpt>
      <trkpt lat="46.402759272605181" lon="8.337095277383924">
        <ele>2523.79</ele>
        <time>2023-06-25T04:37:05Z</time>
      </trkpt>
      <trkpt lat="46.402749801054597" lon="8.337098881602287">
        <ele>2524.6100000000001</ele>
        <time>2023-06-25T04:37:29Z</time>
      </trkpt>
      <trkpt lat="46.402742089703679" lon="8.337108269333839">
        <ele>2524.04</ele>
        <time>2023-06-25T04:37:56Z</time>
      </trkpt>
      <trkpt lat="46.402692971751094" lon="8.337047919631004">
        <ele>2525.1900000000001</ele>
        <time>2023-06-25T04:38:11Z</time>
      </trkpt>
      <trkpt lat="46.402601441368461" lon="8.33696217276156">
        <ele>2525.6900000000001</ele>
        <time>2023-06-25T04:38:27Z</time>
      </trkpt>
      <trkpt lat="46.402508402243257" lon="8.336866032332182">
        <ele>2526.6900000000001</ele>
        <time>2023-06-25T04:38:43Z</time>
      </trkpt>
      <trkpt lat="46.402442436665297" lon="8.336838288232684">
        <ele>2527.71</ele>
        <time>2023-06-25T04:38:55Z</time>
      </trkpt>
      <trkpt lat="46.402364065870643" lon="8.336862847208977">
        <ele>2528.3499999999999</ele>
        <time>2023-06-25T04:39:09Z</time>
      </trkpt>
      <trkpt lat="46.402300279587507" lon="8.33687667734921">
        <ele>2529.29</ele>
        <time>2023-06-25T04:39:21Z</time>
      </trkpt>
      <trkpt lat="46.402232050895691" lon="8.336868127807975">
        <ele>2530.1900000000001</ele>
        <time>2023-06-25T04:39:33Z</time>
      </trkpt>
      <trkpt lat="46.402151584625244" lon="8.33682001568377">
        <ele>2531.5599999999999</ele>
        <time>2023-06-25T04:39:50Z</time>
      </trkpt>
      <trkpt lat="46.4020727109164" lon="8.336801072582603">
        <ele>2532.2399999999998</ele>
        <time>2023-06-25T04:40:05Z</time>
      </trkpt>
      <trkpt lat="46.4020243473351" lon="8.336764862760902">
        <ele>2533.8800000000001</ele>
        <time>2023-06-25T04:40:18Z</time>
      </trkpt>
      <trkpt lat="46.401982856914401" lon="8.336655311286449">
        <ele>2534.9099999999999</ele>
        <time>2023-06-25T04:40:33Z</time>
      </trkpt>
      <trkpt lat="46.401937426999211" lon="8.336583226919174">
        <ele>2535.4099999999999</ele>
        <time>2023-06-25T04:40:46Z</time>
      </trkpt>
      <trkpt lat="46.401887722313404" lon="8.336561266332865">
        <ele>2535.6399999999999</ele>
        <time>2023-06-25T04:40:58Z</time>
      </trkpt>
      <trkpt lat="46.401822259649634" lon="8.336510052904487">
        <ele>2537.02</ele>
        <time>2023-06-25T04:41:13Z</time>
      </trkpt>
      <trkpt lat="46.401749337092042" lon="8.336476441472769">
        <ele>2538.8400000000001</ele>
        <time>2023-06-25T04:41:27Z</time>
      </trkpt>
      <trkpt lat="46.401656465604901" lon="8.336378037929535">
        <ele>2539.46</ele>
        <time>2023-06-25T04:41:43Z</time>
      </trkpt>
      <trkpt lat="46.401560408994555" lon="8.336294470354915">
        <ele>2540.9200000000001</ele>
        <time>2023-06-25T04:41:58Z</time>
      </trkpt>
      <trkpt lat="46.401475584134459" lon="8.3362399879843">
        <ele>2541.5999999999999</ele>
        <time>2023-06-25T04:42:11Z</time>
      </trkpt>
      <trkpt lat="46.401410037651658" lon="8.336167065426707">
        <ele>2542.25</ele>
        <time>2023-06-25T04:42:25Z</time>
      </trkpt>
      <trkpt lat="46.401323117315769" lon="8.336143847554922">
        <ele>2542.8899999999999</ele>
        <time>2023-06-25T04:42:40Z</time>
      </trkpt>
      <trkpt lat="46.401246506720781" lon="8.336078384891152">
        <ele>2543.75</ele>
        <time>2023-06-25T04:42:55Z</time>
      </trkpt>
      <trkpt lat="46.401171069592237" lon="8.335988111793995">
        <ele>2544.8699999999999</ele>
        <time>2023-06-25T04:43:10Z</time>
      </trkpt>
      <trkpt lat="46.401081047952175" lon="8.335928181186318">
        <ele>2545.8000000000002</ele>
        <time>2023-06-25T04:43:27Z</time>
      </trkpt>
      <trkpt lat="46.401010891422629" lon="8.335834639146924">
        <ele>2546.5999999999999</ele>
        <time>2023-06-25T04:43:43Z</time>
      </trkpt>
      <trkpt lat="46.400928162038326" lon="8.335760878399015">
        <ele>2546.1199999999999</ele>
        <time>2023-06-25T04:43:57Z</time>
      </trkpt>
      <trkpt lat="46.400815676897764" lon="8.33568200469017">
        <ele>2546.6700000000001</ele>
        <time>2023-06-25T04:44:14Z</time>
      </trkpt>
      <trkpt lat="46.40069916844368" lon="8.335641101002693">
        <ele>2547.1599999999999</ele>
        <time>2023-06-25T04:44:30Z</time>
      </trkpt>
      <trkpt lat="46.400607470422983" lon="8.335609082132578">
        <ele>2547.8200000000002</ele>
        <time>2023-06-25T04:44:44Z</time>
      </trkpt>
      <trkpt lat="46.400549719110131" lon="8.335532639175654">
        <ele>2548.6399999999999</ele>
        <time>2023-06-25T04:44:58Z</time>
      </trkpt>
      <trkpt lat="46.400463217869401" lon="8.335454268381">
        <ele>2549.3099999999999</ele>
        <time>2023-06-25T04:45:14Z</time>
      </trkpt>
      <trkpt lat="46.400358192622662" lon="8.335380256175995">
        <ele>2549.23</ele>
        <time>2023-06-25T04:45:30Z</time>
      </trkpt>
      <trkpt lat="46.400245456025004" lon="8.335350416600704">
        <ele>2549.3899999999999</ele>
        <time>2023-06-25T04:45:47Z</time>
      </trkpt>
      <trkpt lat="46.400163313373923" lon="8.335284534841776">
        <ele>2549.75</ele>
        <time>2023-06-25T04:46:01Z</time>
      </trkpt>
      <trkpt lat="46.400069184601307" lon="8.335207756608725">
        <ele>2550.3200000000002</ele>
        <time>2023-06-25T04:46:16Z</time>
      </trkpt>
      <trkpt lat="46.399994501844049" lon="8.335115052759647">
        <ele>2550.4400000000001</ele>
        <time>2023-06-25T04:46:31Z</time>
      </trkpt>
      <trkpt lat="46.399903809651732" lon="8.335024360567331">
        <ele>2551.02</ele>
        <time>2023-06-25T04:46:47Z</time>
      </trkpt>
      <trkpt lat="46.399855613708496" lon="8.334984462708235">
        <ele>2550.9299999999998</ele>
        <time>2023-06-25T04:46:59Z</time>
      </trkpt>
      <trkpt lat="46.399797024205327" lon="8.334992341697216">
        <ele>2551.29</ele>
        <time>2023-06-25T04:47:12Z</time>
      </trkpt>
      <trkpt lat="46.3996965251863" lon="8.334910701960325">
        <ele>2551.8000000000002</ele>
        <time>2023-06-25T04:47:27Z</time>
      </trkpt>
      <trkpt lat="46.399679090827703" lon="8.334893602877855">
        <ele>2551.4000000000001</ele>
        <time>2023-06-25T04:47:30Z</time>
      </trkpt>
      <trkpt lat="46.399576747789979" lon="8.334876419976354">
        <ele>2551.4899999999998</ele>
        <time>2023-06-25T04:47:44Z</time>
      </trkpt>
      <trkpt lat="46.399571048095822" lon="8.334881197661161">
        <ele>2551.48</ele>
        <time>2023-06-25T04:48:09Z</time>
      </trkpt>
      <trkpt lat="46.399580519646406" lon="8.334868038073182">
        <ele>2551.96</ele>
        <time>2023-06-25T04:48:26Z</time>
      </trkpt>
      <trkpt lat="46.399583872407675" lon="8.334848256781697">
        <ele>2551.5799999999999</ele>
        <time>2023-06-25T04:48:45Z</time>
      </trkpt>
      <trkpt lat="46.399556715041399" lon="8.334745327010751">
        <ele>2549.3499999999999</ele>
        <time>2023-06-25T04:49:00Z</time>
      </trkpt>
      <trkpt lat="46.39951765537262" lon="8.334678439423442">
        <ele>2548.4499999999998</ele>
        <time>2023-06-25T04:49:13Z</time>
      </trkpt>
      <trkpt lat="46.399535425007343" lon="8.334611551836133">
        <ele>2547.8299999999999</ele>
        <time>2023-06-25T04:49:26Z</time>
      </trkpt>
      <trkpt lat="46.399526624009013" lon="8.334527816623449">
        <ele>2548.23</ele>
        <time>2023-06-25T04:49:39Z</time>
      </trkpt>
      <trkpt lat="46.399513212963939" lon="8.334517339244485">
        <ele>2548.1999999999998</ele>
        <time>2023-06-25T04:49:44Z</time>
      </trkpt>
      <trkpt lat="46.399495275691152" lon="8.334504598751664">
        <ele>2548.1900000000001</ele>
        <time>2023-06-25T04:49:46Z</time>
      </trkpt>
      <trkpt lat="46.399404248222709" lon="8.334369901567698">
        <ele>2549.3099999999999</ele>
        <time>2023-06-25T04:50:03Z</time>
      </trkpt>
      <trkpt lat="46.39935739338398" lon="8.334219278767705">
        <ele>2549.6999999999998</ele>
        <time>2023-06-25T04:50:22Z</time>
      </trkpt>
      <trkpt lat="46.399347586557269" lon="8.33417996764183">
        <ele>2550.2399999999998</ele>
        <time>2023-06-25T04:50:39Z</time>
      </trkpt>
      <trkpt lat="46.399335768073797" lon="8.334089275449514">
        <ele>2551.6100000000001</ele>
        <time>2023-06-25T04:50:53Z</time>
      </trkpt>
      <trkpt lat="46.399264940991998" lon="8.333980478346348">
        <ele>2552.2600000000002</ele>
        <time>2023-06-25T04:51:09Z</time>
      </trkpt>
      <trkpt lat="46.399241806939244" lon="8.333881907165051">
        <ele>2553.1300000000001</ele>
        <time>2023-06-25T04:51:23Z</time>
      </trkpt>
      <trkpt lat="46.39921079389751" lon="8.333769254386425">
        <ele>2554.3499999999999</ele>
        <time>2023-06-25T04:51:39Z</time>
      </trkpt>
      <trkpt lat="46.399183049798012" lon="8.333670264109969">
        <ele>2554.77</ele>
        <time>2023-06-25T04:51:55Z</time>
      </trkpt>
      <trkpt lat="46.399179277941585" lon="8.33366297185421">
        <ele>2554.4000000000001</ele>
        <time>2023-06-25T04:52:23Z</time>
      </trkpt>
      <trkpt lat="46.399179864674807" lon="8.333666743710637">
        <ele>2554.8800000000001</ele>
        <time>2023-06-25T04:52:51Z</time>
      </trkpt>
      <trkpt lat="46.399177517741919" lon="8.333675125613809">
        <ele>2554.8800000000001</ele>
        <time>2023-06-25T04:53:16Z</time>
      </trkpt>
      <trkpt lat="46.399159077554941" lon="8.333646040409803">
        <ele>2555.46</ele>
        <time>2023-06-25T04:53:33Z</time>
      </trkpt>
      <trkpt lat="46.399042820557952" lon="8.333543110638857">
        <ele>2557.0799999999999</ele>
        <time>2023-06-25T04:53:53Z</time>
      </trkpt>
      <trkpt lat="46.398907788097858" lon="8.333441857248545">
        <ele>2558.8699999999999</ele>
        <time>2023-06-25T04:54:12Z</time>
      </trkpt>
      <trkpt lat="46.398807540535927" lon="8.333338173106313">
        <ele>2561.1599999999999</ele>
        <time>2023-06-25T04:54:30Z</time>
      </trkpt>
      <trkpt lat="46.398720620200038" lon="8.333254437893629">
        <ele>2562.5799999999999</ele>
        <time>2023-06-25T04:54:45Z</time>
      </trkpt>
      <trkpt lat="46.398675860837102" lon="8.333196016028523">
        <ele>2564.0700000000002</ele>
        <time>2023-06-25T04:55:01Z</time>
      </trkpt>
      <trkpt lat="46.398620372638106" lon="8.333139019086957">
        <ele>2565.1100000000001</ele>
        <time>2023-06-25T04:55:25Z</time>
      </trkpt>
      <trkpt lat="46.398532446473837" lon="8.333073053508997">
        <ele>2566.5</ele>
        <time>2023-06-25T04:55:42Z</time>
      </trkpt>
      <trkpt lat="46.398441083729267" lon="8.332963669672608">
        <ele>2568.3699999999999</ele>
        <time>2023-06-25T04:56:00Z</time>
      </trkpt>
      <trkpt lat="46.398364305496216" lon="8.33286945708096">
        <ele>2570.1999999999998</ele>
        <time>2023-06-25T04:56:18Z</time>
      </trkpt>
      <trkpt lat="46.3983219768852" lon="8.332769460976124">
        <ele>2571.48</ele>
        <time>2023-06-25T04:56:33Z</time>
      </trkpt>
      <trkpt lat="46.398318205028772" lon="8.332668794319034">
        <ele>2572.7199999999998</ele>
        <time>2023-06-25T04:56:46Z</time>
      </trkpt>
      <trkpt lat="46.39829708263278" lon="8.332567708566785">
        <ele>2573.7600000000002</ele>
        <time>2023-06-25T04:57:00Z</time>
      </trkpt>
      <trkpt lat="46.398279564455152" lon="8.332463353872299">
        <ele>2575.4400000000001</ele>
        <time>2023-06-25T04:57:14Z</time>
      </trkpt>
      <trkpt lat="46.398272104561329" lon="8.33243066444993">
        <ele>2575.9000000000001</ele>
        <time>2023-06-25T04:57:29Z</time>
      </trkpt>
      <trkpt lat="46.398278055712581" lon="8.332437537610531">
        <ele>2575.5</ele>
        <time>2023-06-25T04:57:59Z</time>
      </trkpt>
      <trkpt lat="46.398275792598724" lon="8.332444746047258">
        <ele>2573.9699999999998</ele>
        <time>2023-06-25T04:58:30Z</time>
      </trkpt>
      <trkpt lat="46.398282079026103" lon="8.332437034696341">
        <ele>2573.3400000000001</ele>
        <time>2023-06-25T04:59:24Z</time>
      </trkpt>
      <trkpt lat="46.39829071238637" lon="8.332445416599512">
        <ele>2572.8400000000001</ele>
        <time>2023-06-25T04:59:59Z</time>
      </trkpt>
      <trkpt lat="46.398289455100894" lon="8.332425383850932">
        <ele>2573.0599999999999</ele>
        <time>2023-06-25T05:00:41Z</time>
      </trkpt>
      <trkpt lat="46.398295909166336" lon="8.332408117130399">
        <ele>2574.0999999999999</ele>
        <time>2023-06-25T05:01:41Z</time>
      </trkpt>
      <trkpt lat="46.398292807862163" lon="8.33237299695611">
        <ele>2575.75</ele>
        <time>2023-06-25T05:02:37Z</time>
      </trkpt>
      <trkpt lat="46.398292304947972" lon="8.332382552325726">
        <ele>2576.23</ele>
        <time>2023-06-25T05:03:36Z</time>
      </trkpt>
      <trkpt lat="46.398270763456821" lon="8.33241892978549">
        <ele>2575.0500000000002</ele>
        <time>2023-06-25T05:04:05Z</time>
      </trkpt>
      <trkpt lat="46.39825358055532" lon="8.332422617822886">
        <ele>2573.8099999999999</ele>
        <time>2023-06-25T05:04:39Z</time>
      </trkpt>
      <trkpt lat="46.398239834234118" lon="8.332420689985156">
        <ele>2571.1199999999999</ele>
        <time>2023-06-25T05:05:30Z</time>
      </trkpt>
      <trkpt lat="46.398237403482199" lon="8.332405602559447">
        <ele>2569.3200000000002</ele>
        <time>2023-06-25T05:06:12Z</time>
      </trkpt>
      <trkpt lat="46.398220639675856" lon="8.332397388294339">
        <ele>2567.6300000000001</ele>
        <time>2023-06-25T05:06:45Z</time>
      </trkpt>
      <trkpt lat="46.398249557241797" lon="8.332406189292669">
        <ele>2568.5</ele>
        <time>2023-06-25T05:07:41Z</time>
      </trkpt>
      <trkpt lat="46.398228434845805" lon="8.332394706085324">
        <ele>2566.71</ele>
        <time>2023-06-25T05:08:24Z</time>
      </trkpt>
      <trkpt lat="46.398216029629111" lon="8.332391604781151">
        <ele>2563.6999999999998</ele>
        <time>2023-06-25T05:09:09Z</time>
      </trkpt>
      <trkpt lat="46.398152327165008" lon="8.332364447414875">
        <ele>2560.7800000000002</ele>
        <time>2023-06-25T05:09:42Z</time>
      </trkpt>
      <trkpt lat="46.398210832849145" lon="8.332362435758114">
        <ele>2565.29</ele>
        <time>2023-06-25T05:10:03Z</time>
      </trkpt>
      <trkpt lat="46.398273361846805" lon="8.332414906471968">
        <ele>2570.7199999999998</ele>
        <time>2023-06-25T05:10:53Z</time>
      </trkpt>
      <trkpt lat="46.398215694352984" lon="8.332385737448931">
        <ele>2567.0100000000002</ele>
        <time>2023-06-25T05:11:42Z</time>
      </trkpt>
      <trkpt lat="46.39820471405983" lon="8.332387413829565">
        <ele>2567.2600000000002</ele>
        <time>2023-06-25T05:12:34Z</time>
      </trkpt>
      <trkpt lat="46.39817881397903" lon="8.332384983077645">
        <ele>2566.23</ele>
        <time>2023-06-25T05:13:30Z</time>
      </trkpt>
      <trkpt lat="46.398159703239799" lon="8.332377690821886">
        <ele>2565.8699999999999</ele>
        <time>2023-06-25T05:14:02Z</time>
      </trkpt>
      <trkpt lat="46.3981993496418" lon="8.332394370809197">
        <ele>2566.5</ele>
        <time>2023-06-25T05:14:27Z</time>
      </trkpt>
      <trkpt lat="46.398184513673186" lon="8.332382719963789">
        <ele>2566.4200000000001</ele>
        <time>2023-06-25T05:14:58Z</time>
      </trkpt>
      <trkpt lat="46.39819985255599" lon="8.332398980855942">
        <ele>2565.8400000000001</ele>
        <time>2023-06-25T05:15:29Z</time>
      </trkpt>
      <trkpt lat="46.39820471405983" lon="8.332407111302018">
        <ele>2565.5500000000002</ele>
        <time>2023-06-25T05:16:05Z</time>
      </trkpt>
      <trkpt lat="46.398218963295221" lon="8.332408871501684">
        <ele>2565.27</ele>
        <time>2023-06-25T05:16:39Z</time>
      </trkpt>
      <trkpt lat="46.398207899183035" lon="8.332394286990166">
        <ele>2565.21</ele>
        <time>2023-06-25T05:17:10Z</time>
      </trkpt>
      <trkpt lat="46.398201361298561" lon="8.33240132778883">
        <ele>2565.3600000000001</ele>
        <time>2023-06-25T05:17:34Z</time>
      </trkpt>
      <trkpt lat="46.39820865355432" lon="8.332405854016542">
        <ele>2565.3699999999999</ele>
        <time>2023-06-25T05:17:59Z</time>
      </trkpt>
      <trkpt lat="46.398224830627441" lon="8.332412224262953">
        <ele>2565.5100000000002</ele>
        <time>2023-06-25T05:18:29Z</time>
      </trkpt>
      <trkpt lat="46.398232625797391" lon="8.332411302253604">
        <ele>2565.46</ele>
        <time>2023-06-25T05:19:05Z</time>
      </trkpt>
      <trkpt lat="46.398239247500896" lon="8.332403171807528">
        <ele>2565.4000000000001</ele>
        <time>2023-06-25T05:19:25Z</time>
      </trkpt>
      <trkpt lat="46.398242097347975" lon="8.332411218434572">
        <ele>2566.8200000000002</ele>
        <time>2023-06-25T05:19:53Z</time>
      </trkpt>
      <trkpt lat="46.39825408346951" lon="8.332414235919714">
        <ele>2568.21</ele>
        <time>2023-06-25T05:20:29Z</time>
      </trkpt>
      <trkpt lat="46.398258525878191" lon="8.332415157929063">
        <ele>2566.6900000000001</ele>
        <time>2023-06-25T05:20:54Z</time>
      </trkpt>
      <trkpt lat="46.398256346583366" lon="8.332414571195841">
        <ele>2566.3400000000001</ele>
        <time>2023-06-25T05:21:22Z</time>
      </trkpt>
      <trkpt lat="46.398241175338626" lon="8.332420103251934">
        <ele>2566.48</ele>
        <time>2023-06-25T05:21:43Z</time>
      </trkpt>
      <trkpt lat="46.398230781778693" lon="8.332417253404856">
        <ele>2566.9899999999998</ele>
        <time>2023-06-25T05:22:13Z</time>
      </trkpt>
      <trkpt lat="46.398237235844135" lon="8.332418343052268">
        <ele>2568.3200000000002</ele>
        <time>2023-06-25T05:22:34Z</time>
      </trkpt>
      <trkpt lat="46.398236565291882" lon="8.332421611994505">
        <ele>2570.4699999999998</ele>
        <time>2023-06-25T05:22:57Z</time>
      </trkpt>
      <trkpt lat="46.398238660767674" lon="8.332419767975807">
        <ele>2573.0599999999999</ele>
        <time>2023-06-25T05:23:27Z</time>
      </trkpt>
      <trkpt lat="46.398253077641129" lon="8.332428736612201">
        <ele>2574.5799999999999</ele>
        <time>2023-06-25T05:23:56Z</time>
      </trkpt>
      <trkpt lat="46.398265901952982" lon="8.332441728562117">
        <ele>2575.9400000000001</ele>
        <time>2023-06-25T05:24:18Z</time>
      </trkpt>
      <trkpt lat="46.398283001035452" lon="8.332439297810197">
        <ele>2576.8600000000001</ele>
        <time>2023-06-25T05:24:52Z</time>
      </trkpt>
      <trkpt lat="46.398284342139959" lon="8.332448434084654">
        <ele>2577.1199999999999</ele>
        <time>2023-06-25T05:25:16Z</time>
      </trkpt>
      <trkpt lat="46.398308230563998" lon="8.332462934777141">
        <ele>2577.96</ele>
        <time>2023-06-25T05:25:50Z</time>
      </trkpt>
      <trkpt lat="46.398289036005735" lon="8.332447092980146">
        <ele>2579.2399999999998</ele>
        <time>2023-06-25T05:26:17Z</time>
      </trkpt>
      <trkpt lat="46.398299764841795" lon="8.33244826644659">
        <ele>2580.4200000000001</ele>
        <time>2023-06-25T05:26:46Z</time>
      </trkpt>
      <trkpt lat="46.398299597203732" lon="8.332441980019212">
        <ele>2581.2600000000002</ele>
        <time>2023-06-25T05:27:11Z</time>
      </trkpt>
      <trkpt lat="46.398294484242797" lon="8.332437034696341">
        <ele>2582.2600000000002</ele>
        <time>2023-06-25T05:27:46Z</time>
      </trkpt>
      <trkpt lat="46.398298423737288" lon="8.33243552595377">
        <ele>2582.9400000000001</ele>
        <time>2023-06-25T05:28:13Z</time>
      </trkpt>
      <trkpt lat="46.39830194413662" lon="8.332431502640247">
        <ele>2583.4400000000001</ele>
        <time>2023-06-25T05:28:44Z</time>
      </trkpt>
      <trkpt lat="46.398303620517254" lon="8.332430245354772">
        <ele>2583.3800000000001</ele>
        <time>2023-06-25T05:29:10Z</time>
      </trkpt>
      <trkpt lat="46.398307979106903" lon="8.33243016153574">
        <ele>2583.6199999999999</ele>
        <time>2023-06-25T05:29:41Z</time>
      </trkpt>
      <trkpt lat="46.398307308554649" lon="8.332429155707359">
        <ele>2583.0700000000002</ele>
        <time>2023-06-25T05:30:12Z</time>
      </trkpt>
      <trkpt lat="46.398309990763664" lon="8.332428820431233">
        <ele>2583.0700000000002</ele>
        <time>2023-06-25T05:30:42Z</time>
      </trkpt>
      <trkpt lat="46.398302027955651" lon="8.332416750490665">
        <ele>2582.8800000000001</ele>
        <time>2023-06-25T05:31:14Z</time>
      </trkpt>
      <trkpt lat="46.398309320211411" lon="8.332419348880649">
        <ele>2583.4400000000001</ele>
        <time>2023-06-25T05:31:40Z</time>
      </trkpt>
      <trkpt lat="46.398303536698222" lon="8.332413733005524">
        <ele>2584.1399999999999</ele>
        <time>2023-06-25T05:32:18Z</time>
      </trkpt>
      <trkpt lat="46.398285599425435" lon="8.33236176520586">
        <ele>2584.5700000000002</ele>
        <time>2023-06-25T05:32:33Z</time>
      </trkpt>
      <trkpt lat="46.398239331319928" lon="8.332288423553109">
        <ele>2585.5999999999999</ele>
        <time>2023-06-25T05:32:49Z</time>
      </trkpt>
      <trkpt lat="46.398213347420096" lon="8.332185409963131">
        <ele>2586.6900000000001</ele>
        <time>2023-06-25T05:33:07Z</time>
      </trkpt>
      <trkpt lat="46.398183759301901" lon="8.332094214856625">
        <ele>2587.6999999999998</ele>
        <time>2023-06-25T05:33:25Z</time>
      </trkpt>
      <trkpt lat="46.398139838129282" lon="8.331965887919068">
        <ele>2588.6799999999998</ele>
        <time>2023-06-25T05:33:48Z</time>
      </trkpt>
      <trkpt lat="46.398094911128283" lon="8.33184870891273">
        <ele>2588.77</ele>
        <time>2023-06-25T05:34:10Z</time>
      </trkpt>
      <trkpt lat="46.39805275015533" lon="8.33173387683928">
        <ele>2589.6500000000001</ele>
        <time>2023-06-25T05:34:31Z</time>
      </trkpt>
      <trkpt lat="46.397995920851827" lon="8.331630863249302">
        <ele>2589.1399999999999</ele>
        <time>2023-06-25T05:34:49Z</time>
      </trkpt>
      <trkpt lat="46.397948395460844" lon="8.331536315381527">
        <ele>2589.0999999999999</ele>
        <time>2023-06-25T05:35:06Z</time>
      </trkpt>
      <trkpt lat="46.397908916696906" lon="8.331448640674353">
        <ele>2589.1199999999999</ele>
        <time>2023-06-25T05:35:24Z</time>
      </trkpt>
      <trkpt lat="46.397893745452166" lon="8.331382172182202">
        <ele>2590.0500000000002</ele>
        <time>2023-06-25T05:35:39Z</time>
      </trkpt>
      <trkpt lat="46.39788175933063" lon="8.331337496638298">
        <ele>2589.77</ele>
        <time>2023-06-25T05:35:55Z</time>
      </trkpt>
      <trkpt lat="46.397855104878545" lon="8.331265244632959">
        <ele>2590.5500000000002</ele>
        <time>2023-06-25T05:36:09Z</time>
      </trkpt>
      <trkpt lat="46.397820990532637" lon="8.331183940172195">
        <ele>2591.3600000000001</ele>
        <time>2023-06-25T05:36:24Z</time>
      </trkpt>
      <trkpt lat="46.397777823731303" lon="8.331089140847325">
        <ele>2591.96</ele>
        <time>2023-06-25T05:36:42Z</time>
      </trkpt>
      <trkpt lat="46.39774153009057" lon="8.331030802801251">
        <ele>2593.0900000000001</ele>
        <time>2023-06-25T05:36:57Z</time>
      </trkpt>
      <trkpt lat="46.397701967507601" lon="8.330956371501088">
        <ele>2593.9000000000001</ele>
        <time>2023-06-25T05:37:13Z</time>
      </trkpt>
      <trkpt lat="46.39765695668757" lon="8.330907924100757">
        <ele>2595.1599999999999</ele>
        <time>2023-06-25T05:37:27Z</time>
      </trkpt>
      <trkpt lat="46.397615130990744" lon="8.330856626853347">
        <ele>2595.79</ele>
        <time>2023-06-25T05:37:43Z</time>
      </trkpt>
      <trkpt lat="46.39756953343749" lon="8.33082695491612">
        <ele>2596.6500000000001</ele>
        <time>2023-06-25T05:37:57Z</time>
      </trkpt>
      <trkpt lat="46.397512285038829" lon="8.330782195553184">
        <ele>2598.73</ele>
        <time>2023-06-25T05:38:18Z</time>
      </trkpt>
      <trkpt lat="46.397465681657195" lon="8.330724444240332">
        <ele>2599.8400000000001</ele>
        <time>2023-06-25T05:38:36Z</time>
      </trkpt>
      <trkpt lat="46.39741899445653" lon="8.330688066780567">
        <ele>2601.0700000000002</ele>
        <time>2023-06-25T05:38:51Z</time>
      </trkpt>
      <trkpt lat="46.39737306162715" lon="8.330656131729484">
        <ele>2603.6100000000001</ele>
        <time>2023-06-25T05:39:06Z</time>
      </trkpt>
      <trkpt lat="46.397332493215799" lon="8.330596704035997">
        <ele>2605.54</ele>
        <time>2023-06-25T05:39:23Z</time>
      </trkpt>
      <trkpt lat="46.397285470739007" lon="8.330554040148854">
        <ele>2608.23</ele>
        <time>2023-06-25T05:39:40Z</time>
      </trkpt>
      <trkpt lat="46.397237274795771" lon="8.330479189753532">
        <ele>2610</ele>
        <time>2023-06-25T05:40:00Z</time>
      </trkpt>
      <trkpt lat="46.39719519764185" lon="8.330441974103451">
        <ele>2611.3099999999999</ele>
        <time>2023-06-25T05:40:16Z</time>
      </trkpt>
      <trkpt lat="46.397171560674906" lon="8.330408949404955">
        <ele>2611.8499999999999</ele>
        <time>2023-06-25T05:40:29Z</time>
      </trkpt>
      <trkpt lat="46.397141218185425" lon="8.330379026010633">
        <ele>2613.5</ele>
        <time>2023-06-25T05:40:44Z</time>
      </trkpt>
      <trkpt lat="46.397127974778414" lon="8.330358825623989">
        <ele>2613.6700000000001</ele>
        <time>2023-06-25T05:41:01Z</time>
      </trkpt>
      <trkpt lat="46.397119592875242" lon="8.330338457599282">
        <ele>2613.04</ele>
        <time>2023-06-25T05:41:29Z</time>
      </trkpt>
      <trkpt lat="46.397068379446864" lon="8.330335440114141">
        <ele>2615.0100000000002</ele>
        <time>2023-06-25T05:41:44Z</time>
      </trkpt>
      <trkpt lat="46.39700367115438" lon="8.330386988818646">
        <ele>2617.6399999999999</ele>
        <time>2023-06-25T05:42:04Z</time>
      </trkpt>
      <trkpt lat="46.396969221532345" lon="8.330405009910464">
        <ele>2618.27</ele>
        <time>2023-06-25T05:42:18Z</time>
      </trkpt>
      <trkpt lat="46.39692010357976" lon="8.330422779545188">
        <ele>2619.8200000000002</ele>
        <time>2023-06-25T05:42:36Z</time>
      </trkpt>
      <trkpt lat="46.39690107665956" lon="8.330404087901115">
        <ele>2620.5999999999999</ele>
        <time>2023-06-25T05:42:49Z</time>
      </trkpt>
      <trkpt lat="46.396873248741031" lon="8.330361591652036">
        <ele>2622.8600000000001</ele>
        <time>2023-06-25T05:43:05Z</time>
      </trkpt>
      <trkpt lat="46.396847432479262" lon="8.330321526154876">
        <ele>2624.8499999999999</ele>
        <time>2023-06-25T05:43:19Z</time>
      </trkpt>
      <trkpt lat="46.396826645359397" lon="8.330253213644028">
        <ele>2626.4000000000001</ele>
        <time>2023-06-25T05:43:35Z</time>
      </trkpt>
      <trkpt lat="46.396795716136694" lon="8.330199653282762">
        <ele>2628.1199999999999</ele>
        <time>2023-06-25T05:43:52Z</time>
      </trkpt>
      <trkpt lat="46.396777359768748" lon="8.330172412097454">
        <ele>2628.9099999999999</ele>
        <time>2023-06-25T05:44:06Z</time>
      </trkpt>
      <trkpt lat="46.396756740286946" lon="8.330190181732178">
        <ele>2629.7600000000002</ele>
        <time>2023-06-25T05:44:22Z</time>
      </trkpt>
      <trkpt lat="46.396756488829851" lon="8.330192780122161">
        <ele>2630.48</ele>
        <time>2023-06-25T05:44:40Z</time>
      </trkpt>
      <trkpt lat="46.39673444442451" lon="8.330201245844364">
        <ele>2630.8200000000002</ele>
        <time>2023-06-25T05:44:58Z</time>
      </trkpt>
      <trkpt lat="46.396688343957067" lon="8.330234102904797">
        <ele>2632.3299999999999</ele>
        <time>2023-06-25T05:45:13Z</time>
      </trkpt>
      <trkpt lat="46.396657498553395" lon="8.330264193937182">
        <ele>2633.1300000000001</ele>
        <time>2023-06-25T05:45:28Z</time>
      </trkpt>
      <trkpt lat="46.396615924313664" lon="8.330308198928833">
        <ele>2634.1300000000001</ele>
        <time>2023-06-25T05:45:44Z</time>
      </trkpt>
      <trkpt lat="46.396555071696639" lon="8.330398974940181">
        <ele>2635.9400000000001</ele>
        <time>2023-06-25T05:46:07Z</time>
      </trkpt>
      <trkpt lat="46.396499499678612" lon="8.330410709604621">
        <ele>2637.6100000000001</ele>
        <time>2023-06-25T05:46:27Z</time>
      </trkpt>
      <trkpt lat="46.396446106955409" lon="8.330436442047358">
        <ele>2639.6300000000001</ele>
        <time>2023-06-25T05:46:44Z</time>
      </trkpt>
      <trkpt lat="46.396366478875279" lon="8.330457229167223">
        <ele>2642.5300000000002</ele>
        <time>2023-06-25T05:47:11Z</time>
      </trkpt>
      <trkpt lat="46.396328508853912" lon="8.330461839213967">
        <ele>2644.21</ele>
        <time>2023-06-25T05:47:27Z</time>
      </trkpt>
      <trkpt lat="46.396285509690642" lon="8.33047273568809">
        <ele>2645.3600000000001</ele>
        <time>2023-06-25T05:47:41Z</time>
      </trkpt>
      <trkpt lat="46.396253239363432" lon="8.330478267744184">
        <ele>2646.5500000000002</ele>
        <time>2023-06-25T05:47:53Z</time>
      </trkpt>
      <trkpt lat="46.396218035370111" lon="8.330460833385587">
        <ele>2647.1900000000001</ele>
        <time>2023-06-25T05:48:06Z</time>
      </trkpt>
      <trkpt lat="46.396173862740397" lon="8.33043560385704">
        <ele>2648.96</ele>
        <time>2023-06-25T05:48:21Z</time>
      </trkpt>
      <trkpt lat="46.396137652918696" lon="8.330396208912134">
        <ele>2650.2199999999998</ele>
        <time>2023-06-25T05:48:36Z</time>
      </trkpt>
      <trkpt lat="46.396094905212522" lon="8.330362513661385">
        <ele>2651.98</ele>
        <time>2023-06-25T05:48:52Z</time>
      </trkpt>
      <trkpt lat="46.396055510267615" lon="8.330334266647697">
        <ele>2653.4200000000001</ele>
        <time>2023-06-25T05:49:06Z</time>
      </trkpt>
      <trkpt lat="46.395989963784814" lon="8.330317754298449">
        <ele>2656.27</ele>
        <time>2023-06-25T05:49:24Z</time>
      </trkpt>
      <trkpt lat="46.395932799205184" lon="8.330305684357882">
        <ele>2658.6999999999998</ele>
        <time>2023-06-25T05:49:39Z</time>
      </trkpt>
      <trkpt lat="46.395872952416539" lon="8.330285735428333">
        <ele>2660.5700000000002</ele>
        <time>2023-06-25T05:49:56Z</time>
      </trkpt>
      <trkpt lat="46.395818637683988" lon="8.330284394323826">
        <ele>2662.21</ele>
        <time>2023-06-25T05:50:11Z</time>
      </trkpt>
      <trkpt lat="46.395764071494341" lon="8.330291602760553">
        <ele>2664.2800000000002</ele>
        <time>2023-06-25T05:50:27Z</time>
      </trkpt>
      <trkpt lat="46.395692573860288" lon="8.330288417637348">
        <ele>2665.6900000000001</ele>
        <time>2023-06-25T05:50:45Z</time>
      </trkpt>
      <trkpt lat="46.395627362653613" lon="8.33026360720396">
        <ele>2666.52</ele>
        <time>2023-06-25T05:51:00Z</time>
      </trkpt>
      <trkpt lat="46.395568773150444" lon="8.330256985500455">
        <ele>2667.8400000000001</ele>
        <time>2023-06-25T05:51:17Z</time>
      </trkpt>
      <trkpt lat="46.395507669076324" lon="8.330254973843694">
        <ele>2668.6199999999999</ele>
        <time>2023-06-25T05:51:31Z</time>
      </trkpt>
      <trkpt lat="46.395437344908714" lon="8.330258158966899">
        <ele>2670.1199999999999</ele>
        <time>2023-06-25T05:51:48Z</time>
      </trkpt>
      <trkpt lat="46.39536626636982" lon="8.330266624689102">
        <ele>2670.5999999999999</ele>
        <time>2023-06-25T05:52:04Z</time>
      </trkpt>
      <trkpt lat="46.395299714058638" lon="8.33026603795588">
        <ele>2671.5500000000002</ele>
        <time>2023-06-25T05:52:19Z</time>
      </trkpt>
      <trkpt lat="46.395245902240276" lon="8.330269139260054">
        <ele>2672.54</ele>
        <time>2023-06-25T05:52:31Z</time>
      </trkpt>
      <trkpt lat="46.395154288038611" lon="8.330266373232007">
        <ele>2673.8200000000002</ele>
        <time>2023-06-25T05:52:48Z</time>
      </trkpt>
      <trkpt lat="46.395068792626262" lon="8.330251788720489">
        <ele>2675.02</ele>
        <time>2023-06-25T05:53:05Z</time>
      </trkpt>
      <trkpt lat="46.394996624439955" lon="8.330273330211639">
        <ele>2675.6900000000001</ele>
        <time>2023-06-25T05:53:20Z</time>
      </trkpt>
      <trkpt lat="46.394884139299393" lon="8.330298392102122">
        <ele>2676.75</ele>
        <time>2023-06-25T05:53:38Z</time>
      </trkpt>
      <trkpt lat="46.394812641665339" lon="8.330321274697781">
        <ele>2677.1999999999998</ele>
        <time>2023-06-25T05:53:51Z</time>
      </trkpt>
      <trkpt lat="46.394697474315763" lon="8.330316497012973">
        <ele>2677.9099999999999</ele>
        <time>2023-06-25T05:54:10Z</time>
      </trkpt>
      <trkpt lat="46.394590185955167" lon="8.33035983145237">
        <ele>2678.7399999999998</ele>
        <time>2023-06-25T05:54:30Z</time>
      </trkpt>
      <trkpt lat="46.394496895372868" lon="8.330390844494104">
        <ele>2679.27</ele>
        <time>2023-06-25T05:54:46Z</time>
      </trkpt>
      <trkpt lat="46.394358510151505" lon="8.330431915819645">
        <ele>2680</ele>
        <time>2023-06-25T05:55:07Z</time>
      </trkpt>
      <trkpt lat="46.394257508218288" lon="8.330454463139176">
        <ele>2680.1999999999998</ele>
        <time>2023-06-25T05:55:25Z</time>
      </trkpt>
      <trkpt lat="46.394187351688743" lon="8.330460665747523">
        <ele>2680.9099999999999</ele>
        <time>2023-06-25T05:55:39Z</time>
      </trkpt>
      <trkpt lat="46.394091630354524" lon="8.330471226945519">
        <ele>2681.8899999999999</ele>
        <time>2023-06-25T05:55:58Z</time>
      </trkpt>
      <trkpt lat="46.394007056951523" lon="8.330478854477406">
        <ele>2683.04</ele>
        <time>2023-06-25T05:56:16Z</time>
      </trkpt>
      <trkpt lat="46.393940672278404" lon="8.330474831163883">
        <ele>2684.2399999999998</ele>
        <time>2023-06-25T05:56:32Z</time>
      </trkpt>
      <trkpt lat="46.393894823268056" lon="8.330463180318475">
        <ele>2685.2399999999998</ele>
        <time>2023-06-25T05:56:45Z</time>
      </trkpt>
      <trkpt lat="46.393818631768227" lon="8.330479776486754">
        <ele>2685.8000000000002</ele>
        <time>2023-06-25T05:57:02Z</time>
      </trkpt>
      <trkpt lat="46.393754342570901" lon="8.330469466745853">
        <ele>2687.4099999999999</ele>
        <time>2023-06-25T05:57:18Z</time>
      </trkpt>
      <trkpt lat="46.393694411963224" lon="8.330474914982915">
        <ele>2689.0799999999999</ele>
        <time>2023-06-25T05:57:32Z</time>
      </trkpt>
      <trkpt lat="46.39362039975822" lon="8.330485559999943">
        <ele>2690.79</ele>
        <time>2023-06-25T05:57:50Z</time>
      </trkpt>
      <trkpt lat="46.393555188551545" lon="8.330484302714467">
        <ele>2692.0300000000002</ele>
        <time>2023-06-25T05:58:06Z</time>
      </trkpt>
      <trkpt lat="46.393482852727175" lon="8.330483045428991">
        <ele>2694.02</ele>
        <time>2023-06-25T05:58:23Z</time>
      </trkpt>
      <trkpt lat="46.393402637913823" lon="8.330496372655034">
        <ele>2695.3699999999999</ele>
        <time>2023-06-25T05:58:41Z</time>
      </trkpt>
      <trkpt lat="46.393341282382607" lon="8.330494780093432">
        <ele>2696.8899999999999</ele>
        <time>2023-06-25T05:58:56Z</time>
      </trkpt>
      <trkpt lat="46.393284285441041" lon="8.330496121197939">
        <ele>2698.04</ele>
        <time>2023-06-25T05:59:09Z</time>
      </trkpt>
      <trkpt lat="46.393215470016003" lon="8.330512885004282">
        <ele>2699.4299999999998</ele>
        <time>2023-06-25T05:59:25Z</time>
      </trkpt>
      <trkpt lat="46.393141625449061" lon="8.330494109541178">
        <ele>2700.7399999999998</ele>
        <time>2023-06-25T05:59:44Z</time>
      </trkpt>
      <trkpt lat="46.393081359565258" lon="8.330497462302446">
        <ele>2702.4400000000001</ele>
        <time>2023-06-25T06:00:00Z</time>
      </trkpt>
      <trkpt lat="46.393016232177615" lon="8.330507604405284">
        <ele>2704.0799999999999</ele>
        <time>2023-06-25T06:00:16Z</time>
      </trkpt>
      <trkpt lat="46.392960911616683" lon="8.330523865297437">
        <ele>2705.27</ele>
        <time>2023-06-25T06:00:30Z</time>
      </trkpt>
      <trkpt lat="46.392903411760926" lon="8.330528223887086">
        <ele>2706.0900000000001</ele>
        <time>2023-06-25T06:00:45Z</time>
      </trkpt>
      <trkpt lat="46.392837446182966" lon="8.330525793135166">
        <ele>2707.9699999999998</ele>
        <time>2023-06-25T06:01:02Z</time>
      </trkpt>
      <trkpt lat="46.392771564424038" lon="8.330521769821644">
        <ele>2709.0900000000001</ele>
        <time>2023-06-25T06:01:18Z</time>
      </trkpt>
      <trkpt lat="46.392715657129884" lon="8.330521686002612">
        <ele>2709.8000000000002</ele>
        <time>2023-06-25T06:01:32Z</time>
      </trkpt>
      <trkpt lat="46.392654804512858" lon="8.330526882782579">
        <ele>2711.1500000000001</ele>
        <time>2023-06-25T06:01:47Z</time>
      </trkpt>
      <trkpt lat="46.392601747065783" lon="8.330513974651694">
        <ele>2712.4099999999999</ele>
        <time>2023-06-25T06:02:01Z</time>
      </trkpt>
      <trkpt lat="46.39257132075727" lon="8.330524200573564">
        <ele>2712.02</ele>
        <time>2023-06-25T06:02:16Z</time>
      </trkpt>
      <trkpt lat="46.392577439546585" lon="8.330519087612629">
        <ele>2712.54</ele>
        <time>2023-06-25T06:02:34Z</time>
      </trkpt>
      <trkpt lat="46.392585821449757" lon="8.33052596077323">
        <ele>2712.3000000000002</ele>
        <time>2023-06-25T06:03:01Z</time>
      </trkpt>
      <trkpt lat="46.392584731802344" lon="8.330523697659373">
        <ele>2712.96</ele>
        <time>2023-06-25T06:03:37Z</time>
      </trkpt>
      <trkpt lat="46.392581211403012" lon="8.330528810620308">
        <ele>2713.7199999999998</ele>
        <time>2023-06-25T06:04:41Z</time>
      </trkpt>
      <trkpt lat="46.392580037936568" lon="8.330551441758871">
        <ele>2714.9400000000001</ele>
        <time>2023-06-25T06:05:12Z</time>
      </trkpt>
      <trkpt lat="46.392575930804014" lon="8.330536773428321">
        <ele>2715.3099999999999</ele>
        <time>2023-06-25T06:05:41Z</time>
      </trkpt>
      <trkpt lat="46.392575427889824" lon="8.330546328797936">
        <ele>2715.5300000000002</ele>
        <time>2023-06-25T06:06:02Z</time>
      </trkpt>
      <trkpt lat="46.39257718808949" lon="8.330557812005281">
        <ele>2715</ele>
        <time>2023-06-25T06:06:39Z</time>
      </trkpt>
      <trkpt lat="46.392571488395333" lon="8.330569798126817">
        <ele>2715.7800000000002</ele>
        <time>2023-06-25T06:06:56Z</time>
      </trkpt>
      <trkpt lat="46.392565872520208" lon="8.330561500042677">
        <ele>2716.8499999999999</ele>
        <time>2023-06-25T06:07:15Z</time>
      </trkpt>
      <trkpt lat="46.392540391534567" lon="8.330543814226985">
        <ele>2718.9299999999998</ele>
        <time>2023-06-25T06:07:37Z</time>
      </trkpt>
      <trkpt lat="46.392492614686489" lon="8.330513471737504">
        <ele>2720.04</ele>
        <time>2023-06-25T06:07:51Z</time>
      </trkpt>
      <trkpt lat="46.392417093738914" lon="8.330468460917473">
        <ele>2722.9000000000001</ele>
        <time>2023-06-25T06:08:11Z</time>
      </trkpt>
      <trkpt lat="46.392357079312205" lon="8.330431832000613">
        <ele>2724.8499999999999</ele>
        <time>2023-06-25T06:08:28Z</time>
      </trkpt>
      <trkpt lat="46.39230159111321" lon="8.330376846715808">
        <ele>2726.5700000000002</ele>
        <time>2023-06-25T06:08:45Z</time>
      </trkpt>
      <trkpt lat="46.392242833971977" lon="8.330315575003624">
        <ele>2728.6300000000001</ele>
        <time>2023-06-25T06:09:03Z</time>
      </trkpt>
      <trkpt lat="46.392188938334584" lon="8.330255309119821">
        <ele>2730.0500000000002</ele>
        <time>2023-06-25T06:09:20Z</time>
      </trkpt>
      <trkpt lat="46.392139736562967" lon="8.330207532271743">
        <ele>2731.4000000000001</ele>
        <time>2023-06-25T06:09:36Z</time>
      </trkpt>
      <trkpt lat="46.392093552276492" lon="8.330161012709141">
        <ele>2732.98</ele>
        <time>2023-06-25T06:09:52Z</time>
      </trkpt>
      <trkpt lat="46.392042506486177" lon="8.330107033252716">
        <ele>2734.3000000000002</ele>
        <time>2023-06-25T06:10:10Z</time>
      </trkpt>
      <trkpt lat="46.391990622505546" lon="8.330065459012985">
        <ele>2735.3299999999999</ele>
        <time>2023-06-25T06:10:27Z</time>
      </trkpt>
      <trkpt lat="46.391968075186014" lon="8.330048443749547">
        <ele>2735.4699999999998</ele>
        <time>2023-06-25T06:10:41Z</time>
      </trkpt>
      <trkpt lat="46.391945779323578" lon="8.330073338001967">
        <ele>2736.54</ele>
        <time>2023-06-25T06:11:00Z</time>
      </trkpt>
      <trkpt lat="46.39193999581039" lon="8.330080127343535">
        <ele>2736.27</ele>
        <time>2023-06-25T06:11:30Z</time>
      </trkpt>
      <trkpt lat="46.391882998868823" lon="8.330145170912147">
        <ele>2737.7199999999998</ele>
        <time>2023-06-25T06:11:50Z</time>
      </trkpt>
      <trkpt lat="46.391838993877172" lon="8.330201916396618">
        <ele>2739.4400000000001</ele>
        <time>2023-06-25T06:12:06Z</time>
      </trkpt>
      <trkpt lat="46.391789205372334" lon="8.330261595547199">
        <ele>2740.8099999999999</ele>
        <time>2023-06-25T06:12:24Z</time>
      </trkpt>
      <trkpt lat="46.391741847619414" lon="8.330311216413975">
        <ele>2741.8099999999999</ele>
        <time>2023-06-25T06:12:42Z</time>
      </trkpt>
      <trkpt lat="46.39170203357935" lon="8.330365782603622">
        <ele>2743.2800000000002</ele>
        <time>2023-06-25T06:13:01Z</time>
      </trkpt>
      <trkpt lat="46.391673283651471" lon="8.330425126478076">
        <ele>2744.2399999999998</ele>
        <time>2023-06-25T06:13:18Z</time>
      </trkpt>
      <trkpt lat="46.391631877049804" lon="8.330481201410294">
        <ele>2746.5300000000002</ele>
        <time>2023-06-25T06:13:36Z</time>
      </trkpt>
      <trkpt lat="46.391615364700556" lon="8.330486817285419">
        <ele>2746.77</ele>
        <time>2023-06-25T06:13:56Z</time>
      </trkpt>
      <trkpt lat="46.391567168757319" lon="8.330448176711798">
        <ele>2749.0700000000002</ele>
        <time>2023-06-25T06:14:24Z</time>
      </trkpt>
      <trkpt lat="46.391534227877855" lon="8.330404004082084">
        <ele>2749.4899999999998</ele>
        <time>2023-06-25T06:14:37Z</time>
      </trkpt>
      <trkpt lat="46.391499442979693" lon="8.33036620169878">
        <ele>2750.4299999999998</ele>
        <time>2023-06-25T06:14:54Z</time>
      </trkpt>
      <trkpt lat="46.391471363604069" lon="8.330327644944191">
        <ele>2751.5500000000002</ele>
        <time>2023-06-25T06:15:08Z</time>
      </trkpt>
      <trkpt lat="46.391441104933619" lon="8.330298727378249">
        <ele>2752.7600000000002</ele>
        <time>2023-06-25T06:15:20Z</time>
      </trkpt>
      <trkpt lat="46.391406571492553" lon="8.33026796579361">
        <ele>2754.96</ele>
        <time>2023-06-25T06:15:35Z</time>
      </trkpt>
      <trkpt lat="46.391373798251152" lon="8.3302684687078">
        <ele>2756.6100000000001</ele>
        <time>2023-06-25T06:15:50Z</time>
      </trkpt>
      <trkpt lat="46.391352172940969" lon="8.330247011035681">
        <ele>2758.1500000000001</ele>
        <time>2023-06-25T06:16:03Z</time>
      </trkpt>
      <trkpt lat="46.391331637278199" lon="8.330219266936183">
        <ele>2758.8600000000001</ele>
        <time>2023-06-25T06:16:14Z</time>
      </trkpt>
      <trkpt lat="46.391302049160004" lon="8.33020887337625">
        <ele>2759.7600000000002</ele>
        <time>2023-06-25T06:16:27Z</time>
      </trkpt>
      <trkpt lat="46.391274137422442" lon="8.330206358805299">
        <ele>2760.7199999999998</ele>
        <time>2023-06-25T06:16:39Z</time>
      </trkpt>
      <trkpt lat="46.391242118552327" lon="8.330205185338855">
        <ele>2762.3600000000001</ele>
        <time>2023-06-25T06:16:52Z</time>
      </trkpt>
      <trkpt lat="46.391211273148656" lon="8.330222703516483">
        <ele>2763.6799999999998</ele>
        <time>2023-06-25T06:17:06Z</time>
      </trkpt>
      <trkpt lat="46.391206244006753" lon="8.330233013257384">
        <ele>2763.8000000000002</ele>
        <time>2023-06-25T06:17:24Z</time>
      </trkpt>
      <trkpt lat="46.39119534753263" lon="8.330252375453711">
        <ele>2764.8000000000002</ele>
        <time>2023-06-25T06:17:44Z</time>
      </trkpt>
      <trkpt lat="46.391174057498574" lon="8.330270145088434">
        <ele>2765.6500000000001</ele>
        <time>2023-06-25T06:17:59Z</time>
      </trkpt>
      <trkpt lat="46.391145139932632" lon="8.330294955521822">
        <ele>2766.79</ele>
        <time>2023-06-25T06:18:15Z</time>
      </trkpt>
      <trkpt lat="46.391110690310597" lon="8.330330243334174">
        <ele>2768.3200000000002</ele>
        <time>2023-06-25T06:18:30Z</time>
      </trkpt>
      <trkpt lat="46.391070624813437" lon="8.330355724319816">
        <ele>2769.3699999999999</ele>
        <time>2023-06-25T06:18:45Z</time>
      </trkpt>
      <trkpt lat="46.391033157706261" lon="8.330386988818646">
        <ele>2770.6500000000001</ele>
        <time>2023-06-25T06:19:00Z</time>
      </trkpt>
      <trkpt lat="46.390991667285562" lon="8.330405345186591">
        <ele>2772.0900000000001</ele>
        <time>2023-06-25T06:19:15Z</time>
      </trkpt>
      <trkpt lat="46.390952188521624" lon="8.33043267019093">
        <ele>2773.54</ele>
        <time>2023-06-25T06:19:29Z</time>
      </trkpt>
      <trkpt lat="46.390918996185064" lon="8.330436944961548">
        <ele>2774.6199999999999</ele>
        <time>2023-06-25T06:19:42Z</time>
      </trkpt>
      <trkpt lat="46.390874991193414" lon="8.330459157004952">
        <ele>2777.4299999999998</ele>
        <time>2023-06-25T06:19:57Z</time>
      </trkpt>
      <trkpt lat="46.390827130526304" lon="8.330473490059376">
        <ele>2778.9699999999998</ele>
        <time>2023-06-25T06:20:12Z</time>
      </trkpt>
      <trkpt lat="46.390792177990079" lon="8.330485979095101">
        <ele>2779.7600000000002</ele>
        <time>2023-06-25T06:20:26Z</time>
      </trkpt>
      <trkpt lat="46.390749933198094" lon="8.330487068742514">
        <ele>2780.23</ele>
        <time>2023-06-25T06:20:41Z</time>
      </trkpt>
      <trkpt lat="46.390720596536994" lon="8.330503916367889">
        <ele>2781.5900000000001</ele>
        <time>2023-06-25T06:20:58Z</time>
      </trkpt>
      <trkpt lat="46.39071456156671" lon="8.330501737073064">
        <ele>2781.8499999999999</ele>
        <time>2023-06-25T06:21:18Z</time>
      </trkpt>
      <trkpt lat="46.390649937093258" lon="8.330503329634666">
        <ele>2783.5700000000002</ele>
        <time>2023-06-25T06:21:36Z</time>
      </trkpt>
      <trkpt lat="46.390609536319971" lon="8.3305171597749">
        <ele>2785.3099999999999</ele>
        <time>2023-06-25T06:21:48Z</time>
      </trkpt>
      <trkpt lat="46.390553964301944" lon="8.330539455637336">
        <ele>2787.0500000000002</ele>
        <time>2023-06-25T06:22:03Z</time>
      </trkpt>
      <trkpt lat="46.390501409769058" lon="8.330552615225315">
        <ele>2788.96</ele>
        <time>2023-06-25T06:22:18Z</time>
      </trkpt>
      <trkpt lat="46.390445167198777" lon="8.330559236928821">
        <ele>2791.1300000000001</ele>
        <time>2023-06-25T06:22:35Z</time>
      </trkpt>
      <trkpt lat="46.390432259067893" lon="8.330557476729155">
        <ele>2791.8800000000001</ele>
        <time>2023-06-25T06:22:52Z</time>
      </trkpt>
      <trkpt lat="46.390411807224154" lon="8.330563260242343">
        <ele>2792.8899999999999</ele>
        <time>2023-06-25T06:23:10Z</time>
      </trkpt>
      <trkpt lat="46.390361180528998" lon="8.330517411231995">
        <ele>2794.4299999999998</ele>
        <time>2023-06-25T06:23:34Z</time>
      </trkpt>
      <trkpt lat="46.390309631824493" lon="8.330447841435671">
        <ele>2796.5500000000002</ele>
        <time>2023-06-25T06:23:54Z</time>
      </trkpt>
      <trkpt lat="46.390265626832843" lon="8.330384558066726">
        <ele>2798.48</ele>
        <time>2023-06-25T06:24:14Z</time>
      </trkpt>
      <trkpt lat="46.390229500830173" lon="8.330315575003624">
        <ele>2800.98</ele>
        <time>2023-06-25T06:24:32Z</time>
      </trkpt>
      <trkpt lat="46.390220113098621" lon="8.330317502841353">
        <ele>2801.8499999999999</ele>
        <time>2023-06-25T06:24:53Z</time>
      </trkpt>
      <trkpt lat="46.390222711488605" lon="8.330314736813307">
        <ele>2802.3000000000002</ele>
        <time>2023-06-25T06:25:11Z</time>
      </trkpt>
      <trkpt lat="46.390176108106971" lon="8.330315742641687">
        <ele>2803.9400000000001</ele>
        <time>2023-06-25T06:25:31Z</time>
      </trkpt>
      <trkpt lat="46.390110310167074" lon="8.330332338809967">
        <ele>2806.0700000000002</ele>
        <time>2023-06-25T06:25:50Z</time>
      </trkpt>
      <trkpt lat="46.390044679865241" lon="8.330338960513473">
        <ele>2809.02</ele>
        <time>2023-06-25T06:26:11Z</time>
      </trkpt>
      <trkpt lat="46.39001090079546" lon="8.33033686503768">
        <ele>2810.2800000000002</ele>
        <time>2023-06-25T06:26:24Z</time>
      </trkpt>
      <trkpt lat="46.389984916895628" lon="8.33033736795187">
        <ele>2811.0599999999999</ele>
        <time>2023-06-25T06:26:39Z</time>
      </trkpt>
      <trkpt lat="46.389932781457901" lon="8.330321609973908">
        <ele>2813.0799999999999</ele>
        <time>2023-06-25T06:26:58Z</time>
      </trkpt>
      <trkpt lat="46.389870587736368" lon="8.330293530598283">
        <ele>2814.7199999999998</ele>
        <time>2023-06-25T06:27:22Z</time>
      </trkpt>
      <trkpt lat="46.389836054295301" lon="8.330249441787601">
        <ele>2815.75</ele>
        <time>2023-06-25T06:27:39Z</time>
      </trkpt>
      <trkpt lat="46.389805879443884" lon="8.330199485644698">
        <ele>2817.1799999999998</ele>
        <time>2023-06-25T06:27:54Z</time>
      </trkpt>
      <trkpt lat="46.389780901372433" lon="8.330173585563898">
        <ele>2818.3200000000002</ele>
        <time>2023-06-25T06:28:10Z</time>
      </trkpt>
      <trkpt lat="46.389756426215172" lon="8.330129245296121">
        <ele>2819.9499999999998</ele>
        <time>2023-06-25T06:28:25Z</time>
      </trkpt>
      <trkpt lat="46.389735722914338" lon="8.330075601115823">
        <ele>2821.9400000000001</ele>
        <time>2023-06-25T06:28:37Z</time>
      </trkpt>
      <trkpt lat="46.389708733186126" lon="8.330016592517495">
        <ele>2823.5999999999999</ele>
        <time>2023-06-25T06:28:52Z</time>
      </trkpt>
      <trkpt lat="46.389681240543723" lon="8.329974766820669">
        <ele>2824.9200000000001</ele>
        <time>2023-06-25T06:29:06Z</time>
      </trkpt>
      <trkpt lat="46.389649137854576" lon="8.329927241429687">
        <ele>2826</ele>
        <time>2023-06-25T06:29:20Z</time>
      </trkpt>
      <trkpt lat="46.389636648818851" lon="8.329891702160239">
        <ele>2826.5300000000002</ele>
        <time>2023-06-25T06:29:32Z</time>
      </trkpt>
      <trkpt lat="46.389602366834879" lon="8.329852726310492">
        <ele>2827.27</ele>
        <time>2023-06-25T06:29:48Z</time>
      </trkpt>
      <trkpt lat="46.389561127871275" lon="8.32981307990849">
        <ele>2828.79</ele>
        <time>2023-06-25T06:30:05Z</time>
      </trkpt>
      <trkpt lat="46.389524415135384" lon="8.329772427678108">
        <ele>2831.1900000000001</ele>
        <time>2023-06-25T06:30:19Z</time>
      </trkpt>
      <trkpt lat="46.389490719884634" lon="8.329745940864086">
        <ele>2832.5999999999999</ele>
        <time>2023-06-25T06:30:33Z</time>
      </trkpt>
      <trkpt lat="46.389453001320362" lon="8.329704198986292">
        <ele>2833.4099999999999</ele>
        <time>2023-06-25T06:30:49Z</time>
      </trkpt>
      <trkpt lat="46.389402542263269" lon="8.329648124054074">
        <ele>2834.1500000000001</ele>
        <time>2023-06-25T06:31:06Z</time>
      </trkpt>
      <trkpt lat="46.389367338269949" lon="8.329579727724195">
        <ele>2836.21</ele>
        <time>2023-06-25T06:31:22Z</time>
      </trkpt>
      <trkpt lat="46.389328530058265" lon="8.329523652791977">
        <ele>2837.79</ele>
        <time>2023-06-25T06:31:37Z</time>
      </trkpt>
      <trkpt lat="46.389283100143075" lon="8.329467913135886">
        <ele>2839.3600000000001</ele>
        <time>2023-06-25T06:31:54Z</time>
      </trkpt>
      <trkpt lat="46.389255942776799" lon="8.329406306147575">
        <ele>2840.1199999999999</ele>
        <time>2023-06-25T06:32:08Z</time>
      </trkpt>
      <trkpt lat="46.389217805117369" lon="8.329344447702169">
        <ele>2841.4200000000001</ele>
        <time>2023-06-25T06:32:23Z</time>
      </trkpt>
      <trkpt lat="46.389178074896336" lon="8.329295497387648">
        <ele>2842.7600000000002</ele>
        <time>2023-06-25T06:32:37Z</time>
      </trkpt>
      <trkpt lat="46.389142032712698" lon="8.329217210412026">
        <ele>2845.25</ele>
        <time>2023-06-25T06:32:55Z</time>
      </trkpt>
      <trkpt lat="46.389113701879978" lon="8.32913875579834">
        <ele>2847.8400000000001</ele>
        <time>2023-06-25T06:33:11Z</time>
      </trkpt>
      <trkpt lat="46.389082102105021" lon="8.329062648117542">
        <ele>2849.4200000000001</ele>
        <time>2023-06-25T06:33:27Z</time>
      </trkpt>
      <trkpt lat="46.389054274186492" lon="8.328995006158948">
        <ele>2851.4400000000001</ele>
        <time>2023-06-25T06:33:42Z</time>
      </trkpt>
      <trkpt lat="46.38902242295444" lon="8.328919736668468">
        <ele>2854.04</ele>
        <time>2023-06-25T06:34:00Z</time>
      </trkpt>
      <trkpt lat="46.388998702168465" lon="8.328877408057451">
        <ele>2855.46</ele>
        <time>2023-06-25T06:34:12Z</time>
      </trkpt>
      <trkpt lat="46.388965342193842" lon="8.328793672844768">
        <ele>2856.8600000000001</ele>
        <time>2023-06-25T06:34:30Z</time>
      </trkpt>
      <trkpt lat="46.388944806531072" lon="8.328730221837759">
        <ele>2858.1300000000001</ele>
        <time>2023-06-25T06:34:42Z</time>
      </trkpt>
      <trkpt lat="46.388920415192842" lon="8.328654784709215">
        <ele>2860.5799999999999</ele>
        <time>2023-06-25T06:34:57Z</time>
      </trkpt>
      <trkpt lat="46.388899628072977" lon="8.328565014526248">
        <ele>2862.1900000000001</ele>
        <time>2023-06-25T06:35:14Z</time>
      </trkpt>
      <trkpt lat="46.388863837346435" lon="8.328481698408723">
        <ele>2863.2199999999998</ele>
        <time>2023-06-25T06:35:31Z</time>
      </trkpt>
      <trkpt lat="46.388841206207871" lon="8.328417493030429">
        <ele>2863.9000000000001</ele>
        <time>2023-06-25T06:35:45Z</time>
      </trkpt>
      <trkpt lat="46.388809271156788" lon="8.328328980132937">
        <ele>2865.3499999999999</ele>
        <time>2023-06-25T06:36:03Z</time>
      </trkpt>
      <trkpt lat="46.388820586726069" lon="8.328307438641787">
        <ele>2865.8600000000001</ele>
        <time>2023-06-25T06:36:24Z</time>
      </trkpt>
      <trkpt lat="46.388824274763465" lon="8.32830467261374">
        <ele>2866.0599999999999</ele>
        <time>2023-06-25T06:36:33Z</time>
      </trkpt>
      <trkpt lat="46.388810109347105" lon="8.328309115022421">
        <ele>2866.1500000000001</ele>
        <time>2023-06-25T06:36:37Z</time>
      </trkpt>
      <trkpt lat="46.388837182894349" lon="8.328312551602721">
        <ele>2865.9400000000001</ele>
        <time>2023-06-25T06:36:47Z</time>
      </trkpt>
      <trkpt lat="46.388837350532413" lon="8.32831104286015">
        <ele>2866.0799999999999</ele>
        <time>2023-06-25T06:36:49Z</time>
      </trkpt>
      <trkpt lat="46.388846738263965" lon="8.32830953411758">
        <ele>2866.0700000000002</ele>
        <time>2023-06-25T06:36:59Z</time>
      </trkpt>
      <trkpt lat="46.388840535655618" lon="8.328306348994374">
        <ele>2865.9299999999998</ele>
        <time>2023-06-25T06:37:17Z</time>
      </trkpt>
      <trkpt lat="46.388842044398189" lon="8.328310288488865">
        <ele>2865.6700000000001</ele>
        <time>2023-06-25T06:37:31Z</time>
      </trkpt>
      <trkpt lat="46.388829806819558" lon="8.328314563259482">
        <ele>2865.9699999999998</ele>
        <time>2023-06-25T06:37:47Z</time>
      </trkpt>
      <trkpt lat="46.388830728828907" lon="8.328304924070835">
        <ele>2865.6599999999999</ele>
        <time>2023-06-25T06:38:02Z</time>
      </trkpt>
      <trkpt lat="46.388827376067638" lon="8.328301571309567">
        <ele>2865.98</ele>
        <time>2023-06-25T06:38:17Z</time>
      </trkpt>
      <trkpt lat="46.388827795162797" lon="8.328300481662154">
        <ele>2866.0500000000002</ele>
        <time>2023-06-25T06:38:29Z</time>
      </trkpt>
      <trkpt lat="46.388830561190844" lon="8.328281370922923">
        <ele>2866.5999999999999</ele>
        <time>2023-06-25T06:38:43Z</time>
      </trkpt>
      <trkpt lat="46.38881228864193" lon="8.328285980969667">
        <ele>2866.4899999999998</ele>
        <time>2023-06-25T06:38:54Z</time>
      </trkpt>
      <trkpt lat="46.388803403824568" lon="8.328287154436112">
        <ele>2865.3699999999999</ele>
        <time>2023-06-25T06:39:02Z</time>
      </trkpt>
      <trkpt lat="46.388829220086336" lon="8.328281035646796">
        <ele>2865.6100000000001</ele>
        <time>2023-06-25T06:39:14Z</time>
      </trkpt>
      <trkpt lat="46.388847576454282" lon="8.328275587409735">
        <ele>2865.5100000000002</ele>
        <time>2023-06-25T06:39:25Z</time>
      </trkpt>
      <trkpt lat="46.388843217864633" lon="8.328294279053807">
        <ele>2865.52</ele>
        <time>2023-06-25T06:39:45Z</time>
      </trkpt>
      <trkpt lat="46.388840703293681" lon="8.328307019546628">
        <ele>2865.8400000000001</ele>
        <time>2023-06-25T06:40:13Z</time>
      </trkpt>
      <trkpt lat="46.388844475150108" lon="8.328300146386027">
        <ele>2865.98</ele>
        <time>2023-06-25T06:40:34Z</time>
      </trkpt>
      <trkpt lat="46.388847324997187" lon="8.328300481662154">
        <ele>2866.1999999999998</ele>
        <time>2023-06-25T06:40:46Z</time>
      </trkpt>
      <trkpt lat="46.388851096853614" lon="8.328286567702889">
        <ele>2866.7600000000002</ele>
        <time>2023-06-25T06:40:57Z</time>
      </trkpt>
      <trkpt lat="46.388817988336086" lon="8.328232755884528">
        <ele>2865.9000000000001</ele>
        <time>2023-06-25T06:41:08Z</time>
      </trkpt>
      <trkpt lat="46.388787478208542" lon="8.328136028721929">
        <ele>2866.1500000000001</ele>
        <time>2023-06-25T06:41:23Z</time>
      </trkpt>
      <trkpt lat="46.388749089092016" lon="8.328049276024103">
        <ele>2865.6300000000001</ele>
        <time>2023-06-25T06:41:38Z</time>
      </trkpt>
      <trkpt lat="46.388726457953453" lon="8.32796948030591">
        <ele>2867.98</ele>
        <time>2023-06-25T06:41:53Z</time>
      </trkpt>
      <trkpt lat="46.388731822371483" lon="8.327932516112924">
        <ele>2868.0799999999999</ele>
        <time>2023-06-25T06:41:59Z</time>
      </trkpt>
      <trkpt lat="46.388708017766476" lon="8.327879458665848">
        <ele>2866.5</ele>
        <time>2023-06-25T06:42:06Z</time>
      </trkpt>
      <trkpt lat="46.388697205111384" lon="8.327794382348657">
        <ele>2865.5799999999999</ele>
        <time>2023-06-25T06:42:23Z</time>
      </trkpt>
      <trkpt lat="46.388693181797862" lon="8.327708467841148">
        <ele>2866.23</ele>
        <time>2023-06-25T06:42:38Z</time>
      </trkpt>
      <trkpt lat="46.388689829036593" lon="8.327618865296245">
        <ele>2868.27</ele>
        <time>2023-06-25T06:42:54Z</time>
      </trkpt>
      <trkpt lat="46.388688152655959" lon="8.327532028779388">
        <ele>2870.1700000000001</ele>
        <time>2023-06-25T06:43:09Z</time>
      </trkpt>
      <trkpt lat="46.388688571751118" lon="8.327463129535317">
        <ele>2872.1199999999999</ele>
        <time>2023-06-25T06:43:23Z</time>
      </trkpt>
      <trkpt lat="46.388680776581168" lon="8.327369671314955">
        <ele>2874.75</ele>
        <time>2023-06-25T06:43:41Z</time>
      </trkpt>
      <trkpt lat="46.388673484325409" lon="8.327299430966377">
        <ele>2876.9099999999999</ele>
        <time>2023-06-25T06:43:57Z</time>
      </trkpt>
      <trkpt lat="46.388672227039933" lon="8.327222317457199">
        <ele>2878.54</ele>
        <time>2023-06-25T06:44:12Z</time>
      </trkpt>
      <trkpt lat="46.388669712468982" lon="8.327138833701611">
        <ele>2879.7800000000002</ele>
        <time>2023-06-25T06:44:28Z</time>
      </trkpt>
      <trkpt lat="46.388659821823239" lon="8.327052919194102">
        <ele>2881.48</ele>
        <time>2023-06-25T06:44:44Z</time>
      </trkpt>
      <trkpt lat="46.388653619214892" lon="8.326994329690933">
        <ele>2883.25</ele>
        <time>2023-06-25T06:44:56Z</time>
      </trkpt>
      <trkpt lat="46.388640543445945" lon="8.326928028836846">
        <ele>2884.8099999999999</ele>
        <time>2023-06-25T06:45:10Z</time>
      </trkpt>
      <trkpt lat="46.388625623658299" lon="8.326854519546032">
        <ele>2886.3000000000002</ele>
        <time>2023-06-25T06:45:25Z</time>
      </trkpt>
      <trkpt lat="46.388612044975162" lon="8.326772209256887">
        <ele>2887.3499999999999</ele>
        <time>2023-06-25T06:45:42Z</time>
      </trkpt>
      <trkpt lat="46.388595281168818" lon="8.326702639460564">
        <ele>2889.3299999999999</ele>
        <time>2023-06-25T06:45:59Z</time>
      </trkpt>
      <trkpt lat="46.388591844588518" lon="8.326632063835859">
        <ele>2891.1199999999999</ele>
        <time>2023-06-25T06:46:14Z</time>
      </trkpt>
      <trkpt lat="46.388585222885013" lon="8.326563583686948">
        <ele>2892.4200000000001</ele>
        <time>2023-06-25T06:46:29Z</time>
      </trkpt>
      <trkpt lat="46.388579355552793" lon="8.326500970870256">
        <ele>2894.3800000000001</ele>
        <time>2023-06-25T06:46:43Z</time>
      </trkpt>
      <trkpt lat="46.388579942286015" lon="8.326428215950728">
        <ele>2895.9699999999998</ele>
        <time>2023-06-25T06:46:58Z</time>
      </trkpt>
      <trkpt lat="46.388577930629253" lon="8.326338361948729">
        <ele>2897.0599999999999</ele>
        <time>2023-06-25T06:47:14Z</time>
      </trkpt>
      <trkpt lat="46.388579774647951" lon="8.326265774667263">
        <ele>2898.1599999999999</ele>
        <time>2023-06-25T06:47:29Z</time>
      </trkpt>
      <trkpt lat="46.38858949765563" lon="8.326199809089303">
        <ele>2899.27</ele>
        <time>2023-06-25T06:47:43Z</time>
      </trkpt>
      <trkpt lat="46.388588743284345" lon="8.326133424416184">
        <ele>2900.5300000000002</ele>
        <time>2023-06-25T06:47:56Z</time>
      </trkpt>
      <trkpt lat="46.388578014448285" lon="8.326067375019193">
        <ele>2901.8200000000002</ele>
        <time>2023-06-25T06:48:11Z</time>
      </trkpt>
      <trkpt lat="46.38856552541256" lon="8.326010964810848">
        <ele>2902.6799999999998</ele>
        <time>2023-06-25T06:48:25Z</time>
      </trkpt>
      <trkpt lat="46.388552282005548" lon="8.325946843251586">
        <ele>2904.3800000000001</ele>
        <time>2023-06-25T06:48:38Z</time>
      </trkpt>
      <trkpt lat="46.388544235378504" lon="8.325895881280303">
        <ele>2906.0999999999999</ele>
        <time>2023-06-25T06:48:55Z</time>
      </trkpt>
      <trkpt lat="46.388527387753129" lon="8.325838129967451">
        <ele>2907.04</ele>
        <time>2023-06-25T06:49:11Z</time>
      </trkpt>
      <trkpt lat="46.388514311984181" lon="8.325755819678307">
        <ele>2907.98</ele>
        <time>2023-06-25T06:49:27Z</time>
      </trkpt>
      <trkpt lat="46.388503331691027" lon="8.325699912384152">
        <ele>2909.3099999999999</ele>
        <time>2023-06-25T06:49:40Z</time>
      </trkpt>
      <trkpt lat="46.388491345569491" lon="8.325636964291334">
        <ele>2910.7399999999998</ele>
        <time>2023-06-25T06:49:55Z</time>
      </trkpt>
      <trkpt lat="46.388481874018908" lon="8.325581308454275">
        <ele>2911.71</ele>
        <time>2023-06-25T06:50:08Z</time>
      </trkpt>
      <trkpt lat="46.388467289507389" lon="8.325513750314713">
        <ele>2912.6300000000001</ele>
        <time>2023-06-25T06:50:23Z</time>
      </trkpt>
      <trkpt lat="46.388467038050294" lon="8.32550335675478">
        <ele>2913.79</ele>
        <time>2023-06-25T06:50:46Z</time>
      </trkpt>
      <trkpt lat="46.388466116040945" lon="8.325511822476983">
        <ele>2914.4200000000001</ele>
        <time>2023-06-25T06:51:12Z</time>
      </trkpt>
      <trkpt lat="46.388460416346788" lon="8.325501345098019">
        <ele>2915.0500000000002</ele>
        <time>2023-06-25T06:51:38Z</time>
      </trkpt>
      <trkpt lat="46.388475419953465" lon="8.325501931831241">
        <ele>2917.0500000000002</ele>
        <time>2023-06-25T06:52:06Z</time>
      </trkpt>
      <trkpt lat="46.388470474630594" lon="8.325509391725063">
        <ele>2917.3899999999999</ele>
        <time>2023-06-25T06:52:36Z</time>
      </trkpt>
      <trkpt lat="46.388458488509059" lon="8.325490113347769">
        <ele>2917.29</ele>
        <time>2023-06-25T06:52:55Z</time>
      </trkpt>
      <trkpt lat="46.388448094949126" lon="8.325423896312714">
        <ele>2917.6900000000001</ele>
        <time>2023-06-25T06:53:15Z</time>
      </trkpt>
      <trkpt lat="46.388426050543785" lon="8.325337646529079">
        <ele>2917.52</ele>
        <time>2023-06-25T06:53:33Z</time>
      </trkpt>
      <trkpt lat="46.388418087735772" lon="8.32527126185596">
        <ele>2918.4000000000001</ele>
        <time>2023-06-25T06:53:48Z</time>
      </trkpt>
      <trkpt lat="46.38840576633811" lon="8.325205631554127">
        <ele>2920.5999999999999</ele>
        <time>2023-06-25T06:54:04Z</time>
      </trkpt>
      <trkpt lat="46.388393864035606" lon="8.325124075636268">
        <ele>2921.2600000000002</ele>
        <time>2023-06-25T06:54:22Z</time>
      </trkpt>
      <trkpt lat="46.388390259817243" lon="8.325059451162815">
        <ele>2921.6700000000001</ele>
        <time>2023-06-25T06:54:37Z</time>
      </trkpt>
      <trkpt lat="46.388386404141784" lon="8.324977559968829">
        <ele>2922.3899999999999</ele>
        <time>2023-06-25T06:54:56Z</time>
      </trkpt>
      <trkpt lat="46.388376513496041" lon="8.324913857504726">
        <ele>2923.75</ele>
        <time>2023-06-25T06:55:11Z</time>
      </trkpt>
      <trkpt lat="46.38836813159287" lon="8.324864320456982">
        <ele>2925.1199999999999</ele>
        <time>2023-06-25T06:55:24Z</time>
      </trkpt>
      <trkpt lat="46.388364192098379" lon="8.324811430647969">
        <ele>2926.0999999999999</ele>
        <time>2023-06-25T06:55:38Z</time>
      </trkpt>
      <trkpt lat="46.388362599536777" lon="8.324755188077688">
        <ele>2927.3600000000001</ele>
        <time>2023-06-25T06:55:53Z</time>
      </trkpt>
      <trkpt lat="46.388366287574172" lon="8.32474160939455">
        <ele>2928.8800000000001</ele>
        <time>2023-06-25T06:56:11Z</time>
      </trkpt>
      <trkpt lat="46.388370059430599" lon="8.32468880340457">
        <ele>2930.1300000000001</ele>
        <time>2023-06-25T06:56:24Z</time>
      </trkpt>
      <trkpt lat="46.388371903449297" lon="8.324631471186876">
        <ele>2931.4899999999998</ele>
        <time>2023-06-25T06:56:40Z</time>
      </trkpt>
      <trkpt lat="46.38836913742125" lon="8.324615713208914">
        <ele>2932.6700000000001</ele>
        <time>2023-06-25T06:56:56Z</time>
      </trkpt>
      <trkpt lat="46.388370143249631" lon="8.324569948017597">
        <ele>2933.9699999999998</ele>
        <time>2023-06-25T06:57:13Z</time>
      </trkpt>
      <trkpt lat="46.388364024460316" lon="8.324493924155831">
        <ele>2936.0599999999999</ele>
        <time>2023-06-25T06:57:37Z</time>
      </trkpt>
      <trkpt lat="46.388360839337111" lon="8.324439441785216">
        <ele>2936.75</ele>
        <time>2023-06-25T06:57:53Z</time>
      </trkpt>
      <trkpt lat="46.388356061652303" lon="8.324383785948157">
        <ele>2937.8299999999999</ele>
        <time>2023-06-25T06:58:09Z</time>
      </trkpt>
      <trkpt lat="46.388357821851969" lon="8.324340283870697">
        <ele>2939.1100000000001</ele>
        <time>2023-06-25T06:58:25Z</time>
      </trkpt>
      <trkpt lat="46.388357067480683" lon="8.324312036857009">
        <ele>2940.54</ele>
        <time>2023-06-25T06:58:44Z</time>
      </trkpt>
      <trkpt lat="46.38835396617651" lon="8.324303906410933">
        <ele>2942.1999999999998</ele>
        <time>2023-06-25T06:59:04Z</time>
      </trkpt>
      <trkpt lat="46.388346673920751" lon="8.324244981631637">
        <ele>2942.6700000000001</ele>
        <time>2023-06-25T06:59:21Z</time>
      </trkpt>
      <trkpt lat="46.388340638950467" lon="8.324183123186231">
        <ele>2943.71</ele>
        <time>2023-06-25T06:59:41Z</time>
      </trkpt>
      <trkpt lat="46.388344997540116" lon="8.324126210063696">
        <ele>2945.4000000000001</ele>
        <time>2023-06-25T07:00:04Z</time>
      </trkpt>
      <trkpt lat="46.388330161571503" lon="8.324068374931812">
        <ele>2947.0900000000001</ele>
        <time>2023-06-25T07:00:24Z</time>
      </trkpt>
      <trkpt lat="46.388324797153473" lon="8.324018670246005">
        <ele>2948.9299999999998</ele>
        <time>2023-06-25T07:00:47Z</time>
      </trkpt>
      <trkpt lat="46.388314068317413" lon="8.323976006358862">
        <ele>2950.9499999999998</ele>
        <time>2023-06-25T07:01:05Z</time>
      </trkpt>
      <trkpt lat="46.388302333652973" lon="8.323935940861702">
        <ele>2951.73</ele>
        <time>2023-06-25T07:01:22Z</time>
      </trkpt>
      <trkpt lat="46.38830853626132" lon="8.323918422684073">
        <ele>2953.6900000000001</ele>
        <time>2023-06-25T07:01:42Z</time>
      </trkpt>
      <trkpt lat="46.388300908729434" lon="8.323911465704441">
        <ele>2954.9699999999998</ele>
        <time>2023-06-25T07:02:05Z</time>
      </trkpt>
      <trkpt lat="46.38829336501658" lon="8.32387768663466">
        <ele>2956.5900000000001</ele>
        <time>2023-06-25T07:02:17Z</time>
      </trkpt>
      <trkpt lat="46.388276014477015" lon="8.323834519833326">
        <ele>2958.4299999999998</ele>
        <time>2023-06-25T07:02:32Z</time>
      </trkpt>
      <trkpt lat="46.388266375288367" lon="8.323807111009955">
        <ele>2959.3499999999999</ele>
        <time>2023-06-25T07:02:45Z</time>
      </trkpt>
      <trkpt lat="46.388247516006231" lon="8.323758915066719">
        <ele>2960.8200000000002</ele>
        <time>2023-06-25T07:03:02Z</time>
      </trkpt>
      <trkpt lat="46.388229578733444" lon="8.323728824034333">
        <ele>2962.6700000000001</ele>
        <time>2023-06-25T07:03:16Z</time>
      </trkpt>
      <trkpt lat="46.388215161859989" lon="8.323695464059711">
        <ele>2964.6900000000001</ele>
        <time>2023-06-25T07:03:32Z</time>
      </trkpt>
      <trkpt lat="46.388205690309405" lon="8.323658835142851">
        <ele>2965.6799999999998</ele>
        <time>2023-06-25T07:03:54Z</time>
      </trkpt>
      <trkpt lat="46.388199152424932" lon="8.323638467118144">
        <ele>2966.3299999999999</ele>
        <time>2023-06-25T07:04:09Z</time>
      </trkpt>
      <trkpt lat="46.388192027807236" lon="8.323613069951534">
        <ele>2968.52</ele>
        <time>2023-06-25T07:04:22Z</time>
      </trkpt>
      <trkpt lat="46.388181718066335" lon="8.323606112971902">
        <ele>2969.0599999999999</ele>
        <time>2023-06-25T07:04:40Z</time>
      </trkpt>
      <trkpt lat="46.388172581791878" lon="8.323587588965893">
        <ele>2968.3200000000002</ele>
        <time>2023-06-25T07:04:54Z</time>
      </trkpt>
      <trkpt lat="46.388158751651645" lon="8.323558168485761">
        <ele>2969</ele>
        <time>2023-06-25T07:05:09Z</time>
      </trkpt>
      <trkpt lat="46.388147687539458" lon="8.323527909815311">
        <ele>2971.6799999999998</ele>
        <time>2023-06-25T07:05:25Z</time>
      </trkpt>
      <trkpt lat="46.388143748044968" lon="8.32352003082633">
        <ele>2972.3099999999999</ele>
        <time>2023-06-25T07:05:28Z</time>
      </trkpt>
      <trkpt lat="46.388152129948139" lon="8.323530675843358">
        <ele>2973.7600000000002</ele>
        <time>2023-06-25T07:05:42Z</time>
      </trkpt>
      <trkpt lat="46.388138718903065" lon="8.323506116867065">
        <ele>2975.5700000000002</ele>
        <time>2023-06-25T07:05:57Z</time>
      </trkpt>
      <trkpt lat="46.388131342828274" lon="8.323500920087099">
        <ele>2976.3000000000002</ele>
        <time>2023-06-25T07:06:06Z</time>
      </trkpt>
      <trkpt lat="46.388111310079694" lon="8.323454987257719">
        <ele>2977.5300000000002</ele>
        <time>2023-06-25T07:06:33Z</time>
      </trkpt>
      <trkpt lat="46.388095384463668" lon="8.323413664475083">
        <ele>2978.4699999999998</ele>
        <time>2023-06-25T07:06:50Z</time>
      </trkpt>
      <trkpt lat="46.38807593844831" lon="8.323360271751881">
        <ele>2980.5100000000002</ele>
        <time>2023-06-25T07:07:10Z</time>
      </trkpt>
      <trkpt lat="46.388061437755823" lon="8.323324732482433">
        <ele>2983.3800000000001</ele>
        <time>2023-06-25T07:07:29Z</time>
      </trkpt>
      <trkpt lat="46.388046266511083" lon="8.323283074423671">
        <ele>2985.5599999999999</ele>
        <time>2023-06-25T07:07:48Z</time>
      </trkpt>
      <trkpt lat="46.388037130236626" lon="8.323264801874757">
        <ele>2987.02</ele>
        <time>2023-06-25T07:08:06Z</time>
      </trkpt>
      <trkpt lat="46.388017348945141" lon="8.323208307847381">
        <ele>2988.6799999999998</ele>
        <time>2023-06-25T07:08:27Z</time>
      </trkpt>
      <trkpt lat="46.38800360262394" lon="8.323171343654394">
        <ele>2990.5599999999999</ele>
        <time>2023-06-25T07:08:49Z</time>
      </trkpt>
      <trkpt lat="46.387991281226277" lon="8.323143348097801">
        <ele>2992.1799999999998</ele>
        <time>2023-06-25T07:09:08Z</time>
      </trkpt>
      <trkpt lat="46.387981893494725" lon="8.323133122175932">
        <ele>2993.5999999999999</ele>
        <time>2023-06-25T07:09:25Z</time>
      </trkpt>
      <trkpt lat="46.387986084446311" lon="8.323136894032359">
        <ele>2995.9400000000001</ele>
        <time>2023-06-25T07:09:47Z</time>
      </trkpt>
      <trkpt lat="46.387999160215259" lon="8.323132619261742">
        <ele>2996.7199999999998</ele>
        <time>2023-06-25T07:10:04Z</time>
      </trkpt>
      <trkpt lat="46.387990191578865" lon="8.323087440803647">
        <ele>2997.8499999999999</ele>
        <time>2023-06-25T07:10:24Z</time>
      </trkpt>
      <trkpt lat="46.387974852696061" lon="8.323048548772931">
        <ele>2999.73</ele>
        <time>2023-06-25T07:10:44Z</time>
      </trkpt>
      <trkpt lat="46.38795817270875" lon="8.323004962876439">
        <ele>3000.75</ele>
        <time>2023-06-25T07:11:03Z</time>
      </trkpt>
      <trkpt lat="46.38794157654047" lon="8.322967328131199">
        <ele>3002.9099999999999</ele>
        <time>2023-06-25T07:11:24Z</time>
      </trkpt>
      <trkpt lat="46.387930428609252" lon="8.322933549061418">
        <ele>3005.2600000000002</ele>
        <time>2023-06-25T07:11:48Z</time>
      </trkpt>
      <trkpt lat="46.387922130525112" lon="8.322927430272102">
        <ele>3006.54</ele>
        <time>2023-06-25T07:12:10Z</time>
      </trkpt>
      <trkpt lat="46.387917855754495" lon="8.322928603738546">
        <ele>3007.3899999999999</ele>
        <time>2023-06-25T07:12:37Z</time>
      </trkpt>
      <trkpt lat="46.387924142181873" lon="8.322915276512504">
        <ele>3007.4699999999998</ele>
        <time>2023-06-25T07:13:00Z</time>
      </trkpt>
      <trkpt lat="46.387904025614262" lon="8.322889963164926">
        <ele>3009.25</ele>
        <time>2023-06-25T07:13:19Z</time>
      </trkpt>
      <trkpt lat="46.387884495779872" lon="8.322856854647398">
        <ele>3010.1599999999999</ele>
        <time>2023-06-25T07:13:37Z</time>
      </trkpt>
      <trkpt lat="46.387892793864012" lon="8.32281737588346">
        <ele>3012.3899999999999</ele>
        <time>2023-06-25T07:14:00Z</time>
      </trkpt>
      <trkpt lat="46.387873934581876" lon="8.322811927646399">
        <ele>3013.4200000000001</ele>
        <time>2023-06-25T07:14:19Z</time>
      </trkpt>
      <trkpt lat="46.38784920796752" lon="8.322799019515514">
        <ele>3016.0799999999999</ele>
        <time>2023-06-25T07:14:36Z</time>
      </trkpt>
      <trkpt lat="46.38783504255116" lon="8.32278510555625">
        <ele>3018.6399999999999</ele>
        <time>2023-06-25T07:14:52Z</time>
      </trkpt>
      <trkpt lat="46.387828420847654" lon="8.32276213914156">
        <ele>3019.6399999999999</ele>
        <time>2023-06-25T07:15:07Z</time>
      </trkpt>
      <trkpt lat="46.387811321765184" lon="8.322734478861094">
        <ele>3020.8899999999999</ele>
        <time>2023-06-25T07:15:24Z</time>
      </trkpt>
      <trkpt lat="46.387794893234968" lon="8.322715032845736">
        <ele>3022.48</ele>
        <time>2023-06-25T07:15:44Z</time>
      </trkpt>
      <trkpt lat="46.38777444139123" lon="8.322688797488809">
        <ele>3024.79</ele>
        <time>2023-06-25T07:16:03Z</time>
      </trkpt>
      <trkpt lat="46.387756839394569" lon="8.322676308453083">
        <ele>3026.0700000000002</ele>
        <time>2023-06-25T07:16:19Z</time>
      </trkpt>
      <trkpt lat="46.387757258489728" lon="8.322668094187975">
        <ele>3028.1300000000001</ele>
        <time>2023-06-25T07:16:48Z</time>
      </trkpt>
      <trkpt lat="46.387736387550831" lon="8.322634231299162">
        <ele>3030.5999999999999</ele>
        <time>2023-06-25T07:17:07Z</time>
      </trkpt>
      <trkpt lat="46.387725658714771" lon="8.322613779455423">
        <ele>3031.7800000000002</ele>
        <time>2023-06-25T07:17:24Z</time>
      </trkpt>
      <trkpt lat="46.387715265154839" lon="8.322596680372953">
        <ele>3033.1100000000001</ele>
        <time>2023-06-25T07:17:39Z</time>
      </trkpt>
      <trkpt lat="46.387705709785223" lon="8.322573881596327">
        <ele>3034.5900000000001</ele>
        <time>2023-06-25T07:17:56Z</time>
      </trkpt>
      <trkpt lat="46.387686682865024" lon="8.322556698694825">
        <ele>3036.5100000000002</ele>
        <time>2023-06-25T07:18:15Z</time>
      </trkpt>
      <trkpt lat="46.387676624581218" lon="8.322532307356596">
        <ele>3038.54</ele>
        <time>2023-06-25T07:18:32Z</time>
      </trkpt>
      <trkpt lat="46.387665392830968" lon="8.32251688465476">
        <ele>3039.4699999999998</ele>
        <time>2023-06-25T07:18:52Z</time>
      </trkpt>
      <trkpt lat="46.387646114453673" lon="8.322488386183977">
        <ele>3040.9499999999998</ele>
        <time>2023-06-25T07:19:13Z</time>
      </trkpt>
      <trkpt lat="46.387641923502088" lon="8.322476232424378">
        <ele>3042.3800000000001</ele>
        <time>2023-06-25T07:19:29Z</time>
      </trkpt>
      <trkpt lat="46.387639660388231" lon="8.322463072836399">
        <ele>3043.79</ele>
        <time>2023-06-25T07:19:48Z</time>
      </trkpt>
      <trkpt lat="46.387624824419618" lon="8.322438094764948">
        <ele>3045.2800000000002</ele>
        <time>2023-06-25T07:20:09Z</time>
      </trkpt>
      <trkpt lat="46.387615939602256" lon="8.322409093379974">
        <ele>3046.8099999999999</ele>
        <time>2023-06-25T07:20:29Z</time>
      </trkpt>
      <trkpt lat="46.387603366747499" lon="8.322402974590659">
        <ele>3047.8000000000002</ele>
        <time>2023-06-25T07:20:49Z</time>
      </trkpt>
      <trkpt lat="46.38758635148406" lon="8.322373973205686">
        <ele>3049.21</ele>
        <time>2023-06-25T07:21:11Z</time>
      </trkpt>
      <trkpt lat="46.387579059228301" lon="8.32235804758966">
        <ele>3050.8400000000001</ele>
        <time>2023-06-25T07:21:31Z</time>
      </trkpt>
      <trkpt lat="46.387570761144161" lon="8.322339104488492">
        <ele>3052.4099999999999</ele>
        <time>2023-06-25T07:21:55Z</time>
      </trkpt>
      <trkpt lat="46.387559864670038" lon="8.322307420894504">
        <ele>3053.5599999999999</ele>
        <time>2023-06-25T07:22:13Z</time>
      </trkpt>
      <trkpt lat="46.387549135833979" lon="8.322285963222385">
        <ele>3055.2399999999998</ele>
        <time>2023-06-25T07:22:33Z</time>
      </trkpt>
      <trkpt lat="46.387540251016617" lon="8.32226081751287">
        <ele>3055.9699999999998</ele>
        <time>2023-06-25T07:22:54Z</time>
      </trkpt>
      <trkpt lat="46.387528432533145" lon="8.322226284071803">
        <ele>3057.1700000000001</ele>
        <time>2023-06-25T07:23:15Z</time>
      </trkpt>
      <trkpt lat="46.387517871335149" lon="8.322203317657113">
        <ele>3059.25</ele>
        <time>2023-06-25T07:23:39Z</time>
      </trkpt>
      <trkpt lat="46.387507310137153" lon="8.322181608527899">
        <ele>3060.8800000000001</ele>
        <time>2023-06-25T07:23:58Z</time>
      </trkpt>
      <trkpt lat="46.387495072558522" lon="8.322153445333242">
        <ele>3062.6799999999998</ele>
        <time>2023-06-25T07:24:21Z</time>
      </trkpt>
      <trkpt lat="46.387485601007938" lon="8.322102651000023">
        <ele>3063.9299999999998</ele>
        <time>2023-06-25T07:24:42Z</time>
      </trkpt>
      <trkpt lat="46.38748325407505" lon="8.322080355137587">
        <ele>3065.3899999999999</ele>
        <time>2023-06-25T07:25:02Z</time>
      </trkpt>
      <trkpt lat="46.38747395016253" lon="8.322075661271811">
        <ele>3066.3600000000001</ele>
        <time>2023-06-25T07:25:26Z</time>
      </trkpt>
      <trkpt lat="46.387446876615286" lon="8.322043474763632">
        <ele>3068.9000000000001</ele>
        <time>2023-06-25T07:25:45Z</time>
      </trkpt>
      <trkpt lat="46.387443356215954" lon="8.322020340710878">
        <ele>3070.8299999999999</ele>
        <time>2023-06-25T07:26:02Z</time>
      </trkpt>
      <trkpt lat="46.387426257133484" lon="8.321998296305537">
        <ele>3071.9899999999998</ele>
        <time>2023-06-25T07:26:19Z</time>
      </trkpt>
      <trkpt lat="46.387413600459695" lon="8.321962337940931">
        <ele>3073.75</ele>
        <time>2023-06-25T07:26:39Z</time>
      </trkpt>
      <trkpt lat="46.387404883280396" lon="8.321944735944271">
        <ele>3075.4000000000001</ele>
        <time>2023-06-25T07:27:00Z</time>
      </trkpt>
      <trkpt lat="46.387392394244671" lon="8.321904502809048">
        <ele>3076.98</ele>
        <time>2023-06-25T07:27:17Z</time>
      </trkpt>
      <trkpt lat="46.387389712035656" lon="8.321895198896527">
        <ele>3076.96</ele>
        <time>2023-06-25T07:27:37Z</time>
      </trkpt>
      <trkpt lat="46.38738602399826" lon="8.321900060400367">
        <ele>3076.79</ele>
        <time>2023-06-25T07:28:02Z</time>
      </trkpt>
      <trkpt lat="46.387381833046675" lon="8.321892181411386">
        <ele>3076.79</ele>
        <time>2023-06-25T07:28:36Z</time>
      </trkpt>
      <trkpt lat="46.387373451143503" lon="8.321846835315228">
        <ele>3079.7800000000002</ele>
        <time>2023-06-25T07:28:53Z</time>
      </trkpt>
      <trkpt lat="46.38737328350544" lon="8.32179713062942">
        <ele>3080.6199999999999</ele>
        <time>2023-06-25T07:29:09Z</time>
      </trkpt>
      <trkpt lat="46.387368757277727" lon="8.321789251640439">
        <ele>3080.73</ele>
        <time>2023-06-25T07:29:31Z</time>
      </trkpt>
      <trkpt lat="46.387358950451016" lon="8.321770979091525">
        <ele>3082.4099999999999</ele>
        <time>2023-06-25T07:29:59Z</time>
      </trkpt>
      <trkpt lat="46.387352580204606" lon="8.32172236405313">
        <ele>3084.46</ele>
        <time>2023-06-25T07:30:14Z</time>
      </trkpt>
      <trkpt lat="46.387343611568213" lon="8.32169059664011">
        <ele>3086.8499999999999</ele>
        <time>2023-06-25T07:30:29Z</time>
      </trkpt>
      <trkpt lat="46.38733321800828" lon="8.32165639847517">
        <ele>3088.75</ele>
        <time>2023-06-25T07:30:44Z</time>
      </trkpt>
      <trkpt lat="46.387322572991252" lon="8.321622703224421">
        <ele>3089.8099999999999</ele>
        <time>2023-06-25T07:31:06Z</time>
      </trkpt>
      <trkpt lat="46.387315783649683" lon="8.3215840626508">
        <ele>3092.9299999999998</ele>
        <time>2023-06-25T07:31:24Z</time>
      </trkpt>
      <trkpt lat="46.387318046763539" lon="8.321576099842787">
        <ele>3094.3000000000002</ele>
        <time>2023-06-25T07:31:56Z</time>
      </trkpt>
      <trkpt lat="46.387316538020968" lon="8.321575345471501">
        <ele>3094.5799999999999</ele>
        <time>2023-06-25T07:32:26Z</time>
      </trkpt>
      <trkpt lat="46.387315280735493" lon="8.321562940254808">
        <ele>3095.71</ele>
        <time>2023-06-25T07:32:51Z</time>
      </trkpt>
      <trkpt lat="46.387304216623306" lon="8.321508625522256">
        <ele>3096.4000000000001</ele>
        <time>2023-06-25T07:33:11Z</time>
      </trkpt>
      <trkpt lat="46.38729315251112" lon="8.32147610373795">
        <ele>3097.52</ele>
        <time>2023-06-25T07:33:27Z</time>
      </trkpt>
      <trkpt lat="46.387283680960536" lon="8.321428662165999">
        <ele>3098.98</ele>
        <time>2023-06-25T07:33:45Z</time>
      </trkpt>
      <trkpt lat="46.387277562171221" lon="8.321395302191377">
        <ele>3100.1900000000001</ele>
        <time>2023-06-25T07:34:03Z</time>
      </trkpt>
      <trkpt lat="46.387268425896764" lon="8.321359930559993">
        <ele>3101.4299999999998</ele>
        <time>2023-06-25T07:34:20Z</time>
      </trkpt>
      <trkpt lat="46.38725895434618" lon="8.321327660232782">
        <ele>3102.8699999999999</ele>
        <time>2023-06-25T07:34:37Z</time>
      </trkpt>
      <trkpt lat="46.387259373441339" lon="8.321302095428109">
        <ele>3102.4200000000001</ele>
        <time>2023-06-25T07:35:00Z</time>
      </trkpt>
      <trkpt lat="46.38725115917623" lon="8.321273345500231">
        <ele>3104.2399999999998</ele>
        <time>2023-06-25T07:35:20Z</time>
      </trkpt>
      <trkpt lat="46.387236909940839" lon="8.321258425712585">
        <ele>3108.0900000000001</ele>
        <time>2023-06-25T07:35:36Z</time>
      </trkpt>
      <trkpt lat="46.387228863313794" lon="8.321229172870517">
        <ele>3109.2800000000002</ele>
        <time>2023-06-25T07:35:54Z</time>
      </trkpt>
      <trkpt lat="46.387221403419971" lon="8.321204781532288">
        <ele>3111.2199999999998</ele>
        <time>2023-06-25T07:36:11Z</time>
      </trkpt>
      <trkpt lat="46.387214194983244" lon="8.321179300546646">
        <ele>3113.5900000000001</ele>
        <time>2023-06-25T07:36:29Z</time>
      </trkpt>
      <trkpt lat="46.387207070365548" lon="8.32115164026618">
        <ele>3115.0900000000001</ele>
        <time>2023-06-25T07:36:48Z</time>
      </trkpt>
      <trkpt lat="46.387202208861709" lon="8.321140659973025">
        <ele>3116.9099999999999</ele>
        <time>2023-06-25T07:37:04Z</time>
      </trkpt>
      <trkpt lat="46.38719935901463" lon="8.321133451536298">
        <ele>3117.71</ele>
        <time>2023-06-25T07:37:19Z</time>
      </trkpt>
      <trkpt lat="46.387188546359539" lon="8.321122890338302">
        <ele>3118.9699999999998</ele>
        <time>2023-06-25T07:37:34Z</time>
      </trkpt>
      <trkpt lat="46.387177146971226" lon="8.321090871468186">
        <ele>3121.3400000000001</ele>
        <time>2023-06-25T07:37:50Z</time>
      </trkpt>
      <trkpt lat="46.387172034010291" lon="8.321068827062845">
        <ele>3122.4200000000001</ele>
        <time>2023-06-25T07:38:07Z</time>
      </trkpt>
      <trkpt lat="46.387165328487754" lon="8.321051644161344">
        <ele>3123.9200000000001</ele>
        <time>2023-06-25T07:38:26Z</time>
      </trkpt>
      <trkpt lat="46.387160299345851" lon="8.32102557644248">
        <ele>3124.4400000000001</ele>
        <time>2023-06-25T07:38:43Z</time>
      </trkpt>
      <trkpt lat="46.387156024575233" lon="8.321010656654835">
        <ele>3125.71</ele>
        <time>2023-06-25T07:38:58Z</time>
      </trkpt>
      <trkpt lat="46.387145882472396" lon="8.320985678583384">
        <ele>3126.9299999999998</ele>
        <time>2023-06-25T07:39:15Z</time>
      </trkpt>
      <trkpt lat="46.387139679864049" lon="8.320973357185721">
        <ele>3128.0799999999999</ele>
        <time>2023-06-25T07:39:35Z</time>
      </trkpt>
      <trkpt lat="46.387128531932831" lon="8.320953659713268">
        <ele>3128.3600000000001</ele>
        <time>2023-06-25T07:39:59Z</time>
      </trkpt>
      <trkpt lat="46.387115959078074" lon="8.320920635014772">
        <ele>3131.8800000000001</ele>
        <time>2023-06-25T07:40:15Z</time>
      </trkpt>
      <trkpt lat="46.387110091745853" lon="8.320894902572036">
        <ele>3133.3200000000002</ele>
        <time>2023-06-25T07:40:30Z</time>
      </trkpt>
      <trkpt lat="46.387111432850361" lon="8.320879396051168">
        <ele>3134.46</ele>
        <time>2023-06-25T07:40:50Z</time>
      </trkpt>
      <trkpt lat="46.387101961299777" lon="8.320854501798749">
        <ele>3135.6799999999998</ele>
        <time>2023-06-25T07:41:10Z</time>
      </trkpt>
      <trkpt lat="46.387091064825654" lon="8.320825919508934">
        <ele>3137.9000000000001</ele>
        <time>2023-06-25T07:41:31Z</time>
      </trkpt>
      <trkpt lat="46.387083940207958" lon="8.32079884596169">
        <ele>3139.4699999999998</ele>
        <time>2023-06-25T07:41:50Z</time>
      </trkpt>
      <trkpt lat="46.387071954086423" lon="8.320778058841825">
        <ele>3141.21</ele>
        <time>2023-06-25T07:42:07Z</time>
      </trkpt>
      <trkpt lat="46.38705862686038" lon="8.320742603391409">
        <ele>3142.3000000000002</ele>
        <time>2023-06-25T07:42:25Z</time>
      </trkpt>
      <trkpt lat="46.387042868882418" lon="8.32072357647121">
        <ele>3143.9400000000001</ele>
        <time>2023-06-25T07:42:41Z</time>
      </trkpt>
      <trkpt lat="46.387031385675073" lon="8.320733131840825">
        <ele>3145.3099999999999</ele>
        <time>2023-06-25T07:42:59Z</time>
      </trkpt>
      <trkpt lat="46.387020824477077" lon="8.320739334449172">
        <ele>3146.7199999999998</ele>
        <time>2023-06-25T07:43:16Z</time>
      </trkpt>
      <trkpt lat="46.387011855840683" lon="8.320735981687903">
        <ele>3146.8299999999999</ele>
        <time>2023-06-25T07:43:35Z</time>
      </trkpt>
      <trkpt lat="46.387003725394607" lon="8.32073338329792">
        <ele>3147.3099999999999</ele>
        <time>2023-06-25T07:43:55Z</time>
      </trkpt>
      <trkpt lat="46.387011269107461" lon="8.320752326399088">
        <ele>3147.79</ele>
        <time>2023-06-25T07:44:22Z</time>
      </trkpt>
      <trkpt lat="46.38700632378459" lon="8.320753080770373">
        <ele>3147.8099999999999</ele>
        <time>2023-06-25T07:44:36Z</time>
      </trkpt>
      <trkpt lat="46.387021578848362" lon="8.320741597563028">
        <ele>3147.7600000000002</ele>
        <time>2023-06-25T07:45:25Z</time>
      </trkpt>
      <trkpt lat="46.387014789506793" lon="8.320738831534982">
        <ele>3148.3400000000001</ele>
        <time>2023-06-25T07:45:58Z</time>
      </trkpt>
      <trkpt lat="46.387009928002954" lon="8.320752494037151">
        <ele>3149.3099999999999</ele>
        <time>2023-06-25T07:46:17Z</time>
      </trkpt>
      <trkpt lat="46.387008670717478" lon="8.320748219266534">
        <ele>3149.5700000000002</ele>
        <time>2023-06-25T07:46:44Z</time>
      </trkpt>
      <trkpt lat="46.387011436745524" lon="8.320761630311608">
        <ele>3150.0999999999999</ele>
        <time>2023-06-25T07:47:02Z</time>
      </trkpt>
      <trkpt lat="46.387014454230666" lon="8.320769006386399">
        <ele>3150.5</ele>
        <time>2023-06-25T07:47:23Z</time>
      </trkpt>
      <trkpt lat="46.386968940496445" lon="8.320766240358353">
        <ele>3152.1199999999999</ele>
        <time>2023-06-25T07:47:42Z</time>
      </trkpt>
      <trkpt lat="46.386971706524491" lon="8.320758864283562">
        <ele>3153.0900000000001</ele>
        <time>2023-06-25T07:48:16Z</time>
      </trkpt>
      <trkpt lat="46.38696332462132" lon="8.320755679160357">
        <ele>3153.7600000000002</ele>
        <time>2023-06-25T07:48:44Z</time>
      </trkpt>
      <trkpt lat="46.386881936341524" lon="8.32074947655201">
        <ele>3156.1599999999999</ele>
        <time>2023-06-25T07:49:10Z</time>
      </trkpt>
      <trkpt lat="46.386845810338855" lon="8.320752242580056">
        <ele>3156.7399999999998</ele>
        <time>2023-06-25T07:49:27Z</time>
      </trkpt>
      <trkpt lat="46.386816808953881" lon="8.320738580077887">
        <ele>3157.1700000000001</ele>
        <time>2023-06-25T07:49:42Z</time>
      </trkpt>
      <trkpt lat="46.386795435100794" lon="8.320726593956351">
        <ele>3157.4499999999998</ele>
        <time>2023-06-25T07:49:56Z</time>
      </trkpt>
      <trkpt lat="46.386770037934184" lon="8.320715026929975">
        <ele>3157.6700000000001</ele>
        <time>2023-06-25T07:50:10Z</time>
      </trkpt>
      <trkpt lat="46.386747825890779" lon="8.320713685825467">
        <ele>3158.5</ele>
        <time>2023-06-25T07:50:28Z</time>
      </trkpt>
      <trkpt lat="46.386737935245037" lon="8.320690803229809">
        <ele>3158.5799999999999</ele>
        <time>2023-06-25T07:50:43Z</time>
      </trkpt>
      <trkpt lat="46.386718656867743" lon="8.320663059130311">
        <ele>3159.5</ele>
        <time>2023-06-25T07:51:00Z</time>
      </trkpt>
      <trkpt lat="46.38670776039362" lon="8.32062978297472">
        <ele>3160.1100000000001</ele>
        <time>2023-06-25T07:51:17Z</time>
      </trkpt>
      <trkpt lat="46.386690912768245" lon="8.320600278675556">
        <ele>3161.46</ele>
        <time>2023-06-25T07:51:34Z</time>
      </trkpt>
      <trkpt lat="46.386676076799631" lon="8.320577647536993">
        <ele>3162.0900000000001</ele>
        <time>2023-06-25T07:51:53Z</time>
      </trkpt>
      <trkpt lat="46.386667443439364" lon="8.32054914906621">
        <ele>3163.04</ele>
        <time>2023-06-25T07:52:06Z</time>
      </trkpt>
      <trkpt lat="46.386654367670417" lon="8.320516459643841">
        <ele>3164.8200000000002</ele>
        <time>2023-06-25T07:52:24Z</time>
      </trkpt>
      <trkpt lat="46.386644477024674" lon="8.320499444380403">
        <ele>3166.3699999999999</ele>
        <time>2023-06-25T07:52:41Z</time>
      </trkpt>
      <trkpt lat="46.386639699339867" lon="8.320483602583408">
        <ele>3167.96</ele>
        <time>2023-06-25T07:53:04Z</time>
      </trkpt>
      <trkpt lat="46.386629724875093" lon="8.320454768836498">
        <ele>3169.3499999999999</ele>
        <time>2023-06-25T07:53:22Z</time>
      </trkpt>
      <trkpt lat="46.386618074029684" lon="8.32042652182281">
        <ele>3171.0599999999999</ele>
        <time>2023-06-25T07:53:39Z</time>
      </trkpt>
      <trkpt lat="46.386601896956563" lon="8.320407411083579">
        <ele>3173.27</ele>
        <time>2023-06-25T07:53:57Z</time>
      </trkpt>
      <trkpt lat="46.38659686781466" lon="8.32040648907423">
        <ele>3174.73</ele>
        <time>2023-06-25T07:54:22Z</time>
      </trkpt>
      <trkpt lat="46.386579852551222" lon="8.320378661155701">
        <ele>3175.4499999999998</ele>
        <time>2023-06-25T07:54:44Z</time>
      </trkpt>
      <trkpt lat="46.386560825631022" lon="8.320349827408791">
        <ele>3177.4499999999998</ele>
        <time>2023-06-25T07:55:01Z</time>
      </trkpt>
      <trkpt lat="46.386544983834028" lon="8.320321328938007">
        <ele>3179.4000000000001</ele>
        <time>2023-06-25T07:55:17Z</time>
      </trkpt>
      <trkpt lat="46.386538026854396" lon="8.320314288139343">
        <ele>3181.2600000000002</ele>
        <time>2023-06-25T07:55:38Z</time>
      </trkpt>
      <trkpt lat="46.386532494798303" lon="8.320307079702616">
        <ele>3181.8699999999999</ele>
        <time>2023-06-25T07:55:57Z</time>
      </trkpt>
      <trkpt lat="46.386524364352226" lon="8.320276234298945">
        <ele>3183.3499999999999</ele>
        <time>2023-06-25T07:56:13Z</time>
      </trkpt>
      <trkpt lat="46.386515898630023" lon="8.320243041962385">
        <ele>3185.02</ele>
        <time>2023-06-25T07:56:30Z</time>
      </trkpt>
      <trkpt lat="46.386507768183947" lon="8.320213872939348">
        <ele>3186.21</ele>
        <time>2023-06-25T07:56:46Z</time>
      </trkpt>
      <trkpt lat="46.386491674929857" lon="8.320189230144024">
        <ele>3187.6199999999999</ele>
        <time>2023-06-25T07:57:00Z</time>
      </trkpt>
      <trkpt lat="46.386483544483781" lon="8.320175567641854">
        <ele>3188.5700000000002</ele>
        <time>2023-06-25T07:57:16Z</time>
      </trkpt>
      <trkpt lat="46.38647080399096" lon="8.320149499922991">
        <ele>3191.04</ele>
        <time>2023-06-25T07:57:47Z</time>
      </trkpt>
      <trkpt lat="46.386454459279776" lon="8.320106081664562">
        <ele>3193.2199999999998</ele>
        <time>2023-06-25T07:58:04Z</time>
      </trkpt>
      <trkpt lat="46.386442892253399" lon="8.320083618164063">
        <ele>3194.02</ele>
        <time>2023-06-25T07:58:19Z</time>
      </trkpt>
      <trkpt lat="46.386446580290794" lon="8.32008202560246">
        <ele>3194.4000000000001</ele>
        <time>2023-06-25T07:58:43Z</time>
      </trkpt>
      <trkpt lat="46.386447502300143" lon="8.320068614557385">
        <ele>3195.0300000000002</ele>
        <time>2023-06-25T07:59:04Z</time>
      </trkpt>
      <trkpt lat="46.386430654674768" lon="8.320031566545367">
        <ele>3196.7800000000002</ele>
        <time>2023-06-25T07:59:23Z</time>
      </trkpt>
      <trkpt lat="46.386436019092798" lon="8.319973312318325">
        <ele>3198.1500000000001</ele>
        <time>2023-06-25T07:59:41Z</time>
      </trkpt>
      <trkpt lat="46.386436438187957" lon="8.319941461086273">
        <ele>3198.8200000000002</ele>
        <time>2023-06-25T08:00:07Z</time>
      </trkpt>
      <trkpt lat="46.386433336883783" lon="8.319887146353722">
        <ele>3200.0999999999999</ele>
        <time>2023-06-25T08:00:23Z</time>
      </trkpt>
      <trkpt lat="46.386438198387623" lon="8.319871975108981">
        <ele>3200.96</ele>
        <time>2023-06-25T08:00:41Z</time>
      </trkpt>
      <trkpt lat="46.386433001607656" lon="8.319825623184443">
        <ele>3201.5599999999999</ele>
        <time>2023-06-25T08:01:07Z</time>
      </trkpt>
      <trkpt lat="46.386440461501479" lon="8.319735936820507">
        <ele>3203.3600000000001</ele>
        <time>2023-06-25T08:01:26Z</time>
      </trkpt>
      <trkpt lat="46.386435013264418" lon="8.319672401994467">
        <ele>3205.3299999999999</ele>
        <time>2023-06-25T08:01:43Z</time>
      </trkpt>
      <trkpt lat="46.386431492865086" lon="8.319616243243218">
        <ele>3206.96</ele>
        <time>2023-06-25T08:01:59Z</time>
      </trkpt>
      <trkpt lat="46.386429229751229" lon="8.319578692317009">
        <ele>3208.1700000000001</ele>
        <time>2023-06-25T08:02:16Z</time>
      </trkpt>
      <trkpt lat="46.386435097083449" lon="8.319513397291303">
        <ele>3209.5</ele>
        <time>2023-06-25T08:02:33Z</time>
      </trkpt>
      <trkpt lat="46.38645077124238" lon="8.319447347894311">
        <ele>3211.0799999999999</ele>
        <time>2023-06-25T08:02:50Z</time>
      </trkpt>
      <trkpt lat="46.38645613566041" lon="8.319391021504998">
        <ele>3212</ele>
        <time>2023-06-25T08:03:06Z</time>
      </trkpt>
      <trkpt lat="46.386469127610326" lon="8.319355817511678">
        <ele>3212.6900000000001</ele>
        <time>2023-06-25T08:03:24Z</time>
      </trkpt>
      <trkpt lat="46.386480359360576" lon="8.319350704550743">
        <ele>3213.1399999999999</ele>
        <time>2023-06-25T08:03:48Z</time>
      </trkpt>
      <trkpt lat="46.386485137045383" lon="8.319304352626205">
        <ele>3214.6599999999999</ele>
        <time>2023-06-25T08:04:07Z</time>
      </trkpt>
      <trkpt lat="46.386483125388622" lon="8.319270992651582">
        <ele>3215.9400000000001</ele>
        <time>2023-06-25T08:04:23Z</time>
      </trkpt>
      <trkpt lat="46.386476587504148" lon="8.319250792264938">
        <ele>3217.0900000000001</ele>
        <time>2023-06-25T08:04:38Z</time>
      </trkpt>
      <trkpt lat="46.38647080399096" lon="8.319226233288646">
        <ele>3218.4200000000001</ele>
        <time>2023-06-25T08:04:56Z</time>
      </trkpt>
      <trkpt lat="46.386464014649391" lon="8.31920980475843">
        <ele>3220.0700000000002</ele>
        <time>2023-06-25T08:05:11Z</time>
      </trkpt>
      <trkpt lat="46.386460997164249" lon="8.319190107285976">
        <ele>3221.7600000000002</ele>
        <time>2023-06-25T08:05:29Z</time>
      </trkpt>
      <trkpt lat="46.386464852839708" lon="8.319164961576462">
        <ele>3223.21</ele>
        <time>2023-06-25T08:05:48Z</time>
      </trkpt>
      <trkpt lat="46.386475246399641" lon="8.319131853058934">
        <ele>3224.4200000000001</ele>
        <time>2023-06-25T08:06:06Z</time>
      </trkpt>
      <trkpt lat="46.386483293026686" lon="8.319107461720705">
        <ele>3225.5500000000002</ele>
        <time>2023-06-25T08:06:25Z</time>
      </trkpt>
      <trkpt lat="46.386486813426018" lon="8.319088937714696">
        <ele>3226.2399999999998</ele>
        <time>2023-06-25T08:06:40Z</time>
      </trkpt>
      <trkpt lat="46.38648790307343" lon="8.319084998220205">
        <ele>3227.46</ele>
        <time>2023-06-25T08:07:03Z</time>
      </trkpt>
      <trkpt lat="46.386478934437037" lon="8.319052560254931">
        <ele>3228.5500000000002</ele>
        <time>2023-06-25T08:07:24Z</time>
      </trkpt>
      <trkpt lat="46.386474911123514" lon="8.31899531185627">
        <ele>3229.7800000000002</ele>
        <time>2023-06-25T08:07:42Z</time>
      </trkpt>
      <trkpt lat="46.386461416259408" lon="8.318943092599511">
        <ele>3231.3800000000001</ele>
        <time>2023-06-25T08:07:59Z</time>
      </trkpt>
      <trkpt lat="46.386454375460744" lon="8.31889757886529">
        <ele>3233.4299999999998</ele>
        <time>2023-06-25T08:08:16Z</time>
      </trkpt>
      <trkpt lat="46.386451022699475" lon="8.318850304931402">
        <ele>3234.5</ele>
        <time>2023-06-25T08:08:31Z</time>
      </trkpt>
      <trkpt lat="46.386457309126854" lon="8.318805210292339">
        <ele>3236.1100000000001</ele>
        <time>2023-06-25T08:08:48Z</time>
      </trkpt>
      <trkpt lat="46.386457141488791" lon="8.318757014349103">
        <ele>3237.1300000000001</ele>
        <time>2023-06-25T08:09:04Z</time>
      </trkpt>
      <trkpt lat="46.38646150007844" lon="8.318723989650607">
        <ele>3238.3000000000002</ele>
        <time>2023-06-25T08:09:23Z</time>
      </trkpt>
      <trkpt lat="46.386458734050393" lon="8.318717116490006">
        <ele>3239.25</ele>
        <time>2023-06-25T08:09:44Z</time>
      </trkpt>
      <trkpt lat="46.386461919173598" lon="8.318713763728738">
        <ele>3239.54</ele>
        <time>2023-06-25T08:10:17Z</time>
      </trkpt>
      <trkpt lat="46.386465020477772" lon="8.318710243329406">
        <ele>3241.5999999999999</ele>
        <time>2023-06-25T08:11:02Z</time>
      </trkpt>
      <trkpt lat="46.38646787032485" lon="8.318702196702361">
        <ele>3241.3499999999999</ele>
        <time>2023-06-25T08:11:44Z</time>
      </trkpt>
      <trkpt lat="46.38646443374455" lon="8.318703873082995">
        <ele>3239.8899999999999</ele>
        <time>2023-06-25T08:12:02Z</time>
      </trkpt>
      <trkpt lat="46.386462841182947" lon="8.31869088113308">
        <ele>3239.75</ele>
        <time>2023-06-25T08:12:26Z</time>
      </trkpt>
      <trkpt lat="46.386461835354567" lon="8.318682415410876">
        <ele>3240.4400000000001</ele>
        <time>2023-06-25T08:12:50Z</time>
      </trkpt>
      <trkpt lat="46.38646200299263" lon="8.31868945620954">
        <ele>3239.7199999999998</ele>
        <time>2023-06-25T08:13:13Z</time>
      </trkpt>
      <trkpt lat="46.386471139267087" lon="8.318704292178154">
        <ele>3238.71</ele>
        <time>2023-06-25T08:14:13Z</time>
      </trkpt>
      <trkpt lat="46.386466696858406" lon="8.318703537806869">
        <ele>3238.3200000000002</ele>
        <time>2023-06-25T08:15:05Z</time>
      </trkpt>
      <trkpt lat="46.386474743485451" lon="8.318696245551109">
        <ele>3238.6199999999999</ele>
        <time>2023-06-25T08:15:53Z</time>
      </trkpt>
      <trkpt lat="46.386477844789624" lon="8.318691467866302">
        <ele>3238.5700000000002</ele>
        <time>2023-06-25T08:16:46Z</time>
      </trkpt>
      <trkpt lat="46.386470552533865" lon="8.318721055984497">
        <ele>3238.6399999999999</ele>
        <time>2023-06-25T08:17:12Z</time>
      </trkpt>
      <trkpt lat="46.386472480371594" lon="8.318724157288671">
        <ele>3238.4099999999999</ele>
        <time>2023-06-25T08:18:03Z</time>
      </trkpt>
      <trkpt lat="46.386477677151561" lon="8.31870798021555">
        <ele>3238.0500000000002</ele>
        <time>2023-06-25T08:18:23Z</time>
      </trkpt>
      <trkpt lat="46.386474072933197" lon="8.318716278299689">
        <ele>3237.79</ele>
        <time>2023-06-25T08:19:11Z</time>
      </trkpt>
      <trkpt lat="46.386470720171928" lon="8.318719295784831">
        <ele>3237.8899999999999</ele>
        <time>2023-06-25T08:20:18Z</time>
      </trkpt>
      <trkpt lat="46.386466277763247" lon="8.31873731687665">
        <ele>3239.0500000000002</ele>
        <time>2023-06-25T08:21:13Z</time>
      </trkpt>
      <trkpt lat="46.386469379067421" lon="8.318726839497685">
        <ele>3238.6900000000001</ele>
        <time>2023-06-25T08:21:59Z</time>
      </trkpt>
      <trkpt lat="46.386464517563581" lon="8.318718541413546">
        <ele>3238.6900000000001</ele>
        <time>2023-06-25T08:22:31Z</time>
      </trkpt>
      <trkpt lat="46.38646493665874" lon="8.318709405139089">
        <ele>3239.52</ele>
        <time>2023-06-25T08:23:17Z</time>
      </trkpt>
      <trkpt lat="46.386466361582279" lon="8.318702280521393">
        <ele>3239.4099999999999</ele>
        <time>2023-06-25T08:23:45Z</time>
      </trkpt>
      <trkpt lat="46.386462925001979" lon="8.318676631897688">
        <ele>3239.8699999999999</ele>
        <time>2023-06-25T08:24:16Z</time>
      </trkpt>
      <trkpt lat="46.386457476764917" lon="8.318647546693683">
        <ele>3239.4099999999999</ele>
        <time>2023-06-25T08:24:39Z</time>
      </trkpt>
      <trkpt lat="46.3864566385746" lon="8.318646708503366">
        <ele>3239.46</ele>
        <time>2023-06-25T08:25:35Z</time>
      </trkpt>
      <trkpt lat="46.386445658281446" lon="8.318660454824567">
        <ele>3239.6500000000001</ele>
        <time>2023-06-25T08:26:18Z</time>
      </trkpt>
      <trkpt lat="46.386453285813332" lon="8.31866305321455">
        <ele>3239.1900000000001</ele>
        <time>2023-06-25T08:26:39Z</time>
      </trkpt>
      <trkpt lat="46.38646979816258" lon="8.318694066256285">
        <ele>3239.3699999999999</ele>
        <time>2023-06-25T08:26:54Z</time>
      </trkpt>
      <trkpt lat="46.386488908901811" lon="8.318687360733748">
        <ele>3239.5700000000002</ele>
        <time>2023-06-25T08:27:23Z</time>
      </trkpt>
      <trkpt lat="46.386493854224682" lon="8.318685181438923">
        <ele>3239.96</ele>
        <time>2023-06-25T08:27:46Z</time>
      </trkpt>
      <trkpt lat="46.386495782062411" lon="8.318683756515384">
        <ele>3240.3699999999999</ele>
        <time>2023-06-25T08:28:07Z</time>
      </trkpt>
      <trkpt lat="46.38649863190949" lon="8.318685349076986">
        <ele>3240.8000000000002</ele>
        <time>2023-06-25T08:28:32Z</time>
      </trkpt>
      <trkpt lat="46.386493602767587" lon="8.318684343248606">
        <ele>3241.1900000000001</ele>
        <time>2023-06-25T08:28:53Z</time>
      </trkpt>
      <trkpt lat="46.386491423472762" lon="8.318681493401527">
        <ele>3241.4899999999998</ele>
        <time>2023-06-25T08:29:22Z</time>
      </trkpt>
      <trkpt lat="46.386490669101477" lon="8.318683421239257">
        <ele>3241.1700000000001</ele>
        <time>2023-06-25T08:29:44Z</time>
      </trkpt>
      <trkpt lat="46.386489998549223" lon="8.318684175610542">
        <ele>3241.2600000000002</ele>
        <time>2023-06-25T08:30:11Z</time>
      </trkpt>
      <trkpt lat="46.386487651616335" lon="8.318682666867971">
        <ele>3241.73</ele>
        <time>2023-06-25T08:30:45Z</time>
      </trkpt>
      <trkpt lat="46.386487483978271" lon="8.318680319935083">
        <ele>3241.46</ele>
        <time>2023-06-25T08:31:17Z</time>
      </trkpt>
      <trkpt lat="46.386489998549223" lon="8.318682163953781">
        <ele>3241.4400000000001</ele>
        <time>2023-06-25T08:31:44Z</time>
      </trkpt>
      <trkpt lat="46.38649670407176" lon="8.318678056821227">
        <ele>3241.5700000000002</ele>
        <time>2023-06-25T08:32:13Z</time>
      </trkpt>
      <trkpt lat="46.386495195329189" lon="8.318677637726069">
        <ele>3242.1100000000001</ele>
        <time>2023-06-25T08:32:44Z</time>
      </trkpt>
      <trkpt lat="46.386493854224682" lon="8.318679146468639">
        <ele>3242.3400000000001</ele>
        <time>2023-06-25T08:33:17Z</time>
      </trkpt>
      <trkpt lat="46.386491758748889" lon="8.318685851991177">
        <ele>3242.1100000000001</ele>
        <time>2023-06-25T08:33:53Z</time>
      </trkpt>
      <trkpt lat="46.386489411816001" lon="8.318694569170475">
        <ele>3241.9299999999998</ele>
        <time>2023-06-25T08:34:20Z</time>
      </trkpt>
      <trkpt lat="46.386496787890792" lon="8.318682750687003">
        <ele>3242</ele>
        <time>2023-06-25T08:35:02Z</time>
      </trkpt>
      <trkpt lat="46.386497626081109" lon="8.31868358887732">
        <ele>3242.02</ele>
        <time>2023-06-25T08:35:34Z</time>
      </trkpt>
      <trkpt lat="46.386495782062411" lon="8.318679481744766">
        <ele>3241.5700000000002</ele>
        <time>2023-06-25T08:36:09Z</time>
      </trkpt>
      <trkpt lat="46.386486478149891" lon="8.31868065521121">
        <ele>3241.77</ele>
        <time>2023-06-25T08:36:32Z</time>
      </trkpt>
      <trkpt lat="46.386486226692796" lon="8.318746704608202">
        <ele>3239.7800000000002</ele>
        <time>2023-06-25T08:36:45Z</time>
      </trkpt>
      <trkpt lat="46.386481029912829" lon="8.31878568045795">
        <ele>3238.8299999999999</ele>
        <time>2023-06-25T08:36:57Z</time>
      </trkpt>
      <trkpt lat="46.38647859916091" lon="8.31878668628633">
        <ele>3239.1399999999999</ele>
        <time>2023-06-25T08:37:20Z</time>
      </trkpt>
      <trkpt lat="46.38647424057126" lon="8.318846700713038">
        <ele>3238.9099999999999</ele>
        <time>2023-06-25T08:37:43Z</time>
      </trkpt>
      <trkpt lat="46.38647667132318" lon="8.318905960768461">
        <ele>3237.5999999999999</ele>
        <time>2023-06-25T08:37:58Z</time>
      </trkpt>
      <trkpt lat="46.386486981064081" lon="8.318948959931731">
        <ele>3237.2199999999998</ele>
        <time>2023-06-25T08:38:17Z</time>
      </trkpt>
      <trkpt lat="46.38649720698595" lon="8.319039987400174">
        <ele>3236.0700000000002</ele>
        <time>2023-06-25T08:38:32Z</time>
      </trkpt>
      <trkpt lat="46.386492094025016" lon="8.319072257727385">
        <ele>3234.5900000000001</ele>
        <time>2023-06-25T08:38:52Z</time>
      </trkpt>
      <trkpt lat="46.38647960498929" lon="8.319120369851589">
        <ele>3232.5700000000002</ele>
        <time>2023-06-25T08:39:05Z</time>
      </trkpt>
      <trkpt lat="46.38646787032485" lon="8.319163201376796">
        <ele>3230.5999999999999</ele>
        <time>2023-06-25T08:39:21Z</time>
      </trkpt>
      <trkpt lat="46.386459153145552" lon="8.31916144117713">
        <ele>3229.71</ele>
        <time>2023-06-25T08:39:45Z</time>
      </trkpt>
      <trkpt lat="46.386457979679108" lon="8.319187257438898">
        <ele>3228.1700000000001</ele>
        <time>2023-06-25T08:40:07Z</time>
      </trkpt>
      <trkpt lat="46.386461751535535" lon="8.319210642948747">
        <ele>3227.1799999999998</ele>
        <time>2023-06-25T08:40:21Z</time>
      </trkpt>
      <trkpt lat="46.386463176459074" lon="8.319229083135724">
        <ele>3225.5900000000001</ele>
        <time>2023-06-25T08:40:37Z</time>
      </trkpt>
      <trkpt lat="46.386468540877104" lon="8.319266634061933">
        <ele>3224.27</ele>
        <time>2023-06-25T08:40:52Z</time>
      </trkpt>
      <trkpt lat="46.386464349925518" lon="8.319289684295654">
        <ele>3224.29</ele>
        <time>2023-06-25T08:41:03Z</time>
      </trkpt>
      <trkpt lat="46.386468792334199" lon="8.31934324465692">
        <ele>3224.1100000000001</ele>
        <time>2023-06-25T08:41:15Z</time>
      </trkpt>
      <trkpt lat="46.386469295248389" lon="8.319445420056582">
        <ele>3220.5500000000002</ele>
        <time>2023-06-25T08:41:30Z</time>
      </trkpt>
      <trkpt lat="46.386463930830359" lon="8.319533430039883">
        <ele>3216.9899999999998</ele>
        <time>2023-06-25T08:41:46Z</time>
      </trkpt>
      <trkpt lat="46.386461835354567" lon="8.319592354819179">
        <ele>3214.8000000000002</ele>
        <time>2023-06-25T08:42:02Z</time>
      </trkpt>
      <trkpt lat="46.386459907516837" lon="8.319687740877271">
        <ele>3212.1799999999998</ele>
        <time>2023-06-25T08:42:18Z</time>
      </trkpt>
      <trkpt lat="46.386454710736871" lon="8.319788407534361">
        <ele>3208.73</ele>
        <time>2023-06-25T08:42:34Z</time>
      </trkpt>
      <trkpt lat="46.386466445401311" lon="8.319883709773421">
        <ele>3205.9499999999998</ele>
        <time>2023-06-25T08:42:51Z</time>
      </trkpt>
      <trkpt lat="46.386464098468423" lon="8.319933163002133">
        <ele>3205.0700000000002</ele>
        <time>2023-06-25T08:43:04Z</time>
      </trkpt>
      <trkpt lat="46.386467618867755" lon="8.319925619289279">
        <ele>3204.5300000000002</ele>
        <time>2023-06-25T08:43:25Z</time>
      </trkpt>
      <trkpt lat="46.38647030107677" lon="8.320010863244534">
        <ele>3202.6199999999999</ele>
        <time>2023-06-25T08:43:52Z</time>
      </trkpt>
      <trkpt lat="46.386486059054732" lon="8.320087222382426">
        <ele>3199.6999999999998</ele>
        <time>2023-06-25T08:44:07Z</time>
      </trkpt>
      <trkpt lat="46.386511456221342" lon="8.320142962038517">
        <ele>3197.1700000000001</ele>
        <time>2023-06-25T08:44:23Z</time>
      </trkpt>
      <trkpt lat="46.386518999934196" lon="8.320150841027498">
        <ele>3196.98</ele>
        <time>2023-06-25T08:44:50Z</time>
      </trkpt>
      <trkpt lat="46.386521514505148" lon="8.320149499922991">
        <ele>3196.6599999999999</ele>
        <time>2023-06-25T08:45:23Z</time>
      </trkpt>
      <trkpt lat="46.386527549475431" lon="8.320130556821823">
        <ele>3194.46</ele>
        <time>2023-06-25T08:45:55Z</time>
      </trkpt>
      <trkpt lat="46.386523861438036" lon="8.320134244859219">
        <ele>3192.3299999999999</ele>
        <time>2023-06-25T08:46:36Z</time>
      </trkpt>
      <trkpt lat="46.386524783447385" lon="8.32012846134603">
        <ele>3191.8499999999999</ele>
        <time>2023-06-25T08:47:08Z</time>
      </trkpt>
      <trkpt lat="46.386529561132193" lon="8.320158133283258">
        <ele>3191.5700000000002</ele>
        <time>2023-06-25T08:47:42Z</time>
      </trkpt>
      <trkpt lat="46.386546576395631" lon="8.320203814655542">
        <ele>3189.25</ele>
        <time>2023-06-25T08:47:56Z</time>
      </trkpt>
      <trkpt lat="46.386551521718502" lon="8.320223679766059">
        <ele>3187.8499999999999</ele>
        <time>2023-06-25T08:48:14Z</time>
      </trkpt>
      <trkpt lat="46.386549929156899" lon="8.320219237357378">
        <ele>3187.3600000000001</ele>
        <time>2023-06-25T08:48:53Z</time>
      </trkpt>
      <trkpt lat="46.3865533657372" lon="8.320218818262219">
        <ele>3187.54</ele>
        <time>2023-06-25T08:49:31Z</time>
      </trkpt>
      <trkpt lat="46.386559316888452" lon="8.320240108296275">
        <ele>3187.2600000000002</ele>
        <time>2023-06-25T08:49:52Z</time>
      </trkpt>
      <trkpt lat="46.386562418192625" lon="8.320237174630165">
        <ele>3186</ele>
        <time>2023-06-25T08:50:19Z</time>
      </trkpt>
      <trkpt lat="46.386556634679437" lon="8.320235749706626">
        <ele>3185.8600000000001</ele>
        <time>2023-06-25T08:50:38Z</time>
      </trkpt>
      <trkpt lat="46.386585552245378" lon="8.320309426635504">
        <ele>3182.4299999999998</ele>
        <time>2023-06-25T08:50:54Z</time>
      </trkpt>
      <trkpt lat="46.38659100048244" lon="8.320313030853868">
        <ele>3180.98</ele>
        <time>2023-06-25T08:51:18Z</time>
      </trkpt>
      <trkpt lat="46.386605333536863" lon="8.320334069430828">
        <ele>3179.2399999999998</ele>
        <time>2023-06-25T08:51:59Z</time>
      </trkpt>
      <trkpt lat="46.386644896119833" lon="8.320401627570391">
        <ele>3174.73</ele>
        <time>2023-06-25T08:52:12Z</time>
      </trkpt>
      <trkpt lat="46.386653194203973" lon="8.320425264537334">
        <ele>3173.6500000000001</ele>
        <time>2023-06-25T08:52:27Z</time>
      </trkpt>
      <trkpt lat="46.386652356013656" lon="8.320432472974062">
        <ele>3174</ele>
        <time>2023-06-25T08:52:48Z</time>
      </trkpt>
      <trkpt lat="46.386663420125842" lon="8.32046415656805">
        <ele>3173.3699999999999</ele>
        <time>2023-06-25T08:53:06Z</time>
      </trkpt>
      <trkpt lat="46.386681776493788" lon="8.320532888174057">
        <ele>3170.6799999999998</ele>
        <time>2023-06-25T08:53:21Z</time>
      </trkpt>
      <trkpt lat="46.386687560006976" lon="8.320540264248848">
        <ele>3169.8200000000002</ele>
        <time>2023-06-25T08:53:51Z</time>
      </trkpt>
      <trkpt lat="46.386700887233019" lon="8.320595165714622">
        <ele>3168.2199999999998</ele>
        <time>2023-06-25T08:54:04Z</time>
      </trkpt>
      <trkpt lat="46.386703820899129" lon="8.320604218170047">
        <ele>3167.8699999999999</ele>
        <time>2023-06-25T08:54:06Z</time>
      </trkpt>
      <trkpt lat="46.386733828112483" lon="8.320655766874552">
        <ele>3166.5</ele>
        <time>2023-06-25T08:54:09Z</time>
      </trkpt>
      <trkpt lat="46.386750172823668" lon="8.320692144334316">
        <ele>3165.4299999999998</ele>
        <time>2023-06-25T08:54:10Z</time>
      </trkpt>
      <trkpt lat="46.386767858639359" lon="8.320726677775383">
        <ele>3164.6500000000001</ele>
        <time>2023-06-25T08:54:11Z</time>
      </trkpt>
      <trkpt lat="46.386782107874751" lon="8.320735897868872">
        <ele>3160.1999999999998</ele>
        <time>2023-06-25T08:54:20Z</time>
      </trkpt>
      <trkpt lat="46.38678252696991" lon="8.320756433531642">
        <ele>3159.8600000000001</ele>
        <time>2023-06-25T08:54:35Z</time>
      </trkpt>
      <trkpt lat="46.386765344068408" lon="8.320757104083896">
        <ele>3159.3699999999999</ele>
        <time>2023-06-25T08:54:54Z</time>
      </trkpt>
      <trkpt lat="46.38676836155355" lon="8.320748889818788">
        <ele>3159.23</ele>
        <time>2023-06-25T08:55:17Z</time>
      </trkpt>
      <trkpt lat="46.386757381260395" lon="8.320739585906267">
        <ele>3158.79</ele>
        <time>2023-06-25T08:55:36Z</time>
      </trkpt>
      <trkpt lat="46.386762242764235" lon="8.320746878162026">
        <ele>3159.3099999999999</ele>
        <time>2023-06-25T08:56:00Z</time>
      </trkpt>
      <trkpt lat="46.386759225279093" lon="8.320740591734648">
        <ele>3159.4699999999998</ele>
        <time>2023-06-25T08:56:37Z</time>
      </trkpt>
      <trkpt lat="46.386766517534852" lon="8.320746207609773">
        <ele>3158.9299999999998</ele>
        <time>2023-06-25T08:56:57Z</time>
      </trkpt>
      <trkpt lat="46.38677230104804" lon="8.320739921182394">
        <ele>3158.1500000000001</ele>
        <time>2023-06-25T08:57:15Z</time>
      </trkpt>
      <trkpt lat="46.386784873902798" lon="8.320711506530643">
        <ele>3157.1500000000001</ele>
        <time>2023-06-25T08:57:36Z</time>
      </trkpt>
      <trkpt lat="46.386818904429674" lon="8.320706896483898">
        <ele>3155.5799999999999</ele>
        <time>2023-06-25T08:57:53Z</time>
      </trkpt>
      <trkpt lat="46.386864669620991" lon="8.320724414661527">
        <ele>3154.5799999999999</ele>
        <time>2023-06-25T08:58:08Z</time>
      </trkpt>
      <trkpt lat="46.38691202737391" lon="8.320720978081226">
        <ele>3153.27</ele>
        <time>2023-06-25T08:58:22Z</time>
      </trkpt>
      <trkpt lat="46.386929042637348" lon="8.320722319185734">
        <ele>3152.7199999999998</ele>
        <time>2023-06-25T08:58:40Z</time>
      </trkpt>
      <trkpt lat="46.38697749003768" lon="8.320740424096584">
        <ele>3151.4699999999998</ele>
        <time>2023-06-25T08:59:06Z</time>
      </trkpt>
      <trkpt lat="46.386975729838014" lon="8.320737574249506">
        <ele>3150.0500000000002</ele>
        <time>2023-06-25T08:59:34Z</time>
      </trkpt>
      <trkpt lat="46.386975478380919" lon="8.320735478773713">
        <ele>3149.6799999999998</ele>
        <time>2023-06-25T08:59:53Z</time>
      </trkpt>
      <trkpt lat="46.387007497251034" lon="8.320751907303929">
        <ele>3147.5799999999999</ele>
        <time>2023-06-25T09:00:17Z</time>
      </trkpt>
      <trkpt lat="46.387005988508463" lon="8.320750063285232">
        <ele>3146.4000000000001</ele>
        <time>2023-06-25T09:00:41Z</time>
      </trkpt>
      <trkpt lat="46.386995175853372" lon="8.320742687210441">
        <ele>3145.8200000000002</ele>
        <time>2023-06-25T09:01:07Z</time>
      </trkpt>
      <trkpt lat="46.386988218873739" lon="8.32072458229959">
        <ele>3144.9200000000001</ele>
        <time>2023-06-25T09:01:40Z</time>
      </trkpt>
      <trkpt lat="46.386996768414974" lon="8.320725504308939">
        <ele>3145.0300000000002</ele>
        <time>2023-06-25T09:02:07Z</time>
      </trkpt>
      <trkpt lat="46.387042617425323" lon="8.32072994671762">
        <ele>3144.96</ele>
        <time>2023-06-25T09:02:22Z</time>
      </trkpt>
      <trkpt lat="46.387077234685421" lon="8.320783339440823">
        <ele>3144.73</ele>
        <time>2023-06-25T09:02:37Z</time>
      </trkpt>
      <trkpt lat="46.387109085917473" lon="8.32080814987421">
        <ele>3143.2399999999998</ele>
        <time>2023-06-25T09:02:51Z</time>
      </trkpt>
      <trkpt lat="46.387111097574234" lon="8.320809071883559">
        <ele>3142.21</ele>
        <time>2023-06-25T09:03:14Z</time>
      </trkpt>
      <trkpt lat="46.38712065294385" lon="8.32083304412663">
        <ele>3141.6199999999999</ele>
        <time>2023-06-25T09:03:35Z</time>
      </trkpt>
      <trkpt lat="46.387131549417973" lon="8.320875708013773">
        <ele>3139.9299999999998</ele>
        <time>2023-06-25T09:03:58Z</time>
      </trkpt>
      <trkpt lat="46.387136075645685" lon="8.32089121453464">
        <ele>3138.7199999999998</ele>
        <time>2023-06-25T09:04:09Z</time>
      </trkpt>
      <trkpt lat="46.387137919664383" lon="8.320894818753004">
        <ele>3139.0799999999999</ele>
        <time>2023-06-25T09:04:34Z</time>
      </trkpt>
      <trkpt lat="46.387141272425652" lon="8.320890376344323">
        <ele>3139.23</ele>
        <time>2023-06-25T09:05:12Z</time>
      </trkpt>
      <trkpt lat="46.387154432013631" lon="8.320913929492235">
        <ele>3137.6999999999998</ele>
        <time>2023-06-25T09:05:37Z</time>
      </trkpt>
      <trkpt lat="46.387160299345851" lon="8.320938991382718">
        <ele>3136.52</ele>
        <time>2023-06-25T09:05:50Z</time>
      </trkpt>
      <trkpt lat="46.387165328487754" lon="8.320948798209429">
        <ele>3136.4899999999998</ele>
        <time>2023-06-25T09:06:04Z</time>
      </trkpt>
      <trkpt lat="46.387166250497103" lon="8.320951648056507">
        <ele>3136.3899999999999</ele>
        <time>2023-06-25T09:06:24Z</time>
      </trkpt>
      <trkpt lat="46.387166669592261" lon="8.320956593379378">
        <ele>3136.3800000000001</ele>
        <time>2023-06-25T09:06:43Z</time>
      </trkpt>
      <trkpt lat="46.387171447277069" lon="8.320983499288559">
        <ele>3134.8699999999999</ele>
        <time>2023-06-25T09:07:00Z</time>
      </trkpt>
      <trkpt lat="46.38718225993216" lon="8.321007639169693">
        <ele>3132.6399999999999</ele>
        <time>2023-06-25T09:07:14Z</time>
      </trkpt>
      <trkpt lat="46.387179745361209" lon="8.321007136255503">
        <ele>3132.5599999999999</ele>
        <time>2023-06-25T09:07:37Z</time>
      </trkpt>
      <trkpt lat="46.387180415913463" lon="8.321030521765351">
        <ele>3131.8200000000002</ele>
        <time>2023-06-25T09:08:11Z</time>
      </trkpt>
      <trkpt lat="46.387194748967886" lon="8.321061702445149">
        <ele>3130.6300000000001</ele>
        <time>2023-06-25T09:08:27Z</time>
      </trkpt>
      <trkpt lat="46.387195503339171" lon="8.321076119318605">
        <ele>3130.1100000000001</ele>
        <time>2023-06-25T09:08:45Z</time>
      </trkpt>
      <trkpt lat="46.387210339307785" lon="8.321105036884546">
        <ele>3128.8600000000001</ele>
        <time>2023-06-25T09:08:58Z</time>
      </trkpt>
      <trkpt lat="46.387220481410623" lon="8.321132361888886">
        <ele>3127.0999999999999</ele>
        <time>2023-06-25T09:09:11Z</time>
      </trkpt>
      <trkpt lat="46.387230204418302" lon="8.321157759055495">
        <ele>3125.5</ele>
        <time>2023-06-25T09:09:25Z</time>
      </trkpt>
      <trkpt lat="46.387231796979904" lon="8.321161614730954">
        <ele>3125.0500000000002</ele>
        <time>2023-06-25T09:09:43Z</time>
      </trkpt>
      <trkpt lat="46.387239592149854" lon="8.321179887279868">
        <ele>3124.1999999999998</ele>
        <time>2023-06-25T09:09:57Z</time>
      </trkpt>
      <trkpt lat="46.38725308701396" lon="8.321217438206077">
        <ele>3122.7199999999998</ele>
        <time>2023-06-25T09:10:12Z</time>
      </trkpt>
      <trkpt lat="46.387254847213626" lon="8.321224059909582">
        <ele>3122.1500000000001</ele>
        <time>2023-06-25T09:10:30Z</time>
      </trkpt>
      <trkpt lat="46.387262977659702" lon="8.321253899484873">
        <ele>3120.8600000000001</ele>
        <time>2023-06-25T09:10:53Z</time>
      </trkpt>
      <trkpt lat="46.387262642383575" lon="8.321271752938628">
        <ele>3119.9699999999998</ele>
        <time>2023-06-25T09:11:07Z</time>
      </trkpt>
      <trkpt lat="46.387268677353859" lon="8.32129136659205">
        <ele>3119.27</ele>
        <time>2023-06-25T09:11:21Z</time>
      </trkpt>
      <trkpt lat="46.387267168611288" lon="8.321319697424769">
        <ele>3118.46</ele>
        <time>2023-06-25T09:11:37Z</time>
      </trkpt>
      <trkpt lat="46.38727555051446" lon="8.321341322734952">
        <ele>3116.5300000000002</ele>
        <time>2023-06-25T09:11:50Z</time>
      </trkpt>
      <trkpt lat="46.387284435331821" lon="8.321366049349308">
        <ele>3114.9899999999998</ele>
        <time>2023-06-25T09:12:01Z</time>
      </trkpt>
      <trkpt lat="46.387302624061704" lon="8.321410892531276">
        <ele>3114.1500000000001</ele>
        <time>2023-06-25T09:12:17Z</time>
      </trkpt>
      <trkpt lat="46.387312514707446" lon="8.321456825360656">
        <ele>3112.6100000000001</ele>
        <time>2023-06-25T09:12:32Z</time>
      </trkpt>
      <trkpt lat="46.387326512485743" lon="8.321497477591038">
        <ele>3110.8000000000002</ele>
        <time>2023-06-25T09:12:48Z</time>
      </trkpt>
      <trkpt lat="46.387337241321802" lon="8.321545757353306">
        <ele>3108.77</ele>
        <time>2023-06-25T09:13:04Z</time>
      </trkpt>
      <trkpt lat="46.387354005128145" lon="8.321619685739279">
        <ele>3104.3600000000001</ele>
        <time>2023-06-25T09:13:20Z</time>
      </trkpt>
      <trkpt lat="46.387391639873385" lon="8.321754215285182">
        <ele>3098.8899999999999</ele>
        <time>2023-06-25T09:13:36Z</time>
      </trkpt>
      <trkpt lat="46.387409577146173" lon="8.321864940226078">
        <ele>3094.5599999999999</ele>
        <time>2023-06-25T09:13:52Z</time>
      </trkpt>
      <trkpt lat="46.387428687885404" lon="8.321973402053118">
        <ele>3090.6700000000001</ele>
        <time>2023-06-25T09:14:09Z</time>
      </trkpt>
      <trkpt lat="46.387440171092749" lon="8.322016149759293">
        <ele>3089.3499999999999</ele>
        <time>2023-06-25T09:14:23Z</time>
      </trkpt>
      <trkpt lat="46.387459617108107" lon="8.322073901072145">
        <ele>3085.4200000000001</ele>
        <time>2023-06-25T09:14:35Z</time>
      </trkpt>
      <trkpt lat="46.387482583522797" lon="8.322132071480155">
        <ele>3084.7600000000002</ele>
        <time>2023-06-25T09:14:53Z</time>
      </trkpt>
      <trkpt lat="46.387490211054683" lon="8.322173645719886">
        <ele>3082.5100000000002</ele>
        <time>2023-06-25T09:15:06Z</time>
      </trkpt>
      <trkpt lat="46.387523487210274" lon="8.322233408689499">
        <ele>3081.1999999999998</ele>
        <time>2023-06-25T09:15:19Z</time>
      </trkpt>
      <trkpt lat="46.387548632919788" lon="8.322310019284487">
        <ele>3079.21</ele>
        <time>2023-06-25T09:15:36Z</time>
      </trkpt>
      <trkpt lat="46.387575706467032" lon="8.322363244369626">
        <ele>3076.8099999999999</ele>
        <time>2023-06-25T09:15:48Z</time>
      </trkpt>
      <trkpt lat="46.387592554092407" lon="8.322429461404681">
        <ele>3074.04</ele>
        <time>2023-06-25T09:16:04Z</time>
      </trkpt>
      <trkpt lat="46.387601271271706" lon="8.322460390627384">
        <ele>3071.5700000000002</ele>
        <time>2023-06-25T09:16:20Z</time>
      </trkpt>
      <trkpt lat="46.387619460001588" lon="8.322512023150921">
        <ele>3067.5100000000002</ele>
        <time>2023-06-25T09:16:36Z</time>
      </trkpt>
      <trkpt lat="46.387630943208933" lon="8.322525601834059">
        <ele>3063.6500000000001</ele>
        <time>2023-06-25T09:16:51Z</time>
      </trkpt>
      <trkpt lat="46.387646701186895" lon="8.322536079213023">
        <ele>3061.52</ele>
        <time>2023-06-25T09:17:12Z</time>
      </trkpt>
      <trkpt lat="46.387688275426626" lon="8.322621574625373">
        <ele>3057.4000000000001</ele>
        <time>2023-06-25T09:17:29Z</time>
      </trkpt>
      <trkpt lat="46.387718366459012" lon="8.322683349251747">
        <ele>3053.8099999999999</ele>
        <time>2023-06-25T09:17:41Z</time>
      </trkpt>
      <trkpt lat="46.387748122215271" lon="8.322762055322528">
        <ele>3047.29</ele>
        <time>2023-06-25T09:17:57Z</time>
      </trkpt>
      <trkpt lat="46.387789193540812" lon="8.322795331478119">
        <ele>3044.1700000000001</ele>
        <time>2023-06-25T09:18:09Z</time>
      </trkpt>
      <trkpt lat="46.387838646769524" lon="8.322859201580286">
        <ele>3037.3099999999999</ele>
        <time>2023-06-25T09:18:24Z</time>
      </trkpt>
      <trkpt lat="46.387895224615932" lon="8.322924077510834">
        <ele>3030.8499999999999</ele>
        <time>2023-06-25T09:18:41Z</time>
      </trkpt>
      <trkpt lat="46.387897906824946" lon="8.322911839932203">
        <ele>3029</ele>
        <time>2023-06-25T09:19:03Z</time>
      </trkpt>
      <trkpt lat="46.387937301769853" lon="8.322982247918844">
        <ele>3026.3600000000001</ele>
        <time>2023-06-25T09:19:19Z</time>
      </trkpt>
      <trkpt lat="46.387975187972188" lon="8.323070090264082">
        <ele>3021.8499999999999</ele>
        <time>2023-06-25T09:19:35Z</time>
      </trkpt>
      <trkpt lat="46.388015504926443" lon="8.323158603161573">
        <ele>3017.25</ele>
        <time>2023-06-25T09:19:50Z</time>
      </trkpt>
      <trkpt lat="46.388037633150816" lon="8.323180144652724">
        <ele>3014.2399999999998</ele>
        <time>2023-06-25T09:20:08Z</time>
      </trkpt>
      <trkpt lat="46.388033861294389" lon="8.323221551254392">
        <ele>3012.0900000000001</ele>
        <time>2023-06-25T09:20:24Z</time>
      </trkpt>
      <trkpt lat="46.388057079166174" lon="8.323311405256391">
        <ele>3007.2800000000002</ele>
        <time>2023-06-25T09:20:40Z</time>
      </trkpt>
      <trkpt lat="46.388061353936791" lon="8.323339149355888">
        <ele>3004.7399999999998</ele>
        <time>2023-06-25T09:20:57Z</time>
      </trkpt>
      <trkpt lat="46.388054732233286" lon="8.32333973608911">
        <ele>3004.0300000000002</ele>
        <time>2023-06-25T09:21:17Z</time>
      </trkpt>
      <trkpt lat="46.388055570423603" lon="8.323326157405973">
        <ele>3003.0500000000002</ele>
        <time>2023-06-25T09:21:48Z</time>
      </trkpt>
      <trkpt lat="46.388057665899396" lon="8.323342837393284">
        <ele>3002.3899999999999</ele>
        <time>2023-06-25T09:22:23Z</time>
      </trkpt>
      <trkpt lat="46.388068394735456" lon="8.323326073586941">
        <ele>3002.3899999999999</ele>
        <time>2023-06-25T09:22:51Z</time>
      </trkpt>
      <trkpt lat="46.388073172420263" lon="8.323327833786607">
        <ele>3001.8000000000002</ele>
        <time>2023-06-25T09:23:15Z</time>
      </trkpt>
      <trkpt lat="46.388078201562166" lon="8.323332527652383">
        <ele>3001.2800000000002</ele>
        <time>2023-06-25T09:23:43Z</time>
      </trkpt>
      <trkpt lat="46.388073759153485" lon="8.323324648663402">
        <ele>2999.5500000000002</ele>
        <time>2023-06-25T09:24:10Z</time>
      </trkpt>
      <trkpt lat="46.388109466060996" lon="8.323392877355218">
        <ele>2996.52</ele>
        <time>2023-06-25T09:24:36Z</time>
      </trkpt>
      <trkpt lat="46.38815020211041" lon="8.323505027219653">
        <ele>2991.1599999999999</ele>
        <time>2023-06-25T09:24:53Z</time>
      </trkpt>
      <trkpt lat="46.388177024200559" lon="8.323590187355876">
        <ele>2986.3200000000002</ele>
        <time>2023-06-25T09:25:08Z</time>
      </trkpt>
      <trkpt lat="46.388206528499722" lon="8.323673252016306">
        <ele>2982.54</ele>
        <time>2023-06-25T09:25:21Z</time>
      </trkpt>
      <trkpt lat="46.388257155194879" lon="8.323735194280744">
        <ele>2980.1599999999999</ele>
        <time>2023-06-25T09:25:34Z</time>
      </trkpt>
      <trkpt lat="46.388296131044626" lon="8.323887325823307">
        <ele>2972.8899999999999</ele>
        <time>2023-06-25T09:25:54Z</time>
      </trkpt>
      <trkpt lat="46.388336112722754" lon="8.324042810127139">
        <ele>2965.3400000000001</ele>
        <time>2023-06-25T09:26:13Z</time>
      </trkpt>
      <trkpt lat="46.388364862650633" lon="8.324195528402925">
        <ele>2958.9699999999998</ele>
        <time>2023-06-25T09:26:28Z</time>
      </trkpt>
      <trkpt lat="46.3883803691715" lon="8.324396945536137">
        <ele>2950.21</ele>
        <time>2023-06-25T09:26:45Z</time>
      </trkpt>
      <trkpt lat="46.388386320322752" lon="8.324465258046985">
        <ele>2947.1599999999999</ele>
        <time>2023-06-25T09:26:51Z</time>
      </trkpt>
      <trkpt lat="46.388391349464655" lon="8.324644882231951">
        <ele>2943.1900000000001</ele>
        <time>2023-06-25T09:27:08Z</time>
      </trkpt>
      <trkpt lat="46.388386823236942" lon="8.324817633256316">
        <ele>2937.5900000000001</ele>
        <time>2023-06-25T09:27:25Z</time>
      </trkpt>
      <trkpt lat="46.388393444940448" lon="8.324977224692702">
        <ele>2933.6500000000001</ele>
        <time>2023-06-25T09:27:41Z</time>
      </trkpt>
      <trkpt lat="46.388385146856308" lon="8.325060205534101">
        <ele>2930.6399999999999</ele>
        <time>2023-06-25T09:27:58Z</time>
      </trkpt>
      <trkpt lat="46.388368885964155" lon="8.325063893571496">
        <ele>2930.6100000000001</ele>
        <time>2023-06-25T09:28:23Z</time>
      </trkpt>
      <trkpt lat="46.388368299230933" lon="8.325054170563817">
        <ele>2929.8000000000002</ele>
        <time>2023-06-25T09:28:41Z</time>
      </trkpt>
      <trkpt lat="46.388378525152802" lon="8.32508216612041">
        <ele>2930.21</ele>
        <time>2023-06-25T09:29:02Z</time>
      </trkpt>
      <trkpt lat="46.388382883742452" lon="8.325077975168824">
        <ele>2929.6100000000001</ele>
        <time>2023-06-25T09:29:34Z</time>
      </trkpt>
      <trkpt lat="46.388380033895373" lon="8.325077639892697">
        <ele>2930.3000000000002</ele>
        <time>2023-06-25T09:30:03Z</time>
      </trkpt>
      <trkpt lat="46.38837399892509" lon="8.325074538588524">
        <ele>2931.5100000000002</ele>
        <time>2023-06-25T09:30:31Z</time>
      </trkpt>
      <trkpt lat="46.388365449383855" lon="8.325066575780511">
        <ele>2930.6599999999999</ele>
        <time>2023-06-25T09:31:01Z</time>
      </trkpt>
      <trkpt lat="46.388368383049965" lon="8.325063139200211">
        <ele>2931.1700000000001</ele>
        <time>2023-06-25T09:31:29Z</time>
      </trkpt>
      <trkpt lat="46.388362180441618" lon="8.325047297403216">
        <ele>2930.3000000000002</ele>
        <time>2023-06-25T09:31:56Z</time>
      </trkpt>
      <trkpt lat="46.388368969783187" lon="8.325067330151796">
        <ele>2928.9400000000001</ele>
        <time>2023-06-25T09:32:26Z</time>
      </trkpt>
      <trkpt lat="46.388385314494371" lon="8.325057104229927">
        <ele>2926.04</ele>
        <time>2023-06-25T09:33:04Z</time>
      </trkpt>
      <trkpt lat="46.388371400535107" lon="8.325048889964819">
        <ele>2925.7399999999998</ele>
        <time>2023-06-25T09:33:37Z</time>
      </trkpt>
      <trkpt lat="46.388368885964155" lon="8.325057355687022">
        <ele>2925.4099999999999</ele>
        <time>2023-06-25T09:34:04Z</time>
      </trkpt>
      <trkpt lat="46.388362934812903" lon="8.325063809752464">
        <ele>2926.25</ele>
        <time>2023-06-25T09:34:32Z</time>
      </trkpt>
      <trkpt lat="46.388361761346459" lon="8.325063055381179">
        <ele>2925.6500000000001</ele>
        <time>2023-06-25T09:34:53Z</time>
      </trkpt>
      <trkpt lat="46.388414232060313" lon="8.325189622119069">
        <ele>2922.1399999999999</ele>
        <time>2023-06-25T09:35:17Z</time>
      </trkpt>
      <trkpt lat="46.388436695560813" lon="8.325274866074324">
        <ele>2920.2600000000002</ele>
        <time>2023-06-25T09:35:30Z</time>
      </trkpt>
      <trkpt lat="46.388452537357807" lon="8.325358601287007">
        <ele>2920.02</ele>
        <time>2023-06-25T09:35:47Z</time>
      </trkpt>
      <trkpt lat="46.388463685289025" lon="8.325438061729074">
        <ele>2918.5900000000001</ele>
        <time>2023-06-25T09:36:02Z</time>
      </trkpt>
      <trkpt lat="46.388459410518408" lon="8.325434373691678">
        <ele>2918.23</ele>
        <time>2023-06-25T09:36:22Z</time>
      </trkpt>
      <trkpt lat="46.388464858755469" lon="8.325462620705366">
        <ele>2918.2800000000002</ele>
        <time>2023-06-25T09:36:37Z</time>
      </trkpt>
      <trkpt lat="46.388479694724083" lon="8.325592624023557">
        <ele>2914.6399999999999</ele>
        <time>2023-06-25T09:36:48Z</time>
      </trkpt>
      <trkpt lat="46.388512970879674" lon="8.325774762779474">
        <ele>2909.3400000000001</ele>
        <time>2023-06-25T09:37:06Z</time>
      </trkpt>
      <trkpt lat="46.388541553169489" lon="8.325899736955762">
        <ele>2906.9299999999998</ele>
        <time>2023-06-25T09:37:22Z</time>
      </trkpt>
      <trkpt lat="46.388551192358136" lon="8.325917171314359">
        <ele>2906.29</ele>
        <time>2023-06-25T09:37:39Z</time>
      </trkpt>
      <trkpt lat="46.388599639758468" lon="8.326041558757424">
        <ele>2903.8499999999999</ele>
        <time>2023-06-25T09:38:02Z</time>
      </trkpt>
      <trkpt lat="46.388624031096697" lon="8.326172986999154">
        <ele>2901.0700000000002</ele>
        <time>2023-06-25T09:38:19Z</time>
      </trkpt>
      <trkpt lat="46.388638699427247" lon="8.326274994760752">
        <ele>2900.8400000000001</ele>
        <time>2023-06-25T09:38:34Z</time>
      </trkpt>
      <trkpt lat="46.388653870671988" lon="8.326387060806155">
        <ele>2898.9400000000001</ele>
        <time>2023-06-25T09:38:47Z</time>
      </trkpt>
      <trkpt lat="46.388682704418898" lon="8.326550340279937">
        <ele>2894.8099999999999</ele>
        <time>2023-06-25T09:39:04Z</time>
      </trkpt>
      <trkpt lat="46.388742299750447" lon="8.326751841232181">
        <ele>2890.8800000000001</ele>
        <time>2023-06-25T09:39:23Z</time>
      </trkpt>
      <trkpt lat="46.388768451288342" lon="8.326911265030503">
        <ele>2888.48</ele>
        <time>2023-06-25T09:39:38Z</time>
      </trkpt>
      <trkpt lat="46.388802649453282" lon="8.327096588909626">
        <ele>2885.1100000000001</ele>
        <time>2023-06-25T09:39:56Z</time>
      </trkpt>
      <trkpt lat="46.388826705515385" lon="8.327308902516961">
        <ele>2880.9699999999998</ele>
        <time>2023-06-25T09:40:15Z</time>
      </trkpt>
      <trkpt lat="46.388838523998857" lon="8.327447958290577">
        <ele>2879.4299999999998</ele>
        <time>2023-06-25T09:40:28Z</time>
      </trkpt>
      <trkpt lat="46.388847073540092" lon="8.327470002695918">
        <ele>2878.6999999999998</ele>
        <time>2023-06-25T09:40:43Z</time>
      </trkpt>
      <trkpt lat="46.388853695243597" lon="8.327531861141324">
        <ele>2876.98</ele>
        <time>2023-06-25T09:41:07Z</time>
      </trkpt>
      <trkpt lat="46.388876577839255" lon="8.327701259404421">
        <ele>2873.5900000000001</ele>
        <time>2023-06-25T09:41:22Z</time>
      </trkpt>
      <trkpt lat="46.388919241726398" lon="8.327920027077198">
        <ele>2869.1999999999998</ele>
        <time>2023-06-25T09:41:42Z</time>
      </trkpt>
      <trkpt lat="46.388955535367131" lon="8.328097723424435">
        <ele>2864.9200000000001</ele>
        <time>2023-06-25T09:42:00Z</time>
      </trkpt>
      <trkpt lat="46.389001971110702" lon="8.32827097736299">
        <ele>2860.8699999999999</ele>
        <time>2023-06-25T09:42:17Z</time>
      </trkpt>
      <trkpt lat="46.389052094891667" lon="8.328458564355969">
        <ele>2857.77</ele>
        <time>2023-06-25T09:42:35Z</time>
      </trkpt>
      <trkpt lat="46.389117892831564" lon="8.32862519659102">
        <ele>2853.9899999999998</ele>
        <time>2023-06-25T09:42:53Z</time>
      </trkpt>
      <trkpt lat="46.389160137623549" lon="8.328770287334919">
        <ele>2851.1900000000001</ele>
        <time>2023-06-25T09:43:08Z</time>
      </trkpt>
      <trkpt lat="46.389232389628887" lon="8.328917808830738">
        <ele>2847.21</ele>
        <time>2023-06-25T09:43:25Z</time>
      </trkpt>
      <trkpt lat="46.389276394620538" lon="8.329072706401348">
        <ele>2844.4699999999998</ele>
        <time>2023-06-25T09:43:43Z</time>
      </trkpt>
      <trkpt lat="46.389345293864608" lon="8.329250989481807">
        <ele>2840.8299999999999</ele>
        <time>2023-06-25T09:44:00Z</time>
      </trkpt>
      <trkpt lat="46.389395669102669" lon="8.329425416886807">
        <ele>2837.1900000000001</ele>
        <time>2023-06-25T09:44:18Z</time>
      </trkpt>
      <trkpt lat="46.389429531991482" lon="8.329537147656083">
        <ele>2835.4000000000001</ele>
        <time>2023-06-25T09:44:32Z</time>
      </trkpt>
      <trkpt lat="46.389443278312683" lon="8.329584002494812">
        <ele>2834.8499999999999</ele>
        <time>2023-06-25T09:44:53Z</time>
      </trkpt>
      <trkpt lat="46.389495832845569" lon="8.329748539254069">
        <ele>2831.3699999999999</ele>
        <time>2023-06-25T09:45:10Z</time>
      </trkpt>
      <trkpt lat="46.389537407085299" lon="8.329870831221342">
        <ele>2828.3299999999999</ele>
        <time>2023-06-25T09:45:24Z</time>
      </trkpt>
      <trkpt lat="46.389573784545064" lon="8.329968396574259">
        <ele>2826.3400000000001</ele>
        <time>2023-06-25T09:45:37Z</time>
      </trkpt>
      <trkpt lat="46.389581495895982" lon="8.330000247806311">
        <ele>2825.8800000000001</ele>
        <time>2023-06-25T09:45:54Z</time>
      </trkpt>
      <trkpt lat="46.389582753181458" lon="8.329998655244708">
        <ele>2826.02</ele>
        <time>2023-06-25T09:46:18Z</time>
      </trkpt>
      <trkpt lat="46.389655256643891" lon="8.33012530580163">
        <ele>2822.75</ele>
        <time>2023-06-25T09:46:35Z</time>
      </trkpt>
      <trkpt lat="46.389699596911669" lon="8.330213651061058">
        <ele>2820.4200000000001</ele>
        <time>2023-06-25T09:46:50Z</time>
      </trkpt>
      <trkpt lat="46.389701189473271" lon="8.33021373488009">
        <ele>2820.23</ele>
        <time>2023-06-25T09:47:04Z</time>
      </trkpt>
      <trkpt lat="46.38975827023387" lon="8.330277185887098">
        <ele>2818.1999999999998</ele>
        <time>2023-06-25T09:47:19Z</time>
      </trkpt>
      <trkpt lat="46.389845944941044" lon="8.330346504226327">
        <ele>2814.1900000000001</ele>
        <time>2023-06-25T09:47:36Z</time>
      </trkpt>
      <trkpt lat="46.389933116734028" lon="8.330381456762552">
        <ele>2810.5799999999999</ele>
        <time>2023-06-25T09:47:51Z</time>
      </trkpt>
      <trkpt lat="46.390027329325676" lon="8.330386821180582">
        <ele>2807.2800000000002</ele>
        <time>2023-06-25T09:48:09Z</time>
      </trkpt>
      <trkpt lat="46.390024898573756" lon="8.330389000475407">
        <ele>2807.4299999999998</ele>
        <time>2023-06-25T09:48:30Z</time>
      </trkpt>
      <trkpt lat="46.390058929100633" lon="8.330370811745524">
        <ele>2806.3600000000001</ele>
        <time>2023-06-25T09:48:51Z</time>
      </trkpt>
      <trkpt lat="46.390157248824835" lon="8.330335021018982">
        <ele>2802.8000000000002</ele>
        <time>2023-06-25T09:49:07Z</time>
      </trkpt>
      <trkpt lat="46.390247102826834" lon="8.330276682972908">
        <ele>2800.0700000000002</ele>
        <time>2023-06-25T09:49:25Z</time>
      </trkpt>
      <trkpt lat="46.390319019556046" lon="8.330206442624331">
        <ele>2797.6900000000001</ele>
        <time>2023-06-25T09:49:40Z</time>
      </trkpt>
      <trkpt lat="46.390373166650534" lon="8.330157157033682">
        <ele>2795.6199999999999</ele>
        <time>2023-06-25T09:49:54Z</time>
      </trkpt>
      <trkpt lat="46.39048489741981" lon="8.330044420436025">
        <ele>2791.3400000000001</ele>
        <time>2023-06-25T09:50:14Z</time>
      </trkpt>
      <trkpt lat="46.390555305406451" lon="8.32998163998127">
        <ele>2788.9099999999999</ele>
        <time>2023-06-25T09:50:28Z</time>
      </trkpt>
      <trkpt lat="46.390635436400771" lon="8.329926319420338">
        <ele>2785.9699999999998</ele>
        <time>2023-06-25T09:50:43Z</time>
      </trkpt>
      <trkpt lat="46.390717998147011" lon="8.329934030771256">
        <ele>2782.5900000000001</ele>
        <time>2023-06-25T09:50:57Z</time>
      </trkpt>
      <trkpt lat="46.39080785214901" lon="8.329961774870753">
        <ele>2779.0300000000002</ele>
        <time>2023-06-25T09:51:12Z</time>
      </trkpt>
      <trkpt lat="46.390850516036153" lon="8.329962780699134">
        <ele>2777.25</ele>
        <time>2023-06-25T09:51:31Z</time>
      </trkpt>
      <trkpt lat="46.390880355611444" lon="8.329964876174927">
        <ele>2775.5</ele>
        <time>2023-06-25T09:51:54Z</time>
      </trkpt>
      <trkpt lat="46.390952188521624" lon="8.329998571425676">
        <ele>2773.0599999999999</ele>
        <time>2023-06-25T09:52:13Z</time>
      </trkpt>
      <trkpt lat="46.39102041721344" lon="8.33002706989646">
        <ele>2768.7600000000002</ele>
        <time>2023-06-25T09:52:25Z</time>
      </trkpt>
      <trkpt lat="46.39110348187387" lon="8.330063950270414">
        <ele>2765.5300000000002</ele>
        <time>2023-06-25T09:52:41Z</time>
      </trkpt>
      <trkpt lat="46.391153354197741" lon="8.330066967755556">
        <ele>2763.48</ele>
        <time>2023-06-25T09:52:54Z</time>
      </trkpt>
      <trkpt lat="46.391194676980376" lon="8.330067889764905">
        <ele>2761.3400000000001</ele>
        <time>2023-06-25T09:53:05Z</time>
      </trkpt>
      <trkpt lat="46.391232395544648" lon="8.330047857016325">
        <ele>2759.0300000000002</ele>
        <time>2023-06-25T09:53:16Z</time>
      </trkpt>
      <trkpt lat="46.391258547082543" lon="8.33003000356257">
        <ele>2758.2600000000002</ele>
        <time>2023-06-25T09:53:26Z</time>
      </trkpt>
      <trkpt lat="46.391303138807416" lon="8.329955153167248">
        <ele>2756.6599999999999</ele>
        <time>2023-06-25T09:53:39Z</time>
      </trkpt>
      <trkpt lat="46.391313783824444" lon="8.329949537292123">
        <ele>2756.3200000000002</ele>
        <time>2023-06-25T09:53:41Z</time>
      </trkpt>
      <trkpt lat="46.391392406076193" lon="8.329871250316501">
        <ele>2753.0799999999999</ele>
        <time>2023-06-25T09:53:56Z</time>
      </trkpt>
      <trkpt lat="46.391494078561664" lon="8.329821964725852">
        <ele>2748.8600000000001</ele>
        <time>2023-06-25T09:54:12Z</time>
      </trkpt>
      <trkpt lat="46.391604216769338" lon="8.329776450991631">
        <ele>2745.4299999999998</ele>
        <time>2023-06-25T09:54:29Z</time>
      </trkpt>
      <trkpt lat="46.391717959195375" lon="8.329732362180948">
        <ele>2740.6799999999998</ele>
        <time>2023-06-25T09:54:46Z</time>
      </trkpt>
      <trkpt lat="46.391813429072499" lon="8.329703025519848">
        <ele>2736.1700000000001</ele>
        <time>2023-06-25T09:55:01Z</time>
      </trkpt>
      <trkpt lat="46.391936894506216" lon="8.329705875366926">
        <ele>2732.4499999999998</ele>
        <time>2023-06-25T09:55:18Z</time>
      </trkpt>
      <trkpt lat="46.392060024663806" lon="8.329712497070432">
        <ele>2728.04</ele>
        <time>2023-06-25T09:55:35Z</time>
      </trkpt>
      <trkpt lat="46.392191033810377" lon="8.32973194308579">
        <ele>2723.8299999999999</ele>
        <time>2023-06-25T09:55:52Z</time>
      </trkpt>
      <trkpt lat="46.392351044341922" lon="8.32976471632719">
        <ele>2719.1500000000001</ele>
        <time>2023-06-25T09:56:11Z</time>
      </trkpt>
      <trkpt lat="46.392405359074473" lon="8.329766727983952">
        <ele>2717.8800000000001</ele>
        <time>2023-06-25T09:56:18Z</time>
      </trkpt>
      <trkpt lat="46.392547013238072" lon="8.329718112945557">
        <ele>2713.73</ele>
        <time>2023-06-25T09:56:36Z</time>
      </trkpt>
      <trkpt lat="46.392691181972623" lon="8.329711742699146">
        <ele>2710.1700000000001</ele>
        <time>2023-06-25T09:56:53Z</time>
      </trkpt>
      <trkpt lat="46.39282931573689" lon="8.329688357189298">
        <ele>2705.75</ele>
        <time>2023-06-25T09:57:10Z</time>
      </trkpt>
      <trkpt lat="46.39296954497695" lon="8.329634126275778">
        <ele>2702.54</ele>
        <time>2023-06-25T09:57:27Z</time>
      </trkpt>
      <trkpt lat="46.393076749518514" lon="8.32957218401134">
        <ele>2700.4499999999998</ele>
        <time>2023-06-25T09:57:42Z</time>
      </trkpt>
      <trkpt lat="46.393123520538211" lon="8.32954678684473">
        <ele>2699.6700000000001</ele>
        <time>2023-06-25T09:57:48Z</time>
      </trkpt>
      <trkpt lat="46.39328520745039" lon="8.329501776024699">
        <ele>2696.2800000000002</ele>
        <time>2023-06-25T09:58:07Z</time>
      </trkpt>
      <trkpt lat="46.393428118899465" lon="8.329455256462097">
        <ele>2693.48</ele>
        <time>2023-06-25T09:58:26Z</time>
      </trkpt>
      <trkpt lat="46.39356030151248" lon="8.329413179308176">
        <ele>2691.5799999999999</ele>
        <time>2023-06-25T09:58:44Z</time>
      </trkpt>
      <trkpt lat="46.393569353967905" lon="8.329417454078794">
        <ele>2691.4299999999998</ele>
        <time>2023-06-25T09:58:45Z</time>
      </trkpt>
      <trkpt lat="46.393596427515149" lon="8.329424997791648">
        <ele>2690.6799999999998</ele>
        <time>2023-06-25T09:58:48Z</time>
      </trkpt>
      <trkpt lat="46.393702961504459" lon="8.329393481835723">
        <ele>2688.3099999999999</ele>
        <time>2023-06-25T09:59:02Z</time>
      </trkpt>
      <trkpt lat="46.393732465803623" lon="8.329388704150915">
        <ele>2687.8200000000002</ele>
        <time>2023-06-25T09:59:05Z</time>
      </trkpt>
      <trkpt lat="46.393877053633332" lon="8.329390129074454">
        <ele>2684.75</ele>
        <time>2023-06-25T09:59:21Z</time>
      </trkpt>
      <trkpt lat="46.394036561250687" lon="8.329416951164603">
        <ele>2682.5599999999999</ele>
        <time>2023-06-25T09:59:38Z</time>
      </trkpt>
      <trkpt lat="46.394157176837325" lon="8.329449724406004">
        <ele>2680.0900000000001</ele>
        <time>2023-06-25T09:59:53Z</time>
      </trkpt>
      <trkpt lat="46.394281899556518" lon="8.329513175413013">
        <ele>2678.5999999999999</ele>
        <time>2023-06-25T10:00:09Z</time>
      </trkpt>
      <trkpt lat="46.394320540130138" lon="8.329535135999322">
        <ele>2677.98</ele>
        <time>2023-06-25T10:00:15Z</time>
      </trkpt>
      <trkpt lat="46.394451968371868" lon="8.32964594475925">
        <ele>2677.1599999999999</ele>
        <time>2023-06-25T10:00:33Z</time>
      </trkpt>
      <trkpt lat="46.394554395228624" lon="8.329708725214005">
        <ele>2676.5799999999999</ele>
        <time>2023-06-25T10:00:48Z</time>
      </trkpt>
      <trkpt lat="46.39465338550508" lon="8.329755244776607">
        <ele>2675.9000000000001</ele>
        <time>2023-06-25T10:01:02Z</time>
      </trkpt>
      <trkpt lat="46.394761931151152" lon="8.329783407971263">
        <ele>2673.5</ele>
        <time>2023-06-25T10:01:17Z</time>
      </trkpt>
      <trkpt lat="46.394877601414919" lon="8.329821294173598">
        <ele>2673.52</ele>
        <time>2023-06-25T10:01:32Z</time>
      </trkpt>
      <trkpt lat="46.394944405183196" lon="8.329842584207654">
        <ele>2672.5300000000002</ele>
        <time>2023-06-25T10:01:47Z</time>
      </trkpt>
      <trkpt lat="46.394989918917418" lon="8.32984727807343">
        <ele>2672.9899999999998</ele>
        <time>2023-06-25T10:01:52Z</time>
      </trkpt>
      <trkpt lat="46.395160406827927" lon="8.32987854257226">
        <ele>2674.6999999999998</ele>
        <time>2023-06-25T10:02:10Z</time>
      </trkpt>
      <trkpt lat="46.395328547805548" lon="8.329992955550551">
        <ele>2670.3200000000002</ele>
        <time>2023-06-25T10:02:30Z</time>
      </trkpt>
      <trkpt lat="46.39546450227499" lon="8.330105440691114">
        <ele>2666.1700000000001</ele>
        <time>2023-06-25T10:02:48Z</time>
      </trkpt>
      <trkpt lat="46.395610850304365" lon="8.330215578898788">
        <ele>2663.6799999999998</ele>
        <time>2023-06-25T10:03:06Z</time>
      </trkpt>
      <trkpt lat="46.395781422033906" lon="8.330275677144527">
        <ele>2665.5100000000002</ele>
        <time>2023-06-25T10:03:25Z</time>
      </trkpt>
      <trkpt lat="46.395914191380143" lon="8.330361926928163">
        <ele>2662.54</ele>
        <time>2023-06-25T10:03:45Z</time>
      </trkpt>
      <trkpt lat="46.395970098674297" lon="8.330365028232336">
        <ele>2658.71</ele>
        <time>2023-06-25T10:03:59Z</time>
      </trkpt>
      <trkpt lat="46.395982084795833" lon="8.330360585823655">
        <ele>2659.7199999999998</ele>
        <time>2023-06-25T10:04:23Z</time>
      </trkpt>
      <trkpt lat="46.396003039553761" lon="8.330361926928163">
        <ele>2659.1199999999999</ele>
        <time>2023-06-25T10:04:48Z</time>
      </trkpt>
      <trkpt lat="46.396090798079967" lon="8.3303945325315">
        <ele>2655.9200000000001</ele>
        <time>2023-06-25T10:05:04Z</time>
      </trkpt>
      <trkpt lat="46.396109070628881" lon="8.33041263744235">
        <ele>2653.9200000000001</ele>
        <time>2023-06-25T10:05:29Z</time>
      </trkpt>
      <trkpt lat="46.396204540506005" lon="8.330476088449359">
        <ele>2650.6599999999999</ele>
        <time>2023-06-25T10:05:45Z</time>
      </trkpt>
      <trkpt lat="46.396276205778122" lon="8.330478016287088">
        <ele>2648.1199999999999</ele>
        <time>2023-06-25T10:05:59Z</time>
      </trkpt>
      <trkpt lat="46.396324234083295" lon="8.330465443432331">
        <ele>2646.6900000000001</ele>
        <time>2023-06-25T10:06:12Z</time>
      </trkpt>
      <trkpt lat="46.396381482481956" lon="8.330449517816305">
        <ele>2644.4400000000001</ele>
        <time>2023-06-25T10:06:32Z</time>
      </trkpt>
      <trkpt lat="46.396428504958749" lon="8.330429904162884">
        <ele>2642.6599999999999</ele>
        <time>2023-06-25T10:06:45Z</time>
      </trkpt>
      <trkpt lat="46.396490531042218" lon="8.330423114821315">
        <ele>2639.8800000000001</ele>
        <time>2023-06-25T10:06:58Z</time>
      </trkpt>
      <trkpt lat="46.39654534868896" lon="8.33042822778225">
        <ele>2637.3099999999999</ele>
        <time>2023-06-25T10:07:12Z</time>
      </trkpt>
      <trkpt lat="46.39661424793303" lon="8.330371901392937">
        <ele>2634.23</ele>
        <time>2023-06-25T10:07:28Z</time>
      </trkpt>
      <trkpt lat="46.396652050316334" lon="8.330352455377579">
        <ele>2633.0100000000002</ele>
        <time>2023-06-25T10:07:43Z</time>
      </trkpt>
      <trkpt lat="46.396741233766079" lon="8.330359077081084">
        <ele>2629.4400000000001</ele>
        <time>2023-06-25T10:07:59Z</time>
      </trkpt>
      <trkpt lat="46.396807115525007" lon="8.330360082909465">
        <ele>2626.2199999999998</ele>
        <time>2023-06-25T10:08:15Z</time>
      </trkpt>
      <trkpt lat="46.396930916234851" lon="8.330377265810967">
        <ele>2621.0100000000002</ele>
        <time>2023-06-25T10:08:33Z</time>
      </trkpt>
      <trkpt lat="46.397039126604795" lon="8.330380199477077">
        <ele>2615.5999999999999</ele>
        <time>2023-06-25T10:08:49Z</time>
      </trkpt>
      <trkpt lat="46.397164855152369" lon="8.330436693504453">
        <ele>2609.1799999999998</ele>
        <time>2023-06-25T10:09:07Z</time>
      </trkpt>
      <trkpt lat="46.397269042208791" lon="8.330522943288088">
        <ele>2602.8099999999999</ele>
        <time>2023-06-25T10:09:23Z</time>
      </trkpt>
      <trkpt lat="46.397362165153027" lon="8.330598380416632">
        <ele>2600.0300000000002</ele>
        <time>2023-06-25T10:09:41Z</time>
      </trkpt>
      <trkpt lat="46.397472470998764" lon="8.330693179741502">
        <ele>2595.6599999999999</ele>
        <time>2023-06-25T10:09:58Z</time>
      </trkpt>
      <trkpt lat="46.39758562669158" lon="8.330795019865036">
        <ele>2590.8699999999999</ele>
        <time>2023-06-25T10:10:15Z</time>
      </trkpt>
      <trkpt lat="46.397694256156683" lon="8.330920496955514">
        <ele>2586.2600000000002</ele>
        <time>2023-06-25T10:10:34Z</time>
      </trkpt>
      <trkpt lat="46.397769106552005" lon="8.331024097278714">
        <ele>2583.71</ele>
        <time>2023-06-25T10:10:50Z</time>
      </trkpt>
      <trkpt lat="46.397830210626125" lon="8.331154184415937">
        <ele>2581.0500000000002</ele>
        <time>2023-06-25T10:11:04Z</time>
      </trkpt>
      <trkpt lat="46.397862229496241" lon="8.331264657899737">
        <ele>2579.1500000000001</ele>
        <time>2023-06-25T10:11:15Z</time>
      </trkpt>
      <trkpt lat="46.397942025214434" lon="8.331455597653985">
        <ele>2575.3699999999999</ele>
        <time>2023-06-25T10:11:33Z</time>
      </trkpt>
      <trkpt lat="46.398021569475532" lon="8.331645280122757">
        <ele>2572.98</ele>
        <time>2023-06-25T10:11:51Z</time>
      </trkpt>
      <trkpt lat="46.398095330223441" lon="8.331819623708725">
        <ele>2570.8200000000002</ele>
        <time>2023-06-25T10:12:09Z</time>
      </trkpt>
      <trkpt lat="46.398157104849815" lon="8.331989943981171">
        <ele>2568.5700000000002</ele>
        <time>2023-06-25T10:12:25Z</time>
      </trkpt>
      <trkpt lat="46.398174287751317" lon="8.332035457715392">
        <ele>2567.96</ele>
        <time>2023-06-25T10:12:30Z</time>
      </trkpt>
      <trkpt lat="46.398224830627441" lon="8.33218976855278">
        <ele>2566.2399999999998</ele>
        <time>2023-06-25T10:12:47Z</time>
      </trkpt>
      <trkpt lat="46.398278558626771" lon="8.332308540120721">
        <ele>2564.4000000000001</ele>
        <time>2023-06-25T10:13:01Z</time>
      </trkpt>
      <trkpt lat="46.398285180330276" lon="8.332312479615212">
        <ele>2564.0300000000002</ele>
        <time>2023-06-25T10:13:17Z</time>
      </trkpt>
      <trkpt lat="46.398269673809409" lon="8.332313317805529">
        <ele>2563.4699999999998</ele>
        <time>2023-06-25T10:13:52Z</time>
      </trkpt>
      <trkpt lat="46.39827067963779" lon="8.332310300320387">
        <ele>2564.2600000000002</ele>
        <time>2023-06-25T10:14:27Z</time>
      </trkpt>
      <trkpt lat="46.398275122046471" lon="8.332305438816547">
        <ele>2563.71</ele>
        <time>2023-06-25T10:14:47Z</time>
      </trkpt>
      <trkpt lat="46.39827755279839" lon="8.332302337512374">
        <ele>2563.3699999999999</ele>
        <time>2023-06-25T10:15:14Z</time>
      </trkpt>
      <trkpt lat="46.398272691294551" lon="8.332306193187833">
        <ele>2563.48</ele>
        <time>2023-06-25T10:15:27Z</time>
      </trkpt>
      <trkpt lat="46.398277468979359" lon="8.332315078005195">
        <ele>2562.8699999999999</ele>
        <time>2023-06-25T10:15:55Z</time>
      </trkpt>
      <trkpt lat="46.398288365453482" lon="8.332306612282991">
        <ele>2563.6100000000001</ele>
        <time>2023-06-25T10:16:38Z</time>
      </trkpt>
      <trkpt lat="46.39828191138804" lon="8.33232463337481">
        <ele>2563.52</ele>
        <time>2023-06-25T10:17:22Z</time>
      </trkpt>
      <trkpt lat="46.398278642445803" lon="8.332327818498015">
        <ele>2563.8899999999999</ele>
        <time>2023-06-25T10:18:07Z</time>
      </trkpt>
      <trkpt lat="46.398258525878191" lon="8.332318682223558">
        <ele>2564.1399999999999</ele>
        <time>2023-06-25T10:19:04Z</time>
      </trkpt>
      <trkpt lat="46.398268165066838" lon="8.332314575091004">
        <ele>2565.7600000000002</ele>
        <time>2023-06-25T10:19:51Z</time>
      </trkpt>
      <trkpt lat="46.398264644667506" lon="8.332325303927064">
        <ele>2566.7199999999998</ele>
        <time>2023-06-25T10:20:52Z</time>
      </trkpt>
      <trkpt lat="46.398264896124601" lon="8.332318933680654">
        <ele>2567.8499999999999</ele>
        <time>2023-06-25T10:21:50Z</time>
      </trkpt>
      <trkpt lat="46.39826824888587" lon="8.332312479615212">
        <ele>2568.0300000000002</ele>
        <time>2023-06-25T10:22:48Z</time>
      </trkpt>
      <trkpt lat="46.398269254714251" lon="8.332317341119051">
        <ele>2567.8499999999999</ele>
        <time>2023-06-25T10:23:25Z</time>
      </trkpt>
      <trkpt lat="46.398266572505236" lon="8.332313569262624">
        <ele>2567.6700000000001</ele>
        <time>2023-06-25T10:24:07Z</time>
      </trkpt>
      <trkpt lat="46.398275876417756" lon="8.332305438816547">
        <ele>2566.3600000000001</ele>
        <time>2023-06-25T10:24:57Z</time>
      </trkpt>
      <trkpt lat="46.398302111774683" lon="8.332300744950771">
        <ele>2565.0700000000002</ele>
        <time>2023-06-25T10:25:18Z</time>
      </trkpt>
      <trkpt lat="46.398304039612412" lon="8.33230753429234">
        <ele>2564.9699999999998</ele>
        <time>2023-06-25T10:25:29Z</time>
      </trkpt>
      <trkpt lat="46.398292891681194" lon="8.332309545949101">
        <ele>2564.48</ele>
        <time>2023-06-25T10:26:16Z</time>
      </trkpt>
      <trkpt lat="46.398294903337955" lon="8.332315748557448">
        <ele>2564.9299999999998</ele>
        <time>2023-06-25T10:26:38Z</time>
      </trkpt>
      <trkpt lat="46.398262633010745" lon="8.332342989742756">
        <ele>2563.98</ele>
        <time>2023-06-25T10:26:52Z</time>
      </trkpt>
      <trkpt lat="46.398277133703232" lon="8.332339469343424">
        <ele>2564.29</ele>
        <time>2023-06-25T10:27:38Z</time>
      </trkpt>
      <trkpt lat="46.398281324654818" lon="8.332329746335745">
        <ele>2565.5300000000002</ele>
        <time>2023-06-25T10:28:33Z</time>
      </trkpt>
      <trkpt lat="46.398282581940293" lon="8.33232362754643">
        <ele>2564.2800000000002</ele>
        <time>2023-06-25T10:29:06Z</time>
      </trkpt>
      <trkpt lat="46.398298842832446" lon="8.332314742729068">
        <ele>2564.5500000000002</ele>
        <time>2023-06-25T10:29:29Z</time>
      </trkpt>
      <trkpt lat="46.398274032399058" lon="8.332338966429234">
        <ele>2563.6199999999999</ele>
        <time>2023-06-25T10:29:54Z</time>
      </trkpt>
      <trkpt lat="46.398273697122931" lon="8.332325723022223">
        <ele>2565.1599999999999</ele>
        <time>2023-06-25T10:30:26Z</time>
      </trkpt>
      <trkpt lat="46.398279899731278" lon="8.332318011671305">
        <ele>2564.9899999999998</ele>
        <time>2023-06-25T10:31:05Z</time>
      </trkpt>
      <trkpt lat="46.398279815912247" lon="8.332305522635579">
        <ele>2565.52</ele>
        <time>2023-06-25T10:31:28Z</time>
      </trkpt>
      <trkpt lat="46.398280737921596" lon="8.332313988357782">
        <ele>2565.6300000000001</ele>
        <time>2023-06-25T10:31:54Z</time>
      </trkpt>
      <trkpt lat="46.39829121530056" lon="8.332326225936413">
        <ele>2565.8200000000002</ele>
        <time>2023-06-25T10:32:23Z</time>
      </trkpt>
      <trkpt lat="46.398316947743297" lon="8.332343576475978">
        <ele>2565.46</ele>
        <time>2023-06-25T10:32:42Z</time>
      </trkpt>
      <trkpt lat="46.398331029340625" lon="8.332352377474308">
        <ele>2564.6500000000001</ele>
        <time>2023-06-25T10:33:00Z</time>
      </trkpt>
      <trkpt lat="46.398332035169005" lon="8.33235539495945">
        <ele>2564.21</ele>
        <time>2023-06-25T10:33:26Z</time>
      </trkpt>
      <trkpt lat="46.398333963006735" lon="8.332352126017213">
        <ele>2564.6799999999998</ele>
        <time>2023-06-25T10:33:46Z</time>
      </trkpt>
      <trkpt lat="46.398348547518253" lon="8.332366710528731">
        <ele>2564.46</ele>
        <time>2023-06-25T10:34:00Z</time>
      </trkpt>
      <trkpt lat="46.398476287722588" lon="8.332382552325726">
        <ele>2561.6300000000001</ele>
        <time>2023-06-25T10:34:15Z</time>
      </trkpt>
      <trkpt lat="46.398631101474166" lon="8.332387581467629">
        <ele>2559.0500000000002</ele>
        <time>2023-06-25T10:34:33Z</time>
      </trkpt>
      <trkpt lat="46.398751717060804" lon="8.332428317517042">
        <ele>2557.9400000000001</ele>
        <time>2023-06-25T10:34:50Z</time>
      </trkpt>
      <trkpt lat="46.39881307259202" lon="8.332439381629229">
        <ele>2556.8600000000001</ele>
        <time>2023-06-25T10:35:03Z</time>
      </trkpt>
      <trkpt lat="46.398830339312553" lon="8.332439046353102">
        <ele>2556.6100000000001</ele>
        <time>2023-06-25T10:35:05Z</time>
      </trkpt>
      <trkpt lat="46.398943997919559" lon="8.332420606166124">
        <ele>2555.04</ele>
        <time>2023-06-25T10:35:20Z</time>
      </trkpt>
      <trkpt lat="46.399041060358286" lon="8.332404848188162">
        <ele>2553.27</ele>
        <time>2023-06-25T10:35:34Z</time>
      </trkpt>
      <trkpt lat="46.399167627096176" lon="8.332423539832234">
        <ele>2550.9899999999998</ele>
        <time>2023-06-25T10:35:52Z</time>
      </trkpt>
      <trkpt lat="46.399264018982649" lon="8.332451703026891">
        <ele>2549.4200000000001</ele>
        <time>2023-06-25T10:36:06Z</time>
      </trkpt>
      <trkpt lat="46.399380946531892" lon="8.33242672495544">
        <ele>2548.3400000000001</ele>
        <time>2023-06-25T10:36:22Z</time>
      </trkpt>
      <trkpt lat="46.399531485512853" lon="8.332399148494005">
        <ele>2546.54</ele>
        <time>2023-06-25T10:36:41Z</time>
      </trkpt>
      <trkpt lat="46.399627039209008" lon="8.332310803234577">
        <ele>2546.1999999999998</ele>
        <time>2023-06-25T10:36:56Z</time>
      </trkpt>
      <trkpt lat="46.399663249030709" lon="8.332253051921725">
        <ele>2546.6300000000001</ele>
        <time>2023-06-25T10:37:04Z</time>
      </trkpt>
      <trkpt lat="46.399765172973275" lon="8.332125563174486">
        <ele>2546.3800000000001</ele>
        <time>2023-06-25T10:37:22Z</time>
      </trkpt>
      <trkpt lat="46.399863576516509" lon="8.332047862932086">
        <ele>2546.0100000000002</ele>
        <time>2023-06-25T10:37:39Z</time>
      </trkpt>
      <trkpt lat="46.399958375841379" lon="8.331975778564811">
        <ele>2544.77</ele>
        <time>2023-06-25T10:37:55Z</time>
      </trkpt>
      <trkpt lat="46.400025179609656" lon="8.33183160983026">
        <ele>2544.3200000000002</ele>
        <time>2023-06-25T10:38:13Z</time>
      </trkpt>
      <trkpt lat="46.400080667808652" lon="8.331792717799544">
        <ele>2544.6300000000001</ele>
        <time>2023-06-25T10:38:31Z</time>
      </trkpt>
      <trkpt lat="46.400196757167578" lon="8.331885924562812">
        <ele>2543.4400000000001</ele>
        <time>2023-06-25T10:38:48Z</time>
      </trkpt>
      <trkpt lat="46.40023497864604" lon="8.332036128267646">
        <ele>2541.8099999999999</ele>
        <time>2023-06-25T10:39:04Z</time>
      </trkpt>
      <trkpt lat="46.400309074670076" lon="8.332175435498357">
        <ele>2541.3000000000002</ele>
        <time>2023-06-25T10:39:21Z</time>
      </trkpt>
      <trkpt lat="46.400406807661057" lon="8.332277191802859">
        <ele>2541.4299999999998</ele>
        <time>2023-06-25T10:39:38Z</time>
      </trkpt>
      <trkpt lat="46.400498673319817" lon="8.332364531233907">
        <ele>2541.3800000000001</ele>
        <time>2023-06-25T10:39:54Z</time>
      </trkpt>
      <trkpt lat="46.40059120953083" lon="8.332445919513702">
        <ele>2540.75</ele>
        <time>2023-06-25T10:40:11Z</time>
      </trkpt>
      <trkpt lat="46.400660360231996" lon="8.332448685541749">
        <ele>2541.5599999999999</ele>
        <time>2023-06-25T10:40:25Z</time>
      </trkpt>
      <trkpt lat="46.400673938915133" lon="8.332457151263952">
        <ele>2541.4000000000001</ele>
        <time>2023-06-25T10:40:27Z</time>
      </trkpt>
      <trkpt lat="46.400745017454028" lon="8.33253862336278">
        <ele>2540.3099999999999</ele>
        <time>2023-06-25T10:40:37Z</time>
      </trkpt>
      <trkpt lat="46.400872254744172" lon="8.332681702449918">
        <ele>2538.1399999999999</ele>
        <time>2023-06-25T10:40:56Z</time>
      </trkpt>
      <trkpt lat="46.400904860347509" lon="8.332718750461936">
        <ele>2537.3499999999999</ele>
        <time>2023-06-25T10:41:02Z</time>
      </trkpt>
      <trkpt lat="46.400928413495421" lon="8.332737106829882">
        <ele>2536.9499999999998</ele>
        <time>2023-06-25T10:41:06Z</time>
      </trkpt>
      <trkpt lat="46.401009215041995" lon="8.33280885592103">
        <ele>2535.4299999999998</ele>
        <time>2023-06-25T10:41:22Z</time>
      </trkpt>
      <trkpt lat="46.401050789281726" lon="8.332846323028207">
        <ele>2534.8000000000002</ele>
        <time>2023-06-25T10:41:36Z</time>
      </trkpt>
      <trkpt lat="46.401111725717783" lon="8.33294078707695">
        <ele>2533.4000000000001</ele>
        <time>2023-06-25T10:41:49Z</time>
      </trkpt>
      <trkpt lat="46.401150282472372" lon="8.33297741599381">
        <ele>2532.77</ele>
        <time>2023-06-25T10:41:54Z</time>
      </trkpt>
      <trkpt lat="46.401226641610265" lon="8.333071880042553">
        <ele>2531.6999999999998</ele>
        <time>2023-06-25T10:42:06Z</time>
      </trkpt>
      <trkpt lat="46.401326889172196" lon="8.333105491474271">
        <ele>2530.4299999999998</ele>
        <time>2023-06-25T10:42:21Z</time>
      </trkpt>
      <trkpt lat="46.401400985196233" lon="8.333220910280943">
        <ele>2529.8899999999999</ele>
        <time>2023-06-25T10:42:36Z</time>
      </trkpt>
      <trkpt lat="46.40147952362895" lon="8.333301208913326">
        <ele>2528.9899999999998</ele>
        <time>2023-06-25T10:42:51Z</time>
      </trkpt>
      <trkpt lat="46.401516906917095" lon="8.333369521424174">
        <ele>2527.9299999999998</ele>
        <time>2023-06-25T10:43:04Z</time>
      </trkpt>
      <trkpt lat="46.401534844189882" lon="8.333400283008814">
        <ele>2526.6100000000001</ele>
        <time>2023-06-25T10:43:15Z</time>
      </trkpt>
      <trkpt lat="46.401603743433952" lon="8.333419561386108">
        <ele>2525.1599999999999</ele>
        <time>2023-06-25T10:43:28Z</time>
      </trkpt>
      <trkpt lat="46.401650095358491" lon="8.333457782864571">
        <ele>2524</ele>
        <time>2023-06-25T10:43:42Z</time>
      </trkpt>
      <trkpt lat="46.401724778115749" lon="8.333560209721327">
        <ele>2520.4899999999998</ele>
        <time>2023-06-25T10:44:01Z</time>
      </trkpt>
      <trkpt lat="46.401752354577184" lon="8.333620643243194">
        <ele>2519.4899999999998</ele>
        <time>2023-06-25T10:44:13Z</time>
      </trkpt>
      <trkpt lat="46.401796275749803" lon="8.333747796714306">
        <ele>2517.8899999999999</ele>
        <time>2023-06-25T10:44:30Z</time>
      </trkpt>
      <trkpt lat="46.401847824454308" lon="8.333905125036836">
        <ele>2515.8499999999999</ele>
        <time>2023-06-25T10:44:46Z</time>
      </trkpt>
      <trkpt lat="46.401899959892035" lon="8.334086928516626">
        <ele>2513.2399999999998</ele>
        <time>2023-06-25T10:45:05Z</time>
      </trkpt>
      <trkpt lat="46.40200037509203" lon="8.334147948771715">
        <ele>2511.0999999999999</ele>
        <time>2023-06-25T10:45:22Z</time>
      </trkpt>
      <trkpt lat="46.402078662067652" lon="8.33413545973599">
        <ele>2509.6599999999999</ele>
        <time>2023-06-25T10:45:36Z</time>
      </trkpt>
      <trkpt lat="46.402081428095698" lon="8.334139147773385">
        <ele>2509.3699999999999</ele>
        <time>2023-06-25T10:45:49Z</time>
      </trkpt>
      <trkpt lat="46.402081092819571" lon="8.33414476364851">
        <ele>2508.8299999999999</ele>
        <time>2023-06-25T10:46:13Z</time>
      </trkpt>
      <trkpt lat="46.402084529399872" lon="8.334147110581398">
        <ele>2508.0599999999999</ele>
        <time>2023-06-25T10:46:43Z</time>
      </trkpt>
      <trkpt lat="46.402073716744781" lon="8.334145685657859">
        <ele>2507.8000000000002</ele>
        <time>2023-06-25T10:47:25Z</time>
      </trkpt>
      <trkpt lat="46.40205267816782" lon="8.33415943197906">
        <ele>2508.2600000000002</ele>
        <time>2023-06-25T10:47:45Z</time>
      </trkpt>
      <trkpt lat="46.402051839977503" lon="8.334170496091247">
        <ele>2507.77</ele>
        <time>2023-06-25T10:48:13Z</time>
      </trkpt>
      <trkpt lat="46.402059299871325" lon="8.334155911579728">
        <ele>2508.4000000000001</ele>
        <time>2023-06-25T10:48:38Z</time>
      </trkpt>
      <trkpt lat="46.402062987908721" lon="8.334151050075889">
        <ele>2508.0500000000002</ele>
        <time>2023-06-25T10:48:59Z</time>
      </trkpt>
      <trkpt lat="46.402074387297034" lon="8.334143422544003">
        <ele>2507.9400000000001</ele>
        <time>2023-06-25T10:49:21Z</time>
      </trkpt>
      <trkpt lat="46.402072878554463" lon="8.334176363423467">
        <ele>2508.0300000000002</ele>
        <time>2023-06-25T10:49:42Z</time>
      </trkpt>
      <trkpt lat="46.40207514166832" lon="8.334178542718291">
        <ele>2508.1199999999999</ele>
        <time>2023-06-25T10:50:12Z</time>
      </trkpt>
      <trkpt lat="46.402077237144113" lon="8.33417946472764">
        <ele>2508.0300000000002</ele>
        <time>2023-06-25T10:50:40Z</time>
      </trkpt>
      <trkpt lat="46.402074974030256" lon="8.334183320403099">
        <ele>2508.1500000000001</ele>
        <time>2023-06-25T10:51:01Z</time>
      </trkpt>
      <trkpt lat="46.402140101417899" lon="8.334142416715622">
        <ele>2507.3299999999999</ele>
        <time>2023-06-25T10:51:16Z</time>
      </trkpt>
      <trkpt lat="46.402235068380833" lon="8.334100926294923">
        <ele>2505.1900000000001</ele>
        <time>2023-06-25T10:51:34Z</time>
      </trkpt>
      <trkpt lat="46.402320312336087" lon="8.334059603512287">
        <ele>2502.3000000000002</ele>
        <time>2023-06-25T10:51:47Z</time>
      </trkpt>
      <trkpt lat="46.402335315942764" lon="8.334050131961703">
        <ele>2502.0599999999999</ele>
        <time>2023-06-25T10:51:49Z</time>
      </trkpt>
      <trkpt lat="46.402440341189504" lon="8.333963211625814">
        <ele>2501.1700000000001</ele>
        <time>2023-06-25T10:52:05Z</time>
      </trkpt>
      <trkpt lat="46.402542935684323" lon="8.333981400355697">
        <ele>2500.8200000000002</ele>
        <time>2023-06-25T10:52:18Z</time>
      </trkpt>
      <trkpt lat="46.402593394741416" lon="8.333993051201105">
        <ele>2500.3299999999999</ele>
        <time>2023-06-25T10:52:24Z</time>
      </trkpt>
      <trkpt lat="46.402747537940741" lon="8.334056753665209">
        <ele>2499</ele>
        <time>2023-06-25T10:52:40Z</time>
      </trkpt>
      <trkpt lat="46.402890030294657" lon="8.3341901935637">
        <ele>2498.6599999999999</ele>
        <time>2023-06-25T10:52:57Z</time>
      </trkpt>
      <trkpt lat="46.403053058311343" lon="8.334313156083226">
        <ele>2498.5999999999999</ele>
        <time>2023-06-25T10:53:16Z</time>
      </trkpt>
      <trkpt lat="46.403119610622525" lon="8.334358837455511">
        <ele>2498.52</ele>
        <time>2023-06-25T10:53:26Z</time>
      </trkpt>
      <trkpt lat="46.403213236480951" lon="8.334417007863522">
        <ele>2499.0799999999999</ele>
        <time>2023-06-25T10:53:38Z</time>
      </trkpt>
      <trkpt lat="46.403237544000149" lon="8.334451038390398">
        <ele>2499.77</ele>
        <time>2023-06-25T10:53:42Z</time>
      </trkpt>
      <trkpt lat="46.403354639187455" lon="8.334510382264853">
        <ele>2500.6999999999998</ele>
        <time>2023-06-25T10:53:57Z</time>
      </trkpt>
      <trkpt lat="46.403433512896299" lon="8.334538545459509">
        <ele>2503.2600000000002</ele>
        <time>2023-06-25T10:54:12Z</time>
      </trkpt>
      <trkpt lat="46.403467459604144" lon="8.334551872685552">
        <ele>2502.9200000000001</ele>
        <time>2023-06-25T10:54:20Z</time>
      </trkpt>
      <trkpt lat="46.403503334149718" lon="8.334575174376369">
        <ele>2502.6700000000001</ele>
        <time>2023-06-25T10:54:25Z</time>
      </trkpt>
      <trkpt lat="46.403567790985107" lon="8.334663603454828">
        <ele>2501.7199999999998</ele>
        <time>2023-06-25T10:54:37Z</time>
      </trkpt>
      <trkpt lat="46.403638115152717" lon="8.334779106080532">
        <ele>2500.4099999999999</ele>
        <time>2023-06-25T10:54:50Z</time>
      </trkpt>
      <trkpt lat="46.403673319146037" lon="8.334880024194717">
        <ele>2499.8899999999999</ele>
        <time>2023-06-25T10:54:59Z</time>
      </trkpt>
      <trkpt lat="46.403766609728336" lon="8.335060235112906">
        <ele>2499.0100000000002</ele>
        <time>2023-06-25T10:55:16Z</time>
      </trkpt>
      <trkpt lat="46.403837017714977" lon="8.335172468796372">
        <ele>2497.79</ele>
        <time>2023-06-25T10:55:29Z</time>
      </trkpt>
      <trkpt lat="46.403958639129996" lon="8.335275063291192">
        <ele>2497.4499999999998</ele>
        <time>2023-06-25T10:55:46Z</time>
      </trkpt>
      <trkpt lat="46.404045978561044" lon="8.335288893431425">
        <ele>2498.9699999999998</ele>
        <time>2023-06-25T10:56:01Z</time>
      </trkpt>
      <trkpt lat="46.404153015464544" lon="8.335264166817069">
        <ele>2500.9200000000001</ele>
        <time>2023-06-25T10:56:20Z</time>
      </trkpt>
      <trkpt lat="46.40419383533299" lon="8.335268022492528">
        <ele>2501.02</ele>
        <time>2023-06-25T10:56:28Z</time>
      </trkpt>
      <trkpt lat="46.404225938022137" lon="8.335291743278503">
        <ele>2500.5599999999999</ele>
        <time>2023-06-25T10:56:32Z</time>
      </trkpt>
      <trkpt lat="46.404338674619794" lon="8.335372963920236">
        <ele>2499.8499999999999</ele>
        <time>2023-06-25T10:56:47Z</time>
      </trkpt>
      <trkpt lat="46.404371112585068" lon="8.33544060587883">
        <ele>2499.54</ele>
        <time>2023-06-25T10:56:54Z</time>
      </trkpt>
      <trkpt lat="46.404425511136651" lon="8.335554767400026">
        <ele>2498.5599999999999</ele>
        <time>2023-06-25T10:57:07Z</time>
      </trkpt>
      <trkpt lat="46.404482591897249" lon="8.335694074630737">
        <ele>2498.5100000000002</ele>
        <time>2023-06-25T10:57:21Z</time>
      </trkpt>
      <trkpt lat="46.404488123953342" lon="8.335702205076814">
        <ele>2498.5599999999999</ele>
        <time>2023-06-25T10:57:22Z</time>
      </trkpt>
      <trkpt lat="46.404508324339986" lon="8.335725255310535">
        <ele>2498.73</ele>
        <time>2023-06-25T10:57:25Z</time>
      </trkpt>
      <trkpt lat="46.404548222199082" lon="8.335787784308195">
        <ele>2498.5599999999999</ele>
        <time>2023-06-25T10:57:31Z</time>
      </trkpt>
      <trkpt lat="46.404571859166026" lon="8.335922816768289">
        <ele>2498.3800000000001</ele>
        <time>2023-06-25T10:57:42Z</time>
      </trkpt>
      <trkpt lat="46.404609326273203" lon="8.336110822856426">
        <ele>2497.9099999999999</ele>
        <time>2023-06-25T10:57:58Z</time>
      </trkpt>
      <trkpt lat="46.404637405648828" lon="8.336148541420698">
        <ele>2498.3099999999999</ele>
        <time>2023-06-25T10:58:03Z</time>
      </trkpt>
      <trkpt lat="46.404730193316936" lon="8.3362917881459">
        <ele>2499.52</ele>
        <time>2023-06-25T10:58:19Z</time>
      </trkpt>
      <trkpt lat="46.404786016792059" lon="8.336451379582286">
        <ele>2499.46</ele>
        <time>2023-06-25T10:58:32Z</time>
      </trkpt>
      <trkpt lat="46.404859777539968" lon="8.336606528609991">
        <ele>2499.3600000000001</ele>
        <time>2023-06-25T10:58:45Z</time>
      </trkpt>
      <trkpt lat="46.404863214120269" lon="8.336649108678103">
        <ele>2499.25</ele>
        <time>2023-06-25T10:58:48Z</time>
      </trkpt>
      <trkpt lat="46.404880229383707" lon="8.336709961295128">
        <ele>2499.25</ele>
        <time>2023-06-25T10:58:53Z</time>
      </trkpt>
      <trkpt lat="46.404993385076523" lon="8.336900565773249">
        <ele>2497.8299999999999</ele>
        <time>2023-06-25T10:59:11Z</time>
      </trkpt>
      <trkpt lat="46.404996737837791" lon="8.336941888555884">
        <ele>2497.4099999999999</ele>
        <time>2023-06-25T10:59:14Z</time>
      </trkpt>
      <trkpt lat="46.405064463615417" lon="8.33711463958025">
        <ele>2496.1799999999998</ele>
        <time>2023-06-25T10:59:29Z</time>
      </trkpt>
      <trkpt lat="46.40511441975832" lon="8.337185382843018">
        <ele>2495.4299999999998</ele>
        <time>2023-06-25T10:59:37Z</time>
      </trkpt>
      <trkpt lat="46.405172841623425" lon="8.337354864925146">
        <ele>2493.3200000000002</ele>
        <time>2023-06-25T10:59:53Z</time>
      </trkpt>
      <trkpt lat="46.405224641785026" lon="8.337410185486078">
        <ele>2492.5300000000002</ele>
        <time>2023-06-25T11:00:02Z</time>
      </trkpt>
      <trkpt lat="46.405263282358646" lon="8.337463829666376">
        <ele>2491.98</ele>
        <time>2023-06-25T11:00:09Z</time>
      </trkpt>
      <trkpt lat="46.405283398926258" lon="8.337494591251016">
        <ele>2491.96</ele>
        <time>2023-06-25T11:00:12Z</time>
      </trkpt>
      <trkpt lat="46.405363194644451" lon="8.337602131068707">
        <ele>2491.8899999999999</ele>
        <time>2023-06-25T11:00:22Z</time>
      </trkpt>
      <trkpt lat="46.405451791360974" lon="8.337653344497085">
        <ele>2492.2600000000002</ele>
        <time>2023-06-25T11:00:30Z</time>
      </trkpt>
      <trkpt lat="46.405491689220071" lon="8.337700450792909">
        <ele>2492.6900000000001</ele>
        <time>2023-06-25T11:00:36Z</time>
      </trkpt>
      <trkpt lat="46.405528485774994" lon="8.337749987840653">
        <ele>2492.96</ele>
        <time>2023-06-25T11:00:41Z</time>
      </trkpt>
      <trkpt lat="46.405650107190013" lon="8.337935814633966">
        <ele>2494.3400000000001</ele>
        <time>2023-06-25T11:00:58Z</time>
      </trkpt>
      <trkpt lat="46.405710373073816" lon="8.338007228448987">
        <ele>2494.7600000000002</ele>
        <time>2023-06-25T11:01:06Z</time>
      </trkpt>
      <trkpt lat="46.405869796872139" lon="8.338163550943136">
        <ele>2495.4899999999998</ele>
        <time>2023-06-25T11:01:24Z</time>
      </trkpt>
      <trkpt lat="46.405996447429061" lon="8.338246867060661">
        <ele>2495.1799999999998</ele>
        <time>2023-06-25T11:01:39Z</time>
      </trkpt>
      <trkpt lat="46.406079595908523" lon="8.33833864890039">
        <ele>2494.3400000000001</ele>
        <time>2023-06-25T11:01:54Z</time>
      </trkpt>
      <trkpt lat="46.406103735789657" lon="8.338351640850306">
        <ele>2494.1599999999999</ele>
        <time>2023-06-25T11:02:10Z</time>
      </trkpt>
      <trkpt lat="46.406155535951257" lon="8.33839095197618">
        <ele>2493.1999999999998</ele>
        <time>2023-06-25T11:02:23Z</time>
      </trkpt>
      <trkpt lat="46.406187973916531" lon="8.338458091020584">
        <ele>2492.9000000000001</ele>
        <time>2023-06-25T11:02:45Z</time>
      </trkpt>
      <trkpt lat="46.406289730221033" lon="8.338511902838945">
        <ele>2490.2399999999998</ele>
        <time>2023-06-25T11:03:02Z</time>
      </trkpt>
      <trkpt lat="46.406379835680127" lon="8.338558506220579">
        <ele>2487.9000000000001</ele>
        <time>2023-06-25T11:03:17Z</time>
      </trkpt>
      <trkpt lat="46.406402802094817" lon="8.338624639436603">
        <ele>2486.6799999999998</ele>
        <time>2023-06-25T11:03:30Z</time>
      </trkpt>
      <trkpt lat="46.406412776559591" lon="8.338663280010223">
        <ele>2486.1900000000001</ele>
        <time>2023-06-25T11:03:49Z</time>
      </trkpt>
      <trkpt lat="46.406415961682796" lon="8.33867090754211">
        <ele>2485.6399999999999</ele>
        <time>2023-06-25T11:04:10Z</time>
      </trkpt>
      <trkpt lat="46.40642149373889" lon="8.338733352720738">
        <ele>2484.8600000000001</ele>
        <time>2023-06-25T11:04:23Z</time>
      </trkpt>
      <trkpt lat="46.406422751024365" lon="8.338734610006213">
        <ele>2484.9499999999998</ele>
        <time>2023-06-25T11:04:43Z</time>
      </trkpt>
      <trkpt lat="46.406413530930877" lon="8.338744081556797">
        <ele>2484.9200000000001</ele>
        <time>2023-06-25T11:05:07Z</time>
      </trkpt>
      <trkpt lat="46.40641076490283" lon="8.338733101263642">
        <ele>2485.2199999999998</ele>
        <time>2023-06-25T11:05:28Z</time>
      </trkpt>
      <trkpt lat="46.406391821801662" lon="8.338746009394527">
        <ele>2486.1599999999999</ele>
        <time>2023-06-25T11:05:51Z</time>
      </trkpt>
      <trkpt lat="46.406334405764937" lon="8.338854806497693">
        <ele>2486.2399999999998</ele>
        <time>2023-06-25T11:06:06Z</time>
      </trkpt>
      <trkpt lat="46.406311020255089" lon="8.338970309123397">
        <ele>2485.6100000000001</ele>
        <time>2023-06-25T11:06:20Z</time>
      </trkpt>
      <trkpt lat="46.406297693029046" lon="8.339068712666631">
        <ele>2486.1500000000001</ele>
        <time>2023-06-25T11:06:34Z</time>
      </trkpt>
      <trkpt lat="46.40626123175025" lon="8.339181952178478">
        <ele>2486.8600000000001</ele>
        <time>2023-06-25T11:06:48Z</time>
      </trkpt>
      <trkpt lat="46.406185040250421" lon="8.339229477569461">
        <ele>2487.54</ele>
        <time>2023-06-25T11:07:02Z</time>
      </trkpt>
      <trkpt lat="46.406179592013359" lon="8.33922847174108">
        <ele>2488.1100000000001</ele>
        <time>2023-06-25T11:07:11Z</time>
      </trkpt>
      <trkpt lat="46.406065681949258" lon="8.33928563632071">
        <ele>2488.21</ele>
        <time>2023-06-25T11:07:26Z</time>
      </trkpt>
      <trkpt lat="46.406022179871798" lon="8.339279852807522">
        <ele>2488.46</ele>
        <time>2023-06-25T11:07:31Z</time>
      </trkpt>
      <trkpt lat="46.405907766893506" lon="8.339274823665619">
        <ele>2489.75</ele>
        <time>2023-06-25T11:07:46Z</time>
      </trkpt>
      <trkpt lat="46.40587423928082" lon="8.339280690997839">
        <ele>2489.3000000000002</ele>
        <time>2023-06-25T11:07:56Z</time>
      </trkpt>
      <trkpt lat="46.405816487967968" lon="8.339294018223882">
        <ele>2488.5799999999999</ele>
        <time>2023-06-25T11:08:10Z</time>
      </trkpt>
      <trkpt lat="46.405788995325565" lon="8.339272392913699">
        <ele>2487.9400000000001</ele>
        <time>2023-06-25T11:08:26Z</time>
      </trkpt>
      <trkpt lat="46.405763179063797" lon="8.339256383478642">
        <ele>2488.3699999999999</ele>
        <time>2023-06-25T11:08:40Z</time>
      </trkpt>
      <trkpt lat="46.405708026140928" lon="8.339206846430898">
        <ele>2488.9299999999998</ele>
        <time>2023-06-25T11:08:53Z</time>
      </trkpt>
      <trkpt lat="46.405691597610712" lon="8.339203912764788">
        <ele>2489.98</ele>
        <time>2023-06-25T11:09:08Z</time>
      </trkpt>
      <trkpt lat="46.405650861561298" lon="8.33914247341454">
        <ele>2490.29</ele>
        <time>2023-06-25T11:09:24Z</time>
      </trkpt>
      <trkpt lat="46.405569557100534" lon="8.339114729315043">
        <ele>2490.6300000000001</ele>
        <time>2023-06-25T11:09:38Z</time>
      </trkpt>
      <trkpt lat="46.405554972589016" lon="8.339125541970134">
        <ele>2490.0100000000002</ele>
        <time>2023-06-25T11:09:53Z</time>
      </trkpt>
      <trkpt lat="46.405546339228749" lon="8.339122608304024">
        <ele>2489.9099999999999</ele>
        <time>2023-06-25T11:10:07Z</time>
      </trkpt>
      <trkpt lat="46.405546255409718" lon="8.339019175618887">
        <ele>2491.1100000000001</ele>
        <time>2023-06-25T11:10:22Z</time>
      </trkpt>
      <trkpt lat="46.40548087656498" lon="8.338941307738423">
        <ele>2491.8699999999999</ele>
        <time>2023-06-25T11:10:36Z</time>
      </trkpt>
      <trkpt lat="46.405439050868154" lon="8.338885987177491">
        <ele>2491.8299999999999</ele>
        <time>2023-06-25T11:10:49Z</time>
      </trkpt>
      <trkpt lat="46.405380126088858" lon="8.338823122903705">
        <ele>2494.0599999999999</ele>
        <time>2023-06-25T11:11:03Z</time>
      </trkpt>
      <trkpt lat="46.405377360060811" lon="8.338816333562136">
        <ele>2494.8000000000002</ele>
        <time>2023-06-25T11:11:17Z</time>
      </trkpt>
      <trkpt lat="46.405344167724252" lon="8.338701166212559">
        <ele>2498.02</ele>
        <time>2023-06-25T11:11:30Z</time>
      </trkpt>
      <trkpt lat="46.40530452132225" lon="8.338648527860642">
        <ele>2499.54</ele>
        <time>2023-06-25T11:11:37Z</time>
      </trkpt>
      <trkpt lat="46.40527862124145" lon="8.338632937520742">
        <ele>2499.8000000000002</ele>
        <time>2023-06-25T11:11:40Z</time>
      </trkpt>
      <trkpt lat="46.405180217698216" lon="8.338585579767823">
        <ele>2499.9699999999998</ele>
        <time>2023-06-25T11:11:54Z</time>
      </trkpt>
      <trkpt lat="46.405133362859488" lon="8.338570827618241">
        <ele>2499.7800000000002</ele>
        <time>2023-06-25T11:12:09Z</time>
      </trkpt>
      <trkpt lat="46.405071755871177" lon="8.338589938357472">
        <ele>2499.1599999999999</ele>
        <time>2023-06-25T11:12:23Z</time>
      </trkpt>
      <trkpt lat="46.405056165531278" lon="8.338548615574837">
        <ele>2500.1700000000001</ele>
        <time>2023-06-25T11:12:43Z</time>
      </trkpt>
      <trkpt lat="46.405031774193048" lon="8.338544508442283">
        <ele>2500.6999999999998</ele>
        <time>2023-06-25T11:12:56Z</time>
      </trkpt>
      <trkpt lat="46.404995061457157" lon="8.338535204529762">
        <ele>2501.5500000000002</ele>
        <time>2023-06-25T11:13:12Z</time>
      </trkpt>
      <trkpt lat="46.404924904927611" lon="8.33851064555347">
        <ele>2502.1199999999999</ele>
        <time>2023-06-25T11:13:29Z</time>
      </trkpt>
      <trkpt lat="46.40491115860641" lon="8.338491953909397">
        <ele>2502.7399999999998</ele>
        <time>2023-06-25T11:13:46Z</time>
      </trkpt>
      <trkpt lat="46.404939070343971" lon="8.338487762957811">
        <ele>2503.4499999999998</ele>
        <time>2023-06-25T11:14:04Z</time>
      </trkpt>
      <trkpt lat="46.404990870505571" lon="8.338551465421915">
        <ele>2503.1500000000001</ele>
        <time>2023-06-25T11:14:16Z</time>
      </trkpt>
      <trkpt lat="46.405054908245802" lon="8.338618436828256">
        <ele>2502.2199999999998</ele>
        <time>2023-06-25T11:14:28Z</time>
      </trkpt>
      <trkpt lat="46.405068403109908" lon="8.338631428778172">
        <ele>2501.7800000000002</ele>
        <time>2023-06-25T11:14:44Z</time>
      </trkpt>
      <trkpt lat="46.405076449736953" lon="8.338682055473328">
        <ele>2501.5900000000001</ele>
        <time>2023-06-25T11:14:57Z</time>
      </trkpt>
      <trkpt lat="46.405036048963666" lon="8.338745925575495">
        <ele>2502.4400000000001</ele>
        <time>2023-06-25T11:15:14Z</time>
      </trkpt>
      <trkpt lat="46.405036300420761" lon="8.33883267827332">
        <ele>2502.3200000000002</ele>
        <time>2023-06-25T11:15:28Z</time>
      </trkpt>
      <trkpt lat="46.405047783628106" lon="8.338864697143436">
        <ele>2502.0100000000002</ele>
        <time>2023-06-25T11:15:31Z</time>
      </trkpt>
      <trkpt lat="46.405073264613748" lon="8.338922616094351">
        <ele>2501.5999999999999</ele>
        <time>2023-06-25T11:15:39Z</time>
      </trkpt>
      <trkpt lat="46.40511492267251" lon="8.339014649391174">
        <ele>2501.25</ele>
        <time>2023-06-25T11:15:53Z</time>
      </trkpt>
      <trkpt lat="46.405164040625095" lon="8.339161584153771">
        <ele>2499.8200000000002</ele>
        <time>2023-06-25T11:16:10Z</time>
      </trkpt>
      <trkpt lat="46.405173679813743" lon="8.33932033739984">
        <ele>2499.6199999999999</ele>
        <time>2023-06-25T11:16:27Z</time>
      </trkpt>
      <trkpt lat="46.405190192162991" lon="8.339469283819199">
        <ele>2498.8899999999999</ele>
        <time>2023-06-25T11:16:42Z</time>
      </trkpt>
      <trkpt lat="46.405200585722923" lon="8.339600041508675">
        <ele>2498.4499999999998</ele>
        <time>2023-06-25T11:16:54Z</time>
      </trkpt>
      <trkpt lat="46.405249955132604" lon="8.339684447273612">
        <ele>2497.4899999999998</ele>
        <time>2023-06-25T11:17:03Z</time>
      </trkpt>
      <trkpt lat="46.405301671475172" lon="8.339781844988465">
        <ele>2497.0599999999999</ele>
        <time>2023-06-25T11:17:15Z</time>
      </trkpt>
      <trkpt lat="46.405343916267157" lon="8.339884942397475">
        <ele>2497.2800000000002</ele>
        <time>2023-06-25T11:17:26Z</time>
      </trkpt>
      <trkpt lat="46.405372079461813" lon="8.339962977916002">
        <ele>2497.6500000000001</ele>
        <time>2023-06-25T11:17:34Z</time>
      </trkpt>
      <trkpt lat="46.405414659529924" lon="8.340088622644544">
        <ele>2497.4899999999998</ele>
        <time>2023-06-25T11:17:48Z</time>
      </trkpt>
      <trkpt lat="46.405481547117233" lon="8.340253327041864">
        <ele>2496.1599999999999</ele>
        <time>2023-06-25T11:18:03Z</time>
      </trkpt>
      <trkpt lat="46.405420359224081" lon="8.340360699221492">
        <ele>2496.25</ele>
        <time>2023-06-25T11:18:18Z</time>
      </trkpt>
      <trkpt lat="46.405407199636102" lon="8.34046371281147">
        <ele>2496.0100000000002</ele>
        <time>2023-06-25T11:18:32Z</time>
      </trkpt>
      <trkpt lat="46.405445169657469" lon="8.340512663125992">
        <ele>2496.73</ele>
        <time>2023-06-25T11:18:48Z</time>
      </trkpt>
      <trkpt lat="46.405432177707553" lon="8.340511824935675">
        <ele>2497.3200000000002</ele>
        <time>2023-06-25T11:19:21Z</time>
      </trkpt>
      <trkpt lat="46.405427735298872" lon="8.340494558215141">
        <ele>2496.4400000000001</ele>
        <time>2023-06-25T11:19:41Z</time>
      </trkpt>
      <trkpt lat="46.405440894886851" lon="8.340496318414807">
        <ele>2495.1799999999998</ele>
        <time>2023-06-25T11:20:14Z</time>
      </trkpt>
      <trkpt lat="46.40542714856565" lon="8.340497575700283">
        <ele>2496.5799999999999</ele>
        <time>2023-06-25T11:20:48Z</time>
      </trkpt>
      <trkpt lat="46.405408373102546" lon="8.340476872399449">
        <ele>2497.71</ele>
        <time>2023-06-25T11:21:26Z</time>
      </trkpt>
      <trkpt lat="46.405414743348956" lon="8.340483829379082">
        <ele>2498.8099999999999</ele>
        <time>2023-06-25T11:21:53Z</time>
      </trkpt>
      <trkpt lat="46.40541834756732" lon="8.340489780530334">
        <ele>2499.5100000000002</ele>
        <time>2023-06-25T11:22:31Z</time>
      </trkpt>
      <trkpt lat="46.405412396416068" lon="8.340477123856545">
        <ele>2500.2800000000002</ele>
        <time>2023-06-25T11:23:09Z</time>
      </trkpt>
      <trkpt lat="46.405420862138271" lon="8.340489445254207">
        <ele>2498.9499999999998</ele>
        <time>2023-06-25T11:23:36Z</time>
      </trkpt>
      <trkpt lat="46.405424969270825" lon="8.340490283444524">
        <ele>2501.8299999999999</ele>
        <time>2023-06-25T11:23:57Z</time>
      </trkpt>
      <trkpt lat="46.405436536297202" lon="8.340484751388431">
        <ele>2502.8499999999999</ele>
        <time>2023-06-25T11:24:26Z</time>
      </trkpt>
      <trkpt lat="46.405443493276834" lon="8.34048860706389">
        <ele>2503.6500000000001</ele>
        <time>2023-06-25T11:24:52Z</time>
      </trkpt>
      <trkpt lat="46.405454808846116" lon="8.340492211282253">
        <ele>2504.2600000000002</ele>
        <time>2023-06-25T11:25:20Z</time>
      </trkpt>
      <trkpt lat="46.40545254573226" lon="8.340481817722321">
        <ele>2504.7399999999998</ele>
        <time>2023-06-25T11:26:16Z</time>
      </trkpt>
      <trkpt lat="46.405441062524915" lon="8.340476956218481">
        <ele>2505.54</ele>
        <time>2023-06-25T11:27:10Z</time>
      </trkpt>
      <trkpt lat="46.405444080010056" lon="8.340481063351035">
        <ele>2505.9200000000001</ele>
        <time>2023-06-25T11:27:58Z</time>
      </trkpt>
      <trkpt lat="46.405441900715232" lon="8.340481063351035">
        <ele>2505.3099999999999</ele>
        <time>2023-06-25T11:28:48Z</time>
      </trkpt>
      <trkpt lat="46.405424131080508" lon="8.34046077914536">
        <ele>2505.71</ele>
        <time>2023-06-25T11:29:35Z</time>
      </trkpt>
      <trkpt lat="46.405422454699874" lon="8.340473100543022">
        <ele>2505.71</ele>
        <time>2023-06-25T11:30:31Z</time>
      </trkpt>
      <trkpt lat="46.405431171879172" lon="8.340479973703623">
        <ele>2504.0799999999999</ele>
        <time>2023-06-25T11:31:15Z</time>
      </trkpt>
      <trkpt lat="46.405432680621743" lon="8.340486595407128">
        <ele>2504.8400000000001</ele>
        <time>2023-06-25T11:31:44Z</time>
      </trkpt>
      <trkpt lat="46.405428154394031" lon="8.34048667922616">
        <ele>2504.1300000000001</ele>
        <time>2023-06-25T11:32:29Z</time>
      </trkpt>
      <trkpt lat="46.405436201021075" lon="8.340476285666227">
        <ele>2504.4000000000001</ele>
        <time>2023-06-25T11:33:19Z</time>
      </trkpt>
      <trkpt lat="46.405436368659139" lon="8.340476369485259">
        <ele>2504.4899999999998</ele>
        <time>2023-06-25T11:34:14Z</time>
      </trkpt>
      <trkpt lat="46.405439134687185" lon="8.340482991188765">
        <ele>2504.6300000000001</ele>
        <time>2023-06-25T11:35:07Z</time>
      </trkpt>
      <trkpt lat="46.405441649258137" lon="8.340495396405459">
        <ele>2503.6700000000001</ele>
        <time>2023-06-25T11:35:56Z</time>
      </trkpt>
      <trkpt lat="46.405431339517236" lon="8.340486846864224">
        <ele>2503.75</ele>
        <time>2023-06-25T11:36:49Z</time>
      </trkpt>
      <trkpt lat="46.405432261526585" lon="8.340481482446194">
        <ele>2503.9699999999998</ele>
        <time>2023-06-25T11:37:36Z</time>
      </trkpt>
      <trkpt lat="46.405437290668488" lon="8.340500425547361">
        <ele>2503.5900000000001</ele>
        <time>2023-06-25T11:38:33Z</time>
      </trkpt>
      <trkpt lat="46.405439302325249" lon="8.340483158826828">
        <ele>2504.25</ele>
        <time>2023-06-25T11:39:27Z</time>
      </trkpt>
      <trkpt lat="46.405443912371993" lon="8.340489026159048">
        <ele>2504.5599999999999</ele>
        <time>2023-06-25T11:40:26Z</time>
      </trkpt>
      <trkpt lat="46.405441565439105" lon="8.340493803843856">
        <ele>2503.6500000000001</ele>
        <time>2023-06-25T11:41:18Z</time>
      </trkpt>
      <trkpt lat="46.405442152172327" lon="8.340486427769065">
        <ele>2503.3499999999999</ele>
        <time>2023-06-25T11:42:14Z</time>
      </trkpt>
      <trkpt lat="46.405430836603045" lon="8.34047838114202">
        <ele>2502.3600000000001</ele>
        <time>2023-06-25T11:43:03Z</time>
      </trkpt>
      <trkpt lat="46.405430668964982" lon="8.340478297322989">
        <ele>2501.04</ele>
        <time>2023-06-25T11:43:59Z</time>
      </trkpt>
      <trkpt lat="46.405438967049122" lon="8.340473854914308">
        <ele>2500.4499999999998</ele>
        <time>2023-06-25T11:44:55Z</time>
      </trkpt>
      <trkpt lat="46.405442738905549" lon="8.340463796630502">
        <ele>2501.1700000000001</ele>
        <time>2023-06-25T11:45:20Z</time>
      </trkpt>
      <trkpt lat="46.405456401407719" lon="8.340470166876912">
        <ele>2501.3800000000001</ele>
        <time>2023-06-25T11:45:58Z</time>
      </trkpt>
      <trkpt lat="46.405456736683846" lon="8.340472849085927">
        <ele>2502.8200000000002</ele>
        <time>2023-06-25T11:46:25Z</time>
      </trkpt>
      <trkpt lat="46.405454389750957" lon="8.340478716418147">
        <ele>2504.1799999999998</ele>
        <time>2023-06-25T11:46:46Z</time>
      </trkpt>
      <trkpt lat="46.405448438599706" lon="8.340481147170067">
        <ele>2504.1100000000001</ele>
        <time>2023-06-25T11:47:18Z</time>
      </trkpt>
      <trkpt lat="46.405447348952293" lon="8.340479889884591">
        <ele>2505.0799999999999</ele>
        <time>2023-06-25T11:48:12Z</time>
      </trkpt>
      <trkpt lat="46.40544374473393" lon="8.340488439425826">
        <ele>2506.7600000000002</ele>
        <time>2023-06-25T11:49:01Z</time>
      </trkpt>
      <trkpt lat="46.405428824946284" lon="8.340491289272904">
        <ele>2508.0900000000001</ele>
        <time>2023-06-25T11:49:57Z</time>
      </trkpt>
      <trkpt lat="46.405425388365984" lon="8.340498330071569">
        <ele>2508.9000000000001</ele>
        <time>2023-06-25T11:50:55Z</time>
      </trkpt>
      <trkpt lat="46.405424382537603" lon="8.340493133291602">
        <ele>2508.5799999999999</ele>
        <time>2023-06-25T11:51:57Z</time>
      </trkpt>
      <trkpt lat="46.405434608459473" lon="8.340489696711302">
        <ele>2508.23</ele>
        <time>2023-06-25T11:52:31Z</time>
      </trkpt>
      <trkpt lat="46.405413905158639" lon="8.340495228767395">
        <ele>2507.7199999999998</ele>
        <time>2023-06-25T11:53:16Z</time>
      </trkpt>
      <trkpt lat="46.405411306768656" lon="8.340507633984089">
        <ele>2509.48</ele>
        <time>2023-06-25T11:53:33Z</time>
      </trkpt>
      <trkpt lat="46.405430249869823" lon="8.340485924854875">
        <ele>2508.8000000000002</ele>
        <time>2023-06-25T11:53:56Z</time>
      </trkpt>
      <trkpt lat="46.405427064746618" lon="8.340486763045192">
        <ele>2508.8099999999999</ele>
        <time>2023-06-25T11:54:23Z</time>
      </trkpt>
      <trkpt lat="46.405416252091527" lon="8.340478464961052">
        <ele>2508.3699999999999</ele>
        <time>2023-06-25T11:54:52Z</time>
      </trkpt>
      <trkpt lat="46.405417257919908" lon="8.340491456910968">
        <ele>2508.3400000000001</ele>
        <time>2023-06-25T11:55:15Z</time>
      </trkpt>
      <trkpt lat="46.405428908765316" lon="8.340487349778414">
        <ele>2508.4099999999999</ele>
        <time>2023-06-25T11:55:35Z</time>
      </trkpt>
      <trkpt lat="46.405480457469821" lon="8.340554321184754">
        <ele>2508.4200000000001</ele>
        <time>2023-06-25T11:55:50Z</time>
      </trkpt>
      <trkpt lat="46.405549021437764" lon="8.340648869052529">
        <ele>2507.6900000000001</ele>
        <time>2023-06-25T11:56:04Z</time>
      </trkpt>
      <trkpt lat="46.40562797896564" lon="8.340747775509954">
        <ele>2508.0900000000001</ele>
        <time>2023-06-25T11:56:18Z</time>
      </trkpt>
      <trkpt lat="46.405719425529242" lon="8.340824972838163">
        <ele>2509.4400000000001</ele>
        <time>2023-06-25T11:56:33Z</time>
      </trkpt>
      <trkpt lat="46.405777428299189" lon="8.340891525149345">
        <ele>2510.6599999999999</ele>
        <time>2023-06-25T11:56:44Z</time>
      </trkpt>
      <trkpt lat="46.405845573171973" lon="8.34098850376904">
        <ele>2511.3299999999999</ele>
        <time>2023-06-25T11:56:58Z</time>
      </trkpt>
      <trkpt lat="46.405920507386327" lon="8.34108523093164">
        <ele>2511.7800000000002</ele>
        <time>2023-06-25T11:57:13Z</time>
      </trkpt>
      <trkpt lat="46.405965518206358" lon="8.341143317520618">
        <ele>2512.9299999999998</ele>
        <time>2023-06-25T11:57:25Z</time>
      </trkpt>
      <trkpt lat="46.406056880950928" lon="8.341212468221784">
        <ele>2513.6999999999998</ele>
        <time>2023-06-25T11:57:39Z</time>
      </trkpt>
      <trkpt lat="46.406104573979974" lon="8.341275081038475">
        <ele>2514.5900000000001</ele>
        <time>2023-06-25T11:57:49Z</time>
      </trkpt>
      <trkpt lat="46.406156793236732" lon="8.341369209811091">
        <ele>2515.6100000000001</ele>
        <time>2023-06-25T11:58:02Z</time>
      </trkpt>
      <trkpt lat="46.406212197616696" lon="8.341476665809751">
        <ele>2516.8800000000001</ele>
        <time>2023-06-25T11:58:16Z</time>
      </trkpt>
      <trkpt lat="46.406233990564942" lon="8.341573728248477">
        <ele>2518.1599999999999</ele>
        <time>2023-06-25T11:58:31Z</time>
      </trkpt>
      <trkpt lat="46.406248407438397" lon="8.341641370207071">
        <ele>2519.5300000000002</ele>
        <time>2023-06-25T11:58:43Z</time>
      </trkpt>
      <trkpt lat="46.406283192336559" lon="8.34174589253962">
        <ele>2521.9099999999999</ele>
        <time>2023-06-25T11:58:58Z</time>
      </trkpt>
      <trkpt lat="46.40635653398931" lon="8.341828202828765">
        <ele>2523.1199999999999</ele>
        <time>2023-06-25T11:59:14Z</time>
      </trkpt>
      <trkpt lat="46.406403640285134" lon="8.341923002153635">
        <ele>2524.04</ele>
        <time>2023-06-25T11:59:27Z</time>
      </trkpt>
      <trkpt lat="46.406458877027035" lon="8.342045210301876">
        <ele>2525.6799999999998</ele>
        <time>2023-06-25T11:59:43Z</time>
      </trkpt>
      <trkpt lat="46.40652752481401" lon="8.342140344902873">
        <ele>2526.23</ele>
        <time>2023-06-25T11:59:58Z</time>
      </trkpt>
      <trkpt lat="46.40661645680666" lon="8.342262385413051">
        <ele>2526.4299999999998</ele>
        <time>2023-06-25T12:00:14Z</time>
      </trkpt>
      <trkpt lat="46.406672699376941" lon="8.34239674732089">
        <ele>2527.1300000000001</ele>
        <time>2023-06-25T12:00:30Z</time>
      </trkpt>
      <trkpt lat="46.406738832592964" lon="8.342522559687495">
        <ele>2527.02</ele>
        <time>2023-06-25T12:00:46Z</time>
      </trkpt>
      <trkpt lat="46.406784681603312" lon="8.342614928260446">
        <ele>2526</ele>
        <time>2023-06-25T12:00:59Z</time>
      </trkpt>
      <trkpt lat="46.406832709908485" lon="8.342686258256435">
        <ele>2525.4000000000001</ele>
        <time>2023-06-25T12:01:14Z</time>
      </trkpt>
      <trkpt lat="46.406864561140537" lon="8.342781728133559">
        <ele>2525.1300000000001</ele>
        <time>2023-06-25T12:01:28Z</time>
      </trkpt>
      <trkpt lat="46.406892137601972" lon="8.342872001230717">
        <ele>2525.0799999999999</ele>
        <time>2023-06-25T12:01:42Z</time>
      </trkpt>
      <trkpt lat="46.406936561688781" lon="8.342950120568276">
        <ele>2523.4699999999998</ele>
        <time>2023-06-25T12:01:58Z</time>
      </trkpt>
      <trkpt lat="46.406992133706808" lon="8.343019858002663">
        <ele>2521.9400000000001</ele>
        <time>2023-06-25T12:02:13Z</time>
      </trkpt>
      <trkpt lat="46.407076204195619" lon="8.343090936541557">
        <ele>2520.1599999999999</ele>
        <time>2023-06-25T12:02:29Z</time>
      </trkpt>
      <trkpt lat="46.407109396532178" lon="8.343203505501151">
        <ele>2520.4400000000001</ele>
        <time>2023-06-25T12:02:43Z</time>
      </trkpt>
      <trkpt lat="46.407154574990273" lon="8.343301070854068">
        <ele>2520.54</ele>
        <time>2023-06-25T12:02:56Z</time>
      </trkpt>
      <trkpt lat="46.40721064992249" lon="8.343404084444046">
        <ele>2520.6500000000001</ele>
        <time>2023-06-25T12:03:11Z</time>
      </trkpt>
      <trkpt lat="46.407253481447697" lon="8.343481784686446">
        <ele>2521.3200000000002</ele>
        <time>2023-06-25T12:03:26Z</time>
      </trkpt>
      <trkpt lat="46.407319279387593" lon="8.343559065833688">
        <ele>2522.3400000000001</ele>
        <time>2023-06-25T12:03:40Z</time>
      </trkpt>
      <trkpt lat="46.407350795343518" lon="8.343624863773584">
        <ele>2523.1500000000001</ele>
        <time>2023-06-25T12:03:53Z</time>
      </trkpt>
      <trkpt lat="46.407429669052362" lon="8.343712789937854">
        <ele>2522.3000000000002</ele>
        <time>2023-06-25T12:04:09Z</time>
      </trkpt>
      <trkpt lat="46.407461855560541" lon="8.343794345855713">
        <ele>2523.8899999999999</ele>
        <time>2023-06-25T12:04:23Z</time>
      </trkpt>
      <trkpt lat="46.407510889694095" lon="8.343840027227998">
        <ele>2524.3499999999999</ele>
        <time>2023-06-25T12:04:31Z</time>
      </trkpt>
      <trkpt lat="46.407592445611954" lon="8.343910770490766">
        <ele>2524.9000000000001</ele>
        <time>2023-06-25T12:04:46Z</time>
      </trkpt>
      <trkpt lat="46.407632427290082" lon="8.344011940062046">
        <ele>2526.1700000000001</ele>
        <time>2023-06-25T12:05:01Z</time>
      </trkpt>
      <trkpt lat="46.40771146863699" lon="8.344087125733495">
        <ele>2526.6300000000001</ele>
        <time>2023-06-25T12:05:16Z</time>
      </trkpt>
      <trkpt lat="46.407765280455351" lon="8.344160048291087">
        <ele>2526.9099999999999</ele>
        <time>2023-06-25T12:05:28Z</time>
      </trkpt>
      <trkpt lat="46.407787660136819" lon="8.344191731885076">
        <ele>2527.1100000000001</ele>
        <time>2023-06-25T12:05:41Z</time>
      </trkpt>
      <trkpt lat="46.40782194212079" lon="8.344210842624307">
        <ele>2527.73</ele>
        <time>2023-06-25T12:05:54Z</time>
      </trkpt>
      <trkpt lat="46.407826719805598" lon="8.344219978898764">
        <ele>2527.9299999999998</ele>
        <time>2023-06-25T12:06:13Z</time>
      </trkpt>
      <trkpt lat="46.407826216891408" lon="8.344217212870717">
        <ele>2528.3699999999999</ele>
        <time>2023-06-25T12:06:32Z</time>
      </trkpt>
      <trkpt lat="46.407813392579556" lon="8.344229366630316">
        <ele>2527.1999999999998</ele>
        <time>2023-06-25T12:07:00Z</time>
      </trkpt>
      <trkpt lat="46.407822109758854" lon="8.344243615865707">
        <ele>2527.6300000000001</ele>
        <time>2023-06-25T12:07:27Z</time>
      </trkpt>
      <trkpt lat="46.407837448641658" lon="8.344269935041666">
        <ele>2527.6199999999999</ele>
        <time>2023-06-25T12:07:43Z</time>
      </trkpt>
      <trkpt lat="46.407893355935812" lon="8.344318214803934">
        <ele>2528.2600000000002</ele>
        <time>2023-06-25T12:07:56Z</time>
      </trkpt>
      <trkpt lat="46.407933002337813" lon="8.344387616962194">
        <ele>2529.9899999999998</ele>
        <time>2023-06-25T12:08:10Z</time>
      </trkpt>
      <trkpt lat="46.407980695366859" lon="8.344440003857017">
        <ele>2530.79</ele>
        <time>2023-06-25T12:08:23Z</time>
      </trkpt>
      <trkpt lat="46.40803693793714" lon="8.344477973878384">
        <ele>2531.96</ele>
        <time>2023-06-25T12:08:36Z</time>
      </trkpt>
      <trkpt lat="46.40805353410542" lon="8.344531869515777">
        <ele>2533.1900000000001</ele>
        <time>2023-06-25T12:08:48Z</time>
      </trkpt>
      <trkpt lat="46.408108938485384" lon="8.34460437297821">
        <ele>2533.9200000000001</ele>
        <time>2023-06-25T12:09:03Z</time>
      </trkpt>
      <trkpt lat="46.408182112500072" lon="8.344669751822949">
        <ele>2535.0599999999999</ele>
        <time>2023-06-25T12:09:17Z</time>
      </trkpt>
      <trkpt lat="46.408203402534127" lon="8.344733286648989">
        <ele>2538.5799999999999</ele>
        <time>2023-06-25T12:09:30Z</time>
      </trkpt>
      <trkpt lat="46.408268278464675" lon="8.344768825918436">
        <ele>2540.3699999999999</ele>
        <time>2023-06-25T12:09:44Z</time>
      </trkpt>
      <trkpt lat="46.408308427780867" lon="8.344829929992557">
        <ele>2541.79</ele>
        <time>2023-06-25T12:09:58Z</time>
      </trkpt>
      <trkpt lat="46.408308846876025" lon="8.344898913055658">
        <ele>2542.6999999999998</ele>
        <time>2023-06-25T12:10:13Z</time>
      </trkpt>
      <trkpt lat="46.408390989527106" lon="8.34498499520123">
        <ele>2543.3499999999999</ele>
        <time>2023-06-25T12:10:30Z</time>
      </trkpt>
      <trkpt lat="46.408478580415249" lon="8.345019025728107">
        <ele>2542.5</ele>
        <time>2023-06-25T12:10:45Z</time>
      </trkpt>
      <trkpt lat="46.408517472445965" lon="8.34507686085999">
        <ele>2543.48</ele>
        <time>2023-06-25T12:10:58Z</time>
      </trkpt>
      <trkpt lat="46.408581845462322" lon="8.345169564709067">
        <ele>2542.7600000000002</ele>
        <time>2023-06-25T12:11:12Z</time>
      </trkpt>
      <trkpt lat="46.40864915214479" lon="8.345236033201218">
        <ele>2542.8899999999999</ele>
        <time>2023-06-25T12:11:26Z</time>
      </trkpt>
      <trkpt lat="46.408701622858644" lon="8.345302417874336">
        <ele>2544.3899999999999</ele>
        <time>2023-06-25T12:11:38Z</time>
      </trkpt>
      <trkpt lat="46.408707154914737" lon="8.345355810597539">
        <ele>2545.3099999999999</ele>
        <time>2023-06-25T12:11:45Z</time>
      </trkpt>
      <trkpt lat="46.408736575394869" lon="8.345436444506049">
        <ele>2546.3400000000001</ele>
        <time>2023-06-25T12:11:57Z</time>
      </trkpt>
      <trkpt lat="46.408772030845284" lon="8.345534428954125">
        <ele>2548.3200000000002</ele>
        <time>2023-06-25T12:12:13Z</time>
      </trkpt>
      <trkpt lat="46.408781837671995" lon="8.345611793920398">
        <ele>2549.02</ele>
        <time>2023-06-25T12:12:25Z</time>
      </trkpt>
      <trkpt lat="46.408797176554799" lon="8.345687314867973">
        <ele>2549.3099999999999</ele>
        <time>2023-06-25T12:12:37Z</time>
      </trkpt>
      <trkpt lat="46.408817376941442" lon="8.345764428377152">
        <ele>2550.21</ele>
        <time>2023-06-25T12:12:51Z</time>
      </trkpt>
      <trkpt lat="46.408867165446281" lon="8.34583860822022">
        <ele>2552.5300000000002</ele>
        <time>2023-06-25T12:13:07Z</time>
      </trkpt>
      <trkpt lat="46.408913349732757" lon="8.34589283913374">
        <ele>2551.8000000000002</ele>
        <time>2023-06-25T12:13:19Z</time>
      </trkpt>
      <trkpt lat="46.40898778103292" lon="8.345949249342084">
        <ele>2551.6599999999999</ele>
        <time>2023-06-25T12:13:32Z</time>
      </trkpt>
      <trkpt lat="46.409035222604871" lon="8.345997529104352">
        <ele>2551.5500000000002</ele>
        <time>2023-06-25T12:13:44Z</time>
      </trkpt>
      <trkpt lat="46.409035641700029" lon="8.346041366457939">
        <ele>2550.7199999999998</ele>
        <time>2023-06-25T12:14:04Z</time>
      </trkpt>
      <trkpt lat="46.409058775752783" lon="8.346078330650926">
        <ele>2551.48</ele>
        <time>2023-06-25T12:14:18Z</time>
      </trkpt>
      <trkpt lat="46.409092806279659" lon="8.346135998144746">
        <ele>2551.7600000000002</ele>
        <time>2023-06-25T12:14:33Z</time>
      </trkpt>
      <trkpt lat="46.409117700532079" lon="8.346177488565445">
        <ele>2551.8000000000002</ele>
        <time>2023-06-25T12:14:46Z</time>
      </trkpt>
      <trkpt lat="46.40915441326797" lon="8.346199113875628">
        <ele>2551.3099999999999</ele>
        <time>2023-06-25T12:15:02Z</time>
      </trkpt>
      <trkpt lat="46.409161956980824" lon="8.346215123310685">
        <ele>2550.5100000000002</ele>
        <time>2023-06-25T12:15:16Z</time>
      </trkpt>
      <trkpt lat="46.409181235358119" lon="8.346264576539397">
        <ele>2550.96</ele>
        <time>2023-06-25T12:15:31Z</time>
      </trkpt>
      <trkpt lat="46.409210488200188" lon="8.346331128850579">
        <ele>2550.96</ele>
        <time>2023-06-25T12:15:42Z</time>
      </trkpt>
      <trkpt lat="46.409233873710036" lon="8.346400447189808">
        <ele>2551.1199999999999</ele>
        <time>2023-06-25T12:15:55Z</time>
      </trkpt>
      <trkpt lat="46.409235550090671" lon="8.3464474696666">
        <ele>2551.46</ele>
        <time>2023-06-25T12:16:09Z</time>
      </trkpt>
      <trkpt lat="46.40926874242723" lon="8.34649289958179">
        <ele>2552.21</ele>
        <time>2023-06-25T12:16:24Z</time>
      </trkpt>
      <trkpt lat="46.409324901178479" lon="8.346561882644892">
        <ele>2552.7199999999998</ele>
        <time>2023-06-25T12:16:39Z</time>
      </trkpt>
      <trkpt lat="46.409379467368126" lon="8.346601529046893">
        <ele>2553.3499999999999</ele>
        <time>2023-06-25T12:16:51Z</time>
      </trkpt>
      <trkpt lat="46.409382233396173" lon="8.346682917326689">
        <ele>2555.0599999999999</ele>
        <time>2023-06-25T12:17:06Z</time>
      </trkpt>
      <trkpt lat="46.409366140142083" lon="8.346784338355064">
        <ele>2555.5500000000002</ele>
        <time>2023-06-25T12:17:19Z</time>
      </trkpt>
      <trkpt lat="46.409394722431898" lon="8.346868911758065">
        <ele>2556.7600000000002</ele>
        <time>2023-06-25T12:17:32Z</time>
      </trkpt>
      <trkpt lat="46.409403942525387" lon="8.346983073279262">
        <ele>2558.3800000000001</ele>
        <time>2023-06-25T12:17:46Z</time>
      </trkpt>
      <trkpt lat="46.409412743523717" lon="8.347079297527671">
        <ele>2559.3000000000002</ele>
        <time>2023-06-25T12:18:01Z</time>
      </trkpt>
      <trkpt lat="46.40940997749567" lon="8.347084913402796">
        <ele>2558.5100000000002</ele>
        <time>2023-06-25T12:18:21Z</time>
      </trkpt>
      <trkpt lat="46.409393632784486" lon="8.347090613096952">
        <ele>2558.1500000000001</ele>
        <time>2023-06-25T12:18:46Z</time>
      </trkpt>
      <trkpt lat="46.40939187258482" lon="8.34708315320313">
        <ele>2558.8299999999999</ele>
        <time>2023-06-25T12:19:05Z</time>
      </trkpt>
      <trkpt lat="46.40940167941153" lon="8.347105951979756">
        <ele>2558.1300000000001</ele>
        <time>2023-06-25T12:19:23Z</time>
      </trkpt>
      <trkpt lat="46.409462867304683" lon="8.3471813891083">
        <ele>2558.5900000000001</ele>
        <time>2023-06-25T12:19:36Z</time>
      </trkpt>
      <trkpt lat="46.40953260473907" lon="8.347217263653874">
        <ele>2559.8200000000002</ele>
        <time>2023-06-25T12:19:49Z</time>
      </trkpt>
      <trkpt lat="46.409566970542073" lon="8.347259173169732">
        <ele>2561.52</ele>
        <time>2023-06-25T12:20:03Z</time>
      </trkpt>
      <trkpt lat="46.409565545618534" lon="8.347316756844521">
        <ele>2562.8699999999999</ele>
        <time>2023-06-25T12:20:18Z</time>
      </trkpt>
      <trkpt lat="46.409590104594827" lon="8.34738465026021">
        <ele>2563.9000000000001</ele>
        <time>2023-06-25T12:20:30Z</time>
      </trkpt>
      <trkpt lat="46.409675935283303" lon="8.347432175651193">
        <ele>2563.5100000000002</ele>
        <time>2023-06-25T12:20:45Z</time>
      </trkpt>
      <trkpt lat="46.409714827314019" lon="8.347491854801774">
        <ele>2564.3299999999999</ele>
        <time>2023-06-25T12:20:56Z</time>
      </trkpt>
      <trkpt lat="46.409731926396489" lon="8.347593862563372">
        <ele>2566.25</ele>
        <time>2023-06-25T12:21:11Z</time>
      </trkpt>
      <trkpt lat="46.409743577241898" lon="8.347669132053852">
        <ele>2567.1300000000001</ele>
        <time>2023-06-25T12:21:26Z</time>
      </trkpt>
      <trkpt lat="46.409756485372782" lon="8.347750352695584">
        <ele>2568.1900000000001</ele>
        <time>2023-06-25T12:21:40Z</time>
      </trkpt>
      <trkpt lat="46.409734357148409" lon="8.347822688519955">
        <ele>2570.3499999999999</ele>
        <time>2023-06-25T12:21:54Z</time>
      </trkpt>
      <trkpt lat="46.409728825092316" lon="8.347887648269534">
        <ele>2571.4899999999998</ele>
        <time>2023-06-25T12:22:09Z</time>
      </trkpt>
      <trkpt lat="46.40971876680851" lon="8.347943471744657">
        <ele>2572.3200000000002</ele>
        <time>2023-06-25T12:22:23Z</time>
      </trkpt>
      <trkpt lat="46.409700745716691" lon="8.347986387088895">
        <ele>2572.7399999999998</ele>
        <time>2023-06-25T12:22:39Z</time>
      </trkpt>
      <trkpt lat="46.409684903919697" lon="8.34802620112896">
        <ele>2573.6500000000001</ele>
        <time>2023-06-25T12:22:54Z</time>
      </trkpt>
      <trkpt lat="46.409664284437895" lon="8.348051263019443">
        <ele>2574.5</ele>
        <time>2023-06-25T12:23:08Z</time>
      </trkpt>
      <trkpt lat="46.409652214497328" lon="8.348088227212429">
        <ele>2576.2199999999998</ele>
        <time>2023-06-25T12:23:22Z</time>
      </trkpt>
      <trkpt lat="46.409654477611184" lon="8.348162909969688">
        <ele>2579.23</ele>
        <time>2023-06-25T12:23:38Z</time>
      </trkpt>
      <trkpt lat="46.409660093486309" lon="8.348246309906244">
        <ele>2582.7600000000002</ele>
        <time>2023-06-25T12:23:53Z</time>
      </trkpt>
      <trkpt lat="46.409702422097325" lon="8.348347060382366">
        <ele>2585.5700000000002</ele>
        <time>2023-06-25T12:24:08Z</time>
      </trkpt>
      <trkpt lat="46.40973393805325" lon="8.348379749804735">
        <ele>2586.04</ele>
        <time>2023-06-25T12:24:26Z</time>
      </trkpt>
      <trkpt lat="46.409740559756756" lon="8.348396765068173">
        <ele>2586.3099999999999</ele>
        <time>2023-06-25T12:24:41Z</time>
      </trkpt>
      <trkpt lat="46.40976713038981" lon="8.348507741466165">
        <ele>2587.98</ele>
        <time>2023-06-25T12:24:53Z</time>
      </trkpt>
      <trkpt lat="46.409786827862263" lon="8.348660208284855">
        <ele>2587.77</ele>
        <time>2023-06-25T12:25:08Z</time>
      </trkpt>
      <trkpt lat="46.40977693721652" lon="8.348654760047793">
        <ele>2587.9400000000001</ele>
        <time>2023-06-25T12:25:25Z</time>
      </trkpt>
      <trkpt lat="46.409778781235218" lon="8.348660711199045">
        <ele>2587.9400000000001</ele>
        <time>2023-06-25T12:25:41Z</time>
      </trkpt>
      <trkpt lat="46.409776685759425" lon="8.34867219440639">
        <ele>2587.7800000000002</ele>
        <time>2023-06-25T12:26:02Z</time>
      </trkpt>
      <trkpt lat="46.409776099026203" lon="8.348669596016407">
        <ele>2587.2800000000002</ele>
        <time>2023-06-25T12:26:23Z</time>
      </trkpt>
      <trkpt lat="46.409779451787472" lon="8.348671440035105">
        <ele>2587.3099999999999</ele>
        <time>2023-06-25T12:26:44Z</time>
      </trkpt>
      <trkpt lat="46.409778110682964" lon="8.348753834143281">
        <ele>2587</ele>
        <time>2023-06-25T12:27:01Z</time>
      </trkpt>
      <trkpt lat="46.409788755699992" lon="8.348810328170657">
        <ele>2586.3200000000002</ele>
        <time>2023-06-25T12:27:15Z</time>
      </trkpt>
      <trkpt lat="46.409784480929375" lon="8.34880999289453">
        <ele>2585.3600000000001</ele>
        <time>2023-06-25T12:27:38Z</time>
      </trkpt>
      <trkpt lat="46.409789258614182" lon="8.348817452788353">
        <ele>2584.9499999999998</ele>
        <time>2023-06-25T12:28:07Z</time>
      </trkpt>
      <trkpt lat="46.409784480929375" lon="8.348808651790023">
        <ele>2584.6300000000001</ele>
        <time>2023-06-25T12:28:31Z</time>
      </trkpt>
      <trkpt lat="46.409781547263265" lon="8.348798509687185">
        <ele>2583.96</ele>
        <time>2023-06-25T12:29:03Z</time>
      </trkpt>
      <trkpt lat="46.409778948873281" lon="8.348791971802712">
        <ele>2583.8200000000002</ele>
        <time>2023-06-25T12:29:26Z</time>
      </trkpt>
      <trkpt lat="46.409805351868272" lon="8.348807394504547">
        <ele>2583</ele>
        <time>2023-06-25T12:29:53Z</time>
      </trkpt>
      <trkpt lat="46.409829910844564" lon="8.348824661225081">
        <ele>2582.4099999999999</ele>
        <time>2023-06-25T12:30:13Z</time>
      </trkpt>
      <trkpt lat="46.409833850339055" lon="8.348828349262476">
        <ele>2582.25</ele>
        <time>2023-06-25T12:30:43Z</time>
      </trkpt>
      <trkpt lat="46.409832090139389" lon="8.348828768357635">
        <ele>2582.1399999999999</ele>
        <time>2023-06-25T12:31:23Z</time>
      </trkpt>
      <trkpt lat="46.409836448729038" lon="8.348818877711892">
        <ele>2582.6399999999999</ele>
        <time>2023-06-25T12:31:48Z</time>
      </trkpt>
      <trkpt lat="46.409946503117681" lon="8.348874701187015">
        <ele>2581.6300000000001</ele>
        <time>2023-06-25T12:32:05Z</time>
      </trkpt>
      <trkpt lat="46.410022359341383" lon="8.348919041454792">
        <ele>2580.5599999999999</ele>
        <time>2023-06-25T12:32:21Z</time>
      </trkpt>
      <trkpt lat="46.410037027671933" lon="8.349032029509544">
        <ele>2580.27</ele>
        <time>2023-06-25T12:32:37Z</time>
      </trkpt>
      <trkpt lat="46.410093437880278" lon="8.349129091948271">
        <ele>2581.1199999999999</ele>
        <time>2023-06-25T12:32:50Z</time>
      </trkpt>
      <trkpt lat="46.410131743177772" lon="8.349227495491505">
        <ele>2581.5500000000002</ele>
        <time>2023-06-25T12:33:03Z</time>
      </trkpt>
      <trkpt lat="46.410193517804146" lon="8.349293461069465">
        <ele>2582.6100000000001</ele>
        <time>2023-06-25T12:33:15Z</time>
      </trkpt>
      <trkpt lat="46.410264680162072" lon="8.3493797108531">
        <ele>2583.4200000000001</ele>
        <time>2023-06-25T12:33:29Z</time>
      </trkpt>
      <trkpt lat="46.410382529720664" lon="8.349446430802345">
        <ele>2584.3800000000001</ele>
        <time>2023-06-25T12:33:46Z</time>
      </trkpt>
      <trkpt lat="46.410453859716654" lon="8.349544918164611">
        <ele>2586.0799999999999</ele>
        <time>2023-06-25T12:34:00Z</time>
      </trkpt>
      <trkpt lat="46.410523345693946" lon="8.349577859044075">
        <ele>2587.7800000000002</ele>
        <time>2023-06-25T12:34:13Z</time>
      </trkpt>
      <trkpt lat="46.410584282130003" lon="8.349635358899832">
        <ele>2589.4299999999998</ele>
        <time>2023-06-25T12:34:26Z</time>
      </trkpt>
      <trkpt lat="46.410634238272905" lon="8.34967777132988">
        <ele>2590.73</ele>
        <time>2023-06-25T12:34:38Z</time>
      </trkpt>
      <trkpt lat="46.410689558833838" lon="8.349731247872114">
        <ele>2592.7600000000002</ele>
        <time>2023-06-25T12:34:52Z</time>
      </trkpt>
      <trkpt lat="46.41073951497674" lon="8.349808529019356">
        <ele>2594.9200000000001</ele>
        <time>2023-06-25T12:35:07Z</time>
      </trkpt>
      <trkpt lat="46.410796009004116" lon="8.349841553717852">
        <ele>2597.3699999999999</ele>
        <time>2023-06-25T12:35:21Z</time>
      </trkpt>
      <trkpt lat="46.410849234089255" lon="8.349885810166597">
        <ele>2598.0599999999999</ele>
        <time>2023-06-25T12:35:33Z</time>
      </trkpt>
      <trkpt lat="46.410853927955031" lon="8.349913638085127">
        <ele>2597.6999999999998</ele>
        <time>2023-06-25T12:35:49Z</time>
      </trkpt>
      <trkpt lat="46.410889718681574" lon="8.350025536492467">
        <ele>2598.3400000000001</ele>
        <time>2023-06-25T12:36:06Z</time>
      </trkpt>
      <trkpt lat="46.410897094756365" lon="8.350139195099473">
        <ele>2597.8099999999999</ele>
        <time>2023-06-25T12:36:19Z</time>
      </trkpt>
      <trkpt lat="46.41095794737339" lon="8.350224439054728">
        <ele>2598.6700000000001</ele>
        <time>2023-06-25T12:36:33Z</time>
      </trkpt>
      <trkpt lat="46.4110126812011" lon="8.350244555622339">
        <ele>2599.0700000000002</ele>
        <time>2023-06-25T12:36:42Z</time>
      </trkpt>
      <trkpt lat="46.411107396706939" lon="8.35025729611516">
        <ele>2600.4400000000001</ele>
        <time>2023-06-25T12:36:56Z</time>
      </trkpt>
      <trkpt lat="46.411227006465197" lon="8.350218906998634">
        <ele>2598.5500000000002</ele>
        <time>2023-06-25T12:37:11Z</time>
      </trkpt>
      <trkpt lat="46.411307221278548" lon="8.350251764059067">
        <ele>2599.6399999999999</ele>
        <time>2023-06-25T12:37:25Z</time>
      </trkpt>
      <trkpt lat="46.411419538781047" lon="8.350282860919833">
        <ele>2601.1300000000001</ele>
        <time>2023-06-25T12:37:41Z</time>
      </trkpt>
      <trkpt lat="46.411446360871196" lon="8.350282609462738">
        <ele>2601.46</ele>
        <time>2023-06-25T12:37:44Z</time>
      </trkpt>
      <trkpt lat="46.411586925387383" lon="8.350271126255393">
        <ele>2599.9400000000001</ele>
        <time>2023-06-25T12:38:00Z</time>
      </trkpt>
      <trkpt lat="46.411676611751318" lon="8.350342875346541">
        <ele>2600.21</ele>
        <time>2023-06-25T12:38:15Z</time>
      </trkpt>
      <trkpt lat="46.411813739687204" lon="8.350435076281428">
        <ele>2600.6700000000001</ele>
        <time>2023-06-25T12:38:34Z</time>
      </trkpt>
      <trkpt lat="46.411901833489537" lon="8.350517973303795">
        <ele>2602.3699999999999</ele>
        <time>2023-06-25T12:38:49Z</time>
      </trkpt>
      <trkpt lat="46.411965619772673" lon="8.350571533665061">
        <ele>2603.6500000000001</ele>
        <time>2023-06-25T12:39:01Z</time>
      </trkpt>
      <trkpt lat="46.412040051072836" lon="8.350654095411301">
        <ele>2604.77</ele>
        <time>2023-06-25T12:39:16Z</time>
      </trkpt>
      <trkpt lat="46.412067376077175" lon="8.350717294961214">
        <ele>2605.3000000000002</ele>
        <time>2023-06-25T12:39:35Z</time>
      </trkpt>
      <trkpt lat="46.412125378847122" lon="8.350828606635332">
        <ele>2607.6700000000001</ele>
        <time>2023-06-25T12:39:50Z</time>
      </trkpt>
      <trkpt lat="46.412180783227086" lon="8.350905301049352">
        <ele>2608.6900000000001</ele>
        <time>2023-06-25T12:40:03Z</time>
      </trkpt>
      <trkpt lat="46.412188829854131" lon="8.351022563874722">
        <ele>2610.54</ele>
        <time>2023-06-25T12:40:17Z</time>
      </trkpt>
      <trkpt lat="46.4122215192765" lon="8.351080231368542">
        <ele>2611.2600000000002</ele>
        <time>2023-06-25T12:40:31Z</time>
      </trkpt>
      <trkpt lat="46.412220345810056" lon="8.351110825315118">
        <ele>2611.1700000000001</ele>
        <time>2023-06-25T12:40:47Z</time>
      </trkpt>
      <trkpt lat="46.412248760461807" lon="8.351139994338155">
        <ele>2611.29</ele>
        <time>2023-06-25T12:41:07Z</time>
      </trkpt>
      <trkpt lat="46.412299973890185" lon="8.35120034404099">
        <ele>2612.2199999999998</ele>
        <time>2023-06-25T12:41:23Z</time>
      </trkpt>
      <trkpt lat="46.412361664697528" lon="8.351258095353842">
        <ele>2614.6900000000001</ele>
        <time>2023-06-25T12:41:39Z</time>
      </trkpt>
      <trkpt lat="46.412409190088511" lon="8.351295562461019">
        <ele>2617.1999999999998</ele>
        <time>2023-06-25T12:41:52Z</time>
      </trkpt>
      <trkpt lat="46.412436598911881" lon="8.35134694352746">
        <ele>2618.6799999999998</ele>
        <time>2023-06-25T12:42:06Z</time>
      </trkpt>
      <trkpt lat="46.41247121617198" lon="8.351360103115439">
        <ele>2619.9899999999998</ele>
        <time>2023-06-25T12:42:20Z</time>
      </trkpt>
      <trkpt lat="46.412521088495851" lon="8.351379968225956">
        <ele>2622.0900000000001</ele>
        <time>2023-06-25T12:42:36Z</time>
      </trkpt>
      <trkpt lat="46.412560567259789" lon="8.351392205804586">
        <ele>2623.29</ele>
        <time>2023-06-25T12:42:51Z</time>
      </trkpt>
      <trkpt lat="46.412570541724563" lon="8.351396983489394">
        <ele>2623.0799999999999</ele>
        <time>2023-06-25T12:43:03Z</time>
      </trkpt>
      <trkpt lat="46.412607086822391" lon="8.351387344300747">
        <ele>2624.4200000000001</ele>
        <time>2023-06-25T12:43:18Z</time>
      </trkpt>
      <trkpt lat="46.412643548101187" lon="8.351457584649324">
        <ele>2626.21</ele>
        <time>2023-06-25T12:43:33Z</time>
      </trkpt>
      <trkpt lat="46.412696018815041" lon="8.351494800299406">
        <ele>2627.9899999999998</ele>
        <time>2023-06-25T12:43:46Z</time>
      </trkpt>
      <trkpt lat="46.412698701024055" lon="8.351497733965516">
        <ele>2627.4099999999999</ele>
        <time>2023-06-25T12:44:16Z</time>
      </trkpt>
      <trkpt lat="46.412689816206694" lon="8.351501673460007">
        <ele>2626.1599999999999</ele>
        <time>2023-06-25T12:44:47Z</time>
      </trkpt>
      <trkpt lat="46.412693336606026" lon="8.351507456973195">
        <ele>2626.9200000000001</ele>
        <time>2023-06-25T12:45:16Z</time>
      </trkpt>
      <trkpt lat="46.41268721781671" lon="8.351511396467686">
        <ele>2626.5100000000002</ele>
        <time>2023-06-25T12:45:39Z</time>
      </trkpt>
      <trkpt lat="46.412697359919548" lon="8.351499158889055">
        <ele>2626.6999999999998</ele>
        <time>2023-06-25T12:46:02Z</time>
      </trkpt>
      <trkpt lat="46.41271211206913" lon="8.351502930745482">
        <ele>2626.9299999999998</ele>
        <time>2023-06-25T12:46:26Z</time>
      </trkpt>
      <trkpt lat="46.412707837298512" lon="8.351500667631626">
        <ele>2627.9899999999998</ele>
        <time>2023-06-25T12:46:58Z</time>
      </trkpt>
      <trkpt lat="46.4127101842314" lon="8.351590689271689">
        <ele>2629.5999999999999</ele>
        <time>2023-06-25T12:47:19Z</time>
      </trkpt>
      <trkpt lat="46.412704903632402" lon="8.351682471111417">
        <ele>2631.23</ele>
        <time>2023-06-25T12:47:35Z</time>
      </trkpt>
      <trkpt lat="46.412713956087828" lon="8.351785903796554">
        <ele>2633.4899999999998</ele>
        <time>2023-06-25T12:47:51Z</time>
      </trkpt>
      <trkpt lat="46.412699120119214" lon="8.351893275976181">
        <ele>2635.8600000000001</ele>
        <time>2023-06-25T12:48:10Z</time>
      </trkpt>
      <trkpt lat="46.412690989673138" lon="8.351992517709732">
        <ele>2637.8600000000001</ele>
        <time>2023-06-25T12:48:25Z</time>
      </trkpt>
      <trkpt lat="46.412683613598347" lon="8.352082371711731">
        <ele>2641.0599999999999</ele>
        <time>2023-06-25T12:48:41Z</time>
      </trkpt>
      <trkpt lat="46.412670370191336" lon="8.352147080004215">
        <ele>2642.3699999999999</ele>
        <time>2023-06-25T12:48:56Z</time>
      </trkpt>
      <trkpt lat="46.412670873105526" lon="8.352202819660306">
        <ele>2644.9699999999998</ele>
        <time>2023-06-25T12:49:10Z</time>
      </trkpt>
      <trkpt lat="46.412681601941586" lon="8.352287225425243">
        <ele>2648.54</ele>
        <time>2023-06-25T12:49:29Z</time>
      </trkpt>
      <trkpt lat="46.412702221423388" lon="8.352351346984506">
        <ele>2651.0500000000002</ele>
        <time>2023-06-25T12:49:46Z</time>
      </trkpt>
      <trkpt lat="46.412709094583988" lon="8.352462658658624">
        <ele>2652.8400000000001</ele>
        <time>2023-06-25T12:50:03Z</time>
      </trkpt>
      <trkpt lat="46.412710016593337" lon="8.352552345022559">
        <ele>2656.02</ele>
        <time>2023-06-25T12:50:18Z</time>
      </trkpt>
      <trkpt lat="46.412724601104856" lon="8.352641109377146">
        <ele>2657.9499999999998</ele>
        <time>2023-06-25T12:50:36Z</time>
      </trkpt>
      <trkpt lat="46.412743292748928" lon="8.352776896208525">
        <ele>2659.96</ele>
        <time>2023-06-25T12:50:53Z</time>
      </trkpt>
      <trkpt lat="46.412750836461782" lon="8.352917796000838">
        <ele>2662.9899999999998</ele>
        <time>2023-06-25T12:51:13Z</time>
      </trkpt>
      <trkpt lat="46.412768857553601" lon="8.352993903681636">
        <ele>2665.29</ele>
        <time>2023-06-25T12:51:28Z</time>
      </trkpt>
      <trkpt lat="46.412785537540913" lon="8.353085685521364">
        <ele>2667.5700000000002</ele>
        <time>2023-06-25T12:51:42Z</time>
      </trkpt>
      <trkpt lat="46.412825938314199" lon="8.353116866201162">
        <ele>2669.5500000000002</ele>
        <time>2023-06-25T12:51:57Z</time>
      </trkpt>
      <trkpt lat="46.412827949970961" lon="8.353207977488637">
        <ele>2671.0599999999999</ele>
        <time>2023-06-25T12:52:13Z</time>
      </trkpt>
      <trkpt lat="46.412827782332897" lon="8.35325064137578">
        <ele>2671.4899999999998</ele>
        <time>2023-06-25T12:52:34Z</time>
      </trkpt>
      <trkpt lat="46.412844797596335" lon="8.353319205343723">
        <ele>2672.75</ele>
        <time>2023-06-25T12:52:51Z</time>
      </trkpt>
      <trkpt lat="46.412877822294831" lon="8.353427667170763">
        <ele>2675.46</ele>
        <time>2023-06-25T12:53:08Z</time>
      </trkpt>
      <trkpt lat="46.412920905277133" lon="8.353514252230525">
        <ele>2677.8200000000002</ele>
        <time>2023-06-25T12:53:26Z</time>
      </trkpt>
      <trkpt lat="46.412954181432724" lon="8.353600669652224">
        <ele>2680.1599999999999</ele>
        <time>2023-06-25T12:53:39Z</time>
      </trkpt>
      <trkpt lat="46.412998270243406" lon="8.353654481470585">
        <ele>2682.3499999999999</ele>
        <time>2023-06-25T12:53:53Z</time>
      </trkpt>
      <trkpt lat="46.41302727162838" lon="8.353710053488612">
        <ele>2683.3099999999999</ele>
        <time>2023-06-25T12:54:08Z</time>
      </trkpt>
      <trkpt lat="46.413030624389648" lon="8.353813653811812">
        <ele>2684.1100000000001</ele>
        <time>2023-06-25T12:54:22Z</time>
      </trkpt>
      <trkpt lat="46.413044119253755" lon="8.353941394016147">
        <ele>2684.0999999999999</ele>
        <time>2023-06-25T12:54:37Z</time>
      </trkpt>
      <trkpt lat="46.413036994636059" lon="8.354079108685255">
        <ele>2683.27</ele>
        <time>2023-06-25T12:54:52Z</time>
      </trkpt>
      <trkpt lat="46.412978740409017" lon="8.354213554412127">
        <ele>2683.5900000000001</ele>
        <time>2023-06-25T12:55:09Z</time>
      </trkpt>
      <trkpt lat="46.412931885570288" lon="8.35427331738174">
        <ele>2683.9200000000001</ele>
        <time>2023-06-25T12:55:23Z</time>
      </trkpt>
      <trkpt lat="46.41292417421937" lon="8.354370296001434">
        <ele>2686.5599999999999</ele>
        <time>2023-06-25T12:55:39Z</time>
      </trkpt>
      <trkpt lat="46.412931717932224" lon="8.354446655139327">
        <ele>2688.0500000000002</ele>
        <time>2023-06-25T12:55:54Z</time>
      </trkpt>
      <trkpt lat="46.41291637904942" lon="8.354541705921292">
        <ele>2689.6100000000001</ele>
        <time>2023-06-25T12:56:11Z</time>
      </trkpt>
      <trkpt lat="46.412914283573627" lon="8.354537347331643">
        <ele>2689.8099999999999</ele>
        <time>2023-06-25T12:56:36Z</time>
      </trkpt>
      <trkpt lat="46.412914535030723" lon="8.354607839137316">
        <ele>2691.0999999999999</ele>
        <time>2023-06-25T12:56:56Z</time>
      </trkpt>
      <trkpt lat="46.412906404584646" lon="8.354757037013769">
        <ele>2693.0999999999999</ele>
        <time>2023-06-25T12:57:12Z</time>
      </trkpt>
      <trkpt lat="46.412892993539572" lon="8.354885028675199">
        <ele>2695.5599999999999</ele>
        <time>2023-06-25T12:57:27Z</time>
      </trkpt>
      <trkpt lat="46.412879666313529" lon="8.355028191581368">
        <ele>2697.4400000000001</ele>
        <time>2023-06-25T12:57:45Z</time>
      </trkpt>
      <trkpt lat="46.412887964397669" lon="8.355116453021765">
        <ele>2698.7399999999998</ele>
        <time>2023-06-25T12:58:02Z</time>
      </trkpt>
      <trkpt lat="46.412911936640739" lon="8.355149561539292">
        <ele>2699.5999999999999</ele>
        <time>2023-06-25T12:58:16Z</time>
      </trkpt>
      <trkpt lat="46.412947392091155" lon="8.355193315073848">
        <ele>2700.8600000000001</ele>
        <time>2023-06-25T12:58:29Z</time>
      </trkpt>
      <trkpt lat="46.412997934967279" lon="8.355243355035782">
        <ele>2703.1900000000001</ele>
        <time>2023-06-25T12:58:45Z</time>
      </trkpt>
      <trkpt lat="46.413003047928214" lon="8.355334466323257">
        <ele>2705.3499999999999</ele>
        <time>2023-06-25T12:58:59Z</time>
      </trkpt>
      <trkpt lat="46.413048142567277" lon="8.355373442173004">
        <ele>2706.8600000000001</ele>
        <time>2023-06-25T12:59:12Z</time>
      </trkpt>
      <trkpt lat="46.413077898323536" lon="8.355375034734607">
        <ele>2707.6700000000001</ele>
        <time>2023-06-25T12:59:18Z</time>
      </trkpt>
      <trkpt lat="46.413086531683803" lon="8.355370173230767">
        <ele>2708.9299999999998</ele>
        <time>2023-06-25T12:59:33Z</time>
      </trkpt>
      <trkpt lat="46.413157023489475" lon="8.35534980520606">
        <ele>2711.1100000000001</ele>
        <time>2023-06-25T12:59:49Z</time>
      </trkpt>
      <trkpt lat="46.413157945498824" lon="8.35534100420773">
        <ele>2711.1199999999999</ele>
        <time>2023-06-25T12:59:57Z</time>
      </trkpt>
      <trkpt lat="46.413170602172613" lon="8.355348715558648">
        <ele>2711.2199999999998</ele>
        <time>2023-06-25T13:00:05Z</time>
      </trkpt>
      <trkpt lat="46.413192395120859" lon="8.355353074148297">
        <ele>2711.23</ele>
        <time>2023-06-25T13:00:08Z</time>
      </trkpt>
      <trkpt lat="46.413251738995314" lon="8.355369418859482">
        <ele>2710.7399999999998</ele>
        <time>2023-06-25T13:00:15Z</time>
      </trkpt>
      <trkpt lat="46.413290547206998" lon="8.355347542092204">
        <ele>2709.98</ele>
        <time>2023-06-25T13:00:22Z</time>
      </trkpt>
      <trkpt lat="46.413312507793307" lon="8.355334717780352">
        <ele>2710.0300000000002</ele>
        <time>2023-06-25T13:00:26Z</time>
      </trkpt>
      <trkpt lat="46.413325583562255" lon="8.355280486866832">
        <ele>2710.1100000000001</ele>
        <time>2023-06-25T13:00:33Z</time>
      </trkpt>
      <trkpt lat="46.413339832797647" lon="8.355221394449472">
        <ele>2710.5700000000002</ele>
        <time>2023-06-25T13:00:43Z</time>
      </trkpt>
      <trkpt lat="46.413353579118848" lon="8.355206642299891">
        <ele>2710.1500000000001</ele>
        <time>2023-06-25T13:00:46Z</time>
      </trkpt>
      <trkpt lat="46.413363218307495" lon="8.355141431093216">
        <ele>2711.5</ele>
        <time>2023-06-25T13:00:57Z</time>
      </trkpt>
      <trkpt lat="46.413370259106159" lon="8.355142353102565">
        <ele>2711.6100000000001</ele>
        <time>2023-06-25T13:01:21Z</time>
      </trkpt>
      <trkpt lat="46.413413174450397" lon="8.35508736781776">
        <ele>2712.0500000000002</ele>
        <time>2023-06-25T13:01:38Z</time>
      </trkpt>
      <trkpt lat="46.413492383435369" lon="8.354993741959333">
        <ele>2714.1100000000001</ele>
        <time>2023-06-25T13:01:54Z</time>
      </trkpt>
      <trkpt lat="46.413531107828021" lon="8.355069849640131">
        <ele>2716.0500000000002</ele>
        <time>2023-06-25T13:02:09Z</time>
      </trkpt>
      <trkpt lat="46.413583746179938" lon="8.355126678943634">
        <ele>2716.5300000000002</ele>
        <time>2023-06-25T13:02:23Z</time>
      </trkpt>
      <trkpt lat="46.413649963214993" lon="8.35513330064714">
        <ele>2720.9400000000001</ele>
        <time>2023-06-25T13:02:36Z</time>
      </trkpt>
      <trkpt lat="46.413674606010318" lon="8.355194823816419">
        <ele>2722.0100000000002</ele>
        <time>2023-06-25T13:02:55Z</time>
      </trkpt>
      <trkpt lat="46.413737386465073" lon="8.355271853506565">
        <ele>2724.0999999999999</ele>
        <time>2023-06-25T13:03:09Z</time>
      </trkpt>
      <trkpt lat="46.41379832290113" lon="8.355344524607062">
        <ele>2725.4899999999998</ele>
        <time>2023-06-25T13:03:22Z</time>
      </trkpt>
      <trkpt lat="46.413807542994618" lon="8.355346703901887">
        <ele>2725.8000000000002</ele>
        <time>2023-06-25T13:03:38Z</time>
      </trkpt>
      <trkpt lat="46.413799999281764" lon="8.35535516962409">
        <ele>2725.9000000000001</ele>
        <time>2023-06-25T13:04:00Z</time>
      </trkpt>
      <trkpt lat="46.413779882714152" lon="8.355371514335275">
        <ele>2724.8000000000002</ele>
        <time>2023-06-25T13:04:46Z</time>
      </trkpt>
      <trkpt lat="46.413785917684436" lon="8.355368580669165">
        <ele>2724.6399999999999</ele>
        <time>2023-06-25T13:05:16Z</time>
      </trkpt>
      <trkpt lat="46.413804525509477" lon="8.355365563184023">
        <ele>2724.9400000000001</ele>
        <time>2023-06-25T13:05:34Z</time>
      </trkpt>
      <trkpt lat="46.413788348436356" lon="8.355364138260484">
        <ele>2724.3200000000002</ele>
        <time>2023-06-25T13:06:17Z</time>
      </trkpt>
      <trkpt lat="46.413805698975921" lon="8.355366149917245">
        <ele>2724.1799999999998</ele>
        <time>2023-06-25T13:06:59Z</time>
      </trkpt>
      <trkpt lat="46.413795221596956" lon="8.355345111340284">
        <ele>2724.7600000000002</ele>
        <time>2023-06-25T13:07:21Z</time>
      </trkpt>
      <trkpt lat="46.413798071444035" lon="8.355339411646128">
        <ele>2725.04</ele>
        <time>2023-06-25T13:07:48Z</time>
      </trkpt>
      <trkpt lat="46.413787426427007" lon="8.35532926954329">
        <ele>2724.9400000000001</ele>
        <time>2023-06-25T13:08:09Z</time>
      </trkpt>
      <trkpt lat="46.413840735331178" lon="8.355355840176344">
        <ele>2725.7399999999998</ele>
        <time>2023-06-25T13:08:25Z</time>
      </trkpt>
      <trkpt lat="46.41392539255321" lon="8.355284510180354">
        <ele>2727.9000000000001</ele>
        <time>2023-06-25T13:08:41Z</time>
      </trkpt>
      <trkpt lat="46.41396252438426" lon="8.355269003659487">
        <ele>2728.9299999999998</ele>
        <time>2023-06-25T13:08:55Z</time>
      </trkpt>
      <trkpt lat="46.414008876308799" lon="8.355230279266834">
        <ele>2729.8699999999999</ele>
        <time>2023-06-25T13:09:10Z</time>
      </trkpt>
      <trkpt lat="46.414050115272403" lon="8.355195326730609">
        <ele>2732.0500000000002</ele>
        <time>2023-06-25T13:09:24Z</time>
      </trkpt>
      <trkpt lat="46.414071824401617" lon="8.355182250961661">
        <ele>2733.0500000000002</ele>
        <time>2023-06-25T13:09:39Z</time>
      </trkpt>
      <trkpt lat="46.414097473025322" lon="8.355160541832447">
        <ele>2733.6199999999999</ele>
        <time>2023-06-25T13:09:55Z</time>
      </trkpt>
      <trkpt lat="46.414114069193602" lon="8.355142353102565">
        <ele>2734.4200000000001</ele>
        <time>2023-06-25T13:10:11Z</time>
      </trkpt>
      <trkpt lat="46.414152039214969" lon="8.35511720739305">
        <ele>2734.9899999999998</ele>
        <time>2023-06-25T13:10:27Z</time>
      </trkpt>
      <trkpt lat="46.414183806627989" lon="8.355100443586707">
        <ele>2736.4000000000001</ele>
        <time>2023-06-25T13:10:41Z</time>
      </trkpt>
      <trkpt lat="46.414241557940841" lon="8.355047469958663">
        <ele>2739.7600000000002</ele>
        <time>2023-06-25T13:10:57Z</time>
      </trkpt>
      <trkpt lat="46.414250610396266" lon="8.355046464130282">
        <ele>2740.9200000000001</ele>
        <time>2023-06-25T13:11:17Z</time>
      </trkpt>
      <trkpt lat="46.414256729185581" lon="8.355031292885542">
        <ele>2741.4000000000001</ele>
        <time>2023-06-25T13:11:39Z</time>
      </trkpt>
      <trkpt lat="46.41425957903266" lon="8.355026766657829">
        <ele>2741.3899999999999</ele>
        <time>2023-06-25T13:11:58Z</time>
      </trkpt>
      <trkpt lat="46.414344403892756" lon="8.354953760281205">
        <ele>2738.6399999999999</ele>
        <time>2023-06-25T13:12:16Z</time>
      </trkpt>
      <trkpt lat="46.414375836029649" lon="8.354909503832459">
        <ele>2737.6599999999999</ele>
        <time>2023-06-25T13:12:21Z</time>
      </trkpt>
      <trkpt lat="46.414406513795257" lon="8.354865666478872">
        <ele>2736.75</ele>
        <time>2023-06-25T13:12:26Z</time>
      </trkpt>
      <trkpt lat="46.414519585669041" lon="8.354848902672529">
        <ele>2738.9899999999998</ele>
        <time>2023-06-25T13:12:42Z</time>
      </trkpt>
      <trkpt lat="46.414593094959855" lon="8.354784864932299">
        <ele>2740.8899999999999</ele>
        <time>2023-06-25T13:12:57Z</time>
      </trkpt>
      <trkpt lat="46.414701389148831" lon="8.354811184108257">
        <ele>2744.0999999999999</ele>
        <time>2023-06-25T13:13:14Z</time>
      </trkpt>
      <trkpt lat="46.414838097989559" lon="8.354906402528286">
        <ele>2744.48</ele>
        <time>2023-06-25T13:13:32Z</time>
      </trkpt>
      <trkpt lat="46.414981344714761" lon="8.354942863807082">
        <ele>2743.8899999999999</ele>
        <time>2023-06-25T13:13:52Z</time>
      </trkpt>
      <trkpt lat="46.415141355246305" lon="8.355035148561001">
        <ele>2742.9299999999998</ele>
        <time>2023-06-25T13:14:11Z</time>
      </trkpt>
      <trkpt lat="46.415275633335114" lon="8.355123493820429">
        <ele>2744.1799999999998</ele>
        <time>2023-06-25T13:14:29Z</time>
      </trkpt>
      <trkpt lat="46.415339335799217" lon="8.35512600839138">
        <ele>2744.96</ele>
        <time>2023-06-25T13:14:46Z</time>
      </trkpt>
      <trkpt lat="46.415355512872338" lon="8.355023832991719">
        <ele>2746.4400000000001</ele>
        <time>2023-06-25T13:15:02Z</time>
      </trkpt>
      <trkpt lat="46.415368253365159" lon="8.354976642876864">
        <ele>2746.1300000000001</ele>
        <time>2023-06-25T13:15:06Z</time>
      </trkpt>
      <trkpt lat="46.41548509709537" lon="8.354869270697236">
        <ele>2744.3699999999999</ele>
        <time>2023-06-25T13:15:22Z</time>
      </trkpt>
      <trkpt lat="46.415574699640274" lon="8.354917718097568">
        <ele>2743.0599999999999</ele>
        <time>2023-06-25T13:15:38Z</time>
      </trkpt>
      <trkpt lat="46.415650639683008" lon="8.35490807890892">
        <ele>2743.02</ele>
        <time>2023-06-25T13:15:52Z</time>
      </trkpt>
      <trkpt lat="46.415733117610216" lon="8.35490514524281">
        <ele>2742.8000000000002</ele>
        <time>2023-06-25T13:16:03Z</time>
      </trkpt>
      <trkpt lat="46.415867479518056" lon="8.35499013774097">
        <ele>2741.5999999999999</ele>
        <time>2023-06-25T13:16:21Z</time>
      </trkpt>
      <trkpt lat="46.415954902768135" lon="8.355017546564341">
        <ele>2739.0900000000001</ele>
        <time>2023-06-25T13:16:35Z</time>
      </trkpt>
      <trkpt lat="46.416060011833906" lon="8.355005895718932">
        <ele>2735.8400000000001</ele>
        <time>2023-06-25T13:16:49Z</time>
      </trkpt>
      <trkpt lat="46.416117511689663" lon="8.355001537129283">
        <ele>2733.8800000000001</ele>
        <time>2023-06-25T13:16:57Z</time>
      </trkpt>
      <trkpt lat="46.416136790066957" lon="8.355056941509247">
        <ele>2732.75</ele>
        <time>2023-06-25T13:17:02Z</time>
      </trkpt>
      <trkpt lat="46.416223291307688" lon="8.355052666738629">
        <ele>2729.5700000000002</ele>
        <time>2023-06-25T13:17:17Z</time>
      </trkpt>
      <trkpt lat="46.416254807263613" lon="8.355037663131952">
        <ele>2727.73</ele>
        <time>2023-06-25T13:17:21Z</time>
      </trkpt>
      <trkpt lat="46.416341308504343" lon="8.354983767494559">
        <ele>2723.5999999999999</ele>
        <time>2023-06-25T13:17:31Z</time>
      </trkpt>
      <trkpt lat="46.41636704094708" lon="8.355016289278865">
        <ele>2722.0300000000002</ele>
        <time>2023-06-25T13:17:34Z</time>
      </trkpt>
      <trkpt lat="46.41649167984724" lon="8.355034058913589">
        <ele>2716.6300000000001</ele>
        <time>2023-06-25T13:17:49Z</time>
      </trkpt>
      <trkpt lat="46.416550856083632" lon="8.355027604848146">
        <ele>2714.3800000000001</ele>
        <time>2023-06-25T13:17:57Z</time>
      </trkpt>
      <trkpt lat="46.416702149435878" lon="8.354967255145311">
        <ele>2709.71</ele>
        <time>2023-06-25T13:18:12Z</time>
      </trkpt>
      <trkpt lat="46.416752021759748" lon="8.354992903769016">
        <ele>2708.04</ele>
        <time>2023-06-25T13:18:18Z</time>
      </trkpt>
      <trkpt lat="46.416863081976771" lon="8.354933643713594">
        <ele>2704.1900000000001</ele>
        <time>2023-06-25T13:18:33Z</time>
      </trkpt>
      <trkpt lat="46.416990738362074" lon="8.354917466640472">
        <ele>2699.7800000000002</ele>
        <time>2023-06-25T13:18:49Z</time>
      </trkpt>
      <trkpt lat="46.417116466909647" lon="8.355072448030114">
        <ele>2699.4499999999998</ele>
        <time>2023-06-25T13:19:05Z</time>
      </trkpt>
      <trkpt lat="46.417124681174755" lon="8.355076974257827">
        <ele>2699.52</ele>
        <time>2023-06-25T13:19:06Z</time>
      </trkpt>
      <trkpt lat="46.417191987857223" lon="8.355077225714922">
        <ele>2700.1300000000001</ele>
        <time>2023-06-25T13:19:14Z</time>
      </trkpt>
      <trkpt lat="46.417257869616151" lon="8.355073453858495">
        <ele>2699.1500000000001</ele>
        <time>2023-06-25T13:19:20Z</time>
      </trkpt>
      <trkpt lat="46.417371612042189" lon="8.355146879330277">
        <ele>2700.0500000000002</ele>
        <time>2023-06-25T13:19:33Z</time>
      </trkpt>
      <trkpt lat="46.417393991723657" lon="8.355190046131611">
        <ele>2699.9499999999998</ele>
        <time>2023-06-25T13:19:37Z</time>
      </trkpt>
      <trkpt lat="46.417399104684591" lon="8.355256766080856">
        <ele>2699.3099999999999</ele>
        <time>2023-06-25T13:19:41Z</time>
      </trkpt>
      <trkpt lat="46.41743472777307" lon="8.355470672249794">
        <ele>2694.8800000000001</ele>
        <time>2023-06-25T13:19:57Z</time>
      </trkpt>
      <trkpt lat="46.417524246498942" lon="8.355483412742615">
        <ele>2690.2600000000002</ele>
        <time>2023-06-25T13:20:13Z</time>
      </trkpt>
      <trkpt lat="46.417588703334332" lon="8.355483580380678">
        <ele>2686.1700000000001</ele>
        <time>2023-06-25T13:20:27Z</time>
      </trkpt>
      <trkpt lat="46.41765751875937" lon="8.355607632547617">
        <ele>2681.3499999999999</ele>
        <time>2023-06-25T13:20:46Z</time>
      </trkpt>
      <trkpt lat="46.417700853198767" lon="8.35552959702909">
        <ele>2679.1700000000001</ele>
        <time>2023-06-25T13:20:57Z</time>
      </trkpt>
      <trkpt lat="46.417773691937327" lon="8.355355253443122">
        <ele>2677.1900000000001</ele>
        <time>2023-06-25T13:21:13Z</time>
      </trkpt>
      <trkpt lat="46.417785258963704" lon="8.355264477431774">
        <ele>2673.8899999999999</ele>
        <time>2023-06-25T13:21:30Z</time>
      </trkpt>
      <trkpt lat="46.417771931737661" lon="8.355173533782363">
        <ele>2671.4699999999998</ele>
        <time>2023-06-25T13:21:45Z</time>
      </trkpt>
      <trkpt lat="46.417731530964375" lon="8.354999693110585">
        <ele>2666.6300000000001</ele>
        <time>2023-06-25T13:22:06Z</time>
      </trkpt>
      <trkpt lat="46.417705463245511" lon="8.354843286797404">
        <ele>2662.71</ele>
        <time>2023-06-25T13:22:24Z</time>
      </trkpt>
      <trkpt lat="46.417750809341669" lon="8.354801628738642">
        <ele>2661.1399999999999</ele>
        <time>2023-06-25T13:22:37Z</time>
      </trkpt>
      <trkpt lat="46.417830353602767" lon="8.354825349524617">
        <ele>2658.8000000000002</ele>
        <time>2023-06-25T13:22:53Z</time>
      </trkpt>
      <trkpt lat="46.417898498475552" lon="8.354767430573702">
        <ele>2656.1900000000001</ele>
        <time>2023-06-25T13:23:08Z</time>
      </trkpt>
      <trkpt lat="46.41796974465251" lon="8.354845801368356">
        <ele>2653.1300000000001</ele>
        <time>2023-06-25T13:23:22Z</time>
      </trkpt>
      <trkpt lat="46.418069992214441" lon="8.354966416954994">
        <ele>2649.3800000000001</ele>
        <time>2023-06-25T13:23:39Z</time>
      </trkpt>
      <trkpt lat="46.418115589767694" lon="8.355080159381032">
        <ele>2646.1199999999999</ele>
        <time>2023-06-25T13:23:53Z</time>
      </trkpt>
      <trkpt lat="46.418139142915606" lon="8.355112010613084">
        <ele>2645.1500000000001</ele>
        <time>2023-06-25T13:23:58Z</time>
      </trkpt>
      <trkpt lat="46.418208964169025" lon="8.355279983952642">
        <ele>2641.1199999999999</ele>
        <time>2023-06-25T13:24:15Z</time>
      </trkpt>
      <trkpt lat="46.418267888948321" lon="8.355218628421426">
        <ele>2638.1500000000001</ele>
        <time>2023-06-25T13:24:28Z</time>
      </trkpt>
      <trkpt lat="46.418340811505914" lon="8.355189794674516">
        <ele>2635.5100000000002</ele>
        <time>2023-06-25T13:24:43Z</time>
      </trkpt>
      <trkpt lat="46.418380374088883" lon="8.35526037029922">
        <ele>2634.3400000000001</ele>
        <time>2023-06-25T13:24:52Z</time>
      </trkpt>
      <trkpt lat="46.418474921956658" lon="8.355314685031772">
        <ele>2632.8299999999999</ele>
        <time>2023-06-25T13:25:06Z</time>
      </trkpt>
      <trkpt lat="46.418570475652814" lon="8.355307895690203">
        <ele>2632.3400000000001</ele>
        <time>2023-06-25T13:25:21Z</time>
      </trkpt>
      <trkpt lat="46.418623030185699" lon="8.355299178510904">
        <ele>2631.54</ele>
        <time>2023-06-25T13:25:27Z</time>
      </trkpt>
      <trkpt lat="46.418770384043455" lon="8.355308985337615">
        <ele>2630.3200000000002</ele>
        <time>2023-06-25T13:25:41Z</time>
      </trkpt>
      <trkpt lat="46.418884210288525" lon="8.355455920100212">
        <ele>2629.6199999999999</ele>
        <time>2023-06-25T13:26:00Z</time>
      </trkpt>
      <trkpt lat="46.418914552778006" lon="8.355518281459808">
        <ele>2628.75</ele>
        <time>2023-06-25T13:26:06Z</time>
      </trkpt>
      <trkpt lat="46.418989319354296" lon="8.355578547343612">
        <ele>2627.6199999999999</ele>
        <time>2023-06-25T13:26:22Z</time>
      </trkpt>
      <trkpt lat="46.419025948271155" lon="8.355641411617398">
        <ele>2628.1500000000001</ele>
        <time>2023-06-25T13:26:35Z</time>
      </trkpt>
      <trkpt lat="46.419098116457462" lon="8.355608386918902">
        <ele>2630.1199999999999</ele>
        <time>2023-06-25T13:26:53Z</time>
      </trkpt>
      <trkpt lat="46.419139020144939" lon="8.355541499331594">
        <ele>2629.2800000000002</ele>
        <time>2023-06-25T13:27:10Z</time>
      </trkpt>
      <trkpt lat="46.419181097298861" lon="8.355376794934273">
        <ele>2627.4699999999998</ele>
        <time>2023-06-25T13:27:28Z</time>
      </trkpt>
      <trkpt lat="46.419231975451112" lon="8.355275793001056">
        <ele>2624.8299999999999</ele>
        <time>2023-06-25T13:27:43Z</time>
      </trkpt>
      <trkpt lat="46.419333228841424" lon="8.355180909857154">
        <ele>2621.5100000000002</ele>
        <time>2023-06-25T13:27:59Z</time>
      </trkpt>
      <trkpt lat="46.419431380927563" lon="8.355092313140631">
        <ele>2618.5</ele>
        <time>2023-06-25T13:28:15Z</time>
      </trkpt>
      <trkpt lat="46.419503800570965" lon="8.355062641203404">
        <ele>2616.5100000000002</ele>
        <time>2023-06-25T13:28:24Z</time>
      </trkpt>
      <trkpt lat="46.419609831646085" lon="8.355030370876193">
        <ele>2614.8000000000002</ele>
        <time>2023-06-25T13:28:35Z</time>
      </trkpt>
      <trkpt lat="46.419728100299835" lon="8.35487388074398">
        <ele>2613.8800000000001</ele>
        <time>2023-06-25T13:28:53Z</time>
      </trkpt>
      <trkpt lat="46.419753832742572" lon="8.354836581274867">
        <ele>2614.4400000000001</ele>
        <time>2023-06-25T13:28:58Z</time>
      </trkpt>
      <trkpt lat="46.419988106936216" lon="8.354824762791395">
        <ele>2613.3499999999999</ele>
        <time>2023-06-25T13:29:20Z</time>
      </trkpt>
      <trkpt lat="46.420135712251067" lon="8.354734154418111">
        <ele>2614.1599999999999</ele>
        <time>2023-06-25T13:29:37Z</time>
      </trkpt>
      <trkpt lat="46.420162618160248" lon="8.354623094201088">
        <ele>2615.27</ele>
        <time>2023-06-25T13:29:47Z</time>
      </trkpt>
      <trkpt lat="46.420184075832367" lon="8.35449761711061">
        <ele>2615.3899999999999</ele>
        <time>2023-06-25T13:29:57Z</time>
      </trkpt>
      <trkpt lat="46.420314414426684" lon="8.354275664314628">
        <ele>2611.9200000000001</ele>
        <time>2023-06-25T13:30:18Z</time>
      </trkpt>
      <trkpt lat="46.420442909002304" lon="8.354058656841517">
        <ele>2608.3400000000001</ele>
        <time>2023-06-25T13:30:37Z</time>
      </trkpt>
      <trkpt lat="46.420483561232686" lon="8.353948015719652">
        <ele>2605.3200000000002</ele>
        <time>2023-06-25T13:30:51Z</time>
      </trkpt>
      <trkpt lat="46.420581797137856" lon="8.353863945230842">
        <ele>2601.73</ele>
        <time>2023-06-25T13:31:07Z</time>
      </trkpt>
      <trkpt lat="46.420648600906134" lon="8.353747855871916">
        <ele>2598.1500000000001</ele>
        <time>2023-06-25T13:31:20Z</time>
      </trkpt>
      <trkpt lat="46.420713560655713" lon="8.353646099567413">
        <ele>2595.2800000000002</ele>
        <time>2023-06-25T13:31:35Z</time>
      </trkpt>
      <trkpt lat="46.420747926458716" lon="8.353582648560405">
        <ele>2593.0900000000001</ele>
        <time>2023-06-25T13:31:48Z</time>
      </trkpt>
      <trkpt lat="46.420778688043356" lon="8.353424230590463">
        <ele>2588.5700000000002</ele>
        <time>2023-06-25T13:32:04Z</time>
      </trkpt>
      <trkpt lat="46.420783884823322" lon="8.353391876444221">
        <ele>2587.46</ele>
        <time>2023-06-25T13:32:07Z</time>
      </trkpt>
      <trkpt lat="46.420856975018978" lon="8.353296238929033">
        <ele>2583.75</ele>
        <time>2023-06-25T13:32:21Z</time>
      </trkpt>
      <trkpt lat="46.420963341370225" lon="8.353241421282291">
        <ele>2580.6999999999998</ele>
        <time>2023-06-25T13:32:35Z</time>
      </trkpt>
      <trkpt lat="46.421074150130153" lon="8.353114519268274">
        <ele>2577.3699999999999</ele>
        <time>2023-06-25T13:32:54Z</time>
      </trkpt>
      <trkpt lat="46.421037185937166" lon="8.352952580899">
        <ele>2574</ele>
        <time>2023-06-25T13:33:12Z</time>
      </trkpt>
      <trkpt lat="46.42102905549109" lon="8.352920897305012">
        <ele>2572.8400000000001</ele>
        <time>2023-06-25T13:33:16Z</time>
      </trkpt>
      <trkpt lat="46.420972561463714" lon="8.35284411907196">
        <ele>2570.9000000000001</ele>
        <time>2023-06-25T13:33:23Z</time>
      </trkpt>
      <trkpt lat="46.420773910358548" lon="8.352921986952424">
        <ele>2572</ele>
        <time>2023-06-25T13:33:42Z</time>
      </trkpt>
      <trkpt lat="46.420699059963226" lon="8.352985270321369">
        <ele>2572.48</ele>
        <time>2023-06-25T13:33:51Z</time>
      </trkpt>
      <trkpt lat="46.420664777979255" lon="8.352999938651919">
        <ele>2572.0599999999999</ele>
        <time>2023-06-25T13:33:55Z</time>
      </trkpt>
      <trkpt lat="46.420563524588943" lon="8.353108903393149">
        <ele>2566.3000000000002</ele>
        <time>2023-06-25T13:34:10Z</time>
      </trkpt>
      <trkpt lat="46.420539803802967" lon="8.353141508996487">
        <ele>2566.4000000000001</ele>
        <time>2023-06-25T13:34:24Z</time>
      </trkpt>
      <trkpt lat="46.420529242604971" lon="8.353165062144399">
        <ele>2567.79</ele>
        <time>2023-06-25T13:34:44Z</time>
      </trkpt>
      <trkpt lat="46.420537289232016" lon="8.353177718818188">
        <ele>2567.8200000000002</ele>
        <time>2023-06-25T13:35:10Z</time>
      </trkpt>
      <trkpt lat="46.420559165999293" lon="8.353163553401828">
        <ele>2567.4299999999998</ele>
        <time>2023-06-25T13:35:25Z</time>
      </trkpt>
      <trkpt lat="46.420560088008642" lon="8.353145197033882">
        <ele>2567.02</ele>
        <time>2023-06-25T13:36:07Z</time>
      </trkpt>
      <trkpt lat="46.42055899836123" lon="8.353153243660927">
        <ele>2566.25</ele>
        <time>2023-06-25T13:37:04Z</time>
      </trkpt>
      <trkpt lat="46.420557992532849" lon="8.353157015517354">
        <ele>2565.6599999999999</ele>
        <time>2023-06-25T13:37:55Z</time>
      </trkpt>
      <trkpt lat="46.420553214848042" lon="8.353160368278623">
        <ele>2565.4299999999998</ele>
        <time>2023-06-25T13:38:35Z</time>
      </trkpt>
      <trkpt lat="46.420553382486105" lon="8.353168834000826">
        <ele>2564.4299999999998</ele>
        <time>2023-06-25T13:39:12Z</time>
      </trkpt>
      <trkpt lat="46.420557154342532" lon="8.353162044659257">
        <ele>2563.8400000000001</ele>
        <time>2023-06-25T13:39:54Z</time>
      </trkpt>
      <trkpt lat="46.420557573437691" lon="8.353163888677955">
        <ele>2564.8200000000002</ele>
        <time>2023-06-25T13:40:36Z</time>
      </trkpt>
      <trkpt lat="46.420563608407974" lon="8.353161793202162">
        <ele>2565.9699999999998</ele>
        <time>2023-06-25T13:41:16Z</time>
      </trkpt>
      <trkpt lat="46.420567547902465" lon="8.353182664141059">
        <ele>2565.4299999999998</ele>
        <time>2023-06-25T13:41:45Z</time>
      </trkpt>
      <trkpt lat="46.420572744682431" lon="8.353186855092645">
        <ele>2565.3099999999999</ele>
        <time>2023-06-25T13:42:23Z</time>
      </trkpt>
      <trkpt lat="46.420572996139526" lon="8.353174701333046">
        <ele>2566.46</ele>
        <time>2023-06-25T13:43:03Z</time>
      </trkpt>
      <trkpt lat="46.420568553730845" lon="8.35318953730166">
        <ele>2566.5900000000001</ele>
        <time>2023-06-25T13:43:47Z</time>
      </trkpt>
      <trkpt lat="46.420580958947539" lon="8.353209067136049">
        <ele>2566.0300000000002</ele>
        <time>2023-06-25T13:44:30Z</time>
      </trkpt>
      <trkpt lat="46.420581797137856" lon="8.353219041600823">
        <ele>2564.5700000000002</ele>
        <time>2023-06-25T13:45:10Z</time>
      </trkpt>
      <trkpt lat="46.420580791309476" lon="8.353217951953411">
        <ele>2564.0100000000002</ele>
        <time>2023-06-25T13:45:50Z</time>
      </trkpt>
      <trkpt lat="46.420592358335853" lon="8.353223232552409">
        <ele>2562.5999999999999</ele>
        <time>2023-06-25T13:46:17Z</time>
      </trkpt>
      <trkpt lat="46.420590346679091" lon="8.35320370271802">
        <ele>2561.04</ele>
        <time>2023-06-25T13:46:49Z</time>
      </trkpt>
      <trkpt lat="46.420592442154884" lon="8.353207306936383">
        <ele>2560.46</ele>
        <time>2023-06-25T13:47:23Z</time>
      </trkpt>
      <trkpt lat="46.42058833502233" lon="8.35322231054306">
        <ele>2560.3699999999999</ele>
        <time>2023-06-25T13:48:08Z</time>
      </trkpt>
      <trkpt lat="46.420588502660394" lon="8.353227004408836">
        <ele>2560.9699999999998</ele>
        <time>2023-06-25T13:48:46Z</time>
      </trkpt>
      <trkpt lat="46.42058246769011" lon="8.353215856477618">
        <ele>2562.1700000000001</ele>
        <time>2023-06-25T13:49:29Z</time>
      </trkpt>
      <trkpt lat="46.420582300052047" lon="8.35321543738246">
        <ele>2562.21</ele>
        <time>2023-06-25T13:49:30Z</time>
      </trkpt>
      <trkpt lat="46.420583808794618" lon="8.353212587535381">
        <ele>2562.6700000000001</ele>
        <time>2023-06-25T13:49:42Z</time>
      </trkpt>
      <trkpt lat="46.420578695833683" lon="8.353202529251576">
        <ele>2563.1900000000001</ele>
        <time>2023-06-25T13:50:08Z</time>
      </trkpt>
      <trkpt lat="46.420578109100461" lon="8.353198505938053">
        <ele>2563.8600000000001</ele>
        <time>2023-06-25T13:50:26Z</time>
      </trkpt>
      <trkpt lat="46.420565620064735" lon="8.35318517871201">
        <ele>2565.0999999999999</ele>
        <time>2023-06-25T13:51:05Z</time>
      </trkpt>
      <trkpt lat="46.420562770217657" lon="8.353181071579456">
        <ele>2564.8099999999999</ele>
        <time>2023-06-25T13:51:20Z</time>
      </trkpt>
      <trkpt lat="46.420573331415653" lon="8.353186771273613">
        <ele>2562.5500000000002</ele>
        <time>2023-06-25T13:51:26Z</time>
      </trkpt>
      <trkpt lat="46.420580791309476" lon="8.353199176490307">
        <ele>2561.5100000000002</ele>
        <time>2023-06-25T13:51:43Z</time>
      </trkpt>
      <trkpt lat="46.420577187091112" lon="8.353195739910007">
        <ele>2562.04</ele>
        <time>2023-06-25T13:51:52Z</time>
      </trkpt>
      <trkpt lat="46.42058196477592" lon="8.353196829557419">
        <ele>2562.3699999999999</ele>
        <time>2023-06-25T13:52:00Z</time>
      </trkpt>
      <trkpt lat="46.420578695833683" lon="8.353190207853913">
        <ele>2563.5300000000002</ele>
        <time>2023-06-25T13:52:20Z</time>
      </trkpt>
      <trkpt lat="46.420577773824334" lon="8.353191297501326">
        <ele>2563.9899999999998</ele>
        <time>2023-06-25T13:52:33Z</time>
      </trkpt>
      <trkpt lat="46.420576348900795" lon="8.353179143741727">
        <ele>2566.1300000000001</ele>
        <time>2023-06-25T13:53:26Z</time>
      </trkpt>
      <trkpt lat="46.420575007796288" lon="8.353180820122361">
        <ele>2566.02</ele>
        <time>2023-06-25T13:54:16Z</time>
      </trkpt>
      <trkpt lat="46.420568050816655" lon="8.353175958618522">
        <ele>2566.8200000000002</ele>
        <time>2023-06-25T13:54:50Z</time>
      </trkpt>
      <trkpt lat="46.420566122978926" lon="8.353177467361093">
        <ele>2567.3400000000001</ele>
        <time>2023-06-25T13:55:32Z</time>
      </trkpt>
      <trkpt lat="46.42055556178093" lon="8.35316363722086">
        <ele>2566.9699999999998</ele>
        <time>2023-06-25T13:56:02Z</time>
      </trkpt>
      <trkpt lat="46.420553382486105" lon="8.353148130699992">
        <ele>2566.23</ele>
        <time>2023-06-25T13:56:52Z</time>
      </trkpt>
      <trkpt lat="46.420544162392616" lon="8.353158943355084">
        <ele>2566.0900000000001</ele>
        <time>2023-06-25T13:57:18Z</time>
      </trkpt>
      <trkpt lat="46.420543575659394" lon="8.353166319429874">
        <ele>2565.3400000000001</ele>
        <time>2023-06-25T13:57:35Z</time>
      </trkpt>
      <trkpt lat="46.42056536860764" lon="8.353187274187803">
        <ele>2564.3099999999999</ele>
        <time>2023-06-25T13:58:12Z</time>
      </trkpt>
      <trkpt lat="46.420565284788609" lon="8.353185681626201">
        <ele>2563.98</ele>
        <time>2023-06-25T13:58:22Z</time>
      </trkpt>
      <trkpt lat="46.420566206797957" lon="8.353190794587135">
        <ele>2564.4000000000001</ele>
        <time>2023-06-25T13:58:56Z</time>
      </trkpt>
      <trkpt lat="46.420576348900795" lon="8.353204876184464">
        <ele>2564.0599999999999</ele>
        <time>2023-06-25T13:59:17Z</time>
      </trkpt>
      <trkpt lat="46.420580791309476" lon="8.353208312764764">
        <ele>2562.1900000000001</ele>
        <time>2023-06-25T13:59:50Z</time>
      </trkpt>
      <trkpt lat="46.420573079958558" lon="8.353216359391809">
        <ele>2561.9000000000001</ele>
        <time>2023-06-25T14:00:13Z</time>
      </trkpt>
      <trkpt lat="46.420572912320495" lon="8.353209905326366">
        <ele>2561.9499999999998</ele>
        <time>2023-06-25T14:00:56Z</time>
      </trkpt>
      <trkpt lat="46.420595124363899" lon="8.353209653869271">
        <ele>2560.79</ele>
        <time>2023-06-25T14:01:39Z</time>
      </trkpt>
      <trkpt lat="46.420589843764901" lon="8.353201858699322">
        <ele>2559.8200000000002</ele>
        <time>2023-06-25T14:02:31Z</time>
      </trkpt>
      <trkpt lat="46.42057903110981" lon="8.353198003023863">
        <ele>2560.1300000000001</ele>
        <time>2023-06-25T14:03:27Z</time>
      </trkpt>
      <trkpt lat="46.420578779652715" lon="8.353192387148738">
        <ele>2560.9099999999999</ele>
        <time>2023-06-25T14:04:12Z</time>
      </trkpt>
      <trkpt lat="46.420582216233015" lon="8.35319004021585">
        <ele>2560.9699999999998</ele>
        <time>2023-06-25T14:04:58Z</time>
      </trkpt>
      <trkpt lat="46.420572577044368" lon="8.353182077407837">
        <ele>2560.8200000000002</ele>
        <time>2023-06-25T14:05:44Z</time>
      </trkpt>
      <trkpt lat="46.420578695833683" lon="8.353187944740057">
        <ele>2561.25</ele>
        <time>2023-06-25T14:06:33Z</time>
      </trkpt>
      <trkpt lat="46.420581880956888" lon="8.353186435997486">
        <ele>2561.1700000000001</ele>
        <time>2023-06-25T14:07:26Z</time>
      </trkpt>
      <trkpt lat="46.420583892613649" lon="8.353176545351744">
        <ele>2560.5599999999999</ele>
        <time>2023-06-25T14:08:08Z</time>
      </trkpt>
      <trkpt lat="46.420579198747873" lon="8.353177886456251">
        <ele>2559.71</ele>
        <time>2023-06-25T14:08:57Z</time>
      </trkpt>
      <trkpt lat="46.420571906492114" lon="8.353179395198822">
        <ele>2560.52</ele>
        <time>2023-06-25T14:09:47Z</time>
      </trkpt>
      <trkpt lat="46.420566625893116" lon="8.3531822450459">
        <ele>2560.3800000000001</ele>
        <time>2023-06-25T14:10:37Z</time>
      </trkpt>
      <trkpt lat="46.420562099665403" lon="8.35318417288363">
        <ele>2560.48</ele>
        <time>2023-06-25T14:11:27Z</time>
      </trkpt>
      <trkpt lat="46.4205536339432" lon="8.35319004021585">
        <ele>2560.9899999999998</ele>
        <time>2023-06-25T14:12:18Z</time>
      </trkpt>
      <trkpt lat="46.420549359172583" lon="8.353183502331376">
        <ele>2562.4099999999999</ele>
        <time>2023-06-25T14:13:02Z</time>
      </trkpt>
      <trkpt lat="46.420535026118159" lon="8.353180317208171">
        <ele>2562.4899999999998</ele>
        <time>2023-06-25T14:13:51Z</time>
      </trkpt>
      <trkpt lat="46.42051893286407" lon="8.353180065751076">
        <ele>2562.29</ele>
        <time>2023-06-25T14:14:11Z</time>
      </trkpt>
      <trkpt lat="46.420534774661064" lon="8.353184591978788">
        <ele>2561.71</ele>
        <time>2023-06-25T14:14:28Z</time>
      </trkpt>
      <trkpt lat="46.420540390536189" lon="8.353176880627871">
        <ele>2562.27</ele>
        <time>2023-06-25T14:14:40Z</time>
      </trkpt>
      <trkpt lat="46.420518262311816" lon="8.353174282237887">
        <ele>2562.3699999999999</ele>
        <time>2023-06-25T14:15:17Z</time>
      </trkpt>
      <trkpt lat="46.420538043603301" lon="8.353170342743397">
        <ele>2561.6300000000001</ele>
        <time>2023-06-25T14:16:05Z</time>
      </trkpt>
      <trkpt lat="46.420540390536189" lon="8.353172689676285">
        <ele>2560.96</ele>
        <time>2023-06-25T14:16:55Z</time>
      </trkpt>
      <trkpt lat="46.420516921207309" lon="8.353155003860593">
        <ele>2560.4400000000001</ele>
        <time>2023-06-25T14:17:44Z</time>
      </trkpt>
      <trkpt lat="46.420527901500463" lon="8.353159949183464">
        <ele>2560.6300000000001</ele>
        <time>2023-06-25T14:18:24Z</time>
      </trkpt>
      <trkpt lat="46.420535780489445" lon="8.353160284459591">
        <ele>2560.8400000000001</ele>
        <time>2023-06-25T14:19:18Z</time>
      </trkpt>
      <trkpt lat="46.420539049431682" lon="8.3531494718045">
        <ele>2560.0900000000001</ele>
        <time>2023-06-25T14:20:11Z</time>
      </trkpt>
      <trkpt lat="46.420536283403635" lon="8.353149220347405">
        <ele>2559.73</ele>
        <time>2023-06-25T14:20:46Z</time>
      </trkpt>
      <trkpt lat="46.42053016461432" lon="8.353158608078957">
        <ele>2560.5100000000002</ele>
        <time>2023-06-25T14:21:23Z</time>
      </trkpt>
      <trkpt lat="46.420550532639027" lon="8.353164475411177">
        <ele>2560.9200000000001</ele>
        <time>2023-06-25T14:22:00Z</time>
      </trkpt>
      <trkpt lat="46.420553885400295" lon="8.353157602250576">
        <ele>2562.1399999999999</ele>
        <time>2023-06-25T14:22:53Z</time>
      </trkpt>
      <trkpt lat="46.420553047209978" lon="8.353136563673616">
        <ele>2562.5300000000002</ele>
        <time>2023-06-25T14:23:16Z</time>
      </trkpt>
      <trkpt lat="46.420555226504803" lon="8.353152321651578">
        <ele>2561.8800000000001</ele>
        <time>2023-06-25T14:23:35Z</time>
      </trkpt>
      <trkpt lat="46.420551873743534" lon="8.353156428784132">
        <ele>2561.8400000000001</ele>
        <time>2023-06-25T14:23:54Z</time>
      </trkpt>
      <trkpt lat="46.420548520982265" lon="8.353146370500326">
        <ele>2562.1300000000001</ele>
        <time>2023-06-25T14:24:06Z</time>
      </trkpt>
      <trkpt lat="46.420556316152215" lon="8.35313237272203">
        <ele>2562.9000000000001</ele>
        <time>2023-06-25T14:24:18Z</time>
      </trkpt>
      <trkpt lat="46.420537456870079" lon="8.353138156235218">
        <ele>2563.1799999999998</ele>
        <time>2023-06-25T14:24:30Z</time>
      </trkpt>
      <trkpt lat="46.420520022511482" lon="8.353137820959091">
        <ele>2562.5300000000002</ele>
        <time>2023-06-25T14:24:44Z</time>
      </trkpt>
      <trkpt lat="46.42051256261766" lon="8.353131953626871">
        <ele>2562.23</ele>
        <time>2023-06-25T14:24:54Z</time>
      </trkpt>
      <trkpt lat="46.420518010854721" lon="8.353137234225869">
        <ele>2561.0300000000002</ele>
        <time>2023-06-25T14:25:10Z</time>
      </trkpt>
      <trkpt lat="46.420516669750214" lon="8.353143520653248">
        <ele>2560.0700000000002</ele>
        <time>2023-06-25T14:25:20Z</time>
      </trkpt>
      <trkpt lat="46.4205242972821" lon="8.353144861757755">
        <ele>2559.73</ele>
        <time>2023-06-25T14:25:33Z</time>
      </trkpt>
      <trkpt lat="46.420524381101131" lon="8.353135138750076">
        <ele>2560.0300000000002</ele>
        <time>2023-06-25T14:25:50Z</time>
      </trkpt>
      <trkpt lat="46.420520357787609" lon="8.353150561451912">
        <ele>2560.3200000000002</ele>
        <time>2023-06-25T14:26:06Z</time>
      </trkpt>
      <trkpt lat="46.420529577881098" lon="8.353147376328707">
        <ele>2560.8000000000002</ele>
        <time>2023-06-25T14:26:19Z</time>
      </trkpt>
      <trkpt lat="46.420525051653385" lon="8.353151567280293">
        <ele>2561.4200000000001</ele>
        <time>2023-06-25T14:26:37Z</time>
      </trkpt>
      <trkpt lat="46.420519519597292" lon="8.353135222569108">
        <ele>2562.6999999999998</ele>
        <time>2023-06-25T14:27:11Z</time>
      </trkpt>
      <trkpt lat="46.42051113769412" lon="8.353123823180795">
        <ele>2563.77</ele>
        <time>2023-06-25T14:27:40Z</time>
      </trkpt>
      <trkpt lat="46.420511724427342" lon="8.353123320266604">
        <ele>2564.6500000000001</ele>
        <time>2023-06-25T14:28:00Z</time>
      </trkpt>
      <trkpt lat="46.420511053875089" lon="8.353134300559759">
        <ele>2564.9499999999998</ele>
        <time>2023-06-25T14:28:34Z</time>
      </trkpt>
      <trkpt lat="46.420527398586273" lon="8.353130696341395">
        <ele>2565.3099999999999</ele>
        <time>2023-06-25T14:29:23Z</time>
      </trkpt>
      <trkpt lat="46.420531254261732" lon="8.353133797645569">
        <ele>2563.3299999999999</ele>
        <time>2023-06-25T14:29:49Z</time>
      </trkpt>
      <trkpt lat="46.420540474355221" lon="8.353135474026203">
        <ele>2563.3299999999999</ele>
        <time>2023-06-25T14:30:09Z</time>
      </trkpt>
      <trkpt lat="46.420530499890447" lon="8.353138407692313">
        <ele>2562.1100000000001</ele>
        <time>2023-06-25T14:30:41Z</time>
      </trkpt>
      <trkpt lat="46.420520693063736" lon="8.353129019960761">
        <ele>2561.6399999999999</ele>
        <time>2023-06-25T14:30:56Z</time>
      </trkpt>
      <trkpt lat="46.420520441606641" lon="8.353133965283632">
        <ele>2560.1999999999998</ele>
        <time>2023-06-25T14:31:14Z</time>
      </trkpt>
      <trkpt lat="46.42051013186574" lon="8.353126002475619">
        <ele>2559.5500000000002</ele>
        <time>2023-06-25T14:31:47Z</time>
      </trkpt>
      <trkpt lat="46.420517172664404" lon="8.353120973333716">
        <ele>2560.1300000000001</ele>
        <time>2023-06-25T14:32:30Z</time>
      </trkpt>
      <trkpt lat="46.420533852651715" lon="8.353136144578457">
        <ele>2560.0100000000002</ele>
        <time>2023-06-25T14:32:54Z</time>
      </trkpt>
      <trkpt lat="46.420552711933851" lon="8.353134049102664">
        <ele>2560.1199999999999</ele>
        <time>2023-06-25T14:33:17Z</time>
      </trkpt>
      <trkpt lat="46.420540390536189" lon="8.353113429620862">
        <ele>2561.8800000000001</ele>
        <time>2023-06-25T14:33:46Z</time>
      </trkpt>
      <trkpt lat="46.420600824058056" lon="8.353092977777124">
        <ele>2562.77</ele>
        <time>2023-06-25T14:33:55Z</time>
      </trkpt>
      <trkpt lat="46.420617587864399" lon="8.353078309446573">
        <ele>2562.9200000000001</ele>
        <time>2023-06-25T14:33:57Z</time>
      </trkpt>
      <trkpt lat="46.420676428824663" lon="8.353017121553421">
        <ele>2563.3099999999999</ele>
        <time>2023-06-25T14:34:05Z</time>
      </trkpt>
      <trkpt lat="46.420727474614978" lon="8.352964483201504">
        <ele>2563.6100000000001</ele>
        <time>2023-06-25T14:34:11Z</time>
      </trkpt>
      <trkpt lat="46.420928388834" lon="8.352841688320041">
        <ele>2565.73</ele>
        <time>2023-06-25T14:34:32Z</time>
      </trkpt>
      <trkpt lat="46.420942973345518" lon="8.352820230647922">
        <ele>2566.8000000000002</ele>
        <time>2023-06-25T14:34:38Z</time>
      </trkpt>
      <trkpt lat="46.420984631404281" lon="8.35281478241086">
        <ele>2567.0999999999999</ele>
        <time>2023-06-25T14:34:42Z</time>
      </trkpt>
      <trkpt lat="46.421157047152519" lon="8.352696597576141">
        <ele>2567.8400000000001</ele>
        <time>2023-06-25T14:35:01Z</time>
      </trkpt>
      <trkpt lat="46.421323008835316" lon="8.352575562894344">
        <ele>2568.1300000000001</ele>
        <time>2023-06-25T14:35:21Z</time>
      </trkpt>
      <trkpt lat="46.421449240297079" lon="8.352497527375817">
        <ele>2568.1399999999999</ele>
        <time>2023-06-25T14:35:35Z</time>
      </trkpt>
      <trkpt lat="46.421464243903756" lon="8.352480512112379">
        <ele>2568.0799999999999</ele>
        <time>2023-06-25T14:35:37Z</time>
      </trkpt>
      <trkpt lat="46.421596761792898" lon="8.352377330884337">
        <ele>2567.9699999999998</ele>
        <time>2023-06-25T14:35:52Z</time>
      </trkpt>
      <trkpt lat="46.421714946627617" lon="8.352296696975827">
        <ele>2568.3600000000001</ele>
        <time>2023-06-25T14:36:06Z</time>
      </trkpt>
      <trkpt lat="46.421881159767509" lon="8.35229049436748">
        <ele>2568.8099999999999</ele>
        <time>2023-06-25T14:36:24Z</time>
      </trkpt>
      <trkpt lat="46.421946790069342" lon="8.352292003110051">
        <ele>2569.0599999999999</ele>
        <time>2023-06-25T14:36:37Z</time>
      </trkpt>
      <trkpt lat="46.422042846679688" lon="8.352289153262973">
        <ele>2569.04</ele>
        <time>2023-06-25T14:36:50Z</time>
      </trkpt>
      <trkpt lat="46.422122307121754" lon="8.352288398891687">
        <ele>2569.1100000000001</ele>
        <time>2023-06-25T14:36:58Z</time>
      </trkpt>
      <trkpt lat="46.422168323770165" lon="8.352333661168814">
        <ele>2569.0599999999999</ele>
        <time>2023-06-25T14:37:15Z</time>
      </trkpt>
      <trkpt lat="46.422177040949464" lon="8.352359645068646">
        <ele>2570.3600000000001</ele>
        <time>2023-06-25T14:38:06Z</time>
      </trkpt>
      <trkpt lat="46.422182153910398" lon="8.352349167689681">
        <ele>2570.3499999999999</ele>
        <time>2023-06-25T14:38:07Z</time>
      </trkpt>
      <trkpt lat="46.422235378995538" lon="8.352339696139097">
        <ele>2570.1999999999998</ele>
        <time>2023-06-25T14:38:12Z</time>
      </trkpt>
      <trkpt lat="46.42231659963727" lon="8.352384623140097">
        <ele>2569.29</ele>
        <time>2023-06-25T14:38:21Z</time>
      </trkpt>
      <trkpt lat="46.42237326130271" lon="8.352341204881668">
        <ele>2566.4699999999998</ele>
        <time>2023-06-25T14:38:29Z</time>
      </trkpt>
      <trkpt lat="46.422473173588514" lon="8.352281274273992">
        <ele>2562.8000000000002</ele>
        <time>2023-06-25T14:38:42Z</time>
      </trkpt>
      <trkpt lat="46.42256285995245" lon="8.352199550718069">
        <ele>2558.8200000000002</ele>
        <time>2023-06-25T14:38:56Z</time>
      </trkpt>
      <trkpt lat="46.422686241567135" lon="8.352169711142778">
        <ele>2553.75</ele>
        <time>2023-06-25T14:39:13Z</time>
      </trkpt>
      <trkpt lat="46.422770312055945" lon="8.352138698101044">
        <ele>2550.02</ele>
        <time>2023-06-25T14:39:27Z</time>
      </trkpt>
      <trkpt lat="46.422825967893004" lon="8.352123107761145">
        <ele>2547.25</ele>
        <time>2023-06-25T14:39:35Z</time>
      </trkpt>
      <trkpt lat="46.422933088615537" lon="8.352167028933764">
        <ele>2544.1700000000001</ele>
        <time>2023-06-25T14:39:48Z</time>
      </trkpt>
      <trkpt lat="46.423067953437567" lon="8.352176751941443">
        <ele>2542.1700000000001</ele>
        <time>2023-06-25T14:40:03Z</time>
      </trkpt>
      <trkpt lat="46.42314875498414" lon="8.352198377251625">
        <ele>2539.0799999999999</ele>
        <time>2023-06-25T14:40:14Z</time>
      </trkpt>
      <trkpt lat="46.42318295314908" lon="8.352230312302709">
        <ele>2538.7199999999998</ele>
        <time>2023-06-25T14:40:18Z</time>
      </trkpt>
      <trkpt lat="46.423290660604835" lon="8.352330895140767">
        <ele>2537.0599999999999</ele>
        <time>2023-06-25T14:40:31Z</time>
      </trkpt>
      <trkpt lat="46.423352099955082" lon="8.352402811869979">
        <ele>2534.9499999999998</ele>
        <time>2023-06-25T14:40:42Z</time>
      </trkpt>
      <trkpt lat="46.423384202644229" lon="8.352427035570145">
        <ele>2533.8200000000002</ele>
        <time>2023-06-25T14:40:46Z</time>
      </trkpt>
      <trkpt lat="46.423529041931033" lon="8.352426616474986">
        <ele>2530.0999999999999</ele>
        <time>2023-06-25T14:41:02Z</time>
      </trkpt>
      <trkpt lat="46.423554522916675" lon="8.352338271215558">
        <ele>2524.6999999999998</ele>
        <time>2023-06-25T14:41:18Z</time>
      </trkpt>
      <trkpt lat="46.423548823222518" lon="8.352228384464979">
        <ele>2521.6399999999999</ele>
        <time>2023-06-25T14:41:30Z</time>
      </trkpt>
      <trkpt lat="46.423575477674603" lon="8.352222517132759">
        <ele>2520.9299999999998</ele>
        <time>2023-06-25T14:41:33Z</time>
      </trkpt>
      <trkpt lat="46.423704475164413" lon="8.352232491597533">
        <ele>2519.0100000000002</ele>
        <time>2023-06-25T14:41:46Z</time>
      </trkpt>
      <trkpt lat="46.423799358308315" lon="8.352118413895369">
        <ele>2515.7199999999998</ele>
        <time>2023-06-25T14:41:59Z</time>
      </trkpt>
      <trkpt lat="46.423887452110648" lon="8.352122772485018">
        <ele>2514.0500000000002</ele>
        <time>2023-06-25T14:42:08Z</time>
      </trkpt>
      <trkpt lat="46.423934558406472" lon="8.352146074175835">
        <ele>2513.9099999999999</ele>
        <time>2023-06-25T14:42:13Z</time>
      </trkpt>
      <trkpt lat="46.424032123759389" lon="8.352158311754465">
        <ele>2512.0799999999999</ele>
        <time>2023-06-25T14:42:27Z</time>
      </trkpt>
      <trkpt lat="46.424108315259218" lon="8.352226875722408">
        <ele>2509.1300000000001</ele>
        <time>2023-06-25T14:42:39Z</time>
      </trkpt>
      <trkpt lat="46.424143686890602" lon="8.352138279005885">
        <ele>2505.5900000000001</ele>
        <time>2023-06-25T14:42:50Z</time>
      </trkpt>
      <trkpt lat="46.424155170097947" lon="8.352079521864653">
        <ele>2505.1799999999998</ele>
        <time>2023-06-25T14:42:54Z</time>
      </trkpt>
      <trkpt lat="46.424163049086928" lon="8.351977933198214">
        <ele>2503.3499999999999</ele>
        <time>2023-06-25T14:43:09Z</time>
      </trkpt>
      <trkpt lat="46.424207389354706" lon="8.352001318708062">
        <ele>2501.6100000000001</ele>
        <time>2023-06-25T14:43:25Z</time>
      </trkpt>
      <trkpt lat="46.424217280000448" lon="8.352042222395539">
        <ele>2500.8299999999999</ele>
        <time>2023-06-25T14:43:31Z</time>
      </trkpt>
      <trkpt lat="46.424279222264886" lon="8.352165771648288">
        <ele>2499.1700000000001</ele>
        <time>2023-06-25T14:43:50Z</time>
      </trkpt>
      <trkpt lat="46.424362203106284" lon="8.352203238755465">
        <ele>2495.3800000000001</ele>
        <time>2023-06-25T14:44:06Z</time>
      </trkpt>
      <trkpt lat="46.424376871436834" lon="8.352210698649287">
        <ele>2494.8499999999999</ele>
        <time>2023-06-25T14:44:08Z</time>
      </trkpt>
      <trkpt lat="46.424483824521303" lon="8.352278340607882">
        <ele>2490.8000000000002</ele>
        <time>2023-06-25T14:44:25Z</time>
      </trkpt>
      <trkpt lat="46.424501426517963" lon="8.352275909855962">
        <ele>2490.5300000000002</ele>
        <time>2023-06-25T14:44:29Z</time>
      </trkpt>
      <trkpt lat="46.42458968795836" lon="8.352348664775491">
        <ele>2488.4899999999998</ele>
        <time>2023-06-25T14:44:45Z</time>
      </trkpt>
      <trkpt lat="46.424646684899926" lon="8.352325865998864">
        <ele>2484.8800000000001</ele>
        <time>2023-06-25T14:45:02Z</time>
      </trkpt>
      <trkpt lat="46.424699993804097" lon="8.352446397766471">
        <ele>2480.8000000000002</ele>
        <time>2023-06-25T14:45:21Z</time>
      </trkpt>
      <trkpt lat="46.424755062907934" lon="8.352476404979825">
        <ele>2477.5100000000002</ele>
        <time>2023-06-25T14:45:34Z</time>
      </trkpt>
      <trkpt lat="46.424831338226795" lon="8.352455869317055">
        <ele>2473.0599999999999</ele>
        <time>2023-06-25T14:45:53Z</time>
      </trkpt>
      <trkpt lat="46.424923539161682" lon="8.352400129660964">
        <ele>2469</ele>
        <time>2023-06-25T14:46:07Z</time>
      </trkpt>
      <trkpt lat="46.424942398443818" lon="8.352374229580164">
        <ele>2468.3899999999999</ele>
        <time>2023-06-25T14:46:10Z</time>
      </trkpt>
      <trkpt lat="46.424984727054834" lon="8.352480763569474">
        <ele>2465.9699999999998</ele>
        <time>2023-06-25T14:46:19Z</time>
      </trkpt>
      <trkpt lat="46.425083298236132" lon="8.352756947278976">
        <ele>2465.0599999999999</ele>
        <time>2023-06-25T14:46:40Z</time>
      </trkpt>
      <trkpt lat="46.425133924931288" lon="8.352956939488649">
        <ele>2467.1700000000001</ele>
        <time>2023-06-25T14:46:59Z</time>
      </trkpt>
      <trkpt lat="46.425238698720932" lon="8.353138156235218">
        <ele>2464.5300000000002</ele>
        <time>2023-06-25T14:47:19Z</time>
      </trkpt>
      <trkpt lat="46.425360403954983" lon="8.353260532021523">
        <ele>2461.25</ele>
        <time>2023-06-25T14:47:36Z</time>
      </trkpt>
      <trkpt lat="46.425403989851475" lon="8.353364635258913">
        <ele>2460.1900000000001</ele>
        <time>2023-06-25T14:47:44Z</time>
      </trkpt>
      <trkpt lat="46.425407258793712" lon="8.353445772081614">
        <ele>2461.0599999999999</ele>
        <time>2023-06-25T14:48:00Z</time>
      </trkpt>
      <trkpt lat="46.42541354522109" lon="8.353464128449559">
        <ele>2461.1100000000001</ele>
        <time>2023-06-25T14:48:07Z</time>
      </trkpt>
      <trkpt lat="46.425445899367332" lon="8.353569488972426">
        <ele>2460.3899999999999</ele>
        <time>2023-06-25T14:48:16Z</time>
      </trkpt>
      <trkpt lat="46.425467524677515" lon="8.353621289134026">
        <ele>2460.04</ele>
        <time>2023-06-25T14:48:20Z</time>
      </trkpt>
      <trkpt lat="46.425491580739617" lon="8.35373729467392">
        <ele>2459.25</ele>
        <time>2023-06-25T14:48:28Z</time>
      </trkpt>
      <trkpt lat="46.425614710897207" lon="8.35399579256773">
        <ele>2457.4899999999998</ele>
        <time>2023-06-25T14:48:48Z</time>
      </trkpt>
      <trkpt lat="46.425668522715569" lon="8.354113390669227">
        <ele>2457.8699999999999</ele>
        <time>2023-06-25T14:48:58Z</time>
      </trkpt>
      <trkpt lat="46.425755862146616" lon="8.354426706209779">
        <ele>2456.5999999999999</ele>
        <time>2023-06-25T14:49:21Z</time>
      </trkpt>
      <trkpt lat="46.425869101658463" lon="8.354662992060185">
        <ele>2455.0300000000002</ele>
        <time>2023-06-25T14:49:40Z</time>
      </trkpt>
      <trkpt lat="46.426056101918221" lon="8.354770448058844">
        <ele>2454.1599999999999</ele>
        <time>2023-06-25T14:49:59Z</time>
      </trkpt>
      <trkpt lat="46.426134891808033" lon="8.354809256270528">
        <ele>2453.3400000000001</ele>
        <time>2023-06-25T14:50:10Z</time>
      </trkpt>
      <trkpt lat="46.42615869641304" lon="8.354833228513598">
        <ele>2453.3099999999999</ele>
        <time>2023-06-25T14:50:13Z</time>
      </trkpt>
      <trkpt lat="46.426219465211034" lon="8.355049816891551">
        <ele>2447</ele>
        <time>2023-06-25T14:50:31Z</time>
      </trkpt>
      <trkpt lat="46.426284676417708" lon="8.355276128277183">
        <ele>2443.1500000000001</ele>
        <time>2023-06-25T14:50:51Z</time>
      </trkpt>
      <trkpt lat="46.426309319213033" lon="8.35540403611958">
        <ele>2441.1100000000001</ele>
        <time>2023-06-25T14:51:01Z</time>
      </trkpt>
      <trkpt lat="46.426284927874804" lon="8.355511492118239">
        <ele>2440.3400000000001</ele>
        <time>2023-06-25T14:51:08Z</time>
      </trkpt>
      <trkpt lat="46.426294734701514" lon="8.355759344995022">
        <ele>2438.48</ele>
        <time>2023-06-25T14:51:26Z</time>
      </trkpt>
      <trkpt lat="46.426339913159609" lon="8.355927485972643">
        <ele>2436.1999999999998</ele>
        <time>2023-06-25T14:51:41Z</time>
      </trkpt>
      <trkpt lat="46.426355335861444" lon="8.355970568954945">
        <ele>2435.5700000000002</ele>
        <time>2023-06-25T14:51:45Z</time>
      </trkpt>
      <trkpt lat="46.426426917314529" lon="8.356194365769625">
        <ele>2433.9499999999998</ele>
        <time>2023-06-25T14:52:03Z</time>
      </trkpt>
      <trkpt lat="46.426481818780303" lon="8.356259409338236">
        <ele>2432.6500000000001</ele>
        <time>2023-06-25T14:52:11Z</time>
      </trkpt>
      <trkpt lat="46.426508724689484" lon="8.356469627469778">
        <ele>2430.5599999999999</ele>
        <time>2023-06-25T14:52:26Z</time>
      </trkpt>
      <trkpt lat="46.426510317251086" lon="8.356484211981297">
        <ele>2430.4400000000001</ele>
        <time>2023-06-25T14:52:27Z</time>
      </trkpt>
      <trkpt lat="46.426560943946242" lon="8.356707841157913">
        <ele>2429.0100000000002</ele>
        <time>2023-06-25T14:52:44Z</time>
      </trkpt>
      <trkpt lat="46.426610313355923" lon="8.357022916898131">
        <ele>2427.4400000000001</ele>
        <time>2023-06-25T14:53:05Z</time>
      </trkpt>
      <trkpt lat="46.426639817655087" lon="8.357251910492778">
        <ele>2426.0999999999999</ele>
        <time>2023-06-25T14:53:21Z</time>
      </trkpt>
      <trkpt lat="46.426634704694152" lon="8.357507726177573">
        <ele>2424.98</ele>
        <time>2023-06-25T14:53:39Z</time>
      </trkpt>
      <trkpt lat="46.426642835140228" lon="8.357566986232996">
        <ele>2424.5999999999999</ele>
        <time>2023-06-25T14:53:43Z</time>
      </trkpt>
      <trkpt lat="46.426662197336555" lon="8.35773135535419">
        <ele>2422.0900000000001</ele>
        <time>2023-06-25T14:54:00Z</time>
      </trkpt>
      <trkpt lat="46.426748195663095" lon="8.357887426391244">
        <ele>2418.6300000000001</ele>
        <time>2023-06-25T14:54:18Z</time>
      </trkpt>
      <trkpt lat="46.426810473203659" lon="8.358019273728132">
        <ele>2415.48</ele>
        <time>2023-06-25T14:54:32Z</time>
      </trkpt>
      <trkpt lat="46.426878869533539" lon="8.358194790780544">
        <ele>2412.25</ele>
        <time>2023-06-25T14:54:48Z</time>
      </trkpt>
      <trkpt lat="46.426882054656744" lon="8.358208034187555">
        <ele>2412.1199999999999</ele>
        <time>2023-06-25T14:54:49Z</time>
      </trkpt>
      <trkpt lat="46.426925892010331" lon="8.358380785211921">
        <ele>2409.6500000000001</ele>
        <time>2023-06-25T14:55:06Z</time>
      </trkpt>
      <trkpt lat="46.426987247541547" lon="8.358526546508074">
        <ele>2406.4899999999998</ele>
        <time>2023-06-25T14:55:22Z</time>
      </trkpt>
      <trkpt lat="46.427023876458406" lon="8.358600391075015">
        <ele>2404.0100000000002</ele>
        <time>2023-06-25T14:55:31Z</time>
      </trkpt>
      <trkpt lat="46.427053464576602" lon="8.358651101589203">
        <ele>2403.4099999999999</ele>
        <time>2023-06-25T14:55:36Z</time>
      </trkpt>
      <trkpt lat="46.427087662741542" lon="8.358710864558816">
        <ele>2402.23</ele>
        <time>2023-06-25T14:55:43Z</time>
      </trkpt>
      <trkpt lat="46.42713594250381" lon="8.358940109610558">
        <ele>2397.9000000000001</ele>
        <time>2023-06-25T14:56:01Z</time>
      </trkpt>
      <trkpt lat="46.427193358540535" lon="8.359198356047273">
        <ele>2392.4200000000001</ele>
        <time>2023-06-25T14:56:22Z</time>
      </trkpt>
      <trkpt lat="46.427260665223002" lon="8.359395582228899">
        <ele>2389.8699999999999</ele>
        <time>2023-06-25T14:56:39Z</time>
      </trkpt>
      <trkpt lat="46.427341215312481" lon="8.359576044604182">
        <ele>2386.8400000000001</ele>
        <time>2023-06-25T14:56:55Z</time>
      </trkpt>
      <trkpt lat="46.427422100678086" lon="8.359700348228216">
        <ele>2383.54</ele>
        <time>2023-06-25T14:57:11Z</time>
      </trkpt>
      <trkpt lat="46.42749946564436" lon="8.359895143657923">
        <ele>2378.1900000000001</ele>
        <time>2023-06-25T14:57:31Z</time>
      </trkpt>
      <trkpt lat="46.427535004913807" lon="8.360065296292305">
        <ele>2374.5799999999999</ele>
        <time>2023-06-25T14:57:46Z</time>
      </trkpt>
      <trkpt lat="46.427661068737507" lon="8.360257996246219">
        <ele>2369.2199999999998</ele>
        <time>2023-06-25T14:58:07Z</time>
      </trkpt>
      <trkpt lat="46.427724435925484" lon="8.360375845804811">
        <ele>2365.4400000000001</ele>
        <time>2023-06-25T14:58:21Z</time>
      </trkpt>
      <trkpt lat="46.427731476724148" lon="8.36045254021883">
        <ele>2364.1700000000001</ele>
        <time>2023-06-25T14:58:27Z</time>
      </trkpt>
      <trkpt lat="46.427799705415964" lon="8.360664015635848">
        <ele>2358.1300000000001</ele>
        <time>2023-06-25T14:58:47Z</time>
      </trkpt>
      <trkpt lat="46.427802387624979" lon="8.360718749463558">
        <ele>2357.48</ele>
        <time>2023-06-25T14:58:51Z</time>
      </trkpt>
      <trkpt lat="46.427796771749854" lon="8.360765771940351">
        <ele>2357.25</ele>
        <time>2023-06-25T14:58:56Z</time>
      </trkpt>
      <trkpt lat="46.427797609940171" lon="8.360794438049197">
        <ele>2356.98</ele>
        <time>2023-06-25T14:58:58Z</time>
      </trkpt>
      <trkpt lat="46.427799789234996" lon="8.360835257917643">
        <ele>2356.3899999999999</ele>
        <time>2023-06-25T14:59:01Z</time>
      </trkpt>
      <trkpt lat="46.427802639082074" lon="8.361037094146013">
        <ele>2352.3099999999999</ele>
        <time>2023-06-25T14:59:18Z</time>
      </trkpt>
      <trkpt lat="46.427829125896096" lon="8.361186711117625">
        <ele>2347.73</ele>
        <time>2023-06-25T14:59:33Z</time>
      </trkpt>
      <trkpt lat="46.427837591618299" lon="8.361254269257188">
        <ele>2345.5700000000002</ele>
        <time>2023-06-25T14:59:39Z</time>
      </trkpt>
      <trkpt lat="46.427859719842672" lon="8.361358623951674">
        <ele>2343.3000000000002</ele>
        <time>2023-06-25T14:59:56Z</time>
      </trkpt>
      <trkpt lat="46.427863324061036" lon="8.361367760226131">
        <ele>2343.27</ele>
        <time>2023-06-25T14:59:58Z</time>
      </trkpt>
      <trkpt lat="46.427936917170882" lon="8.361525842919946">
        <ele>2339.3899999999999</ele>
        <time>2023-06-25T15:00:15Z</time>
      </trkpt>
      <trkpt lat="46.428017048165202" lon="8.361687194555998">
        <ele>2335.1999999999998</ele>
        <time>2023-06-25T15:00:32Z</time>
      </trkpt>
      <trkpt lat="46.428068764507771" lon="8.361819963902235">
        <ele>2330.77</ele>
        <time>2023-06-25T15:00:48Z</time>
      </trkpt>
      <trkpt lat="46.42815669067204" lon="8.362033367156982">
        <ele>2327.4200000000001</ele>
        <time>2023-06-25T15:01:07Z</time>
      </trkpt>
      <trkpt lat="46.428257441148162" lon="8.36221307516098">
        <ele>2322.8400000000001</ele>
        <time>2023-06-25T15:01:27Z</time>
      </trkpt>
      <trkpt lat="46.428307900205255" lon="8.362318184226751">
        <ele>2321.6300000000001</ele>
        <time>2023-06-25T15:01:45Z</time>
      </trkpt>
      <trkpt lat="46.428317036479712" lon="8.362374845892191">
        <ele>2320.6300000000001</ele>
        <time>2023-06-25T15:01:58Z</time>
      </trkpt>
      <trkpt lat="46.428321730345488" lon="8.362414240837097">
        <ele>2319.6799999999998</ele>
        <time>2023-06-25T15:02:01Z</time>
      </trkpt>
      <trkpt lat="46.428402699530125" lon="8.362642480060458">
        <ele>2314.7600000000002</ele>
        <time>2023-06-25T15:02:23Z</time>
      </trkpt>
      <trkpt lat="46.428453410044312" lon="8.36278622969985">
        <ele>2310.4099999999999</ele>
        <time>2023-06-25T15:02:42Z</time>
      </trkpt>
      <trkpt lat="46.428494565188885" lon="8.362897289916873">
        <ele>2307.21</ele>
        <time>2023-06-25T15:02:58Z</time>
      </trkpt>
      <trkpt lat="46.428499007597566" lon="8.362926878035069">
        <ele>2306.25</ele>
        <time>2023-06-25T15:03:02Z</time>
      </trkpt>
      <trkpt lat="46.428553489968181" lon="8.363046068698168">
        <ele>2302.4400000000001</ele>
        <time>2023-06-25T15:03:18Z</time>
      </trkpt>
      <trkpt lat="46.428579138591886" lon="8.363111699000001">
        <ele>2299.4499999999998</ele>
        <time>2023-06-25T15:03:34Z</time>
      </trkpt>
      <trkpt lat="46.428588945418596" lon="8.363149166107178">
        <ele>2297.73</ele>
        <time>2023-06-25T15:03:41Z</time>
      </trkpt>
      <trkpt lat="46.428584586828947" lon="8.363196104764938">
        <ele>2296.75</ele>
        <time>2023-06-25T15:03:44Z</time>
      </trkpt>
      <trkpt lat="46.428632447496057" lon="8.36350841447711">
        <ele>2295.3499999999999</ele>
        <time>2023-06-25T15:04:05Z</time>
      </trkpt>
      <trkpt lat="46.428641248494387" lon="8.363541020080447">
        <ele>2295.4299999999998</ele>
        <time>2023-06-25T15:04:21Z</time>
      </trkpt>
      <trkpt lat="46.428655833005905" lon="8.363536829128861">
        <ele>2293.8200000000002</ele>
        <time>2023-06-25T15:04:43Z</time>
      </trkpt>
      <trkpt lat="46.428646193817258" lon="8.363551748916507">
        <ele>2292.3400000000001</ele>
        <time>2023-06-25T15:05:06Z</time>
      </trkpt>
      <trkpt lat="46.428646193817258" lon="8.363561723381281">
        <ele>2292.0900000000001</ele>
        <time>2023-06-25T15:05:32Z</time>
      </trkpt>
      <trkpt lat="46.428643260151148" lon="8.363557951524854">
        <ele>2293.6500000000001</ele>
        <time>2023-06-25T15:06:14Z</time>
      </trkpt>
      <trkpt lat="46.428651977330446" lon="8.36356507614255">
        <ele>2294.8699999999999</ele>
        <time>2023-06-25T15:06:53Z</time>
      </trkpt>
      <trkpt lat="46.428649295121431" lon="8.363566836342216">
        <ele>2293.8400000000001</ele>
        <time>2023-06-25T15:07:46Z</time>
      </trkpt>
      <trkpt lat="46.428660023957491" lon="8.363564824685454">
        <ele>2292.5300000000002</ele>
        <time>2023-06-25T15:08:36Z</time>
      </trkpt>
      <trkpt lat="46.428659940138459" lon="8.36354210972786">
        <ele>2290.98</ele>
        <time>2023-06-25T15:09:27Z</time>
      </trkpt>
      <trkpt lat="46.428650720044971" lon="8.363541774451733">
        <ele>2291.4499999999998</ele>
        <time>2023-06-25T15:10:30Z</time>
      </trkpt>
      <trkpt lat="46.428652312606573" lon="8.363535823300481">
        <ele>2291.98</ele>
        <time>2023-06-25T15:11:05Z</time>
      </trkpt>
      <trkpt lat="46.428648708388209" lon="8.363528698682785">
        <ele>2292.0900000000001</ele>
        <time>2023-06-25T15:11:21Z</time>
      </trkpt>
      <trkpt lat="46.428648205474019" lon="8.363517047837377">
        <ele>2292.6700000000001</ele>
        <time>2023-06-25T15:11:47Z</time>
      </trkpt>
      <trkpt lat="46.428644768893719" lon="8.363519059494138">
        <ele>2292.6300000000001</ele>
        <time>2023-06-25T15:12:08Z</time>
      </trkpt>
      <trkpt lat="46.42864384688437" lon="8.363529285416007">
        <ele>2291.98</ele>
        <time>2023-06-25T15:12:12Z</time>
      </trkpt>
      <trkpt lat="46.428647451102734" lon="8.363557700067759">
        <ele>2291.9899999999998</ele>
        <time>2023-06-25T15:12:14Z</time>
      </trkpt>
      <trkpt lat="46.428716937080026" lon="8.363816281780601">
        <ele>2291.7399999999998</ele>
        <time>2023-06-25T15:12:33Z</time>
      </trkpt>
      <trkpt lat="46.428725654259324" lon="8.363951900973916">
        <ele>2293.27</ele>
        <time>2023-06-25T15:12:50Z</time>
      </trkpt>
      <trkpt lat="46.428739903494716" lon="8.364100093021989">
        <ele>2293.5599999999999</ele>
        <time>2023-06-25T15:13:06Z</time>
      </trkpt>
      <trkpt lat="46.428845850750804" lon="8.364308131858707">
        <ele>2292.7399999999998</ele>
        <time>2023-06-25T15:13:23Z</time>
      </trkpt>
      <trkpt lat="46.428891364485025" lon="8.364519104361534">
        <ele>2290.7800000000002</ele>
        <time>2023-06-25T15:13:39Z</time>
      </trkpt>
      <trkpt lat="46.4289013389498" lon="8.364664195105434">
        <ele>2287.54</ele>
        <time>2023-06-25T15:13:52Z</time>
      </trkpt>
      <trkpt lat="46.428918102756143" lon="8.364688837900758">
        <ele>2286.3600000000001</ele>
        <time>2023-06-25T15:13:56Z</time>
      </trkpt>
      <trkpt lat="46.428919192403555" lon="8.364777686074376">
        <ele>2283.29</ele>
        <time>2023-06-25T15:14:09Z</time>
      </trkpt>
      <trkpt lat="46.428983984515071" lon="8.364860666915774">
        <ele>2280.71</ele>
        <time>2023-06-25T15:14:23Z</time>
      </trkpt>
      <trkpt lat="46.429030420258641" lon="8.364883800968528">
        <ele>2278.5300000000002</ele>
        <time>2023-06-25T15:14:31Z</time>
      </trkpt>
      <trkpt lat="46.429046345874667" lon="8.364961752668023">
        <ele>2275.0900000000001</ele>
        <time>2023-06-25T15:14:44Z</time>
      </trkpt>
      <trkpt lat="46.429010722786188" lon="8.365035681053996">
        <ele>2272.27</ele>
        <time>2023-06-25T15:14:59Z</time>
      </trkpt>
      <trkpt lat="46.429001251235604" lon="8.365129474550486">
        <ele>2270.7199999999998</ele>
        <time>2023-06-25T15:15:11Z</time>
      </trkpt>
      <trkpt lat="46.429039975628257" lon="8.365265345200896">
        <ele>2269.6799999999998</ele>
        <time>2023-06-25T15:15:24Z</time>
      </trkpt>
      <trkpt lat="46.429087836295366" lon="8.365395767614245">
        <ele>2268.6399999999999</ele>
        <time>2023-06-25T15:15:38Z</time>
      </trkpt>
      <trkpt lat="46.429132763296366" lon="8.365465337410569">
        <ele>2267.5300000000002</ele>
        <time>2023-06-25T15:15:49Z</time>
      </trkpt>
      <trkpt lat="46.429214235395193" lon="8.365584444254637">
        <ele>2265.29</ele>
        <time>2023-06-25T15:16:04Z</time>
      </trkpt>
      <trkpt lat="46.429256564006209" lon="8.365717632696033">
        <ele>2263.8400000000001</ele>
        <time>2023-06-25T15:16:20Z</time>
      </trkpt>
      <trkpt lat="46.429273914545774" lon="8.365762727335095">
        <ele>2262.9899999999998</ele>
        <time>2023-06-25T15:16:34Z</time>
      </trkpt>
      <trkpt lat="46.429320685565472" lon="8.365815198048949">
        <ele>2261.6700000000001</ele>
        <time>2023-06-25T15:16:47Z</time>
      </trkpt>
      <trkpt lat="46.429333006963134" lon="8.365853251889348">
        <ele>2261.75</ele>
        <time>2023-06-25T15:17:03Z</time>
      </trkpt>
      <trkpt lat="46.429333593696356" lon="8.365857778117061">
        <ele>2262.0799999999999</ele>
        <time>2023-06-25T15:17:14Z</time>
      </trkpt>
      <trkpt lat="46.429338790476322" lon="8.36584847420454">
        <ele>2262.6199999999999</ele>
        <time>2023-06-25T15:17:30Z</time>
      </trkpt>
      <trkpt lat="46.429334934800863" lon="8.365842523053289">
        <ele>2263.3699999999999</ele>
        <time>2023-06-25T15:18:08Z</time>
      </trkpt>
      <trkpt lat="46.429336862638593" lon="8.365835649892688">
        <ele>2263.1999999999998</ele>
        <time>2023-06-25T15:18:43Z</time>
      </trkpt>
      <trkpt lat="46.429341807961464" lon="8.365837829187512">
        <ele>2262.8000000000002</ele>
        <time>2023-06-25T15:19:00Z</time>
      </trkpt>
      <trkpt lat="46.429369216784835" lon="8.365909494459629">
        <ele>2261.5799999999999</ele>
        <time>2023-06-25T15:19:17Z</time>
      </trkpt>
      <trkpt lat="46.429422693327069" lon="8.365907650440931">
        <ele>2259.5799999999999</ele>
        <time>2023-06-25T15:19:26Z</time>
      </trkpt>
      <trkpt lat="46.429472398012877" lon="8.365867668762803">
        <ele>2260.1999999999998</ele>
        <time>2023-06-25T15:19:36Z</time>
      </trkpt>
      <trkpt lat="46.429486060515046" lon="8.36585283279419">
        <ele>2260.0100000000002</ele>
        <time>2023-06-25T15:19:38Z</time>
      </trkpt>
      <trkpt lat="46.429550517350435" lon="8.365959450602531">
        <ele>2255.5</ele>
        <time>2023-06-25T15:19:51Z</time>
      </trkpt>
      <trkpt lat="46.429584715515375" lon="8.365927180275321">
        <ele>2254.4000000000001</ele>
        <time>2023-06-25T15:19:56Z</time>
      </trkpt>
      <trkpt lat="46.429652189835906" lon="8.365967329591513">
        <ele>2251.4000000000001</ele>
        <time>2023-06-25T15:20:08Z</time>
      </trkpt>
      <trkpt lat="46.429717820137739" lon="8.365982249379158">
        <ele>2248.0300000000002</ele>
        <time>2023-06-25T15:20:18Z</time>
      </trkpt>
      <trkpt lat="46.429765345528722" lon="8.365972442552447">
        <ele>2246.1100000000001</ele>
        <time>2023-06-25T15:20:27Z</time>
      </trkpt>
      <trkpt lat="46.429806500673294" lon="8.365974454209209">
        <ele>2245.0700000000002</ele>
        <time>2023-06-25T15:20:34Z</time>
      </trkpt>
      <trkpt lat="46.429846901446581" lon="8.36597747169435">
        <ele>2243.4200000000001</ele>
        <time>2023-06-25T15:20:40Z</time>
      </trkpt>
      <trkpt lat="46.429880680516362" lon="8.365958780050278">
        <ele>2244.71</ele>
        <time>2023-06-25T15:20:47Z</time>
      </trkpt>
      <trkpt lat="46.429963493719697" lon="8.365932209417224">
        <ele>2242.6199999999999</ele>
        <time>2023-06-25T15:21:00Z</time>
      </trkpt>
      <trkpt lat="46.429993668571115" lon="8.365961713716388">
        <ele>2241.8400000000001</ele>
        <time>2023-06-25T15:21:06Z</time>
      </trkpt>
      <trkpt lat="46.430080840364099" lon="8.366007227450609">
        <ele>2236.7399999999998</ele>
        <time>2023-06-25T15:21:20Z</time>
      </trkpt>
      <trkpt lat="46.430114032700658" lon="8.366043856367469">
        <ele>2234.7399999999998</ele>
        <time>2023-06-25T15:21:26Z</time>
      </trkpt>
      <trkpt lat="46.430161222815514" lon="8.366044443100691">
        <ele>2232.9099999999999</ele>
        <time>2023-06-25T15:21:32Z</time>
      </trkpt>
      <trkpt lat="46.430206317454576" lon="8.366016112267971">
        <ele>2231.48</ele>
        <time>2023-06-25T15:21:39Z</time>
      </trkpt>
      <trkpt lat="46.430274043232203" lon="8.366100350394845">
        <ele>2228.0599999999999</ele>
        <time>2023-06-25T15:21:51Z</time>
      </trkpt>
      <trkpt lat="46.430308492854238" lon="8.366256337612867">
        <ele>2227.04</ele>
        <time>2023-06-25T15:22:06Z</time>
      </trkpt>
      <trkpt lat="46.430336907505989" lon="8.366325823590159">
        <ele>2225.9400000000001</ele>
        <time>2023-06-25T15:22:21Z</time>
      </trkpt>
      <trkpt lat="46.430383427068591" lon="8.36637519299984">
        <ele>2224.3600000000001</ele>
        <time>2023-06-25T15:22:34Z</time>
      </trkpt>
      <trkpt lat="46.43039952032268" lon="8.366376366466284">
        <ele>2223.8499999999999</ele>
        <time>2023-06-25T15:22:37Z</time>
      </trkpt>
      <trkpt lat="46.430448722094297" lon="8.366399416700006">
        <ele>2222.1700000000001</ele>
        <time>2023-06-25T15:22:49Z</time>
      </trkpt>
      <trkpt lat="46.430506557226181" lon="8.366404948756099">
        <ele>2220.9000000000001</ele>
        <time>2023-06-25T15:23:01Z</time>
      </trkpt>
      <trkpt lat="46.430528433993459" lon="8.366443924605846">
        <ele>2219.8800000000001</ele>
        <time>2023-06-25T15:23:15Z</time>
      </trkpt>
      <trkpt lat="46.430530529469252" lon="8.366446439176798">
        <ele>2219.8499999999999</ele>
        <time>2023-06-25T15:23:16Z</time>
      </trkpt>
      <trkpt lat="46.430561207234859" lon="8.366453647613525">
        <ele>2219.7600000000002</ele>
        <time>2023-06-25T15:23:29Z</time>
      </trkpt>
      <trkpt lat="46.430604290217161" lon="8.366482313722372">
        <ele>2218.0700000000002</ele>
        <time>2023-06-25T15:23:43Z</time>
      </trkpt>
      <trkpt lat="46.430653156712651" lon="8.3664929587394">
        <ele>2216.3200000000002</ele>
        <time>2023-06-25T15:23:59Z</time>
      </trkpt>
      <trkpt lat="46.430696491152048" lon="8.366542663425207">
        <ele>2216.1700000000001</ele>
        <time>2023-06-25T15:24:12Z</time>
      </trkpt>
      <trkpt lat="46.43074301071465" lon="8.366669146344066">
        <ele>2215.7399999999998</ele>
        <time>2023-06-25T15:24:25Z</time>
      </trkpt>
      <trkpt lat="46.430785255506635" lon="8.366706948727369">
        <ele>2216.4899999999998</ele>
        <time>2023-06-25T15:24:38Z</time>
      </trkpt>
      <trkpt lat="46.430830685421824" lon="8.366738632321358">
        <ele>2216.3699999999999</ele>
        <time>2023-06-25T15:24:51Z</time>
      </trkpt>
      <trkpt lat="46.430902099236846" lon="8.366856230422854">
        <ele>2217.4099999999999</ele>
        <time>2023-06-25T15:25:06Z</time>
      </trkpt>
      <trkpt lat="46.430953228846192" lon="8.366997800767422">
        <ele>2218.0300000000002</ele>
        <time>2023-06-25T15:25:21Z</time>
      </trkpt>
      <trkpt lat="46.431005196645856" lon="8.367146495729685">
        <ele>2215.9499999999998</ele>
        <time>2023-06-25T15:25:35Z</time>
      </trkpt>
      <trkpt lat="46.431026821956038" lon="8.367297705262899">
        <ele>2214.23</ele>
        <time>2023-06-25T15:25:47Z</time>
      </trkpt>
      <trkpt lat="46.431028163060546" lon="8.367395857349038">
        <ele>2213.4699999999998</ele>
        <time>2023-06-25T15:25:54Z</time>
      </trkpt>
      <trkpt lat="46.431042831391096" lon="8.367456207051873">
        <ele>2213.46</ele>
        <time>2023-06-25T15:25:58Z</time>
      </trkpt>
      <trkpt lat="46.431111060082912" lon="8.367722248658538">
        <ele>2211.7199999999998</ele>
        <time>2023-06-25T15:26:19Z</time>
      </trkpt>
      <trkpt lat="46.431108880788088" lon="8.367930203676224">
        <ele>2209.5300000000002</ele>
        <time>2023-06-25T15:26:36Z</time>
      </trkpt>
      <trkpt lat="46.431097649037838" lon="8.368001952767372">
        <ele>2208.5999999999999</ele>
        <time>2023-06-25T15:26:54Z</time>
      </trkpt>
      <trkpt lat="46.431125309318304" lon="8.368017291650176">
        <ele>2208.4899999999998</ele>
        <time>2023-06-25T15:27:12Z</time>
      </trkpt>
      <trkpt lat="46.431122878566384" lon="8.368064733222127">
        <ele>2208.3800000000001</ele>
        <time>2023-06-25T15:27:41Z</time>
      </trkpt>
      <trkpt lat="46.431123046204448" lon="8.368094740435481">
        <ele>2208.2199999999998</ele>
        <time>2023-06-25T15:27:44Z</time>
      </trkpt>
      <trkpt lat="46.431138468906283" lon="8.368156515061855">
        <ele>2207.6500000000001</ele>
        <time>2023-06-25T15:27:49Z</time>
      </trkpt>
      <trkpt lat="46.431159088388085" lon="8.368269754573703">
        <ele>2207.0799999999999</ele>
        <time>2023-06-25T15:28:11Z</time>
      </trkpt>
      <trkpt lat="46.431160178035498" lon="8.368387939408422">
        <ele>2204.8000000000002</ele>
        <time>2023-06-25T15:28:30Z</time>
      </trkpt>
      <trkpt lat="46.431197728961706" lon="8.368526743724942">
        <ele>2200.3299999999999</ele>
        <time>2023-06-25T15:28:44Z</time>
      </trkpt>
      <trkpt lat="46.431187838315964" lon="8.36869521997869">
        <ele>2195.5799999999999</ele>
        <time>2023-06-25T15:28:58Z</time>
      </trkpt>
      <trkpt lat="46.431154310703278" lon="8.36891021579504">
        <ele>2191.4099999999999</ele>
        <time>2023-06-25T15:29:17Z</time>
      </trkpt>
      <trkpt lat="46.431141067296267" lon="8.368951957672834">
        <ele>2190.98</ele>
        <time>2023-06-25T15:29:20Z</time>
      </trkpt>
      <trkpt lat="46.431146347895265" lon="8.368982467800379">
        <ele>2189.5</ele>
        <time>2023-06-25T15:29:22Z</time>
      </trkpt>
      <trkpt lat="46.431187419220805" lon="8.369106855243444">
        <ele>2187.4299999999998</ele>
        <time>2023-06-25T15:29:32Z</time>
      </trkpt>
      <trkpt lat="46.431188089773059" lon="8.369153710082173">
        <ele>2187.3600000000001</ele>
        <time>2023-06-25T15:29:36Z</time>
      </trkpt>
      <trkpt lat="46.431188425049186" lon="8.369342889636755">
        <ele>2185.77</ele>
        <time>2023-06-25T15:29:53Z</time>
      </trkpt>
      <trkpt lat="46.431199070066214" lon="8.369586383923888">
        <ele>2183.8800000000001</ele>
        <time>2023-06-25T15:30:12Z</time>
      </trkpt>
      <trkpt lat="46.431190855801105" lon="8.369598956778646">
        <ele>2184.2399999999998</ele>
        <time>2023-06-25T15:30:13Z</time>
      </trkpt>
      <trkpt lat="46.431193873286247" lon="8.369673304259777">
        <ele>2184.6199999999999</ele>
        <time>2023-06-25T15:30:19Z</time>
      </trkpt>
      <trkpt lat="46.43119839951396" lon="8.369686296209693">
        <ele>2184.5599999999999</ele>
        <time>2023-06-25T15:30:20Z</time>
      </trkpt>
      <trkpt lat="46.431212984025478" lon="8.369732899591327">
        <ele>2185.1999999999998</ele>
        <time>2023-06-25T15:30:38Z</time>
      </trkpt>
      <trkpt lat="46.431248607113957" lon="8.369793500751257">
        <ele>2185.1799999999998</ele>
        <time>2023-06-25T15:30:54Z</time>
      </trkpt>
      <trkpt lat="46.431254390627146" lon="8.369827028363943">
        <ele>2185.3099999999999</ele>
        <time>2023-06-25T15:31:10Z</time>
      </trkpt>
      <trkpt lat="46.431259755045176" lon="8.369840690866113">
        <ele>2185.48</ele>
        <time>2023-06-25T15:31:25Z</time>
      </trkpt>
      <trkpt lat="46.431295797228813" lon="8.369890730828047">
        <ele>2185.4099999999999</ele>
        <time>2023-06-25T15:31:43Z</time>
      </trkpt>
      <trkpt lat="46.431327480822802" lon="8.369988966733217">
        <ele>2183.7800000000002</ele>
        <time>2023-06-25T15:31:57Z</time>
      </trkpt>
      <trkpt lat="46.431344579905272" lon="8.370072953402996">
        <ele>2180.8099999999999</ele>
        <time>2023-06-25T15:32:11Z</time>
      </trkpt>
      <trkpt lat="46.431340305134654" lon="8.370125340297818">
        <ele>2179.1300000000001</ele>
        <time>2023-06-25T15:32:25Z</time>
      </trkpt>
      <trkpt lat="46.431344915181398" lon="8.370244950056076">
        <ele>2176.1500000000001</ele>
        <time>2023-06-25T15:32:42Z</time>
      </trkpt>
      <trkpt lat="46.431328151375055" lon="8.370360704138875">
        <ele>2172.73</ele>
        <time>2023-06-25T15:32:57Z</time>
      </trkpt>
      <trkpt lat="46.431335611268878" lon="8.370466232299805">
        <ele>2170.1399999999999</ele>
        <time>2023-06-25T15:33:11Z</time>
      </trkpt>
      <trkpt lat="46.431330163031816" lon="8.370521888136864">
        <ele>2168.4200000000001</ele>
        <time>2023-06-25T15:33:27Z</time>
      </trkpt>
      <trkpt lat="46.431344412267208" lon="8.370625237002969">
        <ele>2164.9699999999998</ele>
        <time>2023-06-25T15:33:41Z</time>
      </trkpt>
      <trkpt lat="46.431361427530646" lon="8.370784409344196">
        <ele>2161.1900000000001</ele>
        <time>2023-06-25T15:33:57Z</time>
      </trkpt>
      <trkpt lat="46.431381460279226" lon="8.370886668562889">
        <ele>2157.6599999999999</ele>
        <time>2023-06-25T15:34:12Z</time>
      </trkpt>
      <trkpt lat="46.431421777233481" lon="8.370995046570897">
        <ele>2154.3699999999999</ele>
        <time>2023-06-25T15:34:27Z</time>
      </trkpt>
      <trkpt lat="46.431457903236151" lon="8.371126810088754">
        <ele>2150.8600000000001</ele>
        <time>2023-06-25T15:34:45Z</time>
      </trkpt>
      <trkpt lat="46.431486150249839" lon="8.371287239715457">
        <ele>2147.8600000000001</ele>
        <time>2023-06-25T15:35:01Z</time>
      </trkpt>
      <trkpt lat="46.431500064209104" lon="8.371362341567874">
        <ele>2147</ele>
        <time>2023-06-25T15:35:17Z</time>
      </trkpt>
      <trkpt lat="46.431509535759687" lon="8.371418165042996">
        <ele>2146.1799999999998</ele>
        <time>2023-06-25T15:35:40Z</time>
      </trkpt>
      <trkpt lat="46.431567622348666" lon="8.371552862226963">
        <ele>2143.48</ele>
        <time>2023-06-25T15:35:55Z</time>
      </trkpt>
      <trkpt lat="46.43165186047554" lon="8.371791411191225">
        <ele>2140.9099999999999</ele>
        <time>2023-06-25T15:36:14Z</time>
      </trkpt>
      <trkpt lat="46.431693937629461" lon="8.372044879943132">
        <ele>2138.0500000000002</ele>
        <time>2023-06-25T15:36:34Z</time>
      </trkpt>
      <trkpt lat="46.431689830496907" lon="8.372135739773512">
        <ele>2136.75</ele>
        <time>2023-06-25T15:36:42Z</time>
      </trkpt>
      <trkpt lat="46.431687483564019" lon="8.372179828584194">
        <ele>2136.6500000000001</ele>
        <time>2023-06-25T15:36:45Z</time>
      </trkpt>
      <trkpt lat="46.431698463857174" lon="8.372419802471995">
        <ele>2135.21</ele>
        <time>2023-06-25T15:37:04Z</time>
      </trkpt>
      <trkpt lat="46.431685807183385" lon="8.372570006176829">
        <ele>2131.96</ele>
        <time>2023-06-25T15:37:23Z</time>
      </trkpt>
      <trkpt lat="46.43167675472796" lon="8.372672516852617">
        <ele>2130.3099999999999</ele>
        <time>2023-06-25T15:37:37Z</time>
      </trkpt>
      <trkpt lat="46.431673904880881" lon="8.372829845175147">
        <ele>2127.8200000000002</ele>
        <time>2023-06-25T15:37:55Z</time>
      </trkpt>
      <trkpt lat="46.431678850203753" lon="8.372860103845596">
        <ele>2127.0999999999999</ele>
        <time>2023-06-25T15:38:12Z</time>
      </trkpt>
      <trkpt lat="46.431684382259846" lon="8.372893463820219">
        <ele>2125.8899999999999</ele>
        <time>2023-06-25T15:38:28Z</time>
      </trkpt>
      <trkpt lat="46.431646747514606" lon="8.37288667447865">
        <ele>2124.46</ele>
        <time>2023-06-25T15:38:40Z</time>
      </trkpt>
      <trkpt lat="46.431646915152669" lon="8.372985580936074">
        <ele>2121.8699999999999</ele>
        <time>2023-06-25T15:38:56Z</time>
      </trkpt>
      <trkpt lat="46.431621266528964" lon="8.372964626178145">
        <ele>2121.8499999999999</ele>
        <time>2023-06-25T15:39:13Z</time>
      </trkpt>
      <trkpt lat="46.431626966223121" lon="8.373025478795171">
        <ele>2119.4699999999998</ele>
        <time>2023-06-25T15:39:29Z</time>
      </trkpt>
      <trkpt lat="46.431671222671866" lon="8.37311826646328">
        <ele>2117.4499999999998</ele>
        <time>2023-06-25T15:39:44Z</time>
      </trkpt>
      <trkpt lat="46.431681197136641" lon="8.373221615329385">
        <ele>2114.6100000000001</ele>
        <time>2023-06-25T15:40:01Z</time>
      </trkpt>
      <trkpt lat="46.431694440543652" lon="8.373322281986475">
        <ele>2111.1199999999999</ele>
        <time>2023-06-25T15:40:17Z</time>
      </trkpt>
      <trkpt lat="46.431718077510595" lon="8.373438874259591">
        <ele>2108.77</ele>
        <time>2023-06-25T15:40:33Z</time>
      </trkpt>
      <trkpt lat="46.43172268755734" lon="8.373591592535377">
        <ele>2105.6700000000001</ele>
        <time>2023-06-25T15:40:50Z</time>
      </trkpt>
      <trkpt lat="46.431733751669526" lon="8.373669041320682">
        <ele>2104.48</ele>
        <time>2023-06-25T15:40:58Z</time>
      </trkpt>
      <trkpt lat="46.4317368529737" lon="8.373685134574771">
        <ele>2104.4000000000001</ele>
        <time>2023-06-25T15:40:59Z</time>
      </trkpt>
      <trkpt lat="46.431727297604084" lon="8.373788567259908">
        <ele>2103.8800000000001</ele>
        <time>2023-06-25T15:41:09Z</time>
      </trkpt>
      <trkpt lat="46.431723944842815" lon="8.373839361593127">
        <ele>2103.5799999999999</ele>
        <time>2023-06-25T15:41:12Z</time>
      </trkpt>
      <trkpt lat="46.431746073067188" lon="8.374001970514655">
        <ele>2101.5</ele>
        <time>2023-06-25T15:41:29Z</time>
      </trkpt>
      <trkpt lat="46.431751772761345" lon="8.374173380434513">
        <ele>2098.0799999999999</ele>
        <time>2023-06-25T15:41:49Z</time>
      </trkpt>
      <trkpt lat="46.431748252362013" lon="8.374258205294609">
        <ele>2095.7199999999998</ele>
        <time>2023-06-25T15:42:05Z</time>
      </trkpt>
      <trkpt lat="46.431730566546321" lon="8.374338923022151">
        <ele>2094.9699999999998</ele>
        <time>2023-06-25T15:42:24Z</time>
      </trkpt>
      <trkpt lat="46.431730398908257" lon="8.374392567202449">
        <ele>2094.1900000000001</ele>
        <time>2023-06-25T15:42:30Z</time>
      </trkpt>
      <trkpt lat="46.431761998683214" lon="8.374479487538338">
        <ele>2091.5900000000001</ele>
        <time>2023-06-25T15:42:45Z</time>
      </trkpt>
      <trkpt lat="46.431751940399408" lon="8.374501364305615">
        <ele>2089.8299999999999</ele>
        <time>2023-06-25T15:43:04Z</time>
      </trkpt>
      <trkpt lat="46.431728722527623" lon="8.374541513621807">
        <ele>2089.1799999999998</ele>
        <time>2023-06-25T15:43:23Z</time>
      </trkpt>
      <trkpt lat="46.431737439706922" lon="8.374617956578732">
        <ele>2086.3400000000001</ele>
        <time>2023-06-25T15:43:40Z</time>
      </trkpt>
      <trkpt lat="46.43174909055233" lon="8.3747732732445">
        <ele>2082.6399999999999</ele>
        <time>2023-06-25T15:43:56Z</time>
      </trkpt>
      <trkpt lat="46.431754371151328" lon="8.374913670122623">
        <ele>2080.0799999999999</ele>
        <time>2023-06-25T15:44:13Z</time>
      </trkpt>
      <trkpt lat="46.431764680892229" lon="8.374963458627462">
        <ele>2078.96</ele>
        <time>2023-06-25T15:44:32Z</time>
      </trkpt>
      <trkpt lat="46.43177205696702" lon="8.375051217153668">
        <ele>2076.3200000000002</ele>
        <time>2023-06-25T15:44:52Z</time>
      </trkpt>
      <trkpt lat="46.43180868588388" lon="8.375181052833796">
        <ele>2074.2399999999998</ele>
        <time>2023-06-25T15:45:07Z</time>
      </trkpt>
      <trkpt lat="46.431835759431124" lon="8.375301081687212">
        <ele>2070.8899999999999</ele>
        <time>2023-06-25T15:45:20Z</time>
      </trkpt>
      <trkpt lat="46.431869035586715" lon="8.375404682010412">
        <ele>2064.8299999999999</ele>
        <time>2023-06-25T15:45:36Z</time>
      </trkpt>
      <trkpt lat="46.431848835200071" lon="8.375449692830443">
        <ele>2061.6399999999999</ele>
        <time>2023-06-25T15:45:52Z</time>
      </trkpt>
      <trkpt lat="46.431849673390388" lon="8.375543234869838">
        <ele>2059.6500000000001</ele>
        <time>2023-06-25T15:46:07Z</time>
      </trkpt>
      <trkpt lat="46.431855037808418" lon="8.375544408336282">
        <ele>2058.6199999999999</ele>
        <time>2023-06-25T15:46:28Z</time>
      </trkpt>
      <trkpt lat="46.431860821321607" lon="8.375550108030438">
        <ele>2058.5300000000002</ele>
        <time>2023-06-25T15:46:51Z</time>
      </trkpt>
      <trkpt lat="46.43186685629189" lon="8.375636441633105">
        <ele>2057.21</ele>
        <time>2023-06-25T15:47:07Z</time>
      </trkpt>
      <trkpt lat="46.431882865726948" lon="8.375766528770328">
        <ele>2055.4000000000001</ele>
        <time>2023-06-25T15:47:24Z</time>
      </trkpt>
      <trkpt lat="46.431910274550319" lon="8.375903405249119">
        <ele>2053.6999999999998</ele>
        <time>2023-06-25T15:47:42Z</time>
      </trkpt>
      <trkpt lat="46.431917734444141" lon="8.376006167382002">
        <ele>2052.1199999999999</ele>
        <time>2023-06-25T15:47:58Z</time>
      </trkpt>
      <trkpt lat="46.431911531835794" lon="8.376099625602365">
        <ele>2050.1500000000001</ele>
        <time>2023-06-25T15:48:13Z</time>
      </trkpt>
      <trkpt lat="46.431909939274192" lon="8.376179756596685">
        <ele>2048.0900000000001</ele>
        <time>2023-06-25T15:48:28Z</time>
      </trkpt>
      <trkpt lat="46.43193818628788" lon="8.376290732994676">
        <ele>2046.3</ele>
        <time>2023-06-25T15:48:43Z</time>
      </trkpt>
      <trkpt lat="46.431948831304908" lon="8.376313531771302">
        <ele>2045.78</ele>
        <time>2023-06-25T15:49:00Z</time>
      </trkpt>
      <trkpt lat="46.431958051398396" lon="8.376407409086824">
        <ele>2043.8399999999999</ele>
        <time>2023-06-25T15:49:13Z</time>
      </trkpt>
      <trkpt lat="46.431988058611751" lon="8.376509752124548">
        <ele>2042.1199999999999</ele>
        <time>2023-06-25T15:49:30Z</time>
      </trkpt>
      <trkpt lat="46.432012114673853" lon="8.376611089333892">
        <ele>2040.47</ele>
        <time>2023-06-25T15:49:46Z</time>
      </trkpt>
      <trkpt lat="46.432015551254153" lon="8.376715192571282">
        <ele>2038.5699999999999</ele>
        <time>2023-06-25T15:50:02Z</time>
      </trkpt>
      <trkpt lat="46.432026699185371" lon="8.376787025481463">
        <ele>2037.79</ele>
        <time>2023-06-25T15:50:19Z</time>
      </trkpt>
      <trkpt lat="46.432028207927942" lon="8.376902528107166">
        <ele>2035.1300000000001</ele>
        <time>2023-06-25T15:50:37Z</time>
      </trkpt>
      <trkpt lat="46.432030219584703" lon="8.376997662708163">
        <ele>2033.3</ele>
        <time>2023-06-25T15:50:52Z</time>
      </trkpt>
      <trkpt lat="46.432032650336623" lon="8.37707762606442">
        <ele>2031.8099999999999</ele>
        <time>2023-06-25T15:51:07Z</time>
      </trkpt>
      <trkpt lat="46.432049414142966" lon="8.377093886956573">
        <ele>2032.27</ele>
        <time>2023-06-25T15:51:35Z</time>
      </trkpt>
      <trkpt lat="46.432049497961998" lon="8.377168066799641">
        <ele>2031.01</ele>
        <time>2023-06-25T15:51:50Z</time>
      </trkpt>
      <trkpt lat="46.432035248726606" lon="8.377283234149218">
        <ele>2029.05</ele>
        <time>2023-06-25T15:52:05Z</time>
      </trkpt>
      <trkpt lat="46.432046145200729" lon="8.377376440912485">
        <ele>2026.98</ele>
        <time>2023-06-25T15:52:21Z</time>
      </trkpt>
      <trkpt lat="46.432037930935621" lon="8.377489848062396">
        <ele>2023.53</ele>
        <time>2023-06-25T15:52:36Z</time>
      </trkpt>
      <trkpt lat="46.432046229019761" lon="8.377531925216317">
        <ele>2022.5999999999999</ele>
        <time>2023-06-25T15:52:52Z</time>
      </trkpt>
      <trkpt lat="46.432044887915254" lon="8.377534272149205">
        <ele>2022.73</ele>
        <time>2023-06-25T15:53:13Z</time>
      </trkpt>
      <trkpt lat="46.432036925107241" lon="8.377525974065065">
        <ele>2022.77</ele>
        <time>2023-06-25T15:53:52Z</time>
      </trkpt>
      <trkpt lat="46.432041367515922" lon="8.377532260492444">
        <ele>2022.0599999999999</ele>
        <time>2023-06-25T15:54:20Z</time>
      </trkpt>
      <trkpt lat="46.432034242898226" lon="8.377546006813645">
        <ele>2021.21</ele>
        <time>2023-06-25T15:54:46Z</time>
      </trkpt>
      <trkpt lat="46.432059723883867" lon="8.377543156966567">
        <ele>2021.4100000000001</ele>
        <time>2023-06-25T15:55:18Z</time>
      </trkpt>
      <trkpt lat="46.432056287303567" lon="8.377555143088102">
        <ele>2020.8399999999999</ele>
        <time>2023-06-25T15:55:35Z</time>
      </trkpt>
      <trkpt lat="46.432056957855821" lon="8.377557825297117">
        <ele>2020.1600000000001</ele>
        <time>2023-06-25T15:56:00Z</time>
      </trkpt>
      <trkpt lat="46.432050336152315" lon="8.377554975450039">
        <ele>2020.5</ele>
        <time>2023-06-25T15:56:36Z</time>
      </trkpt>
      <trkpt lat="46.432068441063166" lon="8.377596884965897">
        <ele>2020.4400000000001</ele>
        <time>2023-06-25T15:56:57Z</time>
      </trkpt>
      <trkpt lat="46.432100459933281" lon="8.377633178606629">
        <ele>2020.71</ele>
        <time>2023-06-25T15:57:14Z</time>
      </trkpt>
      <trkpt lat="46.432120995596051" lon="8.377657905220985">
        <ele>2020.3499999999999</ele>
        <time>2023-06-25T15:57:31Z</time>
      </trkpt>
      <trkpt lat="46.432157121598721" lon="8.377712219953537">
        <ele>2018.54</ele>
        <time>2023-06-25T15:57:47Z</time>
      </trkpt>
      <trkpt lat="46.432178998365998" lon="8.377776592969894">
        <ele>2017.4000000000001</ele>
        <time>2023-06-25T15:58:00Z</time>
      </trkpt>
      <trkpt lat="46.432194756343961" lon="8.377823531627655">
        <ele>2015.3399999999999</ele>
        <time>2023-06-25T15:58:15Z</time>
      </trkpt>
      <trkpt lat="46.432192828506231" lon="8.377932328730822">
        <ele>2011.6600000000001</ele>
        <time>2023-06-25T15:58:31Z</time>
      </trkpt>
      <trkpt lat="46.432210011407733" lon="8.377991756424308">
        <ele>2008.53</ele>
        <time>2023-06-25T15:58:46Z</time>
      </trkpt>
      <trkpt lat="46.432228954508901" lon="8.378003910183907">
        <ele>2008.3199999999999</ele>
        <time>2023-06-25T15:59:07Z</time>
      </trkpt>
      <trkpt lat="46.4322479814291" lon="8.378036264330149">
        <ele>2006.3099999999999</ele>
        <time>2023-06-25T15:59:20Z</time>
      </trkpt>
      <trkpt lat="46.432301541790366" lon="8.378121005371213">
        <ele>2004.8399999999999</ele>
        <time>2023-06-25T15:59:35Z</time>
      </trkpt>
      <trkpt lat="46.432285532355309" lon="8.378173224627972">
        <ele>2002.4000000000001</ele>
        <time>2023-06-25T15:59:51Z</time>
      </trkpt>
      <trkpt lat="46.432287879288197" lon="8.378239776939154">
        <ele>1999.3699999999999</ele>
        <time>2023-06-25T16:00:06Z</time>
      </trkpt>
      <trkpt lat="46.432313192635775" lon="8.37833633646369">
        <ele>1997.54</ele>
        <time>2023-06-25T16:00:22Z</time>
      </trkpt>
      <trkpt lat="46.432326100766659" lon="8.378396602347493">
        <ele>1996.6300000000001</ele>
        <time>2023-06-25T16:00:38Z</time>
      </trkpt>
      <trkpt lat="46.432276228442788" lon="8.378412863239646">
        <ele>1994.5599999999999</ele>
        <time>2023-06-25T16:00:51Z</time>
      </trkpt>
      <trkpt lat="46.432251753285527" lon="8.37841889820993">
        <ele>1993.53</ele>
        <time>2023-06-25T16:01:06Z</time>
      </trkpt>
      <trkpt lat="46.432233564555645" lon="8.378467261791229">
        <ele>1991.1400000000001</ele>
        <time>2023-06-25T16:01:23Z</time>
      </trkpt>
      <trkpt lat="46.432251585647464" lon="8.378517804667354">
        <ele>1989.4100000000001</ele>
        <time>2023-06-25T16:01:38Z</time>
      </trkpt>
      <trkpt lat="46.432254938408732" lon="8.378549320623279">
        <ele>1988.6199999999999</ele>
        <time>2023-06-25T16:01:55Z</time>
      </trkpt>
      <trkpt lat="46.432266924530268" lon="8.37858360260725">
        <ele>1987.4400000000001</ele>
        <time>2023-06-25T16:02:08Z</time>
      </trkpt>
      <trkpt lat="46.43227145075798" lon="8.378635570406914">
        <ele>1985.4200000000001</ele>
        <time>2023-06-25T16:02:24Z</time>
      </trkpt>
      <trkpt lat="46.432299530133605" lon="8.378662895411253">
        <ele>1983.73</ele>
        <time>2023-06-25T16:02:41Z</time>
      </trkpt>
      <trkpt lat="46.432321239262819" lon="8.378699440509081">
        <ele>1982.05</ele>
        <time>2023-06-25T16:02:58Z</time>
      </trkpt>
      <trkpt lat="46.432329537346959" lon="8.378730705007911">
        <ele>1980.3800000000001</ele>
        <time>2023-06-25T16:03:15Z</time>
      </trkpt>
      <trkpt lat="46.432332554832101" lon="8.37878686375916">
        <ele>1978.1300000000001</ele>
        <time>2023-06-25T16:03:29Z</time>
      </trkpt>
      <trkpt lat="46.432349905371666" lon="8.378771943971515">
        <ele>1977.26</ele>
        <time>2023-06-25T16:03:45Z</time>
      </trkpt>
      <trkpt lat="46.432355437427759" lon="8.378770099952817">
        <ele>1976.52</ele>
        <time>2023-06-25T16:04:05Z</time>
      </trkpt>
      <trkpt lat="46.432352000847459" lon="8.378771608695388">
        <ele>1976.25</ele>
        <time>2023-06-25T16:04:34Z</time>
      </trkpt>
      <trkpt lat="46.43234278075397" lon="8.378756269812584">
        <ele>1977.0699999999999</ele>
        <time>2023-06-25T16:04:48Z</time>
      </trkpt>
      <trkpt lat="46.432356191799045" lon="8.378796335309744">
        <ele>1976.4400000000001</ele>
        <time>2023-06-25T16:05:29Z</time>
      </trkpt>
      <trkpt lat="46.432346301153302" lon="8.378816451877356">
        <ele>1974.4300000000001</ele>
        <time>2023-06-25T16:05:43Z</time>
      </trkpt>
      <trkpt lat="46.432348731905222" lon="8.378891386091709">
        <ele>1971.5699999999999</ele>
        <time>2023-06-25T16:05:58Z</time>
      </trkpt>
      <trkpt lat="46.432358538731933" lon="8.378943521529436">
        <ele>1966.1500000000001</ele>
        <time>2023-06-25T16:06:14Z</time>
      </trkpt>
      <trkpt lat="46.432404890656471" lon="8.379008900374174">
        <ele>1960.98</ele>
        <time>2023-06-25T16:06:29Z</time>
      </trkpt>
      <trkpt lat="46.432485189288855" lon="8.379097580909729">
        <ele>1955.8</ele>
        <time>2023-06-25T16:06:46Z</time>
      </trkpt>
      <trkpt lat="46.432561548426747" lon="8.379242839291692">
        <ele>1951.8699999999999</ele>
        <time>2023-06-25T16:07:04Z</time>
      </trkpt>
      <trkpt lat="46.432573115453124" lon="8.379386253654957">
        <ele>1948.3299999999999</ele>
        <time>2023-06-25T16:07:19Z</time>
      </trkpt>
      <trkpt lat="46.4325743727386" lon="8.379434868693352">
        <ele>1947.03</ele>
        <time>2023-06-25T16:07:34Z</time>
      </trkpt>
      <trkpt lat="46.432562889531255" lon="8.37949144653976">
        <ele>1946.1700000000001</ele>
        <time>2023-06-25T16:07:50Z</time>
      </trkpt>
      <trkpt lat="46.432584598660469" lon="8.379565374925733">
        <ele>1944.3299999999999</ele>
        <time>2023-06-25T16:08:06Z</time>
      </trkpt>
      <trkpt lat="46.432600943371654" lon="8.379635782912374">
        <ele>1941.9300000000001</ele>
        <time>2023-06-25T16:08:21Z</time>
      </trkpt>
      <trkpt lat="46.43261494114995" lon="8.379736533388495">
        <ele>1938.6400000000001</ele>
        <time>2023-06-25T16:08:36Z</time>
      </trkpt>
      <trkpt lat="46.432613683864474" lon="8.379749022424221">
        <ele>1937.96</ele>
        <time>2023-06-25T16:08:56Z</time>
      </trkpt>
      <trkpt lat="46.432612678036094" lon="8.379813060164452">
        <ele>1935.5</ele>
        <time>2023-06-25T16:09:11Z</time>
      </trkpt>
      <trkpt lat="46.432617707177997" lon="8.379843151196837">
        <ele>1933.01</ele>
        <time>2023-06-25T16:09:25Z</time>
      </trkpt>
      <trkpt lat="46.432651653885841" lon="8.379863938316703">
        <ele>1932.48</ele>
        <time>2023-06-25T16:09:42Z</time>
      </trkpt>
      <trkpt lat="46.432622233405709" lon="8.379925629124045">
        <ele>1931</ele>
        <time>2023-06-25T16:09:56Z</time>
      </trkpt>
      <trkpt lat="46.432662885636091" lon="8.379966868087649">
        <ele>1927.9000000000001</ele>
        <time>2023-06-25T16:10:12Z</time>
      </trkpt>
      <trkpt lat="46.432702112942934" lon="8.380022021010518">
        <ele>1925.45</ele>
        <time>2023-06-25T16:10:31Z</time>
      </trkpt>
      <trkpt lat="46.432725246995687" lon="8.380082286894321">
        <ele>1924.0699999999999</ele>
        <time>2023-06-25T16:10:50Z</time>
      </trkpt>
      <trkpt lat="46.432739663869143" lon="8.380119083449245">
        <ele>1922.8</ele>
        <time>2023-06-25T16:11:07Z</time>
      </trkpt>
      <trkpt lat="46.432780399918556" lon="8.380156718194485">
        <ele>1920.9200000000001</ele>
        <time>2023-06-25T16:11:26Z</time>
      </trkpt>
      <trkpt lat="46.432801354676485" lon="8.380220755934715">
        <ele>1918.5699999999999</ele>
        <time>2023-06-25T16:11:43Z</time>
      </trkpt>
      <trkpt lat="46.432788446545601" lon="8.38025763630867">
        <ele>1917.6500000000001</ele>
        <time>2023-06-25T16:12:01Z</time>
      </trkpt>
      <trkpt lat="46.432780902832747" lon="8.380315052345395">
        <ele>1916.26</ele>
        <time>2023-06-25T16:12:17Z</time>
      </trkpt>
      <trkpt lat="46.432795403525233" lon="8.380369115620852">
        <ele>1913.8</ele>
        <time>2023-06-25T16:12:37Z</time>
      </trkpt>
      <trkpt lat="46.4328333735466" lon="8.380426447838545">
        <ele>1911.28</ele>
        <time>2023-06-25T16:12:58Z</time>
      </trkpt>
      <trkpt lat="46.432826919481158" lon="8.380510015413165">
        <ele>1908.76</ele>
        <time>2023-06-25T16:13:13Z</time>
      </trkpt>
      <trkpt lat="46.432814514264464" lon="8.380554271861911">
        <ele>1907.1400000000001</ele>
        <time>2023-06-25T16:13:32Z</time>
      </trkpt>
      <trkpt lat="46.432807305827737" lon="8.380590984597802">
        <ele>1905.3800000000001</ele>
        <time>2023-06-25T16:13:55Z</time>
      </trkpt>
      <trkpt lat="46.432831613346934" lon="8.380626020953059">
        <ele>1903.45</ele>
        <time>2023-06-25T16:14:07Z</time>
      </trkpt>
      <trkpt lat="46.432828428223729" lon="8.380660386756063">
        <ele>1901.3800000000001</ele>
        <time>2023-06-25T16:14:28Z</time>
      </trkpt>
      <trkpt lat="46.43286656588316" lon="8.380672791972756">
        <ele>1897.99</ele>
        <time>2023-06-25T16:14:44Z</time>
      </trkpt>
      <trkpt lat="46.432898165658116" lon="8.38073012419045">
        <ele>1895.9000000000001</ele>
        <time>2023-06-25T16:14:57Z</time>
      </trkpt>
      <trkpt lat="46.432915600016713" lon="8.38076482526958">
        <ele>1894.6600000000001</ele>
        <time>2023-06-25T16:15:10Z</time>
      </trkpt>
      <trkpt lat="46.432960359379649" lon="8.380843950435519">
        <ele>1892.1199999999999</ele>
        <time>2023-06-25T16:15:27Z</time>
      </trkpt>
      <trkpt lat="46.432963795959949" lon="8.380893571302295">
        <ele>1890.3599999999999</ele>
        <time>2023-06-25T16:15:40Z</time>
      </trkpt>
      <trkpt lat="46.432994892820716" lon="8.380956687033176">
        <ele>1888.0999999999999</ele>
        <time>2023-06-25T16:15:54Z</time>
      </trkpt>
      <trkpt lat="46.433007465675473" lon="8.381049893796444">
        <ele>1884.8099999999999</ele>
        <time>2023-06-25T16:16:11Z</time>
      </trkpt>
      <trkpt lat="46.433062367141247" lon="8.381091384217143">
        <ele>1883.21</ele>
        <time>2023-06-25T16:16:27Z</time>
      </trkpt>
      <trkpt lat="46.43307276070118" lon="8.38118844665587">
        <ele>1880.5699999999999</ele>
        <time>2023-06-25T16:16:43Z</time>
      </trkpt>
      <trkpt lat="46.433117100968957" lon="8.381262626498938">
        <ele>1878.26</ele>
        <time>2023-06-25T16:16:59Z</time>
      </trkpt>
      <trkpt lat="46.433163788169622" lon="8.381357844918966">
        <ele>1874.45</ele>
        <time>2023-06-25T16:17:15Z</time>
      </trkpt>
      <trkpt lat="46.433187173679471" lon="8.381370417773724">
        <ele>1873.53</ele>
        <time>2023-06-25T16:17:32Z</time>
      </trkpt>
      <trkpt lat="46.433184407651424" lon="8.381410734727979">
        <ele>1873.3900000000001</ele>
        <time>2023-06-25T16:17:48Z</time>
      </trkpt>
      <trkpt lat="46.433180887252092" lon="8.381467396393418">
        <ele>1872.98</ele>
        <time>2023-06-25T16:18:05Z</time>
      </trkpt>
      <trkpt lat="46.433179629966617" lon="8.381518106907606">
        <ele>1872.3299999999999</ele>
        <time>2023-06-25T16:18:20Z</time>
      </trkpt>
      <trkpt lat="46.433187173679471" lon="8.381573427468538">
        <ele>1871.6600000000001</ele>
        <time>2023-06-25T16:18:41Z</time>
      </trkpt>
      <trkpt lat="46.433188682422042" lon="8.381606871262193">
        <ele>1870.49</ele>
        <time>2023-06-25T16:19:03Z</time>
      </trkpt>
      <trkpt lat="46.433170661330223" lon="8.381748776882887">
        <ele>1866.48</ele>
        <time>2023-06-25T16:19:21Z</time>
      </trkpt>
      <trkpt lat="46.433172672986984" lon="8.381763696670532">
        <ele>1866.29</ele>
        <time>2023-06-25T16:19:22Z</time>
      </trkpt>
      <trkpt lat="46.433175941929221" lon="8.3819570671767">
        <ele>1863.3699999999999</ele>
        <time>2023-06-25T16:19:38Z</time>
      </trkpt>
      <trkpt lat="46.433188682422042" lon="8.382031666114926">
        <ele>1862.1500000000001</ele>
        <time>2023-06-25T16:19:44Z</time>
      </trkpt>
      <trkpt lat="46.433209385722876" lon="8.382079862058163">
        <ele>1861.28</ele>
        <time>2023-06-25T16:19:48Z</time>
      </trkpt>
      <trkpt lat="46.433222712948918" lon="8.382116574794054">
        <ele>1860.8299999999999</ele>
        <time>2023-06-25T16:19:51Z</time>
      </trkpt>
      <trkpt lat="46.433286750689149" lon="8.382216319441795">
        <ele>1859.8800000000001</ele>
        <time>2023-06-25T16:20:02Z</time>
      </trkpt>
      <trkpt lat="46.433295048773289" lon="8.382391920313239">
        <ele>1857.1800000000001</ele>
        <time>2023-06-25T16:20:17Z</time>
      </trkpt>
      <trkpt lat="46.43326872959733" lon="8.382606999948621">
        <ele>1855.9000000000001</ele>
        <time>2023-06-25T16:20:34Z</time>
      </trkpt>
      <trkpt lat="46.433269064873457" lon="8.382846554741263">
        <ele>1854.0999999999999</ele>
        <time>2023-06-25T16:20:53Z</time>
      </trkpt>
      <trkpt lat="46.433266215026379" lon="8.382890475913882">
        <ele>1853.4200000000001</ele>
        <time>2023-06-25T16:20:56Z</time>
      </trkpt>
      <trkpt lat="46.433258168399334" lon="8.383131036534905">
        <ele>1851.1400000000001</ele>
        <time>2023-06-25T16:21:15Z</time>
      </trkpt>
      <trkpt lat="46.433245595544577" lon="8.383348044008017">
        <ele>1849.77</ele>
        <time>2023-06-25T16:21:34Z</time>
      </trkpt>
      <trkpt lat="46.433249115943909" lon="8.383374949917197">
        <ele>1849.53</ele>
        <time>2023-06-25T16:21:36Z</time>
      </trkpt>
      <trkpt lat="46.433251295238733" lon="8.383389534428716">
        <ele>1849.4200000000001</ele>
        <time>2023-06-25T16:21:37Z</time>
      </trkpt>
      <trkpt lat="46.433266131207347" lon="8.383593047037721">
        <ele>1847.71</ele>
        <time>2023-06-25T16:21:53Z</time>
      </trkpt>
      <trkpt lat="46.433264790102839" lon="8.383635794743896">
        <ele>1847.3800000000001</ele>
        <time>2023-06-25T16:21:56Z</time>
      </trkpt>
      <trkpt lat="46.433222461491823" lon="8.383779460564256">
        <ele>1847.23</ele>
        <time>2023-06-25T16:22:10Z</time>
      </trkpt>
      <trkpt lat="46.433188011869788" lon="8.383887922391295">
        <ele>1845.73</ele>
        <time>2023-06-25T16:22:23Z</time>
      </trkpt>
      <trkpt lat="46.433160519227386" lon="8.383971573784947">
        <ele>1844.6600000000001</ele>
        <time>2023-06-25T16:22:30Z</time>
      </trkpt>
      <trkpt lat="46.43312506377697" lon="8.384156730026007">
        <ele>1844.03</ele>
        <time>2023-06-25T16:22:48Z</time>
      </trkpt>
      <trkpt lat="46.433131266385317" lon="8.384203333407641">
        <ele>1842.9100000000001</ele>
        <time>2023-06-25T16:23:04Z</time>
      </trkpt>
      <trkpt lat="46.433124644681811" lon="8.384271897375584">
        <ele>1840.7</ele>
        <time>2023-06-25T16:23:16Z</time>
      </trkpt>
      <trkpt lat="46.433134535327554" lon="8.384340209886432">
        <ele>1840.53</ele>
        <time>2023-06-25T16:23:30Z</time>
      </trkpt>
      <trkpt lat="46.433137468993664" lon="8.384403912350535">
        <ele>1839.5899999999999</ele>
        <time>2023-06-25T16:23:38Z</time>
      </trkpt>
      <trkpt lat="46.433168984949589" lon="8.384452611207962">
        <ele>1838.0599999999999</ele>
        <time>2023-06-25T16:23:52Z</time>
      </trkpt>
      <trkpt lat="46.433163369074464" lon="8.384499717503786">
        <ele>1838.6600000000001</ele>
        <time>2023-06-25T16:24:18Z</time>
      </trkpt>
      <trkpt lat="46.433105953037739" lon="8.384681772440672">
        <ele>1838.6099999999999</ele>
        <time>2023-06-25T16:24:35Z</time>
      </trkpt>
      <trkpt lat="46.433091200888157" lon="8.384696440771222">
        <ele>1838.71</ele>
        <time>2023-06-25T16:24:37Z</time>
      </trkpt>
      <trkpt lat="46.432948540896177" lon="8.38486491702497">
        <ele>1838.1199999999999</ele>
        <time>2023-06-25T16:24:55Z</time>
      </trkpt>
      <trkpt lat="46.432901853695512" lon="8.385028867051005">
        <ele>1836.8699999999999</ele>
        <time>2023-06-25T16:25:12Z</time>
      </trkpt>
      <trkpt lat="46.432937979698181" lon="8.385190889239311">
        <ele>1835.8900000000001</ele>
        <time>2023-06-25T16:25:32Z</time>
      </trkpt>
      <trkpt lat="46.432944433763623" lon="8.385314019396901">
        <ele>1835.8499999999999</ele>
        <time>2023-06-25T16:25:47Z</time>
      </trkpt>
      <trkpt lat="46.432941248640418" lon="8.385327262803912">
        <ele>1835.76</ele>
        <time>2023-06-25T16:25:48Z</time>
      </trkpt>
      <trkpt lat="46.432938650250435" lon="8.385341931134462">
        <ele>1835.6900000000001</ele>
        <time>2023-06-25T16:25:49Z</time>
      </trkpt>
      <trkpt lat="46.432890202850103" lon="8.38545466773212">
        <ele>1836.4100000000001</ele>
        <time>2023-06-25T16:25:59Z</time>
      </trkpt>
      <trkpt lat="46.432792972773314" lon="8.385573858395219">
        <ele>1837.05</ele>
        <time>2023-06-25T16:26:12Z</time>
      </trkpt>
      <trkpt lat="46.432718457654119" lon="8.385665053501725">
        <ele>1838.9100000000001</ele>
        <time>2023-06-25T16:26:25Z</time>
      </trkpt>
      <trkpt lat="46.432668501511216" lon="8.385825147852302">
        <ele>1840.4400000000001</ele>
        <time>2023-06-25T16:26:43Z</time>
      </trkpt>
      <trkpt lat="46.432628855109215" lon="8.385989768430591">
        <ele>1841.23</ele>
        <time>2023-06-25T16:26:58Z</time>
      </trkpt>
      <trkpt lat="46.432604044675827" lon="8.386156819760799">
        <ele>1842.73</ele>
        <time>2023-06-25T16:27:13Z</time>
      </trkpt>
      <trkpt lat="46.432567331939936" lon="8.386305263265967">
        <ele>1843.6099999999999</ele>
        <time>2023-06-25T16:27:30Z</time>
      </trkpt>
      <trkpt lat="46.432540845125914" lon="8.386422693729401">
        <ele>1844.95</ele>
        <time>2023-06-25T16:27:46Z</time>
      </trkpt>
      <trkpt lat="46.432497259229422" lon="8.386572394520044">
        <ele>1846.75</ele>
        <time>2023-06-25T16:28:03Z</time>
      </trkpt>
      <trkpt lat="46.432444620877504" lon="8.386758221313357">
        <ele>1847.95</ele>
        <time>2023-06-25T16:28:21Z</time>
      </trkpt>
      <trkpt lat="46.432430958375335" lon="8.386872382834554">
        <ele>1847.95</ele>
        <time>2023-06-25T16:28:38Z</time>
      </trkpt>
      <trkpt lat="46.432425677776337" lon="8.386886045336723">
        <ele>1848.03</ele>
        <time>2023-06-25T16:28:56Z</time>
      </trkpt>
      <trkpt lat="46.43242291174829" lon="8.386887805536389">
        <ele>1848.23</ele>
        <time>2023-06-25T16:29:15Z</time>
      </trkpt>
      <trkpt lat="46.432418636977673" lon="8.386874897405505">
        <ele>1847.51</ele>
        <time>2023-06-25T16:29:34Z</time>
      </trkpt>
      <trkpt lat="46.432431628927588" lon="8.386869030073285">
        <ele>1846.6700000000001</ele>
        <time>2023-06-25T16:30:07Z</time>
      </trkpt>
    </trkseg>
  </trk>

  <trk>
    <name>rifugio somma2023-06-24</name>
    <extensions>
      <gpxx:TrackExtension>
        <gpxx:DisplayColor>Yellow</gpxx:DisplayColor>
      </gpxx:TrackExtension>
    </extensions>
    <trkseg>
      <trkpt lat="46.424772497266531" lon="8.405406447127461">
        <ele>1739.3800000000001</ele>
        <time>2023-06-24T11:04:35Z</time>
      </trkpt>
      <trkpt lat="46.424773335456848" lon="8.405398149043322">
        <ele>1739.6900000000001</ele>
        <time>2023-06-24T11:05:04Z</time>
      </trkpt>
      <trkpt lat="46.424767887219787" lon="8.405386749655008">
        <ele>1739.0699999999999</ele>
        <time>2023-06-24T11:05:31Z</time>
      </trkpt>
      <trkpt lat="46.424818178638816" lon="8.405370740219951">
        <ele>1739.7</ele>
        <time>2023-06-24T11:05:46Z</time>
      </trkpt>
      <trkpt lat="46.424858244135976" lon="8.405373087152839">
        <ele>1739.74</ele>
        <time>2023-06-24T11:05:50Z</time>
      </trkpt>
      <trkpt lat="46.424959916621447" lon="8.405294381082058">
        <ele>1740.1900000000001</ele>
        <time>2023-06-24T11:06:01Z</time>
      </trkpt>
      <trkpt lat="46.42497424967587" lon="8.405256075784564">
        <ele>1740.46</ele>
        <time>2023-06-24T11:06:04Z</time>
      </trkpt>
      <trkpt lat="46.425000904127955" lon="8.40523243881762">
        <ele>1740.78</ele>
        <time>2023-06-24T11:06:07Z</time>
      </trkpt>
      <trkpt lat="46.425035186111927" lon="8.405235121026635">
        <ele>1741.4100000000001</ele>
        <time>2023-06-24T11:06:13Z</time>
      </trkpt>
      <trkpt lat="46.425054632127285" lon="8.405201341956854">
        <ele>1741.6199999999999</ele>
        <time>2023-06-24T11:06:16Z</time>
      </trkpt>
      <trkpt lat="46.425193771719933" lon="8.405029596760869">
        <ele>1744.1099999999999</ele>
        <time>2023-06-24T11:06:33Z</time>
      </trkpt>
      <trkpt lat="46.425256049260497" lon="8.404938234016299">
        <ele>1745.8099999999999</ele>
        <time>2023-06-24T11:06:46Z</time>
      </trkpt>
      <trkpt lat="46.425350680947304" lon="8.40472960844636">
        <ele>1747.5599999999999</ele>
        <time>2023-06-24T11:07:05Z</time>
      </trkpt>
      <trkpt lat="46.425383118912578" lon="8.404705468565226">
        <ele>1748.3699999999999</ele>
        <time>2023-06-24T11:07:11Z</time>
      </trkpt>
      <trkpt lat="46.425487389788032" lon="8.40461477637291">
        <ele>1750.52</ele>
        <time>2023-06-24T11:07:26Z</time>
      </trkpt>
      <trkpt lat="46.425575232133269" lon="8.404475636780262">
        <ele>1754.0699999999999</ele>
        <time>2023-06-24T11:07:45Z</time>
      </trkpt>
      <trkpt lat="46.425633234903216" lon="8.404344040900469">
        <ele>1755.1300000000001</ele>
        <time>2023-06-24T11:08:00Z</time>
      </trkpt>
      <trkpt lat="46.425710432231426" lon="8.404269777238369">
        <ele>1756.24</ele>
        <time>2023-06-24T11:08:17Z</time>
      </trkpt>
      <trkpt lat="46.425716131925583" lon="8.404197860509157">
        <ele>1758.23</ele>
        <time>2023-06-24T11:08:33Z</time>
      </trkpt>
      <trkpt lat="46.425735661759973" lon="8.404172714799643">
        <ele>1758.5899999999999</ele>
        <time>2023-06-24T11:08:54Z</time>
      </trkpt>
      <trkpt lat="46.425793748348951" lon="8.403946403414011">
        <ele>1759.6300000000001</ele>
        <time>2023-06-24T11:09:11Z</time>
      </trkpt>
      <trkpt lat="46.425773212686181" lon="8.40377289801836">
        <ele>1761.47</ele>
        <time>2023-06-24T11:09:30Z</time>
      </trkpt>
      <trkpt lat="46.425766926258802" lon="8.403568379580975">
        <ele>1762.76</ele>
        <time>2023-06-24T11:09:49Z</time>
      </trkpt>
      <trkpt lat="46.425768854096532" lon="8.403380792587996">
        <ele>1762.74</ele>
        <time>2023-06-24T11:10:05Z</time>
      </trkpt>
      <trkpt lat="46.425772458314896" lon="8.403175352141261">
        <ele>1764.28</ele>
        <time>2023-06-24T11:10:24Z</time>
      </trkpt>
      <trkpt lat="46.425772123038769" lon="8.403013162314892">
        <ele>1766.0799999999999</ele>
        <time>2023-06-24T11:10:39Z</time>
      </trkpt>
      <trkpt lat="46.425777822732925" lon="8.402860192582011">
        <ele>1767.8299999999999</ele>
        <time>2023-06-24T11:10:53Z</time>
      </trkpt>
      <trkpt lat="46.425756113603711" lon="8.402659026905894">
        <ele>1771.9300000000001</ele>
        <time>2023-06-24T11:11:10Z</time>
      </trkpt>
      <trkpt lat="46.425756448879838" lon="8.402449646964669">
        <ele>1776.4100000000001</ele>
        <time>2023-06-24T11:11:27Z</time>
      </trkpt>
      <trkpt lat="46.425811015069485" lon="8.40225225314498">
        <ele>1778.5599999999999</ele>
        <time>2023-06-24T11:11:46Z</time>
      </trkpt>
      <trkpt lat="46.425858959555626" lon="8.402072209864855">
        <ele>1780.5599999999999</ele>
        <time>2023-06-24T11:12:05Z</time>
      </trkpt>
      <trkpt lat="46.425872873514891" lon="8.402033234015107">
        <ele>1781.8199999999999</ele>
        <time>2023-06-24T11:12:20Z</time>
      </trkpt>
      <trkpt lat="46.425896845757961" lon="8.402019990608096">
        <ele>1782.6800000000001</ele>
        <time>2023-06-24T11:12:33Z</time>
      </trkpt>
      <trkpt lat="46.425975384190679" lon="8.401913540437818">
        <ele>1784.3499999999999</ele>
        <time>2023-06-24T11:12:47Z</time>
      </trkpt>
      <trkpt lat="46.426064064726233" lon="8.40175193734467">
        <ele>1787.6700000000001</ele>
        <time>2023-06-24T11:13:07Z</time>
      </trkpt>
      <trkpt lat="46.426124833524227" lon="8.40162830427289">
        <ele>1792.04</ele>
        <time>2023-06-24T11:13:25Z</time>
      </trkpt>
      <trkpt lat="46.426147045567632" lon="8.401540713384748">
        <ele>1796</ele>
        <time>2023-06-24T11:13:39Z</time>
      </trkpt>
      <trkpt lat="46.426197420805693" lon="8.401471897959709">
        <ele>1798.48</ele>
        <time>2023-06-24T11:13:56Z</time>
      </trkpt>
      <trkpt lat="46.426198594272137" lon="8.401444824412465">
        <ele>1798.1700000000001</ele>
        <time>2023-06-24T11:14:15Z</time>
      </trkpt>
      <trkpt lat="46.426206724718213" lon="8.401426551863551">
        <ele>1798.0999999999999</ele>
        <time>2023-06-24T11:14:18Z</time>
      </trkpt>
      <trkpt lat="46.426287274807692" lon="8.401310043409467">
        <ele>1799.8199999999999</ele>
        <time>2023-06-24T11:14:31Z</time>
      </trkpt>
      <trkpt lat="46.426363885402679" lon="8.401253633201122">
        <ele>1802.1199999999999</ele>
        <time>2023-06-24T11:14:45Z</time>
      </trkpt>
      <trkpt lat="46.426426582038403" lon="8.401230163872242">
        <ele>1804.5799999999999</ele>
        <time>2023-06-24T11:14:56Z</time>
      </trkpt>
      <trkpt lat="46.426446111872792" lon="8.401236785575748">
        <ele>1805</ele>
        <time>2023-06-24T11:14:58Z</time>
      </trkpt>
      <trkpt lat="46.426487937569618" lon="8.401242736726999">
        <ele>1805.0899999999999</ele>
        <time>2023-06-24T11:15:02Z</time>
      </trkpt>
      <trkpt lat="46.426563877612352" lon="8.401155229657888">
        <ele>1807.1099999999999</ele>
        <time>2023-06-24T11:15:17Z</time>
      </trkpt>
      <trkpt lat="46.426614755764604" lon="8.401082893833518">
        <ele>1809.3299999999999</ele>
        <time>2023-06-24T11:15:31Z</time>
      </trkpt>
      <trkpt lat="46.426676111295819" lon="8.401055401191115">
        <ele>1811.78</ele>
        <time>2023-06-24T11:15:49Z</time>
      </trkpt>
      <trkpt lat="46.426754482090473" lon="8.400934869423509">
        <ele>1814.05</ele>
        <time>2023-06-24T11:16:04Z</time>
      </trkpt>
      <trkpt lat="46.426795218139887" lon="8.400834789499641">
        <ele>1814.0599999999999</ele>
        <time>2023-06-24T11:16:14Z</time>
      </trkpt>
      <trkpt lat="46.426801420748234" lon="8.400776870548725">
        <ele>1813.6400000000001</ele>
        <time>2023-06-24T11:16:19Z</time>
      </trkpt>
      <trkpt lat="46.426781807094812" lon="8.400720544159412">
        <ele>1814.1099999999999</ele>
        <time>2023-06-24T11:16:23Z</time>
      </trkpt>
      <trkpt lat="46.426671585068107" lon="8.400459531694651">
        <ele>1815.6700000000001</ele>
        <time>2023-06-24T11:16:42Z</time>
      </trkpt>
      <trkpt lat="46.426575360819697" lon="8.400251241400838">
        <ele>1817.0699999999999</ele>
        <time>2023-06-24T11:16:57Z</time>
      </trkpt>
      <trkpt lat="46.426443681120872" lon="8.400038508698344">
        <ele>1819.1300000000001</ele>
        <time>2023-06-24T11:17:14Z</time>
      </trkpt>
      <trkpt lat="46.426241593435407" lon="8.399775233119726">
        <ele>1819.3</ele>
        <time>2023-06-24T11:17:38Z</time>
      </trkpt>
      <trkpt lat="46.426322562620044" lon="8.399649001657963">
        <ele>1819.54</ele>
        <time>2023-06-24T11:17:48Z</time>
      </trkpt>
      <trkpt lat="46.426359862089157" lon="8.399585718289018">
        <ele>1819.24</ele>
        <time>2023-06-24T11:17:58Z</time>
      </trkpt>
      <trkpt lat="46.426377799361944" lon="8.39954137802124">
        <ele>1818.9400000000001</ele>
        <time>2023-06-24T11:18:01Z</time>
      </trkpt>
      <trkpt lat="46.426391042768955" lon="8.399494690820575">
        <ele>1818.8599999999999</ele>
        <time>2023-06-24T11:18:04Z</time>
      </trkpt>
      <trkpt lat="46.426505036652088" lon="8.399256896227598">
        <ele>1818.8699999999999</ele>
        <time>2023-06-24T11:18:19Z</time>
      </trkpt>
      <trkpt lat="46.426577037200332" lon="8.399061933159828">
        <ele>1818.8499999999999</ele>
        <time>2023-06-24T11:18:33Z</time>
      </trkpt>
      <trkpt lat="46.426583407446742" lon="8.398995967581868">
        <ele>1819.04</ele>
        <time>2023-06-24T11:18:37Z</time>
      </trkpt>
      <trkpt lat="46.426595477387309" lon="8.398732608184218">
        <ele>1817.6500000000001</ele>
        <time>2023-06-24T11:18:52Z</time>
      </trkpt>
      <trkpt lat="46.426592878997326" lon="8.398706540465355">
        <ele>1818.26</ele>
        <time>2023-06-24T11:18:54Z</time>
      </trkpt>
      <trkpt lat="46.426559267565608" lon="8.398621045053005">
        <ele>1819.4300000000001</ele>
        <time>2023-06-24T11:18:59Z</time>
      </trkpt>
      <trkpt lat="46.426480980589986" lon="8.398300101980567">
        <ele>1817.6700000000001</ele>
        <time>2023-06-24T11:19:19Z</time>
      </trkpt>
      <trkpt lat="46.426508473232388" lon="8.398068761453033">
        <ele>1816.8499999999999</ele>
        <time>2023-06-24T11:19:33Z</time>
      </trkpt>
      <trkpt lat="46.4265544898808" lon="8.397696353495121">
        <ele>1815.6900000000001</ele>
        <time>2023-06-24T11:19:54Z</time>
      </trkpt>
      <trkpt lat="46.426583994179964" lon="8.397387815639377">
        <ele>1817.5899999999999</ele>
        <time>2023-06-24T11:20:12Z</time>
      </trkpt>
      <trkpt lat="46.426622467115521" lon="8.397098472341895">
        <ele>1817.05</ele>
        <time>2023-06-24T11:20:29Z</time>
      </trkpt>
      <trkpt lat="46.426685163751245" lon="8.39679965749383">
        <ele>1816.8099999999999</ele>
        <time>2023-06-24T11:20:47Z</time>
      </trkpt>
      <trkpt lat="46.426769904792309" lon="8.396506877616048">
        <ele>1814.8599999999999</ele>
        <time>2023-06-24T11:21:05Z</time>
      </trkpt>
      <trkpt lat="46.426870739087462" lon="8.396315015852451">
        <ele>1812.9000000000001</ele>
        <time>2023-06-24T11:21:19Z</time>
      </trkpt>
      <trkpt lat="46.426989091560245" lon="8.396096415817738">
        <ele>1814.04</ele>
        <time>2023-06-24T11:21:34Z</time>
      </trkpt>
      <trkpt lat="46.427142480388284" lon="8.395800031721592">
        <ele>1815.1300000000001</ele>
        <time>2023-06-24T11:21:54Z</time>
      </trkpt>
      <trkpt lat="46.42727424390614" lon="8.395497780293226">
        <ele>1815.3800000000001</ele>
        <time>2023-06-24T11:22:14Z</time>
      </trkpt>
      <trkpt lat="46.427396200597286" lon="8.395236013457179">
        <ele>1815.79</ele>
        <time>2023-06-24T11:22:32Z</time>
      </trkpt>
      <trkpt lat="46.427431656047702" lon="8.395162168890238">
        <ele>1815.8599999999999</ele>
        <time>2023-06-24T11:22:37Z</time>
      </trkpt>
      <trkpt lat="46.427584374323487" lon="8.394896881654859">
        <ele>1816.3299999999999</ele>
        <time>2023-06-24T11:22:57Z</time>
      </trkpt>
      <trkpt lat="46.427713287994266" lon="8.394598318263888">
        <ele>1816.6900000000001</ele>
        <time>2023-06-24T11:23:18Z</time>
      </trkpt>
      <trkpt lat="46.427833568304777" lon="8.394279889762402">
        <ele>1816.98</ele>
        <time>2023-06-24T11:23:39Z</time>
      </trkpt>
      <trkpt lat="46.42792115919292" lon="8.39399247430265">
        <ele>1817.97</ele>
        <time>2023-06-24T11:23:57Z</time>
      </trkpt>
      <trkpt lat="46.42794513143599" lon="8.393935644999147">
        <ele>1818.24</ele>
        <time>2023-06-24T11:24:01Z</time>
      </trkpt>
      <trkpt lat="46.428020233288407" lon="8.393784016370773">
        <ele>1818.78</ele>
        <time>2023-06-24T11:24:12Z</time>
      </trkpt>
      <trkpt lat="46.42813615500927" lon="8.393550077453256">
        <ele>1819.1300000000001</ele>
        <time>2023-06-24T11:24:29Z</time>
      </trkpt>
      <trkpt lat="46.428278982639313" lon="8.393273139372468">
        <ele>1819.8499999999999</ele>
        <time>2023-06-24T11:24:49Z</time>
      </trkpt>
      <trkpt lat="46.428419044241309" lon="8.392955465242267">
        <ele>1819.9400000000001</ele>
        <time>2023-06-24T11:25:11Z</time>
      </trkpt>
      <trkpt lat="46.42856371589005" lon="8.392784558236599">
        <ele>1821.74</ele>
        <time>2023-06-24T11:25:27Z</time>
      </trkpt>
      <trkpt lat="46.428730934858322" lon="8.392621781677008">
        <ele>1822.51</ele>
        <time>2023-06-24T11:25:45Z</time>
      </trkpt>
      <trkpt lat="46.428762534633279" lon="8.392588254064322">
        <ele>1822.6300000000001</ele>
        <time>2023-06-24T11:25:51Z</time>
      </trkpt>
      <trkpt lat="46.428797319531441" lon="8.392579788342118">
        <ele>1822.23</ele>
        <time>2023-06-24T11:25:54Z</time>
      </trkpt>
      <trkpt lat="46.428897818550467" lon="8.392520612105727">
        <ele>1822.1700000000001</ele>
        <time>2023-06-24T11:26:05Z</time>
      </trkpt>
      <trkpt lat="46.428917180746794" lon="8.39250611141324">
        <ele>1822.1099999999999</ele>
        <time>2023-06-24T11:26:07Z</time>
      </trkpt>
      <trkpt lat="46.429064953699708" lon="8.392429333180189">
        <ele>1822.76</ele>
        <time>2023-06-24T11:26:20Z</time>
      </trkpt>
      <trkpt lat="46.429205434396863" lon="8.392353393137455">
        <ele>1823.1800000000001</ele>
        <time>2023-06-24T11:26:33Z</time>
      </trkpt>
      <trkpt lat="46.429337617009878" lon="8.392209559679031">
        <ele>1823.3299999999999</ele>
        <time>2023-06-24T11:26:48Z</time>
      </trkpt>
      <trkpt lat="46.429502572864294" lon="8.39196321554482">
        <ele>1825.1900000000001</ele>
        <time>2023-06-24T11:27:08Z</time>
      </trkpt>
      <trkpt lat="46.429651435464621" lon="8.391724834218621">
        <ele>1826.52</ele>
        <time>2023-06-24T11:27:27Z</time>
      </trkpt>
      <trkpt lat="46.42967096529901" lon="8.391703711822629">
        <ele>1826.6700000000001</ele>
        <time>2023-06-24T11:27:29Z</time>
      </trkpt>
      <trkpt lat="46.429795939475298" lon="8.391552837565541">
        <ele>1827.72</ele>
        <time>2023-06-24T11:27:43Z</time>
      </trkpt>
      <trkpt lat="46.429935833439231" lon="8.391401125118136">
        <ele>1828.02</ele>
        <time>2023-06-24T11:27:58Z</time>
      </trkpt>
      <trkpt lat="46.430096263065934" lon="8.391221249476075">
        <ele>1828.4300000000001</ele>
        <time>2023-06-24T11:28:15Z</time>
      </trkpt>
      <trkpt lat="46.430215369910002" lon="8.391077918931842">
        <ele>1830.3299999999999</ele>
        <time>2023-06-24T11:28:29Z</time>
      </trkpt>
      <trkpt lat="46.430358365178108" lon="8.390922853723168">
        <ele>1832.79</ele>
        <time>2023-06-24T11:28:44Z</time>
      </trkpt>
      <trkpt lat="46.430463809520006" lon="8.390780277550221">
        <ele>1834.8099999999999</ele>
        <time>2023-06-24T11:28:57Z</time>
      </trkpt>
      <trkpt lat="46.430576294660568" lon="8.390614902600646">
        <ele>1836.8399999999999</ele>
        <time>2023-06-24T11:29:11Z</time>
      </trkpt>
      <trkpt lat="46.430737394839525" lon="8.39040644466877">
        <ele>1838.04</ele>
        <time>2023-06-24T11:29:30Z</time>
      </trkpt>
      <trkpt lat="46.430850382894278" lon="8.390247607603669">
        <ele>1840.28</ele>
        <time>2023-06-24T11:29:44Z</time>
      </trkpt>
      <trkpt lat="46.430980050936341" lon="8.390087597072125">
        <ele>1842.6199999999999</ele>
        <time>2023-06-24T11:30:00Z</time>
      </trkpt>
      <trkpt lat="46.431003771722317" lon="8.390057338401675">
        <ele>1842.72</ele>
        <time>2023-06-24T11:30:03Z</time>
      </trkpt>
      <trkpt lat="46.43105180002749" lon="8.38999304920435">
        <ele>1843.3299999999999</ele>
        <time>2023-06-24T11:30:09Z</time>
      </trkpt>
      <trkpt lat="46.431149365380406" lon="8.389813005924225">
        <ele>1844.04</ele>
        <time>2023-06-24T11:30:23Z</time>
      </trkpt>
      <trkpt lat="46.431229831650853" lon="8.389661544933915">
        <ele>1844.1900000000001</ele>
        <time>2023-06-24T11:30:34Z</time>
      </trkpt>
      <trkpt lat="46.431327648460865" lon="8.389446130022407">
        <ele>1845.5599999999999</ele>
        <time>2023-06-24T11:30:51Z</time>
      </trkpt>
      <trkpt lat="46.431424710899591" lon="8.389251250773668">
        <ele>1846.6900000000001</ele>
        <time>2023-06-24T11:31:06Z</time>
      </trkpt>
      <trkpt lat="46.431522024795413" lon="8.389077242463827">
        <ele>1847.8800000000001</ele>
        <time>2023-06-24T11:31:20Z</time>
      </trkpt>
      <trkpt lat="46.4315589889884" lon="8.388999458402395">
        <ele>1848.0699999999999</ele>
        <time>2023-06-24T11:31:27Z</time>
      </trkpt>
      <trkpt lat="46.431656219065189" lon="8.38878664188087">
        <ele>1849.04</ele>
        <time>2023-06-24T11:31:42Z</time>
      </trkpt>
      <trkpt lat="46.431765854358673" lon="8.388553205877543">
        <ele>1849.8299999999999</ele>
        <time>2023-06-24T11:31:59Z</time>
      </trkpt>
      <trkpt lat="46.431863671168685" lon="8.388269478455186">
        <ele>1849.49</ele>
        <time>2023-06-24T11:32:17Z</time>
      </trkpt>
      <trkpt lat="46.431991159915924" lon="8.388051129877567">
        <ele>1847.8</ele>
        <time>2023-06-24T11:32:34Z</time>
      </trkpt>
      <trkpt lat="46.432096604257822" lon="8.387896148487926">
        <ele>1847.49</ele>
        <time>2023-06-24T11:32:47Z</time>
      </trkpt>
      <trkpt lat="46.43221571110189" lon="8.387740664184094">
        <ele>1846.8299999999999</ele>
        <time>2023-06-24T11:33:02Z</time>
      </trkpt>
      <trkpt lat="46.432309001684189" lon="8.387613343074918">
        <ele>1846.9300000000001</ele>
        <time>2023-06-24T11:33:15Z</time>
      </trkpt>
      <trkpt lat="46.432343367487192" lon="8.387519046664238">
        <ele>1846.3299999999999</ele>
        <time>2023-06-24T11:33:21Z</time>
      </trkpt>
      <trkpt lat="46.432396341115236" lon="8.387144627049565">
        <ele>1843.1500000000001</ele>
        <time>2023-06-24T11:33:42Z</time>
      </trkpt>
      <trkpt lat="46.432399190962315" lon="8.38710967451334">
        <ele>1843.02</ele>
        <time>2023-06-24T11:33:44Z</time>
      </trkpt>
      <trkpt lat="46.432429617270827" lon="8.386932229623199">
        <ele>1842.9400000000001</ele>
        <time>2023-06-24T11:33:55Z</time>
      </trkpt>
      <trkpt lat="46.432435987517238" lon="8.386871460825205">
        <ele>1843.2</ele>
        <time>2023-06-24T11:33:59Z</time>
      </trkpt>
      <trkpt lat="46.43243120983243" lon="8.386801555752754">
        <ele>1843.3499999999999</ele>
        <time>2023-06-24T11:34:03Z</time>
      </trkpt>
      <trkpt lat="46.432449650019407" lon="8.386693010106683">
        <ele>1842.8699999999999</ele>
        <time>2023-06-24T11:34:11Z</time>
      </trkpt>
      <trkpt lat="46.43247177824378" lon="8.386632073670626">
        <ele>1842.6300000000001</ele>
        <time>2023-06-24T11:34:15Z</time>
      </trkpt>
      <trkpt lat="46.432573366910219" lon="8.38635815307498">
        <ele>1838.5799999999999</ele>
        <time>2023-06-24T11:34:33Z</time>
      </trkpt>
      <trkpt lat="46.432579485699534" lon="8.386342311277986">
        <ele>1838.3</ele>
        <time>2023-06-24T11:34:34Z</time>
      </trkpt>
      <trkpt lat="46.43258560448885" lon="8.386272406205535">
        <ele>1837.4200000000001</ele>
        <time>2023-06-24T11:34:38Z</time>
      </trkpt>
      <trkpt lat="46.432602284476161" lon="8.386185737326741">
        <ele>1836.53</ele>
        <time>2023-06-24T11:34:43Z</time>
      </trkpt>
      <trkpt lat="46.432649809867144" lon="8.385963784530759">
        <ele>1834.74</ele>
        <time>2023-06-24T11:34:55Z</time>
      </trkpt>
      <trkpt lat="46.432667076587677" lon="8.385811652988195">
        <ele>1834.04</ele>
        <time>2023-06-24T11:35:03Z</time>
      </trkpt>
      <trkpt lat="46.43270580098033" lon="8.385701347142458">
        <ele>1832.8</ele>
        <time>2023-06-24T11:35:10Z</time>
      </trkpt>
      <trkpt lat="46.432737652212381" lon="8.385636638849974">
        <ele>1831.6900000000001</ele>
        <time>2023-06-24T11:35:14Z</time>
      </trkpt>
      <trkpt lat="46.432911744341254" lon="8.385384259745479">
        <ele>1828.22</ele>
        <time>2023-06-24T11:35:33Z</time>
      </trkpt>
      <trkpt lat="46.432952815666795" lon="8.385289795696735">
        <ele>1828.21</ele>
        <time>2023-06-24T11:35:39Z</time>
      </trkpt>
      <trkpt lat="46.43291643820703" lon="8.385049737989903">
        <ele>1829.5799999999999</ele>
        <time>2023-06-24T11:35:54Z</time>
      </trkpt>
      <trkpt lat="46.4329042006284" lon="8.384982598945499">
        <ele>1830.3800000000001</ele>
        <time>2023-06-24T11:35:59Z</time>
      </trkpt>
      <trkpt lat="46.43290520645678" lon="8.384939767420292">
        <ele>1830.76</ele>
        <time>2023-06-24T11:36:02Z</time>
      </trkpt>
      <trkpt lat="46.432911157608032" lon="8.384881597012281">
        <ele>1831.3099999999999</ele>
        <time>2023-06-24T11:36:06Z</time>
      </trkpt>
      <trkpt lat="46.432961784303188" lon="8.384787468239665">
        <ele>1832.03</ele>
        <time>2023-06-24T11:36:14Z</time>
      </trkpt>
      <trkpt lat="46.43309136852622" lon="8.384673222899437">
        <ele>1833.1900000000001</ele>
        <time>2023-06-24T11:36:28Z</time>
      </trkpt>
      <trkpt lat="46.433130009099841" lon="8.384615471586585">
        <ele>1833.3900000000001</ele>
        <time>2023-06-24T11:36:34Z</time>
      </trkpt>
      <trkpt lat="46.433180049061775" lon="8.384460993111134">
        <ele>1833.6700000000001</ele>
        <time>2023-06-24T11:36:46Z</time>
      </trkpt>
      <trkpt lat="46.433185078203678" lon="8.384448671713471">
        <ele>1833.6500000000001</ele>
        <time>2023-06-24T11:36:47Z</time>
      </trkpt>
      <trkpt lat="46.433206871151924" lon="8.384380945935845">
        <ele>1834.1300000000001</ele>
        <time>2023-06-24T11:36:52Z</time>
      </trkpt>
      <trkpt lat="46.433191364631057" lon="8.384213140234351">
        <ele>1834.5799999999999</ele>
        <time>2023-06-24T11:37:07Z</time>
      </trkpt>
      <trkpt lat="46.43314216285944" lon="8.384092357009649">
        <ele>1835.48</ele>
        <time>2023-06-24T11:37:23Z</time>
      </trkpt>
      <trkpt lat="46.433156160637736" lon="8.38397903367877">
        <ele>1836.22</ele>
        <time>2023-06-24T11:37:33Z</time>
      </trkpt>
      <trkpt lat="46.433220533654094" lon="8.383798655122519">
        <ele>1838.5899999999999</ele>
        <time>2023-06-24T11:37:50Z</time>
      </trkpt>
      <trkpt lat="46.433245595544577" lon="8.383724810555577">
        <ele>1839.72</ele>
        <time>2023-06-24T11:37:57Z</time>
      </trkpt>
      <trkpt lat="46.433252803981304" lon="8.383696060627699">
        <ele>1839.6600000000001</ele>
        <time>2023-06-24T11:37:59Z</time>
      </trkpt>
      <trkpt lat="46.433289600536227" lon="8.383522303774953">
        <ele>1839.99</ele>
        <time>2023-06-24T11:38:13Z</time>
      </trkpt>
      <trkpt lat="46.433280212804675" lon="8.383301524445415">
        <ele>1842.49</ele>
        <time>2023-06-24T11:38:31Z</time>
      </trkpt>
      <trkpt lat="46.433274345472455" lon="8.383239833638072">
        <ele>1842.6800000000001</ele>
        <time>2023-06-24T11:38:36Z</time>
      </trkpt>
      <trkpt lat="46.433275267481804" lon="8.383061299100518">
        <ele>1844.1600000000001</ele>
        <time>2023-06-24T11:38:48Z</time>
      </trkpt>
      <trkpt lat="46.433288846164942" lon="8.383020982146263">
        <ele>1844.28</ele>
        <time>2023-06-24T11:38:51Z</time>
      </trkpt>
      <trkpt lat="46.433283900842071" lon="8.382916878908873">
        <ele>1844.1300000000001</ele>
        <time>2023-06-24T11:38:59Z</time>
      </trkpt>
      <trkpt lat="46.433283230289817" lon="8.382877903059125">
        <ele>1844.1300000000001</ele>
        <time>2023-06-24T11:39:02Z</time>
      </trkpt>
      <trkpt lat="46.433294042944908" lon="8.382688304409385">
        <ele>1845.49</ele>
        <time>2023-06-24T11:39:16Z</time>
      </trkpt>
      <trkpt lat="46.433284571394324" lon="8.38255469687283">
        <ele>1846.8800000000001</ele>
        <time>2023-06-24T11:39:27Z</time>
      </trkpt>
      <trkpt lat="46.433304520323873" lon="8.382513709366322">
        <ele>1847.25</ele>
        <time>2023-06-24T11:39:39Z</time>
      </trkpt>
      <trkpt lat="46.433312147855759" lon="8.382512954995036">
        <ele>1846.6400000000001</ele>
        <time>2023-06-24T11:40:05Z</time>
      </trkpt>
      <trkpt lat="46.433326313272119" lon="8.382532652467489">
        <ele>1848.6700000000001</ele>
        <time>2023-06-24T11:40:38Z</time>
      </trkpt>
      <trkpt lat="46.433327654376626" lon="8.382520247250795">
        <ele>1849.8299999999999</ele>
        <time>2023-06-24T11:41:25Z</time>
      </trkpt>
      <trkpt lat="46.433319775387645" lon="8.382516140118241">
        <ele>1849.6300000000001</ele>
        <time>2023-06-24T11:42:27Z</time>
      </trkpt>
      <trkpt lat="46.433306615799665" lon="8.382515385746956">
        <ele>1846.9200000000001</ele>
        <time>2023-06-24T11:43:29Z</time>
      </trkpt>
      <trkpt lat="46.433292785659432" lon="8.382508680224419">
        <ele>1847.3399999999999</ele>
        <time>2023-06-24T11:43:52Z</time>
      </trkpt>
      <trkpt lat="46.433310471475124" lon="8.382494766265154">
        <ele>1847.3</ele>
        <time>2023-06-24T11:44:13Z</time>
      </trkpt>
      <trkpt lat="46.433335784822702" lon="8.38251018896699">
        <ele>1847.6300000000001</ele>
        <time>2023-06-24T11:44:36Z</time>
      </trkpt>
      <trkpt lat="46.433339305222034" lon="8.3824198320508">
        <ele>1846.8900000000001</ele>
        <time>2023-06-24T11:44:49Z</time>
      </trkpt>
      <trkpt lat="46.433355649933219" lon="8.382271220907569">
        <ele>1847.25</ele>
        <time>2023-06-24T11:45:02Z</time>
      </trkpt>
      <trkpt lat="46.433278117328882" lon="8.382127303630114">
        <ele>1850.21</ele>
        <time>2023-06-24T11:45:17Z</time>
      </trkpt>
      <trkpt lat="46.433222712948918" lon="8.381967712193728">
        <ele>1853.1600000000001</ele>
        <time>2023-06-24T11:45:34Z</time>
      </trkpt>
      <trkpt lat="46.433217683807015" lon="8.381860172376037">
        <ele>1855.3099999999999</ele>
        <time>2023-06-24T11:45:45Z</time>
      </trkpt>
      <trkpt lat="46.433207374066114" lon="8.38167367503047">
        <ele>1856.47</ele>
        <time>2023-06-24T11:46:01Z</time>
      </trkpt>
      <trkpt lat="46.433227993547916" lon="8.381597567349672">
        <ele>1857.6400000000001</ele>
        <time>2023-06-24T11:46:15Z</time>
      </trkpt>
      <trkpt lat="46.433209469541907" lon="8.38148801587522">
        <ele>1860.27</ele>
        <time>2023-06-24T11:46:33Z</time>
      </trkpt>
      <trkpt lat="46.433196729049087" lon="8.381427833810449">
        <ele>1863.5699999999999</ele>
        <time>2023-06-24T11:46:47Z</time>
      </trkpt>
      <trkpt lat="46.433194046840072" lon="8.381351390853524">
        <ele>1865.3199999999999</ele>
        <time>2023-06-24T11:47:05Z</time>
      </trkpt>
      <trkpt lat="46.433158842846751" lon="8.381312163546681">
        <ele>1866.25</ele>
        <time>2023-06-24T11:47:20Z</time>
      </trkpt>
      <trkpt lat="46.433120789006352" lon="8.381233960390091">
        <ele>1868.6300000000001</ele>
        <time>2023-06-24T11:47:35Z</time>
      </trkpt>
      <trkpt lat="46.433084327727556" lon="8.381165731698275">
        <ele>1870.53</ele>
        <time>2023-06-24T11:47:49Z</time>
      </trkpt>
      <trkpt lat="46.433083489537239" lon="8.381104627624154">
        <ele>1871.98</ele>
        <time>2023-06-24T11:48:03Z</time>
      </trkpt>
      <trkpt lat="46.433048285543919" lon="8.381059197708964">
        <ele>1874.02</ele>
        <time>2023-06-24T11:48:17Z</time>
      </trkpt>
      <trkpt lat="46.43302733078599" lon="8.380987867712975">
        <ele>1875.98</ele>
        <time>2023-06-24T11:48:31Z</time>
      </trkpt>
      <trkpt lat="46.432984918355942" lon="8.380914190784097">
        <ele>1878.4200000000001</ele>
        <time>2023-06-24T11:48:46Z</time>
      </trkpt>
      <trkpt lat="46.432952731847763" lon="8.380832299590111">
        <ele>1880.6800000000001</ele>
        <time>2023-06-24T11:49:00Z</time>
      </trkpt>
      <trkpt lat="46.432929262518883" lon="8.380773877725005">
        <ele>1883.99</ele>
        <time>2023-06-24T11:49:17Z</time>
      </trkpt>
      <trkpt lat="46.432918449863791" lon="8.380704978480935">
        <ele>1885.54</ele>
        <time>2023-06-24T11:49:30Z</time>
      </trkpt>
      <trkpt lat="46.432883078232408" lon="8.380685113370419">
        <ele>1888.3900000000001</ele>
        <time>2023-06-24T11:49:47Z</time>
      </trkpt>
      <trkpt lat="46.432868828997016" lon="8.380650244653225">
        <ele>1889.27</ele>
        <time>2023-06-24T11:50:03Z</time>
      </trkpt>
      <trkpt lat="46.432830691337585" lon="8.380646472796798">
        <ele>1890.76</ele>
        <time>2023-06-24T11:50:19Z</time>
      </trkpt>
      <trkpt lat="46.432806383818388" lon="8.380588889122009">
        <ele>1892.3699999999999</ele>
        <time>2023-06-24T11:50:32Z</time>
      </trkpt>
      <trkpt lat="46.432805126532912" lon="8.380523091182113">
        <ele>1894.73</ele>
        <time>2023-06-24T11:50:45Z</time>
      </trkpt>
      <trkpt lat="46.432825410738587" lon="8.380439020693302">
        <ele>1897.6099999999999</ele>
        <time>2023-06-24T11:50:59Z</time>
      </trkpt>
      <trkpt lat="46.432822644710541" lon="8.38035293854773">
        <ele>1899.5899999999999</ele>
        <time>2023-06-24T11:51:14Z</time>
      </trkpt>
      <trkpt lat="46.432782160118222" lon="8.380298539996147">
        <ele>1901.22</ele>
        <time>2023-06-24T11:51:30Z</time>
      </trkpt>
      <trkpt lat="46.432778472080827" lon="8.380239699035883">
        <ele>1902.46</ele>
        <time>2023-06-24T11:51:47Z</time>
      </trkpt>
      <trkpt lat="46.432779980823398" lon="8.380184629932046">
        <ele>1904.49</ele>
        <time>2023-06-24T11:52:02Z</time>
      </trkpt>
      <trkpt lat="46.432802863419056" lon="8.380137355998159">
        <ele>1906.6600000000001</ele>
        <time>2023-06-24T11:52:15Z</time>
      </trkpt>
      <trkpt lat="46.432782914489508" lon="8.380093267187476">
        <ele>1907.9000000000001</ele>
        <time>2023-06-24T11:52:29Z</time>
      </trkpt>
      <trkpt lat="46.432742681354284" lon="8.380068121477962">
        <ele>1909.3099999999999</ele>
        <time>2023-06-24T11:52:41Z</time>
      </trkpt>
      <trkpt lat="46.432733796536922" lon="8.380012633278966">
        <ele>1910.8399999999999</ele>
        <time>2023-06-24T11:52:54Z</time>
      </trkpt>
      <trkpt lat="46.432697167620063" lon="8.379967454820871">
        <ele>1911.75</ele>
        <time>2023-06-24T11:53:10Z</time>
      </trkpt>
      <trkpt lat="46.432691970840096" lon="8.379972400143743">
        <ele>1912.47</ele>
        <time>2023-06-24T11:53:34Z</time>
      </trkpt>
      <trkpt lat="46.432674787938595" lon="8.379933843389154">
        <ele>1912.79</ele>
        <time>2023-06-24T11:53:55Z</time>
      </trkpt>
      <trkpt lat="46.432618964463472" lon="8.379878522828221">
        <ele>1913.8800000000001</ele>
        <time>2023-06-24T11:54:10Z</time>
      </trkpt>
      <trkpt lat="46.432621227577329" lon="8.379823621362448">
        <ele>1916.4400000000001</ele>
        <time>2023-06-24T11:54:26Z</time>
      </trkpt>
      <trkpt lat="46.432620221748948" lon="8.379776598885655">
        <ele>1918.26</ele>
        <time>2023-06-24T11:54:41Z</time>
      </trkpt>
      <trkpt lat="46.432576719671488" lon="8.379754303023219">
        <ele>1919.96</ele>
        <time>2023-06-24T11:54:54Z</time>
      </trkpt>
      <trkpt lat="46.432595243677497" lon="8.379697138443589">
        <ele>1922.54</ele>
        <time>2023-06-24T11:55:10Z</time>
      </trkpt>
      <trkpt lat="46.43258317373693" lon="8.379649110138416">
        <ele>1924.98</ele>
        <time>2023-06-24T11:55:24Z</time>
      </trkpt>
      <trkpt lat="46.432571355253458" lon="8.379569398239255">
        <ele>1927.54</ele>
        <time>2023-06-24T11:55:39Z</time>
      </trkpt>
      <trkpt lat="46.432558866217732" lon="8.379510808736086">
        <ele>1928.8399999999999</ele>
        <time>2023-06-24T11:55:52Z</time>
      </trkpt>
      <trkpt lat="46.43256364390254" lon="8.37945431470871">
        <ele>1930.28</ele>
        <time>2023-06-24T11:56:04Z</time>
      </trkpt>
      <trkpt lat="46.432547215372324" lon="8.379405532032251">
        <ele>1932.2</ele>
        <time>2023-06-24T11:56:16Z</time>
      </trkpt>
      <trkpt lat="46.432538162916899" lon="8.379350379109383">
        <ele>1933.03</ele>
        <time>2023-06-24T11:56:30Z</time>
      </trkpt>
      <trkpt lat="46.432534558698535" lon="8.379315007477999">
        <ele>1933.77</ele>
        <time>2023-06-24T11:56:43Z</time>
      </trkpt>
      <trkpt lat="46.432529613375664" lon="8.37924912571907">
        <ele>1936.22</ele>
        <time>2023-06-24T11:56:58Z</time>
      </trkpt>
      <trkpt lat="46.432509664446115" lon="8.379163295030594">
        <ele>1938.3800000000001</ele>
        <time>2023-06-24T11:57:12Z</time>
      </trkpt>
      <trkpt lat="46.432478232309222" lon="8.379101771861315">
        <ele>1940.51</ele>
        <time>2023-06-24T11:57:23Z</time>
      </trkpt>
      <trkpt lat="46.432443615049124" lon="8.379035051912069">
        <ele>1942.98</ele>
        <time>2023-06-24T11:57:36Z</time>
      </trkpt>
      <trkpt lat="46.432407237589359" lon="8.378977887332439">
        <ele>1944.6700000000001</ele>
        <time>2023-06-24T11:57:49Z</time>
      </trkpt>
      <trkpt lat="46.432368261739612" lon="8.378931032493711">
        <ele>1947.7</ele>
        <time>2023-06-24T11:58:05Z</time>
      </trkpt>
      <trkpt lat="46.432301374152303" lon="8.378873281180859">
        <ele>1950.47</ele>
        <time>2023-06-24T11:58:25Z</time>
      </trkpt>
      <trkpt lat="46.432346049696207" lon="8.378876801580191">
        <ele>1951.75</ele>
        <time>2023-06-24T11:58:41Z</time>
      </trkpt>
      <trkpt lat="46.432355688884854" lon="8.37887529283762">
        <ele>1952.1800000000001</ele>
        <time>2023-06-24T11:59:13Z</time>
      </trkpt>
      <trkpt lat="46.432338086888194" lon="8.378808405250311">
        <ele>1953.23</ele>
        <time>2023-06-24T11:59:30Z</time>
      </trkpt>
      <trkpt lat="46.432328028604388" lon="8.378757275640965">
        <ele>1954.1600000000001</ele>
        <time>2023-06-24T11:59:46Z</time>
      </trkpt>
      <trkpt lat="46.43230028450489" lon="8.378673121333122">
        <ele>1955.8</ele>
        <time>2023-06-24T12:00:04Z</time>
      </trkpt>
      <trkpt lat="46.432310845702887" lon="8.378626266494393">
        <ele>1956.79</ele>
        <time>2023-06-24T12:00:22Z</time>
      </trkpt>
      <trkpt lat="46.432294333353639" lon="8.378584859892726">
        <ele>1958.2</ele>
        <time>2023-06-24T12:00:40Z</time>
      </trkpt>
      <trkpt lat="46.43227145075798" lon="8.378534484654665">
        <ele>1959.8699999999999</ele>
        <time>2023-06-24T12:00:56Z</time>
      </trkpt>
      <trkpt lat="46.432237001135945" lon="8.378508165478706">
        <ele>1961.3199999999999</ele>
        <time>2023-06-24T12:01:12Z</time>
      </trkpt>
      <trkpt lat="46.432237420231104" lon="8.378438847139478">
        <ele>1963.4200000000001</ele>
        <time>2023-06-24T12:01:32Z</time>
      </trkpt>
      <trkpt lat="46.432228200137615" lon="8.378370450809598">
        <ele>1965.1900000000001</ele>
        <time>2023-06-24T12:01:50Z</time>
      </trkpt>
      <trkpt lat="46.43220741301775" lon="8.378295265138149">
        <ele>1967.0599999999999</ele>
        <time>2023-06-24T12:02:05Z</time>
      </trkpt>
      <trkpt lat="46.432244461029768" lon="8.378300881013274">
        <ele>1968.48</ele>
        <time>2023-06-24T12:02:19Z</time>
      </trkpt>
      <trkpt lat="46.432286119088531" lon="8.378323679789901">
        <ele>1970.3499999999999</ele>
        <time>2023-06-24T12:02:33Z</time>
      </trkpt>
      <trkpt lat="46.432274803519249" lon="8.378235753625631">
        <ele>1972.95</ele>
        <time>2023-06-24T12:02:52Z</time>
      </trkpt>
      <trkpt lat="46.432252088561654" lon="8.378137350082398">
        <ele>1975.7</ele>
        <time>2023-06-24T12:03:08Z</time>
      </trkpt>
      <trkpt lat="46.432260973379016" lon="8.378080353140831">
        <ele>1978.9400000000001</ele>
        <time>2023-06-24T12:03:25Z</time>
      </trkpt>
      <trkpt lat="46.432283688336611" lon="8.378062499687076">
        <ele>1980.0799999999999</ele>
        <time>2023-06-24T12:03:40Z</time>
      </trkpt>
      <trkpt lat="46.432231217622757" lon="8.377965604886413">
        <ele>1982.3099999999999</ele>
        <time>2023-06-24T12:03:55Z</time>
      </trkpt>
      <trkpt lat="46.432177573442459" lon="8.377911122515798">
        <ele>1986.03</ele>
        <time>2023-06-24T12:04:11Z</time>
      </trkpt>
      <trkpt lat="46.43221621401608" lon="8.377869380638003">
        <ele>1987.8199999999999</ele>
        <time>2023-06-24T12:04:27Z</time>
      </trkpt>
      <trkpt lat="46.432187044993043" lon="8.377784220501781">
        <ele>1989.5799999999999</ele>
        <time>2023-06-24T12:04:43Z</time>
      </trkpt>
      <trkpt lat="46.432153098285198" lon="8.377725211903453">
        <ele>1991.7</ele>
        <time>2023-06-24T12:05:00Z</time>
      </trkpt>
      <trkpt lat="46.432109596207738" lon="8.377646086737514">
        <ele>1994.3199999999999</ele>
        <time>2023-06-24T12:05:16Z</time>
      </trkpt>
      <trkpt lat="46.432081935927272" lon="8.377594957128167">
        <ele>1996.8099999999999</ele>
        <time>2023-06-24T12:05:31Z</time>
      </trkpt>
      <trkpt lat="46.432073637843132" lon="8.377567548304796">
        <ele>2034.8699999999999</ele>
        <time>2023-06-24T12:11:19Z</time>
      </trkpt>
      <trkpt lat="46.43205008469522" lon="8.377478364855051">
        <ele>2035.75</ele>
        <time>2023-06-24T12:13:48Z</time>
      </trkpt>
      <trkpt lat="46.432060562074184" lon="8.377404855564237">
        <ele>2039.1400000000001</ele>
        <time>2023-06-24T12:14:01Z</time>
      </trkpt>
      <trkpt lat="46.43204715102911" lon="8.377380464226008">
        <ele>2040.1400000000001</ele>
        <time>2023-06-24T12:14:05Z</time>
      </trkpt>
      <trkpt lat="46.432043211534619" lon="8.377289604395628">
        <ele>2041.6700000000001</ele>
        <time>2023-06-24T12:14:17Z</time>
      </trkpt>
      <trkpt lat="46.432047737762332" lon="8.37720762938261">
        <ele>2043.46</ele>
        <time>2023-06-24T12:14:28Z</time>
      </trkpt>
      <trkpt lat="46.432054443284869" lon="8.377126157283783">
        <ele>2045.53</ele>
        <time>2023-06-24T12:14:44Z</time>
      </trkpt>
      <trkpt lat="46.432049665600061" lon="8.377081649377942">
        <ele>2046.9300000000001</ele>
        <time>2023-06-24T12:14:54Z</time>
      </trkpt>
      <trkpt lat="46.432043965905905" lon="8.377011409029365">
        <ele>2049.8099999999999</ele>
        <time>2023-06-24T12:15:07Z</time>
      </trkpt>
      <trkpt lat="46.432048324495554" lon="8.376953406259418">
        <ele>2050.3600000000001</ele>
        <time>2023-06-24T12:15:20Z</time>
      </trkpt>
      <trkpt lat="46.432047821581364" lon="8.376848045736551">
        <ele>2051.1399999999999</ele>
        <time>2023-06-24T12:15:36Z</time>
      </trkpt>
      <trkpt lat="46.432031895965338" lon="8.376755760982633">
        <ele>2050.21</ele>
        <time>2023-06-24T12:15:51Z</time>
      </trkpt>
      <trkpt lat="46.432028794661164" lon="8.376727346330881">
        <ele>2049.6300000000001</ele>
        <time>2023-06-24T12:16:09Z</time>
      </trkpt>
      <trkpt lat="46.432015299797058" lon="8.376646209508181">
        <ele>2049.27</ele>
        <time>2023-06-24T12:16:24Z</time>
      </trkpt>
      <trkpt lat="46.432017227634788" lon="8.376546716317534">
        <ele>2049.04</ele>
        <time>2023-06-24T12:16:42Z</time>
      </trkpt>
      <trkpt lat="46.431998703628778" lon="8.376488462090492">
        <ele>2050.29</ele>
        <time>2023-06-24T12:16:52Z</time>
      </trkpt>
      <trkpt lat="46.431979592889547" lon="8.376420233398676">
        <ele>2051.75</ele>
        <time>2023-06-24T12:17:05Z</time>
      </trkpt>
      <trkpt lat="46.431963331997395" lon="8.376347059383988">
        <ele>2051.8499999999999</ele>
        <time>2023-06-24T12:17:16Z</time>
      </trkpt>
      <trkpt lat="46.431947825476527" lon="8.376273969188333">
        <ele>2051.3899999999999</ele>
        <time>2023-06-24T12:17:32Z</time>
      </trkpt>
      <trkpt lat="46.431920416653156" lon="8.376175481826067">
        <ele>2052.0700000000002</ele>
        <time>2023-06-24T12:17:47Z</time>
      </trkpt>
      <trkpt lat="46.431914046406746" lon="8.376082610338926">
        <ele>2053.7600000000002</ele>
        <time>2023-06-24T12:18:04Z</time>
      </trkpt>
      <trkpt lat="46.4319181535393" lon="8.376012537628412">
        <ele>2055.0700000000002</ele>
        <time>2023-06-24T12:18:20Z</time>
      </trkpt>
      <trkpt lat="46.431913878768682" lon="8.375901896506548">
        <ele>2058.8400000000001</ele>
        <time>2023-06-24T12:18:39Z</time>
      </trkpt>
      <trkpt lat="46.431875573471189" lon="8.375760829076171">
        <ele>2060.8800000000001</ele>
        <time>2023-06-24T12:18:58Z</time>
      </trkpt>
      <trkpt lat="46.431859480217099" lon="8.375633507966995">
        <ele>2063.6100000000001</ele>
        <time>2023-06-24T12:19:19Z</time>
      </trkpt>
      <trkpt lat="46.431853193789721" lon="8.375525716692209">
        <ele>2064.73</ele>
        <time>2023-06-24T12:19:34Z</time>
      </trkpt>
      <trkpt lat="46.431843973696232" lon="8.375397054478526">
        <ele>2066.8600000000001</ele>
        <time>2023-06-24T12:19:53Z</time>
      </trkpt>
      <trkpt lat="46.431811871007085" lon="8.375244084745646">
        <ele>2070.9899999999998</ele>
        <time>2023-06-24T12:20:17Z</time>
      </trkpt>
      <trkpt lat="46.43180625513196" lon="8.375182058662176">
        <ele>2071.73</ele>
        <time>2023-06-24T12:20:32Z</time>
      </trkpt>
      <trkpt lat="46.431770464405417" lon="8.37504836730659">
        <ele>2073.79</ele>
        <time>2023-06-24T12:20:52Z</time>
      </trkpt>
      <trkpt lat="46.431757304817438" lon="8.374967062845826">
        <ele>2078.5900000000001</ele>
        <time>2023-06-24T12:21:09Z</time>
      </trkpt>
      <trkpt lat="46.43175981938839" lon="8.374885087832809">
        <ele>2084.6100000000001</ele>
        <time>2023-06-24T12:21:26Z</time>
      </trkpt>
      <trkpt lat="46.431756047531962" lon="8.374848710373044">
        <ele>2087.1999999999998</ele>
        <time>2023-06-24T12:21:34Z</time>
      </trkpt>
      <trkpt lat="46.431758562102914" lon="8.374760700389743">
        <ele>2088.4499999999998</ele>
        <time>2023-06-24T12:21:47Z</time>
      </trkpt>
      <trkpt lat="46.431742804124951" lon="8.374697668477893">
        <ele>2090.5</ele>
        <time>2023-06-24T12:21:56Z</time>
      </trkpt>
      <trkpt lat="46.431742804124951" lon="8.374685849994421">
        <ele>2091.5999999999999</ele>
        <time>2023-06-24T12:22:00Z</time>
      </trkpt>
      <trkpt lat="46.431749174371362" lon="8.374629691243172">
        <ele>2095.3800000000001</ele>
        <time>2023-06-24T12:22:11Z</time>
      </trkpt>
      <trkpt lat="46.431718077510595" lon="8.374568335711956">
        <ele>2097.1700000000001</ele>
        <time>2023-06-24T12:22:20Z</time>
      </trkpt>
      <trkpt lat="46.43172025680542" lon="8.374526677653194">
        <ele>2099.4499999999998</ele>
        <time>2023-06-24T12:22:29Z</time>
      </trkpt>
      <trkpt lat="46.431728638708591" lon="8.374483427032828">
        <ele>2103.1300000000001</ele>
        <time>2023-06-24T12:22:41Z</time>
      </trkpt>
      <trkpt lat="46.431722939014435" lon="8.374457526952028">
        <ele>2103.4400000000001</ele>
        <time>2023-06-24T12:22:52Z</time>
      </trkpt>
      <trkpt lat="46.431724615395069" lon="8.374420227482915">
        <ele>2104.21</ele>
        <time>2023-06-24T12:23:01Z</time>
      </trkpt>
      <trkpt lat="46.431720089167356" lon="8.37437747977674">
        <ele>2105.7800000000002</ele>
        <time>2023-06-24T12:23:07Z</time>
      </trkpt>
      <trkpt lat="46.431729812175035" lon="8.374335654079914">
        <ele>2106.9299999999998</ele>
        <time>2023-06-24T12:23:17Z</time>
      </trkpt>
      <trkpt lat="46.431739367544651" lon="8.374269353225827">
        <ele>2108.52</ele>
        <time>2023-06-24T12:23:29Z</time>
      </trkpt>
      <trkpt lat="46.431740121915936" lon="8.374255774542689">
        <ele>2108.98</ele>
        <time>2023-06-24T12:23:31Z</time>
      </trkpt>
      <trkpt lat="46.43175152130425" lon="8.374196933582425">
        <ele>2108.3299999999999</ele>
        <time>2023-06-24T12:23:41Z</time>
      </trkpt>
      <trkpt lat="46.43176375888288" lon="8.374122837558389">
        <ele>2110.8400000000001</ele>
        <time>2023-06-24T12:23:55Z</time>
      </trkpt>
      <trkpt lat="46.431756047531962" lon="8.37404765188694">
        <ele>2112.4200000000001</ele>
        <time>2023-06-24T12:24:07Z</time>
      </trkpt>
      <trkpt lat="46.431744312867522" lon="8.373933825641871">
        <ele>2114.52</ele>
        <time>2023-06-24T12:24:20Z</time>
      </trkpt>
      <trkpt lat="46.431739116087556" lon="8.373880181461573">
        <ele>2115.6100000000001</ele>
        <time>2023-06-24T12:24:27Z</time>
      </trkpt>
      <trkpt lat="46.431762166321278" lon="8.373782197013497">
        <ele>2116.9200000000001</ele>
        <time>2023-06-24T12:24:38Z</time>
      </trkpt>
      <trkpt lat="46.431742552667856" lon="8.373678848147392">
        <ele>2119.4200000000001</ele>
        <time>2023-06-24T12:24:48Z</time>
      </trkpt>
      <trkpt lat="46.431731907650828" lon="8.373598381876946">
        <ele>2122.52</ele>
        <time>2023-06-24T12:25:00Z</time>
      </trkpt>
      <trkpt lat="46.431752862408757" lon="8.373505929484963">
        <ele>2124.0799999999999</ele>
        <time>2023-06-24T12:25:13Z</time>
      </trkpt>
      <trkpt lat="46.43172319047153" lon="8.373366622254252">
        <ele>2124.3200000000002</ele>
        <time>2023-06-24T12:25:26Z</time>
      </trkpt>
      <trkpt lat="46.43166359513998" lon="8.373255981132388">
        <ele>2126.8600000000001</ele>
        <time>2023-06-24T12:25:43Z</time>
      </trkpt>
      <trkpt lat="46.431668037548661" lon="8.373251538723707">
        <ele>2127.3400000000001</ele>
        <time>2023-06-24T12:25:44Z</time>
      </trkpt>
      <trkpt lat="46.431697625666857" lon="8.37320962920785">
        <ele>2130.96</ele>
        <time>2023-06-24T12:25:54Z</time>
      </trkpt>
      <trkpt lat="46.43166795372963" lon="8.373096389696002">
        <ele>2134.3699999999999</ele>
        <time>2023-06-24T12:26:13Z</time>
      </trkpt>
      <trkpt lat="46.431619171053171" lon="8.373029502108693">
        <ele>2137.21</ele>
        <time>2023-06-24T12:26:30Z</time>
      </trkpt>
      <trkpt lat="46.43163082189858" lon="8.372982982546091">
        <ele>2138.79</ele>
        <time>2023-06-24T12:26:39Z</time>
      </trkpt>
      <trkpt lat="46.431660493835807" lon="8.372984826564789">
        <ele>2136.5999999999999</ele>
        <time>2023-06-24T12:27:37Z</time>
      </trkpt>
      <trkpt lat="46.431659823283553" lon="8.372987760230899">
        <ele>2135.71</ele>
        <time>2023-06-24T12:28:00Z</time>
      </trkpt>
      <trkpt lat="46.431669713929296" lon="8.372969403862953">
        <ele>2140.5999999999999</ele>
        <time>2023-06-24T12:28:21Z</time>
      </trkpt>
      <trkpt lat="46.431701984256506" lon="8.372951801866293">
        <ele>2142.6700000000001</ele>
        <time>2023-06-24T12:28:34Z</time>
      </trkpt>
      <trkpt lat="46.431704331189394" lon="8.37289547547698">
        <ele>2144.29</ele>
        <time>2023-06-24T12:28:43Z</time>
      </trkpt>
      <trkpt lat="46.431706342846155" lon="8.372888853773475">
        <ele>2144.5999999999999</ele>
        <time>2023-06-24T12:28:44Z</time>
      </trkpt>
      <trkpt lat="46.431703409180045" lon="8.372832778841257">
        <ele>2147.29</ele>
        <time>2023-06-24T12:28:56Z</time>
      </trkpt>
      <trkpt lat="46.431712210178375" lon="8.372739488258958">
        <ele>2150.8899999999999</ele>
        <time>2023-06-24T12:29:12Z</time>
      </trkpt>
      <trkpt lat="46.431714138016105" lon="8.37264628149569">
        <ele>2153.4099999999999</ele>
        <time>2023-06-24T12:29:26Z</time>
      </trkpt>
      <trkpt lat="46.431701397523284" lon="8.37258324958384">
        <ele>2154.3400000000001</ele>
        <time>2023-06-24T12:29:43Z</time>
      </trkpt>
      <trkpt lat="46.431705504655838" lon="8.372504208236933">
        <ele>2155.6700000000001</ele>
        <time>2023-06-24T12:29:54Z</time>
      </trkpt>
      <trkpt lat="46.431711707264185" lon="8.372361715883017">
        <ele>2159.04</ele>
        <time>2023-06-24T12:30:09Z</time>
      </trkpt>
      <trkpt lat="46.431702738627791" lon="8.372241519391537">
        <ele>2158.6999999999998</ele>
        <time>2023-06-24T12:30:19Z</time>
      </trkpt>
      <trkpt lat="46.431701481342316" lon="8.372107241302729">
        <ele>2158.9400000000001</ele>
        <time>2023-06-24T12:30:32Z</time>
      </trkpt>
      <trkpt lat="46.431700056418777" lon="8.372019482776523">
        <ele>2160.1799999999998</ele>
        <time>2023-06-24T12:30:43Z</time>
      </trkpt>
      <trkpt lat="46.431681532412767" lon="8.371939770877361">
        <ele>2161.9000000000001</ele>
        <time>2023-06-24T12:30:53Z</time>
      </trkpt>
      <trkpt lat="46.4316625893116" lon="8.37182879447937">
        <ele>2163.21</ele>
        <time>2023-06-24T12:31:06Z</time>
      </trkpt>
      <trkpt lat="46.431614058092237" lon="8.371657468378544">
        <ele>2161.2600000000002</ele>
        <time>2023-06-24T12:31:22Z</time>
      </trkpt>
      <trkpt lat="46.431558653712273" lon="8.371513383463025">
        <ele>2161.0300000000002</ele>
        <time>2023-06-24T12:31:38Z</time>
      </trkpt>
      <trkpt lat="46.431558402255177" lon="8.371408525854349">
        <ele>2162.0700000000002</ele>
        <time>2023-06-24T12:31:58Z</time>
      </trkpt>
      <trkpt lat="46.431535016745329" lon="8.371297297999263">
        <ele>2162.0100000000002</ele>
        <time>2023-06-24T12:32:16Z</time>
      </trkpt>
      <trkpt lat="46.431570556014776" lon="8.3712746668607">
        <ele>2162.4299999999998</ele>
        <time>2023-06-24T12:32:32Z</time>
      </trkpt>
      <trkpt lat="46.431560665369034" lon="8.371193027123809">
        <ele>2162.0799999999999</ele>
        <time>2023-06-24T12:32:48Z</time>
      </trkpt>
      <trkpt lat="46.431532083079219" lon="8.371069310232997">
        <ele>2161.8000000000002</ele>
        <time>2023-06-24T12:33:09Z</time>
      </trkpt>
      <trkpt lat="46.431506434455514" lon="8.37095757946372">
        <ele>2163.04</ele>
        <time>2023-06-24T12:33:25Z</time>
      </trkpt>
      <trkpt lat="46.431461842730641" lon="8.370871664956212">
        <ele>2165.0100000000002</ele>
        <time>2023-06-24T12:33:42Z</time>
      </trkpt>
      <trkpt lat="46.431420855224133" lon="8.370742416009307">
        <ele>2165.1599999999999</ele>
        <time>2023-06-24T12:33:59Z</time>
      </trkpt>
      <trkpt lat="46.431396547704935" lon="8.370655914768577">
        <ele>2168.98</ele>
        <time>2023-06-24T12:34:18Z</time>
      </trkpt>
      <trkpt lat="46.431373748928308" lon="8.370570419356227">
        <ele>2172.3499999999999</ele>
        <time>2023-06-24T12:34:36Z</time>
      </trkpt>
      <trkpt lat="46.431337036192417" lon="8.370483834296465">
        <ele>2176.2600000000002</ele>
        <time>2023-06-24T12:34:53Z</time>
      </trkpt>
      <trkpt lat="46.431323457509279" lon="8.370422730222344">
        <ele>2181.5700000000002</ele>
        <time>2023-06-24T12:35:08Z</time>
      </trkpt>
      <trkpt lat="46.431321110576391" lon="8.370366152375937">
        <ele>2182.25</ele>
        <time>2023-06-24T12:35:16Z</time>
      </trkpt>
      <trkpt lat="46.431320188567042" lon="8.370313430204988">
        <ele>2181.8200000000002</ele>
        <time>2023-06-24T12:35:22Z</time>
      </trkpt>
      <trkpt lat="46.431348184123635" lon="8.370267497375608">
        <ele>2183.8800000000001</ele>
        <time>2023-06-24T12:35:34Z</time>
      </trkpt>
      <trkpt lat="46.431344915181398" lon="8.370185270905495">
        <ele>2186.5100000000002</ele>
        <time>2023-06-24T12:35:47Z</time>
      </trkpt>
      <trkpt lat="46.431354470551014" lon="8.370112013071775">
        <ele>2190.9499999999998</ele>
        <time>2023-06-24T12:36:01Z</time>
      </trkpt>
      <trkpt lat="46.431352542713284" lon="8.369977902621031">
        <ele>2192.5900000000001</ele>
        <time>2023-06-24T12:36:19Z</time>
      </trkpt>
      <trkpt lat="46.431312141939998" lon="8.369874553754926">
        <ele>2193.21</ele>
        <time>2023-06-24T12:36:36Z</time>
      </trkpt>
      <trkpt lat="46.431247685104609" lon="8.369816048070788">
        <ele>2194.4000000000001</ele>
        <time>2023-06-24T12:36:49Z</time>
      </trkpt>
      <trkpt lat="46.431230418384075" lon="8.3697550278157">
        <ele>2196.23</ele>
        <time>2023-06-24T12:36:57Z</time>
      </trkpt>
      <trkpt lat="46.431219689548016" lon="8.369730385020375">
        <ele>2196.79</ele>
        <time>2023-06-24T12:36:59Z</time>
      </trkpt>
      <trkpt lat="46.431183312088251" lon="8.369494769722223">
        <ele>2201.4299999999998</ele>
        <time>2023-06-24T12:37:14Z</time>
      </trkpt>
      <trkpt lat="46.431196974590421" lon="8.369322940707207">
        <ele>2207.5300000000002</ele>
        <time>2023-06-24T12:37:27Z</time>
      </trkpt>
      <trkpt lat="46.431190017610788" lon="8.369115320965648">
        <ele>2212.0900000000001</ele>
        <time>2023-06-24T12:37:44Z</time>
      </trkpt>
      <trkpt lat="46.431192280724645" lon="8.369102412834764">
        <ele>2212.0599999999999</ele>
        <time>2023-06-24T12:37:45Z</time>
      </trkpt>
      <trkpt lat="46.431193873286247" lon="8.369087995961309">
        <ele>2211.98</ele>
        <time>2023-06-24T12:37:46Z</time>
      </trkpt>
      <trkpt lat="46.431204434484243" lon="8.368955226615071">
        <ele>2215.3299999999999</ele>
        <time>2023-06-24T12:37:59Z</time>
      </trkpt>
      <trkpt lat="46.43122136592865" lon="8.36884374730289">
        <ele>2218.1300000000001</ele>
        <time>2023-06-24T12:38:12Z</time>
      </trkpt>
      <trkpt lat="46.431245254352689" lon="8.368693962693214">
        <ele>2221.96</ele>
        <time>2023-06-24T12:38:31Z</time>
      </trkpt>
      <trkpt lat="46.431232262402773" lon="8.368606036528945">
        <ele>2223.1399999999999</ele>
        <time>2023-06-24T12:38:47Z</time>
      </trkpt>
      <trkpt lat="46.431190771982074" lon="8.368478966876864">
        <ele>2223.25</ele>
        <time>2023-06-24T12:39:05Z</time>
      </trkpt>
      <trkpt lat="46.431194460019469" lon="8.36834879592061">
        <ele>2223.9400000000001</ele>
        <time>2023-06-24T12:39:26Z</time>
      </trkpt>
      <trkpt lat="46.431172164157033" lon="8.368235724046826">
        <ele>2224.0300000000002</ele>
        <time>2023-06-24T12:39:40Z</time>
      </trkpt>
      <trkpt lat="46.431138720363379" lon="8.368103625252843">
        <ele>2223.4299999999998</ele>
        <time>2023-06-24T12:39:54Z</time>
      </trkpt>
      <trkpt lat="46.431091781705618" lon="8.368049478158355">
        <ele>2223.9699999999998</ele>
        <time>2023-06-24T12:40:32Z</time>
      </trkpt>
      <trkpt lat="46.431106701493263" lon="8.368012430146337">
        <ele>2221.02</ele>
        <time>2023-06-24T12:44:37Z</time>
      </trkpt>
      <trkpt lat="46.431099995970726" lon="8.368027936667204">
        <ele>2223.23</ele>
        <time>2023-06-24T12:51:12Z</time>
      </trkpt>
      <trkpt lat="46.431136541068554" lon="8.367955014109612">
        <ele>2223.5900000000001</ele>
        <time>2023-06-24T12:51:35Z</time>
      </trkpt>
      <trkpt lat="46.431152718141675" lon="8.367794584482908">
        <ele>2224.5999999999999</ele>
        <time>2023-06-24T12:51:51Z</time>
      </trkpt>
      <trkpt lat="46.431133858859539" lon="8.367647062987089">
        <ele>2225.8499999999999</ele>
        <time>2023-06-24T12:52:06Z</time>
      </trkpt>
      <trkpt lat="46.431091362610459" lon="8.367525022476912">
        <ele>2227.0500000000002</ele>
        <time>2023-06-24T12:52:20Z</time>
      </trkpt>
      <trkpt lat="46.43104987218976" lon="8.367387475445867">
        <ele>2228.54</ele>
        <time>2023-06-24T12:52:35Z</time>
      </trkpt>
      <trkpt lat="46.431030677631497" lon="8.367206258699298">
        <ele>2230.8299999999999</ele>
        <time>2023-06-24T12:52:53Z</time>
      </trkpt>
      <trkpt lat="46.430984074249864" lon="8.367046834900975">
        <ele>2232.9899999999998</ele>
        <time>2023-06-24T12:53:11Z</time>
      </trkpt>
      <trkpt lat="46.430949373170733" lon="8.366955975070596">
        <ele>2233.4099999999999</ele>
        <time>2023-06-24T12:53:20Z</time>
      </trkpt>
      <trkpt lat="46.430915426462889" lon="8.366847177967429">
        <ele>2232.8499999999999</ele>
        <time>2023-06-24T12:53:29Z</time>
      </trkpt>
      <trkpt lat="46.430810987949371" lon="8.366724886000156">
        <ele>2231.0599999999999</ele>
        <time>2023-06-24T12:53:44Z</time>
      </trkpt>
      <trkpt lat="46.430770754814148" lon="8.366702925413847">
        <ele>2229.4499999999998</ele>
        <time>2023-06-24T12:53:52Z</time>
      </trkpt>
      <trkpt lat="46.430749548599124" lon="8.366640396416187">
        <ele>2228.9499999999998</ele>
        <time>2023-06-24T12:53:57Z</time>
      </trkpt>
      <trkpt lat="46.430687522515655" lon="8.366539813578129">
        <ele>2228.0999999999999</ele>
        <time>2023-06-24T12:54:11Z</time>
      </trkpt>
      <trkpt lat="46.430629268288612" lon="8.366502178832889">
        <ele>2228.5</ele>
        <time>2023-06-24T12:54:27Z</time>
      </trkpt>
      <trkpt lat="46.430582916364074" lon="8.366481056436896">
        <ele>2229.3099999999999</ele>
        <time>2023-06-24T12:54:45Z</time>
      </trkpt>
      <trkpt lat="46.430502198636532" lon="8.366453647613525">
        <ele>2231.6100000000001</ele>
        <time>2023-06-24T12:55:01Z</time>
      </trkpt>
      <trkpt lat="46.430457523092628" lon="8.366439901292324">
        <ele>2234.6500000000001</ele>
        <time>2023-06-24T12:55:16Z</time>
      </trkpt>
      <trkpt lat="46.43039608374238" lon="8.366429675370455">
        <ele>2236.6300000000001</ele>
        <time>2023-06-24T12:55:32Z</time>
      </trkpt>
      <trkpt lat="46.430362053215504" lon="8.366369912400842">
        <ele>2238.0100000000002</ele>
        <time>2023-06-24T12:55:48Z</time>
      </trkpt>
      <trkpt lat="46.430337578058243" lon="8.366287769749761">
        <ele>2240.5100000000002</ele>
        <time>2023-06-24T12:56:02Z</time>
      </trkpt>
      <trkpt lat="46.430319892242551" lon="8.366191126406193">
        <ele>2241.8699999999999</ele>
        <time>2023-06-24T12:56:17Z</time>
      </trkpt>
      <trkpt lat="46.430268259719014" lon="8.366091465577483">
        <ele>2243.29</ele>
        <time>2023-06-24T12:56:35Z</time>
      </trkpt>
      <trkpt lat="46.430207574740052" lon="8.366084005683661">
        <ele>2244.5599999999999</ele>
        <time>2023-06-24T12:56:48Z</time>
      </trkpt>
      <trkpt lat="46.430142028257251" lon="8.366076461970806">
        <ele>2247.1500000000001</ele>
        <time>2023-06-24T12:57:05Z</time>
      </trkpt>
      <trkpt lat="46.430073883384466" lon="8.366008903831244">
        <ele>2249.4200000000001</ele>
        <time>2023-06-24T12:57:21Z</time>
      </trkpt>
      <trkpt lat="46.430012276396155" lon="8.365991720929742">
        <ele>2251.6700000000001</ele>
        <time>2023-06-24T12:57:35Z</time>
      </trkpt>
      <trkpt lat="46.429939018562436" lon="8.365998761728406">
        <ele>2253.52</ele>
        <time>2023-06-24T12:57:50Z</time>
      </trkpt>
      <trkpt lat="46.429876070469618" lon="8.366018962115049">
        <ele>2255.0799999999999</ele>
        <time>2023-06-24T12:58:06Z</time>
      </trkpt>
      <trkpt lat="46.42980725504458" lon="8.366011837497354">
        <ele>2257.4499999999998</ele>
        <time>2023-06-24T12:58:24Z</time>
      </trkpt>
      <trkpt lat="46.42973349429667" lon="8.366019884124398">
        <ele>2259.8200000000002</ele>
        <time>2023-06-24T12:58:43Z</time>
      </trkpt>
      <trkpt lat="46.429666690528393" lon="8.366011334583163">
        <ele>2263.3400000000001</ele>
        <time>2023-06-24T12:59:00Z</time>
      </trkpt>
      <trkpt lat="46.429600724950433" lon="8.365969844162464">
        <ele>2265.4899999999998</ele>
        <time>2023-06-24T12:59:16Z</time>
      </trkpt>
      <trkpt lat="46.429551020264626" lon="8.365938914939761">
        <ele>2266.8200000000002</ele>
        <time>2023-06-24T12:59:31Z</time>
      </trkpt>
      <trkpt lat="46.429479941725731" lon="8.365943860262632">
        <ele>2269.3200000000002</ele>
        <time>2023-06-24T12:59:47Z</time>
      </trkpt>
      <trkpt lat="46.429430656135082" lon="8.365952912718058">
        <ele>2272.0799999999999</ele>
        <time>2023-06-24T13:00:01Z</time>
      </trkpt>
      <trkpt lat="46.429379191249609" lon="8.365864316001535">
        <ele>2273.3099999999999</ele>
        <time>2023-06-24T13:00:18Z</time>
      </trkpt>
      <trkpt lat="46.429321775212884" lon="8.36578980088234">
        <ele>2276.3899999999999</ele>
        <time>2023-06-24T13:00:33Z</time>
      </trkpt>
      <trkpt lat="46.429259916767478" lon="8.365674298256636">
        <ele>2276.1199999999999</ele>
        <time>2023-06-24T13:00:49Z</time>
      </trkpt>
      <trkpt lat="46.429219599813223" lon="8.365571033209562">
        <ele>2280.25</ele>
        <time>2023-06-24T13:01:03Z</time>
      </trkpt>
      <trkpt lat="46.429159082472324" lon="8.365485034883022">
        <ele>2281.5799999999999</ele>
        <time>2023-06-24T13:01:19Z</time>
      </trkpt>
      <trkpt lat="46.429115161299706" lon="8.365406580269337">
        <ele>2281.7399999999998</ele>
        <time>2023-06-24T13:01:31Z</time>
      </trkpt>
      <trkpt lat="46.429070318117738" lon="8.365284958854318">
        <ele>2282.4099999999999</ele>
        <time>2023-06-24T13:01:47Z</time>
      </trkpt>
      <trkpt lat="46.429053051397204" lon="8.365121930837631">
        <ele>2284.9499999999998</ele>
        <time>2023-06-24T13:02:03Z</time>
      </trkpt>
      <trkpt lat="46.429073587059975" lon="8.365029562264681">
        <ele>2286.9499999999998</ele>
        <time>2023-06-24T13:02:17Z</time>
      </trkpt>
      <trkpt lat="46.429105857387185" lon="8.364960579201579">
        <ele>2287.7800000000002</ele>
        <time>2023-06-24T13:02:32Z</time>
      </trkpt>
      <trkpt lat="46.429048273712397" lon="8.364881370216608">
        <ele>2292.98</ele>
        <time>2023-06-24T13:02:51Z</time>
      </trkpt>
      <trkpt lat="46.428979709744453" lon="8.364843651652336">
        <ele>2296.1599999999999</ele>
        <time>2023-06-24T13:03:07Z</time>
      </trkpt>
      <trkpt lat="46.428941320627928" lon="8.364773243665695">
        <ele>2299.1799999999998</ele>
        <time>2023-06-24T13:03:22Z</time>
      </trkpt>
      <trkpt lat="46.428972836583853" lon="8.364684814587236">
        <ele>2302.5</ele>
        <time>2023-06-24T13:03:38Z</time>
      </trkpt>
      <trkpt lat="46.428941069170833" lon="8.364587919786573">
        <ele>2305</ele>
        <time>2023-06-24T13:03:54Z</time>
      </trkpt>
      <trkpt lat="46.428930340334773" lon="8.364436626434326">
        <ele>2308.1900000000001</ele>
        <time>2023-06-24T13:04:10Z</time>
      </trkpt>
      <trkpt lat="46.428883988410234" lon="8.364275442436338">
        <ele>2307.8299999999999</ele>
        <time>2023-06-24T13:04:25Z</time>
      </trkpt>
      <trkpt lat="46.428797906264663" lon="8.364128423854709">
        <ele>2308.3299999999999</ele>
        <time>2023-06-24T13:04:41Z</time>
      </trkpt>
      <trkpt lat="46.428761696442962" lon="8.363880570977926">
        <ele>2308.2399999999998</ele>
        <time>2023-06-24T13:05:00Z</time>
      </trkpt>
      <trkpt lat="46.428676284849644" lon="8.36356214247644">
        <ele>2308.4099999999999</ele>
        <time>2023-06-24T13:05:21Z</time>
      </trkpt>
      <trkpt lat="46.428654491901398" lon="8.36326458491385">
        <ele>2308.8800000000001</ele>
        <time>2023-06-24T13:05:40Z</time>
      </trkpt>
      <trkpt lat="46.428608307614923" lon="8.363124104216695">
        <ele>2311.3200000000002</ele>
        <time>2023-06-24T13:05:56Z</time>
      </trkpt>
      <trkpt lat="46.428585173562169" lon="8.363026790320873">
        <ele>2314.46</ele>
        <time>2023-06-24T13:06:11Z</time>
      </trkpt>
      <trkpt lat="46.428556926548481" lon="8.362931571900845">
        <ele>2316.8000000000002</ele>
        <time>2023-06-24T13:06:27Z</time>
      </trkpt>
      <trkpt lat="46.428532032296062" lon="8.362849177792668">
        <ele>2319.6199999999999</ele>
        <time>2023-06-24T13:06:43Z</time>
      </trkpt>
      <trkpt lat="46.428505294024944" lon="8.362757563591003">
        <ele>2321.3400000000001</ele>
        <time>2023-06-24T13:06:59Z</time>
      </trkpt>
      <trkpt lat="46.428482076153159" lon="8.362653376534581">
        <ele>2324.1399999999999</ele>
        <time>2023-06-24T13:07:15Z</time>
      </trkpt>
      <trkpt lat="46.428453326225281" lon="8.362538712099195">
        <ele>2327.3400000000001</ele>
        <time>2023-06-24T13:07:36Z</time>
      </trkpt>
      <trkpt lat="46.428414266556501" lon="8.36243930272758">
        <ele>2330.1799999999998</ele>
        <time>2023-06-24T13:07:53Z</time>
      </trkpt>
      <trkpt lat="46.428372357040644" lon="8.362339306622744">
        <ele>2332.9299999999998</ele>
        <time>2023-06-24T13:08:08Z</time>
      </trkpt>
      <trkpt lat="46.428333800286055" lon="8.362253727391362">
        <ele>2334.6300000000001</ele>
        <time>2023-06-24T13:08:23Z</time>
      </trkpt>
      <trkpt lat="46.428286610171199" lon="8.36215297691524">
        <ele>2336.0500000000002</ele>
        <time>2023-06-24T13:08:39Z</time>
      </trkpt>
      <trkpt lat="46.428221482783556" lon="8.36203713901341">
        <ele>2338.4699999999998</ele>
        <time>2023-06-24T13:08:58Z</time>
      </trkpt>
      <trkpt lat="46.428177896887064" lon="8.361945357173681">
        <ele>2340.6300000000001</ele>
        <time>2023-06-24T13:09:13Z</time>
      </trkpt>
      <trkpt lat="46.428149649873376" lon="8.361840415745974">
        <ele>2342.02</ele>
        <time>2023-06-24T13:09:28Z</time>
      </trkpt>
      <trkpt lat="46.428115619346499" lon="8.361749555915594">
        <ele>2345.1999999999998</ele>
        <time>2023-06-24T13:09:44Z</time>
      </trkpt>
      <trkpt lat="46.428086031228304" lon="8.361697336658835">
        <ele>2345.6900000000001</ele>
        <time>2023-06-24T13:09:56Z</time>
      </trkpt>
      <trkpt lat="46.428043451160192" lon="8.361607482656837">
        <ele>2347.6100000000001</ele>
        <time>2023-06-24T13:10:14Z</time>
      </trkpt>
      <trkpt lat="46.427992321550846" lon="8.3615333866328">
        <ele>2348.1700000000001</ele>
        <time>2023-06-24T13:10:31Z</time>
      </trkpt>
      <trkpt lat="46.427937922999263" lon="8.361468175426126">
        <ele>2350.48</ele>
        <time>2023-06-24T13:10:45Z</time>
      </trkpt>
      <trkpt lat="46.427911017090082" lon="8.361359713599086">
        <ele>2353.9400000000001</ele>
        <time>2023-06-24T13:11:01Z</time>
      </trkpt>
      <trkpt lat="46.427890481427312" lon="8.361253011971712">
        <ele>2356.71</ele>
        <time>2023-06-24T13:11:17Z</time>
      </trkpt>
      <trkpt lat="46.427870281040668" lon="8.361153518781066">
        <ele>2358.8299999999999</ele>
        <time>2023-06-24T13:11:38Z</time>
      </trkpt>
      <trkpt lat="46.427854020148516" lon="8.36103742942214">
        <ele>2362.1999999999998</ele>
        <time>2023-06-24T13:11:57Z</time>
      </trkpt>
      <trkpt lat="46.427845219150186" lon="8.360901474952698">
        <ele>2365.6199999999999</ele>
        <time>2023-06-24T13:12:18Z</time>
      </trkpt>
      <trkpt lat="46.427844632416964" lon="8.360765017569065">
        <ele>2368.0799999999999</ele>
        <time>2023-06-24T13:12:34Z</time>
      </trkpt>
      <trkpt lat="46.427833652123809" lon="8.360610455274582">
        <ele>2370.4499999999998</ele>
        <time>2023-06-24T13:12:52Z</time>
      </trkpt>
      <trkpt lat="46.427820241078734" lon="8.36055270396173">
        <ele>2372.5599999999999</ele>
        <time>2023-06-24T13:13:13Z</time>
      </trkpt>
      <trkpt lat="46.427818983793259" lon="8.360550021752715">
        <ele>2373.29</ele>
        <time>2023-06-24T13:15:10Z</time>
      </trkpt>
      <trkpt lat="46.427815044298768" lon="8.360543819144368">
        <ele>2374.1799999999998</ele>
        <time>2023-06-24T13:15:36Z</time>
      </trkpt>
      <trkpt lat="46.427799453958869" lon="8.360510542988777">
        <ele>2374.3499999999999</ele>
        <time>2023-06-24T13:15:51Z</time>
      </trkpt>
      <trkpt lat="46.427789982408285" lon="8.360497131943703">
        <ele>2373.9099999999999</ele>
        <time>2023-06-24T13:16:15Z</time>
      </trkpt>
      <trkpt lat="46.427772967144847" lon="8.360428987070918">
        <ele>2374.5</ele>
        <time>2023-06-24T13:16:33Z</time>
      </trkpt>
      <trkpt lat="46.42773449420929" lon="8.360315747559071">
        <ele>2377</ele>
        <time>2023-06-24T13:16:50Z</time>
      </trkpt>
      <trkpt lat="46.427688058465719" lon="8.36023410782218">
        <ele>2378.9200000000001</ele>
        <time>2023-06-24T13:17:07Z</time>
      </trkpt>
      <trkpt lat="46.427630726248026" lon="8.360153390094638">
        <ele>2380.9299999999998</ele>
        <time>2023-06-24T13:17:24Z</time>
      </trkpt>
      <trkpt lat="46.427568700164557" lon="8.360064374282956">
        <ele>2381.8499999999999</ele>
        <time>2023-06-24T13:17:38Z</time>
      </trkpt>
      <trkpt lat="46.427546991035342" lon="8.359949039295316">
        <ele>2384.3699999999999</ele>
        <time>2023-06-24T13:17:53Z</time>
      </trkpt>
      <trkpt lat="46.427519917488098" lon="8.359825406223536">
        <ele>2387.1900000000001</ele>
        <time>2023-06-24T13:18:10Z</time>
      </trkpt>
      <trkpt lat="46.427465518936515" lon="8.359725829213858">
        <ele>2389.4400000000001</ele>
        <time>2023-06-24T13:18:30Z</time>
      </trkpt>
      <trkpt lat="46.427434170618653" lon="8.359645362943411">
        <ele>2393.23</ele>
        <time>2023-06-24T13:18:45Z</time>
      </trkpt>
      <trkpt lat="46.427376084029675" lon="8.359578726813197">
        <ele>2395.2600000000002</ele>
        <time>2023-06-24T13:19:00Z</time>
      </trkpt>
      <trkpt lat="46.427334006875753" lon="8.359459033235908">
        <ele>2397.2199999999998</ele>
        <time>2023-06-24T13:19:17Z</time>
      </trkpt>
      <trkpt lat="46.42726737074554" lon="8.359314948320389">
        <ele>2399.29</ele>
        <time>2023-06-24T13:19:35Z</time>
      </trkpt>
      <trkpt lat="46.427244655787945" lon="8.359232302755117">
        <ele>2400.27</ele>
        <time>2023-06-24T13:19:44Z</time>
      </trkpt>
      <trkpt lat="46.427213726565242" lon="8.35908972658217">
        <ele>2401.4699999999998</ele>
        <time>2023-06-24T13:19:59Z</time>
      </trkpt>
      <trkpt lat="46.427184725180268" lon="8.358991406857967">
        <ele>2404.0100000000002</ele>
        <time>2023-06-24T13:20:14Z</time>
      </trkpt>
      <trkpt lat="46.427156226709485" lon="8.358869198709726">
        <ele>2406.0599999999999</ele>
        <time>2023-06-24T13:20:29Z</time>
      </trkpt>
      <trkpt lat="46.427132086828351" lon="8.358759982511401">
        <ele>2408.9299999999998</ele>
        <time>2023-06-24T13:20:45Z</time>
      </trkpt>
      <trkpt lat="46.427088752388954" lon="8.358678510412574">
        <ele>2411.2199999999998</ele>
        <time>2023-06-24T13:21:00Z</time>
      </trkpt>
      <trkpt lat="46.427052123472095" lon="8.358590332791209">
        <ele>2414.1900000000001</ele>
        <time>2023-06-24T13:21:14Z</time>
      </trkpt>
      <trkpt lat="46.427000407129526" lon="8.358494779095054">
        <ele>2417.96</ele>
        <time>2023-06-24T13:21:32Z</time>
      </trkpt>
      <trkpt lat="46.426954474300146" lon="8.358406769111753">
        <ele>2420.3800000000001</ele>
        <time>2023-06-24T13:21:45Z</time>
      </trkpt>
      <trkpt lat="46.426929580047727" lon="8.358306773006916">
        <ele>2421.8400000000001</ele>
        <time>2023-06-24T13:21:59Z</time>
      </trkpt>
      <trkpt lat="46.426903763785958" lon="8.358184564858675">
        <ele>2422.8400000000001</ele>
        <time>2023-06-24T13:22:16Z</time>
      </trkpt>
      <trkpt lat="46.426865626126528" lon="8.358054980635643">
        <ele>2424.3400000000001</ele>
        <time>2023-06-24T13:22:35Z</time>
      </trkpt>
      <trkpt lat="46.426836708560586" lon="8.357922295108438">
        <ele>2425.1999999999998</ele>
        <time>2023-06-24T13:22:52Z</time>
      </trkpt>
      <trkpt lat="46.426817430183291" lon="8.35781148634851">
        <ele>2426.7199999999998</ele>
        <time>2023-06-24T13:23:06Z</time>
      </trkpt>
      <trkpt lat="46.426801001653075" lon="8.357697576284409">
        <ele>2429.5799999999999</ele>
        <time>2023-06-24T13:23:21Z</time>
      </trkpt>
      <trkpt lat="46.426759762689471" lon="8.357609817758203">
        <ele>2430.6599999999999</ele>
        <time>2023-06-24T13:23:37Z</time>
      </trkpt>
      <trkpt lat="46.42675238661468" lon="8.357536308467388">
        <ele>2432.3499999999999</ele>
        <time>2023-06-24T13:23:53Z</time>
      </trkpt>
      <trkpt lat="46.426733694970608" lon="8.357425834983587">
        <ele>2434.4000000000001</ele>
        <time>2023-06-24T13:24:09Z</time>
      </trkpt>
      <trkpt lat="46.426732270047069" lon="8.357295328751206">
        <ele>2436.3400000000001</ele>
        <time>2023-06-24T13:24:24Z</time>
      </trkpt>
      <trkpt lat="46.426700754091144" lon="8.357117716223002">
        <ele>2437.4299999999998</ele>
        <time>2023-06-24T13:24:40Z</time>
      </trkpt>
      <trkpt lat="46.426656078547239" lon="8.35687673650682">
        <ele>2437.3699999999999</ele>
        <time>2023-06-24T13:24:59Z</time>
      </trkpt>
      <trkpt lat="46.426622634753585" lon="8.356692250818014">
        <ele>2438.6100000000001</ele>
        <time>2023-06-24T13:25:18Z</time>
      </trkpt>
      <trkpt lat="46.426579635590315" lon="8.356487983837724">
        <ele>2440.6500000000001</ele>
        <time>2023-06-24T13:25:36Z</time>
      </trkpt>
      <trkpt lat="46.426550634205341" lon="8.356285896152258">
        <ele>2442.98</ele>
        <time>2023-06-24T13:25:54Z</time>
      </trkpt>
      <trkpt lat="46.426496990025043" lon="8.356159077957273">
        <ele>2445</ele>
        <time>2023-06-24T13:26:10Z</time>
      </trkpt>
      <trkpt lat="46.426480393856764" lon="8.356028655543923">
        <ele>2447.9899999999998</ele>
        <time>2023-06-24T13:26:28Z</time>
      </trkpt>
      <trkpt lat="46.426460612565279" lon="8.355880547314882">
        <ele>2450.1300000000001</ele>
        <time>2023-06-24T13:26:46Z</time>
      </trkpt>
      <trkpt lat="46.426413422450423" lon="8.355719028040767">
        <ele>2451.5900000000001</ele>
        <time>2023-06-24T13:27:04Z</time>
      </trkpt>
      <trkpt lat="46.426356928423047" lon="8.355534793809056">
        <ele>2452.29</ele>
        <time>2023-06-24T13:27:21Z</time>
      </trkpt>
      <trkpt lat="46.426348462700844" lon="8.355364138260484">
        <ele>2453.5</ele>
        <time>2023-06-24T13:27:37Z</time>
      </trkpt>
      <trkpt lat="46.426300350576639" lon="8.355221226811409">
        <ele>2457.8099999999999</ele>
        <time>2023-06-24T13:27:56Z</time>
      </trkpt>
      <trkpt lat="46.42627595923841" lon="8.355092899873853">
        <ele>2459.6900000000001</ele>
        <time>2023-06-24T13:28:11Z</time>
      </trkpt>
      <trkpt lat="46.426260955631733" lon="8.354986952617765">
        <ele>2460.5500000000002</ele>
        <time>2023-06-24T13:28:24Z</time>
      </trkpt>
      <trkpt lat="46.426215274259448" lon="8.354897014796734">
        <ele>2463.3299999999999</ele>
        <time>2023-06-24T13:28:39Z</time>
      </trkpt>
      <trkpt lat="46.426114272326231" lon="8.354822918772697">
        <ele>2466.0300000000002</ele>
        <time>2023-06-24T13:28:56Z</time>
      </trkpt>
      <trkpt lat="46.42607512883842" lon="8.354807663708925">
        <ele>2467.0599999999999</ele>
        <time>2023-06-24T13:29:02Z</time>
      </trkpt>
      <trkpt lat="46.426047133281827" lon="8.354792660102248">
        <ele>2467.2199999999998</ele>
        <time>2023-06-24T13:29:05Z</time>
      </trkpt>
      <trkpt lat="46.425889721140265" lon="8.354677073657513">
        <ele>2469.3600000000001</ele>
        <time>2023-06-24T13:29:24Z</time>
      </trkpt>
      <trkpt lat="46.425802214071155" lon="8.354483367875218">
        <ele>2470.7800000000002</ele>
        <time>2023-06-24T13:29:41Z</time>
      </trkpt>
      <trkpt lat="46.425734907388687" lon="8.354286896064878">
        <ele>2472.3200000000002</ele>
        <time>2023-06-24T13:29:58Z</time>
      </trkpt>
      <trkpt lat="46.425665840506554" lon="8.354064607992768">
        <ele>2473.1599999999999</ele>
        <time>2023-06-24T13:30:17Z</time>
      </trkpt>
      <trkpt lat="46.425571125000715" lon="8.353905603289604">
        <ele>2473.6300000000001</ele>
        <time>2023-06-24T13:30:38Z</time>
      </trkpt>
      <trkpt lat="46.425508512184024" lon="8.353903340175748">
        <ele>2475.6900000000001</ele>
        <time>2023-06-24T13:31:05Z</time>
      </trkpt>
      <trkpt lat="46.425445564091206" lon="8.353876015171409">
        <ele>2477.0100000000002</ele>
        <time>2023-06-24T13:31:18Z</time>
      </trkpt>
      <trkpt lat="46.425411114469171" lon="8.353801080957055">
        <ele>2477.1700000000001</ele>
        <time>2023-06-24T13:31:34Z</time>
      </trkpt>
      <trkpt lat="46.425341293215752" lon="8.353742910549045">
        <ele>2477.9499999999998</ele>
        <time>2023-06-24T13:31:53Z</time>
      </trkpt>
      <trkpt lat="46.42531924881041" lon="8.353648446500301">
        <ele>2479.1500000000001</ele>
        <time>2023-06-24T13:32:09Z</time>
      </trkpt>
      <trkpt lat="46.425253786146641" lon="8.353552054613829">
        <ele>2480.7600000000002</ele>
        <time>2023-06-24T13:32:26Z</time>
      </trkpt>
      <trkpt lat="46.425181869417429" lon="8.353458512574434">
        <ele>2484.1399999999999</ele>
        <time>2023-06-24T13:32:43Z</time>
      </trkpt>
      <trkpt lat="46.425134595483541" lon="8.353413250297308">
        <ele>2486.1599999999999</ele>
        <time>2023-06-24T13:32:57Z</time>
      </trkpt>
      <trkpt lat="46.4250866509974" lon="8.353359354659915">
        <ele>2488.1999999999998</ele>
        <time>2023-06-24T13:33:13Z</time>
      </trkpt>
      <trkpt lat="46.425042143091559" lon="8.35328970104456">
        <ele>2489.6199999999999</ele>
        <time>2023-06-24T13:33:29Z</time>
      </trkpt>
      <trkpt lat="46.424983805045485" lon="8.35322666913271">
        <ele>2493.1700000000001</ele>
        <time>2023-06-24T13:33:47Z</time>
      </trkpt>
      <trkpt lat="46.424942063167691" lon="8.353164894506335">
        <ele>2496.3400000000001</ele>
        <time>2023-06-24T13:34:02Z</time>
      </trkpt>
      <trkpt lat="46.424888838082552" lon="8.353111417964101">
        <ele>2498.7199999999998</ele>
        <time>2023-06-24T13:34:17Z</time>
      </trkpt>
      <trkpt lat="46.424792865291238" lon="8.353068837895989">
        <ele>2500.0900000000001</ele>
        <time>2023-06-24T13:34:34Z</time>
      </trkpt>
      <trkpt lat="46.424703095108271" lon="8.353021312505007">
        <ele>2502.1100000000001</ele>
        <time>2023-06-24T13:34:52Z</time>
      </trkpt>
      <trkpt lat="46.42463956028223" lon="8.352961968630552">
        <ele>2505.1799999999998</ele>
        <time>2023-06-24T13:35:06Z</time>
      </trkpt>
      <trkpt lat="46.424563871696591" lon="8.352894494310021">
        <ele>2510.54</ele>
        <time>2023-06-24T13:35:25Z</time>
      </trkpt>
      <trkpt lat="46.424509640783072" lon="8.352842191234231">
        <ele>2512.7399999999998</ele>
        <time>2023-06-24T13:35:40Z</time>
      </trkpt>
      <trkpt lat="46.424454320222139" lon="8.352764155715704">
        <ele>2515.04</ele>
        <time>2023-06-24T13:35:55Z</time>
      </trkpt>
      <trkpt lat="46.424402352422476" lon="8.35267405025661">
        <ele>2518.25</ele>
        <time>2023-06-24T13:36:13Z</time>
      </trkpt>
      <trkpt lat="46.424336135387421" lon="8.352623758837581">
        <ele>2517.7600000000002</ele>
        <time>2023-06-24T13:36:30Z</time>
      </trkpt>
      <trkpt lat="46.424286598339677" lon="8.352640019729734">
        <ele>2517.5500000000002</ele>
        <time>2023-06-24T13:36:44Z</time>
      </trkpt>
      <trkpt lat="46.424218369647861" lon="8.352666506543756">
        <ele>2520.0999999999999</ele>
        <time>2023-06-24T13:37:02Z</time>
      </trkpt>
      <trkpt lat="46.424158522859216" lon="8.352677067741752">
        <ele>2522.1199999999999</ele>
        <time>2023-06-24T13:37:16Z</time>
      </trkpt>
      <trkpt lat="46.424117786809802" lon="8.352707158774138">
        <ele>2523.1799999999998</ele>
        <time>2023-06-24T13:37:27Z</time>
      </trkpt>
      <trkpt lat="46.424084426835179" lon="8.352720402181149">
        <ele>2524.1300000000001</ele>
        <time>2023-06-24T13:37:35Z</time>
      </trkpt>
      <trkpt lat="46.42406539991498" lon="8.352758539840579">
        <ele>2525.8800000000001</ele>
        <time>2023-06-24T13:37:49Z</time>
      </trkpt>
      <trkpt lat="46.424025166779757" lon="8.35275074467063">
        <ele>2527.5100000000002</ele>
        <time>2023-06-24T13:37:59Z</time>
      </trkpt>
      <trkpt lat="46.423964230343699" lon="8.352820314466953">
        <ele>2531.5300000000002</ele>
        <time>2023-06-24T13:38:13Z</time>
      </trkpt>
      <trkpt lat="46.423891894519329" lon="8.352772453799844">
        <ele>2532.5799999999999</ele>
        <time>2023-06-24T13:38:27Z</time>
      </trkpt>
      <trkpt lat="46.423892565071583" lon="8.352776141837239">
        <ele>2531.5</ele>
        <time>2023-06-24T13:56:26Z</time>
      </trkpt>
      <trkpt lat="46.423854678869247" lon="8.352896254509687">
        <ele>2533.4699999999998</ele>
        <time>2023-06-24T13:56:41Z</time>
      </trkpt>
      <trkpt lat="46.423762477934361" lon="8.352844957262278">
        <ele>2535.3299999999999</ele>
        <time>2023-06-24T13:56:56Z</time>
      </trkpt>
      <trkpt lat="46.423726519569755" lon="8.352888207882643">
        <ele>2536.9899999999998</ele>
        <time>2023-06-24T13:57:11Z</time>
      </trkpt>
      <trkpt lat="46.423682933673263" lon="8.352798605337739">
        <ele>2538.29</ele>
        <time>2023-06-24T13:57:26Z</time>
      </trkpt>
      <trkpt lat="46.423624930903316" lon="8.352702045813203">
        <ele>2541.1500000000001</ele>
        <time>2023-06-24T13:57:40Z</time>
      </trkpt>
      <trkpt lat="46.423566425219178" lon="8.352566175162792">
        <ele>2540.4400000000001</ele>
        <time>2023-06-24T13:57:57Z</time>
      </trkpt>
      <trkpt lat="46.423480929806828" lon="8.352506998926401">
        <ele>2539.3899999999999</ele>
        <time>2023-06-24T13:58:12Z</time>
      </trkpt>
      <trkpt lat="46.423399792984128" lon="8.352497443556786">
        <ele>2541.54</ele>
        <time>2023-06-24T13:58:25Z</time>
      </trkpt>
      <trkpt lat="46.423344975337386" lon="8.352430304512382">
        <ele>2544.7399999999998</ele>
        <time>2023-06-24T13:58:40Z</time>
      </trkpt>
      <trkpt lat="46.423266939818859" lon="8.35240138694644">
        <ele>2547.3699999999999</ele>
        <time>2023-06-24T13:58:58Z</time>
      </trkpt>
      <trkpt lat="46.423189658671618" lon="8.352399542927742">
        <ele>2549.71</ele>
        <time>2023-06-24T13:59:13Z</time>
      </trkpt>
      <trkpt lat="46.42312235198915" lon="8.352447906509042">
        <ele>2552.3600000000001</ele>
        <time>2023-06-24T13:59:29Z</time>
      </trkpt>
      <trkpt lat="46.423117490485311" lon="8.35260171443224">
        <ele>2554.2600000000002</ele>
        <time>2023-06-24T13:59:47Z</time>
      </trkpt>
      <trkpt lat="46.423091255128384" lon="8.35275367833674">
        <ele>2555.8200000000002</ele>
        <time>2023-06-24T14:00:04Z</time>
      </trkpt>
      <trkpt lat="46.423073736950755" lon="8.352878987789154">
        <ele>2559.3800000000001</ele>
        <time>2023-06-24T14:00:24Z</time>
      </trkpt>
      <trkpt lat="46.422983128577471" lon="8.352906731888652">
        <ele>2560.9200000000001</ele>
        <time>2023-06-24T14:00:40Z</time>
      </trkpt>
      <trkpt lat="46.422918839380145" lon="8.352908408269286">
        <ele>2562.3600000000001</ele>
        <time>2023-06-24T14:00:58Z</time>
      </trkpt>
      <trkpt lat="46.422915905714035" lon="8.353038746863604">
        <ele>2565.1199999999999</ele>
        <time>2023-06-24T14:01:14Z</time>
      </trkpt>
      <trkpt lat="46.422822279855609" lon="8.353007230907679">
        <ele>2568.0500000000002</ele>
        <time>2023-06-24T14:01:32Z</time>
      </trkpt>
      <trkpt lat="46.422756817191839" lon="8.35293447598815">
        <ele>2570.1999999999998</ele>
        <time>2023-06-24T14:01:48Z</time>
      </trkpt>
      <trkpt lat="46.422685906291008" lon="8.352918885648251">
        <ele>2571.1599999999999</ele>
        <time>2023-06-24T14:02:04Z</time>
      </trkpt>
      <trkpt lat="46.422607284039259" lon="8.352863481268287">
        <ele>2572.5300000000002</ele>
        <time>2023-06-24T14:02:21Z</time>
      </trkpt>
      <trkpt lat="46.42254333011806" lon="8.352760383859277">
        <ele>2574.0700000000002</ele>
        <time>2023-06-24T14:02:35Z</time>
      </trkpt>
      <trkpt lat="46.422414081171155" lon="8.352558966726065">
        <ele>2574.5700000000002</ele>
        <time>2023-06-24T14:02:55Z</time>
      </trkpt>
      <trkpt lat="46.422307128086686" lon="8.352438351139426">
        <ele>2577.3299999999999</ele>
        <time>2023-06-24T14:03:13Z</time>
      </trkpt>
      <trkpt lat="46.422222135588527" lon="8.352356879040599">
        <ele>2578.02</ele>
        <time>2023-06-24T14:03:26Z</time>
      </trkpt>
      <trkpt lat="46.422057850286365" lon="8.352345060557127">
        <ele>2577.6799999999998</ele>
        <time>2023-06-24T14:03:43Z</time>
      </trkpt>
      <trkpt lat="46.421883506700397" lon="8.352356040850282">
        <ele>2577.5999999999999</ele>
        <time>2023-06-24T14:04:00Z</time>
      </trkpt>
      <trkpt lat="46.421791892498732" lon="8.352332152426243">
        <ele>2577.04</ele>
        <time>2023-06-24T14:04:18Z</time>
      </trkpt>
      <trkpt lat="46.421794071793556" lon="8.352328296750784">
        <ele>2576.25</ele>
        <time>2023-06-24T14:04:42Z</time>
      </trkpt>
      <trkpt lat="46.421779738739133" lon="8.352328967303038">
        <ele>2576.1700000000001</ele>
        <time>2023-06-24T14:04:52Z</time>
      </trkpt>
      <trkpt lat="46.421714695170522" lon="8.352339947596192">
        <ele>2576.0700000000002</ele>
        <time>2023-06-24T14:04:58Z</time>
      </trkpt>
      <trkpt lat="46.421508248895407" lon="8.352471543475986">
        <ele>2576.23</ele>
        <time>2023-06-24T14:05:18Z</time>
      </trkpt>
      <trkpt lat="46.421267939731479" lon="8.352642869576812">
        <ele>2576.3099999999999</ele>
        <time>2023-06-24T14:05:41Z</time>
      </trkpt>
      <trkpt lat="46.421032659709454" lon="8.352796174585819">
        <ele>2576.48</ele>
        <time>2023-06-24T14:06:03Z</time>
      </trkpt>
      <trkpt lat="46.42076619900763" lon="8.352910587564111">
        <ele>2576.6500000000001</ele>
        <time>2023-06-24T14:06:26Z</time>
      </trkpt>
      <trkpt lat="46.42061029560864" lon="8.353050816804171">
        <ele>2569.1199999999999</ele>
        <time>2023-06-24T14:11:37Z</time>
      </trkpt>
    </trkseg>
  </trk>

</gpx>